<?xml version="1.0" encoding="UTF-8" standalone="no" ?>
<gpx xmlns="http://www.topografix.com/GPX/1/1" xmlns:xsi="http://www.w3.org/2001/XMLSchema-instance" xsi:schemaLocation="http://www.topografix.com/GPX/1/1 http://www.topografix.com/GPX/1/1/gpx.xsd" version="1.1" creator="VisuGPX - https://www.visugpx.com">
  <metadata>
    <name>BKPK Mai2022 - Variante Pierre</name>
  </metadata>
  <trk>
    <name><![CDATA[BKPK 05/22-ETP 3]]></name>
    <extensions>
      <line xmlns="http://www.topografix.com/GPX/gpx_style/0/2">
        <color>00ff11</color>
        <width>4</width>
      </line>
    </extensions>
    <trkseg>
      <trkpt lat="44.98061" lon="-1.20066">
        <ele>9.6</ele>
        <time>2021-05-14T08:13:29Z</time>
      </trkpt>
      <trkpt lat="44.98069" lon="-1.20057">
        <ele>9.6</ele>
        <time>2021-05-14T08:13:27Z</time>
      </trkpt>
      <trkpt lat="44.9808" lon="-1.20052">
        <ele>9.7</ele>
        <time>2021-05-14T08:13:25Z</time>
      </trkpt>
      <trkpt lat="44.98104" lon="-1.20051">
        <ele>10</ele>
        <time>2021-05-14T08:13:21Z</time>
      </trkpt>
      <trkpt lat="44.98133" lon="-1.20044">
        <ele>9.9</ele>
        <time>2021-05-14T08:13:15Z</time>
      </trkpt>
      <trkpt lat="44.98163" lon="-1.20034">
        <ele>9.8</ele>
        <time>2021-05-14T08:13:09Z</time>
      </trkpt>
      <trkpt lat="44.98195" lon="-1.20023">
        <ele>10</ele>
        <time>2021-05-14T08:13:03Z</time>
      </trkpt>
      <trkpt lat="44.98211" lon="-1.20019">
        <ele>10.2</ele>
        <time>2021-05-14T08:13:00Z</time>
      </trkpt>
      <trkpt lat="44.98216" lon="-1.20019">
        <ele>10.3</ele>
        <time>2021-05-14T08:12:59Z</time>
      </trkpt>
      <trkpt lat="44.98222" lon="-1.2002">
        <ele>10.3</ele>
        <time>2021-05-14T08:12:58Z</time>
      </trkpt>
      <trkpt lat="44.98232" lon="-1.20021">
        <ele>10.4</ele>
        <time>2021-05-14T08:12:56Z</time>
      </trkpt>
      <trkpt lat="44.98243" lon="-1.20023">
        <ele>10.6</ele>
        <time>2021-05-14T08:12:54Z</time>
      </trkpt>
      <trkpt lat="44.98253" lon="-1.20026">
        <ele>10.7</ele>
        <time>2021-05-14T08:12:52Z</time>
      </trkpt>
      <trkpt lat="44.98263" lon="-1.20026">
        <ele>10.9</ele>
        <time>2021-05-14T08:12:50Z</time>
      </trkpt>
      <trkpt lat="44.98279" lon="-1.20028">
        <ele>10.9</ele>
        <time>2021-05-14T08:12:46Z</time>
      </trkpt>
      <trkpt lat="44.98286" lon="-1.20014">
        <ele>10.9</ele>
        <time>2021-05-14T08:12:42Z</time>
      </trkpt>
      <trkpt lat="44.9829" lon="-1.20009">
        <ele>10.8</ele>
        <time>2021-05-14T08:12:41Z</time>
      </trkpt>
      <trkpt lat="44.98319" lon="-1.19987">
        <ele>10.5</ele>
        <time>2021-05-14T08:12:35Z</time>
      </trkpt>
      <trkpt lat="44.98345" lon="-1.19974">
        <ele>10.2</ele>
        <time>2021-05-14T08:12:30Z</time>
      </trkpt>
      <trkpt lat="44.98351" lon="-1.19971">
        <ele>10.2</ele>
        <time>2021-05-14T08:12:29Z</time>
      </trkpt>
      <trkpt lat="44.98376" lon="-1.19957">
        <ele>10.1</ele>
        <time>2021-05-14T08:12:25Z</time>
      </trkpt>
      <trkpt lat="44.98418" lon="-1.19935">
        <ele>10.6</ele>
        <time>2021-05-14T08:12:18Z</time>
      </trkpt>
      <trkpt lat="44.98428" lon="-1.19927">
        <ele>10.9</ele>
        <time>2021-05-14T08:12:16Z</time>
      </trkpt>
      <trkpt lat="44.98436" lon="-1.19919">
        <ele>11.1</ele>
        <time>2021-05-14T08:12:14Z</time>
      </trkpt>
      <trkpt lat="44.98441" lon="-1.19904">
        <ele>11.2</ele>
        <time>2021-05-14T08:12:11Z</time>
      </trkpt>
      <trkpt lat="44.98448" lon="-1.199">
        <ele>11.3</ele>
        <time>2021-05-14T08:12:09Z</time>
      </trkpt>
      <trkpt lat="44.9846" lon="-1.19902">
        <ele>11.4</ele>
        <time>2021-05-14T08:12:07Z</time>
      </trkpt>
      <trkpt lat="44.98489" lon="-1.19904">
        <ele>11.9</ele>
        <time>2021-05-14T08:12:03Z</time>
      </trkpt>
      <trkpt lat="44.98497" lon="-1.19905">
        <ele>12.1</ele>
        <time>2021-05-14T08:12:02Z</time>
      </trkpt>
      <trkpt lat="44.9852" lon="-1.19905">
        <ele>13</ele>
        <time>2021-05-14T08:11:59Z</time>
      </trkpt>
      <trkpt lat="44.98535" lon="-1.19906">
        <ele>13.5</ele>
        <time>2021-05-14T08:11:57Z</time>
      </trkpt>
      <trkpt lat="44.98577" lon="-1.19911">
        <ele>15.4</ele>
        <time>2021-05-14T08:11:51Z</time>
      </trkpt>
      <trkpt lat="44.98583" lon="-1.19913">
        <ele>15.7</ele>
        <time>2021-05-14T08:11:50Z</time>
      </trkpt>
      <trkpt lat="44.98595" lon="-1.19915">
        <ele>16.3</ele>
        <time>2021-05-14T08:11:48Z</time>
      </trkpt>
      <trkpt lat="44.98607" lon="-1.19913">
        <ele>16.7</ele>
        <time>2021-05-14T08:11:46Z</time>
      </trkpt>
      <trkpt lat="44.9864" lon="-1.19905">
        <ele>17.7</ele>
        <time>2021-05-14T08:11:40Z</time>
      </trkpt>
      <trkpt lat="44.98671" lon="-1.19897">
        <ele>18.5</ele>
        <time>2021-05-14T08:11:34Z</time>
      </trkpt>
      <trkpt lat="44.98685" lon="-1.19893">
        <ele>18.8</ele>
        <time>2021-05-14T08:11:31Z</time>
      </trkpt>
      <trkpt lat="44.98691" lon="-1.19891">
        <ele>18.9</ele>
        <time>2021-05-14T08:11:30Z</time>
      </trkpt>
      <trkpt lat="44.98696" lon="-1.19889">
        <ele>18.9</ele>
        <time>2021-05-14T08:11:29Z</time>
      </trkpt>
      <trkpt lat="44.98703" lon="-1.19886">
        <ele>19</ele>
        <time>2021-05-14T08:11:27Z</time>
      </trkpt>
      <trkpt lat="44.98733" lon="-1.19873">
        <ele>18.7</ele>
        <time>2021-05-14T08:11:20Z</time>
      </trkpt>
      <trkpt lat="44.9876" lon="-1.19863">
        <ele>18.2</ele>
        <time>2021-05-14T08:11:14Z</time>
      </trkpt>
      <trkpt lat="44.98777" lon="-1.19857">
        <ele>17.7</ele>
        <time>2021-05-14T08:11:10Z</time>
      </trkpt>
      <trkpt lat="44.98781" lon="-1.19855">
        <ele>17.5</ele>
        <time>2021-05-14T08:11:09Z</time>
      </trkpt>
      <trkpt lat="44.98785" lon="-1.19854">
        <ele>17.4</ele>
        <time>2021-05-14T08:11:08Z</time>
      </trkpt>
      <trkpt lat="44.98806" lon="-1.19845">
        <ele>16.5</ele>
        <time>2021-05-14T08:11:03Z</time>
      </trkpt>
      <trkpt lat="44.98825" lon="-1.19838">
        <ele>15.9</ele>
        <time>2021-05-14T08:10:59Z</time>
      </trkpt>
      <trkpt lat="44.98858" lon="-1.19823">
        <ele>15.1</ele>
        <time>2021-05-14T08:10:52Z</time>
      </trkpt>
      <trkpt lat="44.9888" lon="-1.19814">
        <ele>14.7</ele>
        <time>2021-05-14T08:10:48Z</time>
      </trkpt>
      <trkpt lat="44.98901" lon="-1.19804">
        <ele>14.3</ele>
        <time>2021-05-14T08:10:43Z</time>
      </trkpt>
      <trkpt lat="44.98922" lon="-1.19796">
        <ele>13.9</ele>
        <time>2021-05-14T08:10:38Z</time>
      </trkpt>
      <trkpt lat="44.98939" lon="-1.19789">
        <ele>13.5</ele>
        <time>2021-05-14T08:10:34Z</time>
      </trkpt>
      <trkpt lat="44.98956" lon="-1.19783">
        <ele>13.1</ele>
        <time>2021-05-14T08:10:30Z</time>
      </trkpt>
      <trkpt lat="44.98961" lon="-1.19782">
        <ele>13</ele>
        <time>2021-05-14T08:10:29Z</time>
      </trkpt>
      <trkpt lat="44.9897" lon="-1.19778">
        <ele>12.8</ele>
        <time>2021-05-14T08:10:27Z</time>
      </trkpt>
      <trkpt lat="44.98974" lon="-1.19777">
        <ele>12.7</ele>
        <time>2021-05-14T08:10:26Z</time>
      </trkpt>
      <trkpt lat="44.98999" lon="-1.19768">
        <ele>12</ele>
        <time>2021-05-14T08:10:20Z</time>
      </trkpt>
      <trkpt lat="44.99018" lon="-1.19763">
        <ele>11.6</ele>
        <time>2021-05-14T08:10:16Z</time>
      </trkpt>
      <trkpt lat="44.99023" lon="-1.19762">
        <ele>11.5</ele>
        <time>2021-05-14T08:10:15Z</time>
      </trkpt>
      <trkpt lat="44.99042" lon="-1.19759">
        <ele>11.3</ele>
        <time>2021-05-14T08:10:11Z</time>
      </trkpt>
      <trkpt lat="44.99047" lon="-1.19759">
        <ele>11.3</ele>
        <time>2021-05-14T08:10:10Z</time>
      </trkpt>
      <trkpt lat="44.99067" lon="-1.19766">
        <ele>11.1</ele>
        <time>2021-05-14T08:10:05Z</time>
      </trkpt>
      <trkpt lat="44.99086" lon="-1.19777">
        <ele>11</ele>
        <time>2021-05-14T08:10:00Z</time>
      </trkpt>
      <trkpt lat="44.99089" lon="-1.19781">
        <ele>11</ele>
        <time>2021-05-14T08:09:58Z</time>
      </trkpt>
      <trkpt lat="44.99098" lon="-1.19785">
        <ele>11</ele>
        <time>2021-05-14T08:09:53Z</time>
      </trkpt>
      <trkpt lat="44.99117" lon="-1.19789">
        <ele>11</ele>
        <time>2021-05-14T08:09:47Z</time>
      </trkpt>
      <trkpt lat="44.99131" lon="-1.19785">
        <ele>11.1</ele>
        <time>2021-05-14T08:09:41Z</time>
      </trkpt>
      <trkpt lat="44.99133" lon="-1.19785">
        <ele>11.1</ele>
        <time>2021-05-14T08:09:40Z</time>
      </trkpt>
      <trkpt lat="44.99137" lon="-1.19791">
        <ele>11</ele>
        <time>2021-05-14T08:09:37Z</time>
      </trkpt>
      <trkpt lat="44.99139" lon="-1.19795">
        <ele>10.9</ele>
        <time>2021-05-14T08:09:35Z</time>
      </trkpt>
      <trkpt lat="44.99142" lon="-1.198">
        <ele>10.9</ele>
        <time>2021-05-14T08:09:33Z</time>
      </trkpt>
      <trkpt lat="44.99145" lon="-1.19804">
        <ele>10.9</ele>
        <time>2021-05-14T08:09:32Z</time>
      </trkpt>
      <trkpt lat="44.99157" lon="-1.19809">
        <ele>10.8</ele>
        <time>2021-05-14T08:09:29Z</time>
      </trkpt>
      <trkpt lat="44.9917" lon="-1.19812">
        <ele>10.7</ele>
        <time>2021-05-14T08:09:24Z</time>
      </trkpt>
      <trkpt lat="44.99185" lon="-1.19814">
        <ele>10.7</ele>
        <time>2021-05-14T08:09:19Z</time>
      </trkpt>
      <trkpt lat="44.99188" lon="-1.19815">
        <ele>10.7</ele>
        <time>2021-05-14T08:09:18Z</time>
      </trkpt>
      <trkpt lat="44.9919" lon="-1.19819">
        <ele>10.7</ele>
        <time>2021-05-14T08:09:16Z</time>
      </trkpt>
      <trkpt lat="44.9919" lon="-1.19825">
        <ele>10.7</ele>
        <time>2021-05-14T08:09:14Z</time>
      </trkpt>
      <trkpt lat="44.99186" lon="-1.19829">
        <ele>10.7</ele>
        <time>2021-05-14T08:09:12Z</time>
      </trkpt>
      <trkpt lat="44.99176" lon="-1.19836">
        <ele>10.7</ele>
        <time>2021-05-14T08:08:45Z</time>
      </trkpt>
      <trkpt lat="44.99178" lon="-1.19834">
        <ele>10.7</ele>
        <time>2021-05-14T08:08:42Z</time>
      </trkpt>
      <trkpt lat="44.99187" lon="-1.19829">
        <ele>10.7</ele>
        <time>2021-05-14T08:08:37Z</time>
      </trkpt>
      <trkpt lat="44.9919" lon="-1.19827">
        <ele>10.7</ele>
        <time>2021-05-14T08:08:35Z</time>
      </trkpt>
      <trkpt lat="44.9919" lon="-1.19824">
        <ele>10.7</ele>
        <time>2021-05-14T08:08:33Z</time>
      </trkpt>
      <trkpt lat="44.9919" lon="-1.19821">
        <ele>10.7</ele>
        <time>2021-05-14T08:08:32Z</time>
      </trkpt>
      <trkpt lat="44.99182" lon="-1.19814">
        <ele>10.7</ele>
        <time>2021-05-14T08:08:29Z</time>
      </trkpt>
      <trkpt lat="44.99164" lon="-1.19805">
        <ele>10.7</ele>
        <time>2021-05-14T08:08:24Z</time>
      </trkpt>
      <trkpt lat="44.99144" lon="-1.19802">
        <ele>10.9</ele>
        <time>2021-05-14T08:08:20Z</time>
      </trkpt>
      <trkpt lat="44.99139" lon="-1.19801">
        <ele>10.9</ele>
        <time>2021-05-14T08:08:19Z</time>
      </trkpt>
      <trkpt lat="44.99136" lon="-1.19798">
        <ele>10.9</ele>
        <time>2021-05-14T08:08:18Z</time>
      </trkpt>
      <trkpt lat="44.99131" lon="-1.19783">
        <ele>11.1</ele>
        <time>2021-05-14T08:08:15Z</time>
      </trkpt>
      <trkpt lat="44.99107" lon="-1.19761">
        <ele>11.4</ele>
        <time>2021-05-14T08:08:10Z</time>
      </trkpt>
      <trkpt lat="44.99084" lon="-1.19744">
        <ele>12</ele>
        <time>2021-05-14T08:08:05Z</time>
      </trkpt>
      <trkpt lat="44.99074" lon="-1.19738">
        <ele>12.3</ele>
        <time>2021-05-14T08:08:03Z</time>
      </trkpt>
      <trkpt lat="44.9906" lon="-1.19729">
        <ele>12.8</ele>
        <time>2021-05-14T08:08:00Z</time>
      </trkpt>
      <trkpt lat="44.99051" lon="-1.19722">
        <ele>13.1</ele>
        <time>2021-05-14T08:07:58Z</time>
      </trkpt>
      <trkpt lat="44.99041" lon="-1.19716">
        <ele>13.5</ele>
        <time>2021-05-14T08:07:56Z</time>
      </trkpt>
      <trkpt lat="44.99018" lon="-1.19696">
        <ele>15.2</ele>
        <time>2021-05-14T08:07:51Z</time>
      </trkpt>
      <trkpt lat="44.99011" lon="-1.19684">
        <ele>16</ele>
        <time>2021-05-14T08:07:49Z</time>
      </trkpt>
      <trkpt lat="44.9901" lon="-1.19677">
        <ele>16.5</ele>
        <time>2021-05-14T08:07:48Z</time>
      </trkpt>
      <trkpt lat="44.9901" lon="-1.1967">
        <ele>16.9</ele>
        <time>2021-05-14T08:07:47Z</time>
      </trkpt>
      <trkpt lat="44.99011" lon="-1.1965">
        <ele>17.9</ele>
        <time>2021-05-14T08:07:44Z</time>
      </trkpt>
      <trkpt lat="44.99012" lon="-1.19639">
        <ele>18.5</ele>
        <time>2021-05-14T08:07:42Z</time>
      </trkpt>
      <trkpt lat="44.99013" lon="-1.19633">
        <ele>18.7</ele>
        <time>2021-05-14T08:07:40Z</time>
      </trkpt>
      <trkpt lat="44.9902" lon="-1.19625">
        <ele>19.3</ele>
        <time>2021-05-14T08:07:39Z</time>
      </trkpt>
      <trkpt lat="44.99028" lon="-1.19614">
        <ele>19.8</ele>
        <time>2021-05-14T08:07:37Z</time>
      </trkpt>
      <trkpt lat="44.99041" lon="-1.19597">
        <ele>20.5</ele>
        <time>2021-05-14T08:07:34Z</time>
      </trkpt>
      <trkpt lat="44.99059" lon="-1.19576">
        <ele>21.4</ele>
        <time>2021-05-14T08:07:30Z</time>
      </trkpt>
      <trkpt lat="44.99074" lon="-1.19557">
        <ele>22</ele>
        <time>2021-05-14T08:07:26Z</time>
      </trkpt>
      <trkpt lat="44.99078" lon="-1.19553">
        <ele>22</ele>
        <time>2021-05-14T08:07:25Z</time>
      </trkpt>
      <trkpt lat="44.99081" lon="-1.19548">
        <ele>22.1</ele>
        <time>2021-05-14T08:07:24Z</time>
      </trkpt>
      <trkpt lat="44.99088" lon="-1.19538">
        <ele>22.2</ele>
        <time>2021-05-14T08:07:22Z</time>
      </trkpt>
      <trkpt lat="44.99093" lon="-1.19525">
        <ele>22.2</ele>
        <time>2021-05-14T08:07:20Z</time>
      </trkpt>
      <trkpt lat="44.99096" lon="-1.19512">
        <ele>22.3</ele>
        <time>2021-05-14T08:07:18Z</time>
      </trkpt>
      <trkpt lat="44.99101" lon="-1.19498">
        <ele>22.4</ele>
        <time>2021-05-14T08:07:16Z</time>
      </trkpt>
      <trkpt lat="44.99105" lon="-1.19487">
        <ele>22.4</ele>
        <time>2021-05-14T08:07:14Z</time>
      </trkpt>
      <trkpt lat="44.99108" lon="-1.19475">
        <ele>22.5</ele>
        <time>2021-05-14T08:07:12Z</time>
      </trkpt>
      <trkpt lat="44.99125" lon="-1.19453">
        <ele>22.2</ele>
        <time>2021-05-14T08:07:07Z</time>
      </trkpt>
      <trkpt lat="44.99143" lon="-1.19429">
        <ele>22</ele>
        <time>2021-05-14T08:07:02Z</time>
      </trkpt>
      <trkpt lat="44.9915" lon="-1.19421">
        <ele>21.8</ele>
        <time>2021-05-14T08:07:00Z</time>
      </trkpt>
      <trkpt lat="44.99154" lon="-1.19416">
        <ele>21.7</ele>
        <time>2021-05-14T08:06:59Z</time>
      </trkpt>
      <trkpt lat="44.99163" lon="-1.19397">
        <ele>21.3</ele>
        <time>2021-05-14T08:06:54Z</time>
      </trkpt>
      <trkpt lat="44.99169" lon="-1.19382">
        <ele>20.9</ele>
        <time>2021-05-14T08:06:50Z</time>
      </trkpt>
      <trkpt lat="44.99183" lon="-1.19367">
        <ele>19.9</ele>
        <time>2021-05-14T08:06:45Z</time>
      </trkpt>
      <trkpt lat="44.99196" lon="-1.1936">
        <ele>19</ele>
        <time>2021-05-14T08:06:41Z</time>
      </trkpt>
      <trkpt lat="44.99213" lon="-1.19351">
        <ele>17.7</ele>
        <time>2021-05-14T08:06:37Z</time>
      </trkpt>
      <trkpt lat="44.99223" lon="-1.19346">
        <ele>16.9</ele>
        <time>2021-05-14T08:06:33Z</time>
      </trkpt>
      <trkpt lat="44.99238" lon="-1.19338">
        <ele>15.7</ele>
        <time>2021-05-14T08:06:28Z</time>
      </trkpt>
      <trkpt lat="44.99253" lon="-1.1933">
        <ele>14.7</ele>
        <time>2021-05-14T08:06:23Z</time>
      </trkpt>
      <trkpt lat="44.99256" lon="-1.19324">
        <ele>14.4</ele>
        <time>2021-05-14T08:06:21Z</time>
      </trkpt>
      <trkpt lat="44.99258" lon="-1.19318">
        <ele>14.3</ele>
        <time>2021-05-14T08:06:19Z</time>
      </trkpt>
      <trkpt lat="44.9926" lon="-1.19307">
        <ele>14.1</ele>
        <time>2021-05-14T08:06:15Z</time>
      </trkpt>
      <trkpt lat="44.9926" lon="-1.19292">
        <ele>14</ele>
        <time>2021-05-14T08:06:12Z</time>
      </trkpt>
      <trkpt lat="44.99261" lon="-1.19279">
        <ele>14</ele>
        <time>2021-05-14T08:06:10Z</time>
      </trkpt>
      <trkpt lat="44.99261" lon="-1.19271">
        <ele>14</ele>
        <time>2021-05-14T08:06:09Z</time>
      </trkpt>
      <trkpt lat="44.99255" lon="-1.19221">
        <ele>14.3</ele>
        <time>2021-05-14T08:06:03Z</time>
      </trkpt>
      <trkpt lat="44.99252" lon="-1.19175">
        <ele>14.3</ele>
        <time>2021-05-14T08:05:57Z</time>
      </trkpt>
      <trkpt lat="44.99245" lon="-1.19104">
        <ele>14</ele>
        <time>2021-05-14T08:05:49Z</time>
      </trkpt>
      <trkpt lat="44.99243" lon="-1.19086">
        <ele>14</ele>
        <time>2021-05-14T08:05:47Z</time>
      </trkpt>
      <trkpt lat="44.99237" lon="-1.19067">
        <ele>14</ele>
        <time>2021-05-14T08:05:45Z</time>
      </trkpt>
      <trkpt lat="44.99234" lon="-1.1905">
        <ele>14.1</ele>
        <time>2021-05-14T08:05:43Z</time>
      </trkpt>
      <trkpt lat="44.99235" lon="-1.19042">
        <ele>14.2</ele>
        <time>2021-05-14T08:05:42Z</time>
      </trkpt>
      <trkpt lat="44.99239" lon="-1.19036">
        <ele>14.3</ele>
        <time>2021-05-14T08:05:41Z</time>
      </trkpt>
      <trkpt lat="44.99241" lon="-1.19017">
        <ele>14.5</ele>
        <time>2021-05-14T08:05:39Z</time>
      </trkpt>
      <trkpt lat="44.99241" lon="-1.18999">
        <ele>14.9</ele>
        <time>2021-05-14T08:05:37Z</time>
      </trkpt>
      <trkpt lat="44.99241" lon="-1.18991">
        <ele>15.2</ele>
        <time>2021-05-14T08:05:36Z</time>
      </trkpt>
      <trkpt lat="44.9924" lon="-1.18982">
        <ele>15.5</ele>
        <time>2021-05-14T08:05:35Z</time>
      </trkpt>
      <trkpt lat="44.99235" lon="-1.18966">
        <ele>16.1</ele>
        <time>2021-05-14T08:05:33Z</time>
      </trkpt>
      <trkpt lat="44.99225" lon="-1.18933">
        <ele>17.4</ele>
        <time>2021-05-14T08:05:29Z</time>
      </trkpt>
      <trkpt lat="44.99223" lon="-1.18918">
        <ele>17.8</ele>
        <time>2021-05-14T08:05:27Z</time>
      </trkpt>
      <trkpt lat="44.99224" lon="-1.18911">
        <ele>18</ele>
        <time>2021-05-14T08:05:26Z</time>
      </trkpt>
      <trkpt lat="44.99226" lon="-1.18904">
        <ele>18.2</ele>
        <time>2021-05-14T08:05:25Z</time>
      </trkpt>
      <trkpt lat="44.99227" lon="-1.18888">
        <ele>18.3</ele>
        <time>2021-05-14T08:05:23Z</time>
      </trkpt>
      <trkpt lat="44.99229" lon="-1.18872">
        <ele>18.4</ele>
        <time>2021-05-14T08:05:21Z</time>
      </trkpt>
      <trkpt lat="44.9923" lon="-1.18859">
        <ele>18.3</ele>
        <time>2021-05-14T08:05:19Z</time>
      </trkpt>
      <trkpt lat="44.99231" lon="-1.18852">
        <ele>18.3</ele>
        <time>2021-05-14T08:05:18Z</time>
      </trkpt>
      <trkpt lat="44.99229" lon="-1.18838">
        <ele>18.1</ele>
        <time>2021-05-14T08:05:16Z</time>
      </trkpt>
      <trkpt lat="44.99228" lon="-1.18831">
        <ele>18</ele>
        <time>2021-05-14T08:05:15Z</time>
      </trkpt>
      <trkpt lat="44.99228" lon="-1.18823">
        <ele>17.9</ele>
        <time>2021-05-14T08:05:14Z</time>
      </trkpt>
      <trkpt lat="44.99228" lon="-1.18808">
        <ele>17.7</ele>
        <time>2021-05-14T08:05:12Z</time>
      </trkpt>
      <trkpt lat="44.99228" lon="-1.188">
        <ele>17.6</ele>
        <time>2021-05-14T08:05:11Z</time>
      </trkpt>
      <trkpt lat="44.99226" lon="-1.18794">
        <ele>17.5</ele>
        <time>2021-05-14T08:05:10Z</time>
      </trkpt>
      <trkpt lat="44.99228" lon="-1.18788">
        <ele>17.4</ele>
        <time>2021-05-14T08:05:09Z</time>
      </trkpt>
      <trkpt lat="44.99231" lon="-1.18783">
        <ele>17.3</ele>
        <time>2021-05-14T08:05:08Z</time>
      </trkpt>
      <trkpt lat="44.99232" lon="-1.1877">
        <ele>17.2</ele>
        <time>2021-05-14T08:05:06Z</time>
      </trkpt>
      <trkpt lat="44.99232" lon="-1.18763">
        <ele>17.1</ele>
        <time>2021-05-14T08:05:05Z</time>
      </trkpt>
      <trkpt lat="44.99234" lon="-1.18741">
        <ele>16.6</ele>
        <time>2021-05-14T08:05:02Z</time>
      </trkpt>
      <trkpt lat="44.99237" lon="-1.18725">
        <ele>16.3</ele>
        <time>2021-05-14T08:05:00Z</time>
      </trkpt>
      <trkpt lat="44.99241" lon="-1.18707">
        <ele>16</ele>
        <time>2021-05-14T08:04:58Z</time>
      </trkpt>
      <trkpt lat="44.99242" lon="-1.18698">
        <ele>15.9</ele>
        <time>2021-05-14T08:04:57Z</time>
      </trkpt>
      <trkpt lat="44.99242" lon="-1.18688">
        <ele>15.8</ele>
        <time>2021-05-14T08:04:56Z</time>
      </trkpt>
      <trkpt lat="44.99244" lon="-1.1867">
        <ele>15.7</ele>
        <time>2021-05-14T08:04:54Z</time>
      </trkpt>
      <trkpt lat="44.99244" lon="-1.18663">
        <ele>15.7</ele>
        <time>2021-05-14T08:04:53Z</time>
      </trkpt>
      <trkpt lat="44.99246" lon="-1.18648">
        <ele>15.7</ele>
        <time>2021-05-14T08:04:51Z</time>
      </trkpt>
      <trkpt lat="44.99248" lon="-1.18632">
        <ele>15.7</ele>
        <time>2021-05-14T08:04:49Z</time>
      </trkpt>
      <trkpt lat="44.99248" lon="-1.18625">
        <ele>15.7</ele>
        <time>2021-05-14T08:04:48Z</time>
      </trkpt>
      <trkpt lat="44.99252" lon="-1.18598">
        <ele>15.9</ele>
        <time>2021-05-14T08:04:45Z</time>
      </trkpt>
      <trkpt lat="44.99256" lon="-1.18583">
        <ele>16.1</ele>
        <time>2021-05-14T08:04:43Z</time>
      </trkpt>
      <trkpt lat="44.99257" lon="-1.18575">
        <ele>16.2</ele>
        <time>2021-05-14T08:04:42Z</time>
      </trkpt>
      <trkpt lat="44.99258" lon="-1.18566">
        <ele>16.3</ele>
        <time>2021-05-14T08:04:41Z</time>
      </trkpt>
      <trkpt lat="44.99259" lon="-1.18549">
        <ele>16.4</ele>
        <time>2021-05-14T08:04:39Z</time>
      </trkpt>
      <trkpt lat="44.99261" lon="-1.18541">
        <ele>16.5</ele>
        <time>2021-05-14T08:04:38Z</time>
      </trkpt>
      <trkpt lat="44.99268" lon="-1.18529">
        <ele>16.5</ele>
        <time>2021-05-14T08:04:36Z</time>
      </trkpt>
      <trkpt lat="44.99277" lon="-1.18513">
        <ele>16.6</ele>
        <time>2021-05-14T08:04:33Z</time>
      </trkpt>
      <trkpt lat="44.9928" lon="-1.18502">
        <ele>16.7</ele>
        <time>2021-05-14T08:04:31Z</time>
      </trkpt>
      <trkpt lat="44.99284" lon="-1.1849">
        <ele>16.8</ele>
        <time>2021-05-14T08:04:29Z</time>
      </trkpt>
      <trkpt lat="44.99292" lon="-1.18467">
        <ele>17.1</ele>
        <time>2021-05-14T08:04:25Z</time>
      </trkpt>
      <trkpt lat="44.99298" lon="-1.18444">
        <ele>17.6</ele>
        <time>2021-05-14T08:04:21Z</time>
      </trkpt>
      <trkpt lat="44.99307" lon="-1.18426">
        <ele>18</ele>
        <time>2021-05-14T08:04:18Z</time>
      </trkpt>
      <trkpt lat="44.99316" lon="-1.18396">
        <ele>18.5</ele>
        <time>2021-05-14T08:04:12Z</time>
      </trkpt>
      <trkpt lat="44.99326" lon="-1.18375">
        <ele>18.3</ele>
        <time>2021-05-14T08:04:08Z</time>
      </trkpt>
      <trkpt lat="44.99328" lon="-1.18372">
        <ele>18.3</ele>
        <time>2021-05-14T08:04:07Z</time>
      </trkpt>
      <trkpt lat="44.99333" lon="-1.18365">
        <ele>18.1</ele>
        <time>2021-05-14T08:04:05Z</time>
      </trkpt>
      <trkpt lat="44.99351" lon="-1.18345">
        <ele>17.5</ele>
        <time>2021-05-14T08:04:00Z</time>
      </trkpt>
      <trkpt lat="44.99375" lon="-1.1832">
        <ele>17.3</ele>
        <time>2021-05-14T08:03:54Z</time>
      </trkpt>
      <trkpt lat="44.99388" lon="-1.18304">
        <ele>17.4</ele>
        <time>2021-05-14T08:03:50Z</time>
      </trkpt>
      <trkpt lat="44.99397" lon="-1.18292">
        <ele>17.5</ele>
        <time>2021-05-14T08:03:46Z</time>
      </trkpt>
      <trkpt lat="44.994" lon="-1.18286">
        <ele>17.5</ele>
        <time>2021-05-14T08:03:43Z</time>
      </trkpt>
      <trkpt lat="44.99402" lon="-1.18284">
        <ele>17.5</ele>
        <time>2021-05-14T08:03:39Z</time>
      </trkpt>
      <trkpt lat="44.99402" lon="-1.18283">
        <ele>17.5</ele>
        <time>2021-05-14T08:03:19Z</time>
      </trkpt>
      <trkpt lat="44.99404" lon="-1.18281">
        <ele>17.5</ele>
        <time>2021-05-14T08:03:09Z</time>
      </trkpt>
      <trkpt lat="44.99409" lon="-1.18272">
        <ele>17.5</ele>
        <time>2021-05-14T08:03:04Z</time>
      </trkpt>
      <trkpt lat="44.99421" lon="-1.18258">
        <ele>17.6</ele>
        <time>2021-05-14T08:03:00Z</time>
      </trkpt>
      <trkpt lat="44.99436" lon="-1.18232">
        <ele>17.7</ele>
        <time>2021-05-14T08:02:56Z</time>
      </trkpt>
      <trkpt lat="44.99444" lon="-1.18214">
        <ele>17.8</ele>
        <time>2021-05-14T08:02:53Z</time>
      </trkpt>
      <trkpt lat="44.99448" lon="-1.18208">
        <ele>17.8</ele>
        <time>2021-05-14T08:02:52Z</time>
      </trkpt>
      <trkpt lat="44.99451" lon="-1.18202">
        <ele>17.8</ele>
        <time>2021-05-14T08:02:51Z</time>
      </trkpt>
      <trkpt lat="44.99471" lon="-1.18172">
        <ele>18</ele>
        <time>2021-05-14T08:02:47Z</time>
      </trkpt>
      <trkpt lat="44.9948" lon="-1.18158">
        <ele>18.1</ele>
        <time>2021-05-14T08:02:45Z</time>
      </trkpt>
      <trkpt lat="44.99483" lon="-1.18151">
        <ele>18.2</ele>
        <time>2021-05-14T08:02:44Z</time>
      </trkpt>
      <trkpt lat="44.99496" lon="-1.18118">
        <ele>18.3</ele>
        <time>2021-05-14T08:02:39Z</time>
      </trkpt>
      <trkpt lat="44.99523" lon="-1.18083">
        <ele>18.5</ele>
        <time>2021-05-14T08:02:34Z</time>
      </trkpt>
      <trkpt lat="44.9955" lon="-1.18058">
        <ele>18.6</ele>
        <time>2021-05-14T08:02:30Z</time>
      </trkpt>
      <trkpt lat="44.99572" lon="-1.18036">
        <ele>18.6</ele>
        <time>2021-05-14T08:02:26Z</time>
      </trkpt>
      <trkpt lat="44.99591" lon="-1.1802">
        <ele>18.8</ele>
        <time>2021-05-14T08:02:22Z</time>
      </trkpt>
      <trkpt lat="44.99611" lon="-1.18004">
        <ele>19.1</ele>
        <time>2021-05-14T08:02:17Z</time>
      </trkpt>
      <trkpt lat="44.99622" lon="-1.17996">
        <ele>19.2</ele>
        <time>2021-05-14T08:02:13Z</time>
      </trkpt>
      <trkpt lat="44.99637" lon="-1.17985">
        <ele>19.3</ele>
        <time>2021-05-14T08:02:09Z</time>
      </trkpt>
      <trkpt lat="44.99648" lon="-1.17976">
        <ele>19.5</ele>
        <time>2021-05-14T08:02:07Z</time>
      </trkpt>
      <trkpt lat="44.99652" lon="-1.17973">
        <ele>19.6</ele>
        <time>2021-05-14T08:02:06Z</time>
      </trkpt>
      <trkpt lat="44.99656" lon="-1.17964">
        <ele>19.8</ele>
        <time>2021-05-14T08:02:04Z</time>
      </trkpt>
      <trkpt lat="44.99657" lon="-1.17952">
        <ele>20</ele>
        <time>2021-05-14T08:02:02Z</time>
      </trkpt>
      <trkpt lat="44.99659" lon="-1.17946">
        <ele>20.1</ele>
        <time>2021-05-14T08:02:01Z</time>
      </trkpt>
      <trkpt lat="44.99663" lon="-1.17929">
        <ele>20.4</ele>
        <time>2021-05-14T08:01:58Z</time>
      </trkpt>
      <trkpt lat="44.99673" lon="-1.17918">
        <ele>20.4</ele>
        <time>2021-05-14T08:01:55Z</time>
      </trkpt>
      <trkpt lat="44.99685" lon="-1.1792">
        <ele>20.1</ele>
        <time>2021-05-14T08:01:52Z</time>
      </trkpt>
      <trkpt lat="44.99696" lon="-1.17926">
        <ele>19.6</ele>
        <time>2021-05-14T08:01:48Z</time>
      </trkpt>
      <trkpt lat="44.99701" lon="-1.1793">
        <ele>19.4</ele>
        <time>2021-05-14T08:01:46Z</time>
      </trkpt>
      <trkpt lat="44.99703" lon="-1.17931">
        <ele>19.3</ele>
        <time>2021-05-14T08:01:45Z</time>
      </trkpt>
      <trkpt lat="44.99713" lon="-1.1793">
        <ele>19</ele>
        <time>2021-05-14T08:01:42Z</time>
      </trkpt>
      <trkpt lat="44.99717" lon="-1.17927">
        <ele>18.9</ele>
        <time>2021-05-14T08:01:41Z</time>
      </trkpt>
      <trkpt lat="44.99729" lon="-1.17919">
        <ele>18.7</ele>
        <time>2021-05-14T08:01:38Z</time>
      </trkpt>
      <trkpt lat="44.99748" lon="-1.17908">
        <ele>18.3</ele>
        <time>2021-05-14T08:01:34Z</time>
      </trkpt>
      <trkpt lat="44.99761" lon="-1.17899">
        <ele>18.1</ele>
        <time>2021-05-14T08:01:31Z</time>
      </trkpt>
      <trkpt lat="44.99766" lon="-1.17896">
        <ele>18.1</ele>
        <time>2021-05-14T08:01:30Z</time>
      </trkpt>
      <trkpt lat="44.99795" lon="-1.17885">
        <ele>18</ele>
        <time>2021-05-14T08:01:25Z</time>
      </trkpt>
      <trkpt lat="44.99809" lon="-1.17883">
        <ele>18.1</ele>
        <time>2021-05-14T08:01:23Z</time>
      </trkpt>
      <trkpt lat="44.99819" lon="-1.17886">
        <ele>18.2</ele>
        <time>2021-05-14T08:01:21Z</time>
      </trkpt>
      <trkpt lat="44.99831" lon="-1.1789">
        <ele>18.3</ele>
        <time>2021-05-14T08:01:19Z</time>
      </trkpt>
      <trkpt lat="44.99836" lon="-1.17893">
        <ele>18.4</ele>
        <time>2021-05-14T08:01:18Z</time>
      </trkpt>
      <trkpt lat="44.99847" lon="-1.17898">
        <ele>18.6</ele>
        <time>2021-05-14T08:01:16Z</time>
      </trkpt>
      <trkpt lat="44.99863" lon="-1.17905">
        <ele>18.7</ele>
        <time>2021-05-14T08:01:13Z</time>
      </trkpt>
      <trkpt lat="44.99868" lon="-1.17907">
        <ele>18.8</ele>
        <time>2021-05-14T08:01:12Z</time>
      </trkpt>
      <trkpt lat="44.99879" lon="-1.17911">
        <ele>18.9</ele>
        <time>2021-05-14T08:01:10Z</time>
      </trkpt>
      <trkpt lat="44.99884" lon="-1.17913">
        <ele>18.9</ele>
        <time>2021-05-14T08:01:09Z</time>
      </trkpt>
      <trkpt lat="44.99891" lon="-1.17914">
        <ele>18.8</ele>
        <time>2021-05-14T08:01:08Z</time>
      </trkpt>
      <trkpt lat="44.99897" lon="-1.17916">
        <ele>18.8</ele>
        <time>2021-05-14T08:01:07Z</time>
      </trkpt>
      <trkpt lat="44.99909" lon="-1.17915">
        <ele>18.8</ele>
        <time>2021-05-14T08:01:05Z</time>
      </trkpt>
      <trkpt lat="44.99917" lon="-1.17916">
        <ele>18.7</ele>
        <time>2021-05-14T08:01:04Z</time>
      </trkpt>
      <trkpt lat="44.99923" lon="-1.17918">
        <ele>18.7</ele>
        <time>2021-05-14T08:01:03Z</time>
      </trkpt>
      <trkpt lat="44.99936" lon="-1.17927">
        <ele>18.7</ele>
        <time>2021-05-14T08:01:00Z</time>
      </trkpt>
      <trkpt lat="44.99949" lon="-1.17942">
        <ele>18.8</ele>
        <time>2021-05-14T08:00:56Z</time>
      </trkpt>
      <trkpt lat="44.99951" lon="-1.17944">
        <ele>18.8</ele>
        <time>2021-05-14T08:00:55Z</time>
      </trkpt>
      <trkpt lat="44.99955" lon="-1.17947">
        <ele>18.8</ele>
        <time>2021-05-14T08:00:53Z</time>
      </trkpt>
      <trkpt lat="44.99978" lon="-1.1796">
        <ele>18.8</ele>
        <time>2021-05-14T08:00:48Z</time>
      </trkpt>
      <trkpt lat="44.99995" lon="-1.17971">
        <ele>18.6</ele>
        <time>2021-05-14T08:00:44Z</time>
      </trkpt>
      <trkpt lat="45.00016" lon="-1.17984">
        <ele>18.4</ele>
        <time>2021-05-14T08:00:40Z</time>
      </trkpt>
      <trkpt lat="45.00022" lon="-1.17986">
        <ele>18.3</ele>
        <time>2021-05-14T08:00:39Z</time>
      </trkpt>
      <trkpt lat="45.00045" lon="-1.17999">
        <ele>18.1</ele>
        <time>2021-05-14T08:00:35Z</time>
      </trkpt>
      <trkpt lat="45.00056" lon="-1.18006">
        <ele>18.1</ele>
        <time>2021-05-14T08:00:33Z</time>
      </trkpt>
      <trkpt lat="45.00071" lon="-1.18014">
        <ele>18.1</ele>
        <time>2021-05-14T08:00:30Z</time>
      </trkpt>
      <trkpt lat="45.00076" lon="-1.18018">
        <ele>18.1</ele>
        <time>2021-05-14T08:00:29Z</time>
      </trkpt>
      <trkpt lat="45.00086" lon="-1.18023">
        <ele>18.1</ele>
        <time>2021-05-14T08:00:27Z</time>
      </trkpt>
      <trkpt lat="45.00091" lon="-1.18026">
        <ele>18.1</ele>
        <time>2021-05-14T08:00:26Z</time>
      </trkpt>
      <trkpt lat="45.00103" lon="-1.18033">
        <ele>18.1</ele>
        <time>2021-05-14T08:00:24Z</time>
      </trkpt>
      <trkpt lat="45.00115" lon="-1.18041">
        <ele>18.2</ele>
        <time>2021-05-14T08:00:22Z</time>
      </trkpt>
      <trkpt lat="45.00136" lon="-1.18053">
        <ele>18.2</ele>
        <time>2021-05-14T08:00:18Z</time>
      </trkpt>
      <trkpt lat="45.00162" lon="-1.18068">
        <ele>18.3</ele>
        <time>2021-05-14T08:00:13Z</time>
      </trkpt>
      <trkpt lat="45.0019" lon="-1.18083">
        <ele>18.3</ele>
        <time>2021-05-14T08:00:08Z</time>
      </trkpt>
      <trkpt lat="45.00217" lon="-1.18094">
        <ele>18.5</ele>
        <time>2021-05-14T08:00:03Z</time>
      </trkpt>
      <trkpt lat="45.00243" lon="-1.18111">
        <ele>18.8</ele>
        <time>2021-05-14T07:59:58Z</time>
      </trkpt>
      <trkpt lat="45.00248" lon="-1.18114">
        <ele>18.9</ele>
        <time>2021-05-14T07:59:57Z</time>
      </trkpt>
      <trkpt lat="45.00259" lon="-1.18123">
        <ele>19.1</ele>
        <time>2021-05-14T07:59:54Z</time>
      </trkpt>
      <trkpt lat="45.00265" lon="-1.18129">
        <ele>19.2</ele>
        <time>2021-05-14T07:59:52Z</time>
      </trkpt>
      <trkpt lat="45.00268" lon="-1.18132">
        <ele>19.2</ele>
        <time>2021-05-14T07:59:51Z</time>
      </trkpt>
      <trkpt lat="45.00283" lon="-1.18137">
        <ele>18.9</ele>
        <time>2021-05-14T07:59:47Z</time>
      </trkpt>
      <trkpt lat="45.00296" lon="-1.1815">
        <ele>18.6</ele>
        <time>2021-05-14T07:59:43Z</time>
      </trkpt>
      <trkpt lat="45.00304" lon="-1.18164">
        <ele>18.4</ele>
        <time>2021-05-14T07:59:40Z</time>
      </trkpt>
      <trkpt lat="45.0031" lon="-1.18183">
        <ele>18.3</ele>
        <time>2021-05-14T07:59:36Z</time>
      </trkpt>
      <trkpt lat="45.00311" lon="-1.18186">
        <ele>18.3</ele>
        <time>2021-05-14T07:59:35Z</time>
      </trkpt>
      <trkpt lat="45.00317" lon="-1.18203">
        <ele>18.4</ele>
        <time>2021-05-14T07:59:31Z</time>
      </trkpt>
      <trkpt lat="45.0032" lon="-1.18209">
        <ele>18.4</ele>
        <time>2021-05-14T07:59:29Z</time>
      </trkpt>
      <trkpt lat="45.00321" lon="-1.18211">
        <ele>18.4</ele>
        <time>2021-05-14T07:58:19Z</time>
      </trkpt>
      <trkpt lat="45.00323" lon="-1.18215">
        <ele>18.4</ele>
        <time>2021-05-14T07:58:13Z</time>
      </trkpt>
      <trkpt lat="45.00323" lon="-1.18217">
        <ele>18.4</ele>
        <time>2021-05-14T07:58:12Z</time>
      </trkpt>
      <trkpt lat="45.00325" lon="-1.18223">
        <ele>18.4</ele>
        <time>2021-05-14T07:58:07Z</time>
      </trkpt>
      <trkpt lat="45.00329" lon="-1.1823">
        <ele>18.5</ele>
        <time>2021-05-14T07:58:04Z</time>
      </trkpt>
      <trkpt lat="45.00329" lon="-1.18231">
        <ele>18.6</ele>
        <time>2021-05-14T07:58:03Z</time>
      </trkpt>
      <trkpt lat="45.00331" lon="-1.18233">
        <ele>18.6</ele>
        <time>2021-05-14T07:57:59Z</time>
      </trkpt>
      <trkpt lat="45.00337" lon="-1.18235">
        <ele>18.7</ele>
        <time>2021-05-14T07:57:56Z</time>
      </trkpt>
      <trkpt lat="45.00339" lon="-1.18239">
        <ele>18.7</ele>
        <time>2021-05-14T07:57:54Z</time>
      </trkpt>
      <trkpt lat="45.00343" lon="-1.18244">
        <ele>18.8</ele>
        <time>2021-05-14T07:57:51Z</time>
      </trkpt>
      <trkpt lat="45.00346" lon="-1.18247">
        <ele>18.8</ele>
        <time>2021-05-14T07:57:49Z</time>
      </trkpt>
      <trkpt lat="45.00346" lon="-1.18248">
        <ele>18.8</ele>
        <time>2021-05-14T07:57:47Z</time>
      </trkpt>
      <trkpt lat="45.00346" lon="-1.18252">
        <ele>18.8</ele>
        <time>2021-05-14T07:56:28Z</time>
      </trkpt>
      <trkpt lat="45.00348" lon="-1.18253">
        <ele>18.8</ele>
        <time>2021-05-14T07:56:20Z</time>
      </trkpt>
      <trkpt lat="45.0035" lon="-1.1825">
        <ele>18.8</ele>
        <time>2021-05-14T07:56:16Z</time>
      </trkpt>
      <trkpt lat="45.00371" lon="-1.18255">
        <ele>18.8</ele>
        <time>2021-05-23T09:50:07Z</time>
      </trkpt>
      <trkpt lat="45.00377" lon="-1.18258">
        <ele>18.9</ele>
        <time>2021-05-23T09:50:09Z</time>
      </trkpt>
      <trkpt lat="45.00383" lon="-1.1826">
        <ele>18.9</ele>
        <time>2021-05-23T09:50:11Z</time>
      </trkpt>
      <trkpt lat="45.00386" lon="-1.18258">
        <ele>18.9</ele>
        <time>2021-05-23T09:50:12Z</time>
      </trkpt>
      <trkpt lat="45.00391" lon="-1.18256">
        <ele>18.8</ele>
        <time>2021-05-23T09:50:13Z</time>
      </trkpt>
      <trkpt lat="45.00399" lon="-1.18253">
        <ele>18.5</ele>
        <time>2021-05-23T09:50:15Z</time>
      </trkpt>
      <trkpt lat="45.00406" lon="-1.18251">
        <ele>18.2</ele>
        <time>2021-05-23T09:50:17Z</time>
      </trkpt>
      <trkpt lat="45.00415" lon="-1.18254">
        <ele>17.7</ele>
        <time>2021-05-23T09:50:19Z</time>
      </trkpt>
      <trkpt lat="45.00419" lon="-1.18256">
        <ele>17.4</ele>
        <time>2021-05-23T09:50:20Z</time>
      </trkpt>
      <trkpt lat="45.00424" lon="-1.18259">
        <ele>17.2</ele>
        <time>2021-05-23T09:50:21Z</time>
      </trkpt>
      <trkpt lat="45.00429" lon="-1.1826">
        <ele>17</ele>
        <time>2021-05-23T09:50:22Z</time>
      </trkpt>
      <trkpt lat="45.00434" lon="-1.18259">
        <ele>16.9</ele>
        <time>2021-05-23T09:50:23Z</time>
      </trkpt>
      <trkpt lat="45.0044" lon="-1.18257">
        <ele>16.8</ele>
        <time>2021-05-23T09:50:24Z</time>
      </trkpt>
      <trkpt lat="45.00445" lon="-1.18253">
        <ele>16.8</ele>
        <time>2021-05-23T09:50:25Z</time>
      </trkpt>
      <trkpt lat="45.00457" lon="-1.18246">
        <ele>16.7</ele>
        <time>2021-05-23T09:50:27Z</time>
      </trkpt>
      <trkpt lat="45.00466" lon="-1.18236">
        <ele>16.7</ele>
        <time>2021-05-23T09:50:29Z</time>
      </trkpt>
      <trkpt lat="45.00472" lon="-1.18224">
        <ele>16.7</ele>
        <time>2021-05-23T09:50:31Z</time>
      </trkpt>
      <trkpt lat="45.00475" lon="-1.18217">
        <ele>16.7</ele>
        <time>2021-05-23T09:50:32Z</time>
      </trkpt>
      <trkpt lat="45.00477" lon="-1.18208">
        <ele>16.7</ele>
        <time>2021-05-23T09:50:33Z</time>
      </trkpt>
      <trkpt lat="45.00478" lon="-1.18193">
        <ele>16.8</ele>
        <time>2021-05-23T09:50:35Z</time>
      </trkpt>
      <trkpt lat="45.00474" lon="-1.1818">
        <ele>17</ele>
        <time>2021-05-23T09:50:37Z</time>
      </trkpt>
      <trkpt lat="45.00467" lon="-1.18173">
        <ele>17</ele>
        <time>2021-05-23T09:50:39Z</time>
      </trkpt>
      <trkpt lat="45.00462" lon="-1.18171">
        <ele>17.1</ele>
        <time>2021-05-23T09:50:40Z</time>
      </trkpt>
      <trkpt lat="45.00459" lon="-1.18171">
        <ele>17.1</ele>
        <time>2021-05-23T09:50:41Z</time>
      </trkpt>
      <trkpt lat="45.00454" lon="-1.18169">
        <ele>17.2</ele>
        <time>2021-05-23T09:50:42Z</time>
      </trkpt>
      <trkpt lat="45.00449" lon="-1.18165">
        <ele>17.2</ele>
        <time>2021-05-23T09:50:43Z</time>
      </trkpt>
      <trkpt lat="45.00445" lon="-1.18159">
        <ele>17.3</ele>
        <time>2021-05-23T09:50:44Z</time>
      </trkpt>
      <trkpt lat="45.00442" lon="-1.18152">
        <ele>17.3</ele>
        <time>2021-05-23T09:50:45Z</time>
      </trkpt>
      <trkpt lat="45.00441" lon="-1.18145">
        <ele>17.3</ele>
        <time>2021-05-23T09:50:46Z</time>
      </trkpt>
      <trkpt lat="45.00441" lon="-1.18137">
        <ele>17.4</ele>
        <time>2021-05-23T09:50:47Z</time>
      </trkpt>
      <trkpt lat="45.00443" lon="-1.18129">
        <ele>17.4</ele>
        <time>2021-05-23T09:50:48Z</time>
      </trkpt>
      <trkpt lat="45.00445" lon="-1.18122">
        <ele>17.5</ele>
        <time>2021-05-23T09:50:49Z</time>
      </trkpt>
      <trkpt lat="45.00449" lon="-1.18115">
        <ele>17.5</ele>
        <time>2021-05-23T09:50:50Z</time>
      </trkpt>
      <trkpt lat="45.00452" lon="-1.1811">
        <ele>17.5</ele>
        <time>2021-05-23T09:50:51Z</time>
      </trkpt>
      <trkpt lat="45.00459" lon="-1.18102">
        <ele>17.5</ele>
        <time>2021-05-23T09:50:53Z</time>
      </trkpt>
      <trkpt lat="45.00464" lon="-1.18095">
        <ele>17.5</ele>
        <time>2021-05-23T09:50:55Z</time>
      </trkpt>
      <trkpt lat="45.00472" lon="-1.18086">
        <ele>17.6</ele>
        <time>2021-05-23T09:50:57Z</time>
      </trkpt>
      <trkpt lat="45.0048" lon="-1.18074">
        <ele>17.6</ele>
        <time>2021-05-23T09:50:59Z</time>
      </trkpt>
      <trkpt lat="45.00488" lon="-1.18063">
        <ele>17.7</ele>
        <time>2021-05-23T09:51:01Z</time>
      </trkpt>
      <trkpt lat="45.00497" lon="-1.18052">
        <ele>17.8</ele>
        <time>2021-05-23T09:51:03Z</time>
      </trkpt>
      <trkpt lat="45.00501" lon="-1.18046">
        <ele>17.9</ele>
        <time>2021-05-23T09:51:04Z</time>
      </trkpt>
      <trkpt lat="45.00505" lon="-1.1804">
        <ele>18</ele>
        <time>2021-05-23T09:51:05Z</time>
      </trkpt>
      <trkpt lat="45.00515" lon="-1.18029">
        <ele>18.1</ele>
        <time>2021-05-23T09:51:07Z</time>
      </trkpt>
      <trkpt lat="45.00519" lon="-1.18023">
        <ele>18.2</ele>
        <time>2021-05-23T09:51:08Z</time>
      </trkpt>
      <trkpt lat="45.00524" lon="-1.18017">
        <ele>18.3</ele>
        <time>2021-05-23T09:51:09Z</time>
      </trkpt>
      <trkpt lat="45.00533" lon="-1.18006">
        <ele>18.4</ele>
        <time>2021-05-23T09:51:11Z</time>
      </trkpt>
      <trkpt lat="45.00542" lon="-1.17994">
        <ele>18.6</ele>
        <time>2021-05-23T09:51:13Z</time>
      </trkpt>
      <trkpt lat="45.00551" lon="-1.17983">
        <ele>18.7</ele>
        <time>2021-05-23T09:51:15Z</time>
      </trkpt>
      <trkpt lat="45.0056" lon="-1.17971">
        <ele>18.8</ele>
        <time>2021-05-23T09:51:17Z</time>
      </trkpt>
      <trkpt lat="45.00564" lon="-1.17966">
        <ele>18.9</ele>
        <time>2021-05-23T09:51:18Z</time>
      </trkpt>
      <trkpt lat="45.00567" lon="-1.1796">
        <ele>19</ele>
        <time>2021-05-23T09:51:19Z</time>
      </trkpt>
      <trkpt lat="45.00571" lon="-1.17954">
        <ele>19</ele>
        <time>2021-05-23T09:51:20Z</time>
      </trkpt>
      <trkpt lat="45.00575" lon="-1.17947">
        <ele>19.1</ele>
        <time>2021-05-23T09:51:21Z</time>
      </trkpt>
      <trkpt lat="45.00584" lon="-1.17934">
        <ele>19.4</ele>
        <time>2021-05-23T09:51:23Z</time>
      </trkpt>
      <trkpt lat="45.00593" lon="-1.17922">
        <ele>19.6</ele>
        <time>2021-05-23T09:51:25Z</time>
      </trkpt>
      <trkpt lat="45.00602" lon="-1.17909">
        <ele>19.8</ele>
        <time>2021-05-23T09:51:27Z</time>
      </trkpt>
      <trkpt lat="45.00611" lon="-1.17896">
        <ele>20</ele>
        <time>2021-05-23T09:51:29Z</time>
      </trkpt>
      <trkpt lat="45.00621" lon="-1.17884">
        <ele>20.1</ele>
        <time>2021-05-23T09:51:31Z</time>
      </trkpt>
      <trkpt lat="45.00629" lon="-1.17871">
        <ele>20.2</ele>
        <time>2021-05-23T09:51:33Z</time>
      </trkpt>
      <trkpt lat="45.00637" lon="-1.17857">
        <ele>20.2</ele>
        <time>2021-05-23T09:51:35Z</time>
      </trkpt>
      <trkpt lat="45.0064" lon="-1.17851">
        <ele>20.3</ele>
        <time>2021-05-23T09:51:36Z</time>
      </trkpt>
      <trkpt lat="45.00643" lon="-1.17843">
        <ele>20.3</ele>
        <time>2021-05-23T09:51:37Z</time>
      </trkpt>
      <trkpt lat="45.00652" lon="-1.17828">
        <ele>20.4</ele>
        <time>2021-05-23T09:51:39Z</time>
      </trkpt>
      <trkpt lat="45.00656" lon="-1.1782">
        <ele>20.4</ele>
        <time>2021-05-23T09:51:40Z</time>
      </trkpt>
      <trkpt lat="45.00659" lon="-1.17812">
        <ele>20.3</ele>
        <time>2021-05-23T09:51:41Z</time>
      </trkpt>
      <trkpt lat="45.00666" lon="-1.17796">
        <ele>20.3</ele>
        <time>2021-05-23T09:51:43Z</time>
      </trkpt>
      <trkpt lat="45.00673" lon="-1.1778">
        <ele>20.3</ele>
        <time>2021-05-23T09:51:45Z</time>
      </trkpt>
      <trkpt lat="45.00676" lon="-1.17773">
        <ele>20.2</ele>
        <time>2021-05-23T09:51:46Z</time>
      </trkpt>
      <trkpt lat="45.00677" lon="-1.17764">
        <ele>20.2</ele>
        <time>2021-05-23T09:51:47Z</time>
      </trkpt>
      <trkpt lat="45.00681" lon="-1.17746">
        <ele>20.1</ele>
        <time>2021-05-23T09:51:49Z</time>
      </trkpt>
      <trkpt lat="45.00686" lon="-1.17727">
        <ele>20.1</ele>
        <time>2021-05-23T09:51:51Z</time>
      </trkpt>
      <trkpt lat="45.00688" lon="-1.17707">
        <ele>19.9</ele>
        <time>2021-05-23T09:51:53Z</time>
      </trkpt>
      <trkpt lat="45.00691" lon="-1.17687">
        <ele>19.7</ele>
        <time>2021-05-23T09:51:55Z</time>
      </trkpt>
      <trkpt lat="45.00692" lon="-1.17676">
        <ele>19.6</ele>
        <time>2021-05-23T09:51:56Z</time>
      </trkpt>
      <trkpt lat="45.00693" lon="-1.17666">
        <ele>19.6</ele>
        <time>2021-05-23T09:51:57Z</time>
      </trkpt>
      <trkpt lat="45.00696" lon="-1.17645">
        <ele>19.6</ele>
        <time>2021-05-23T09:51:59Z</time>
      </trkpt>
      <trkpt lat="45.00696" lon="-1.17626">
        <ele>19.6</ele>
        <time>2021-05-23T09:52:01Z</time>
      </trkpt>
      <trkpt lat="45.00696" lon="-1.17618">
        <ele>19.7</ele>
        <time>2021-05-23T09:52:02Z</time>
      </trkpt>
      <trkpt lat="45.00696" lon="-1.17612">
        <ele>19.7</ele>
        <time>2021-05-23T09:52:03Z</time>
      </trkpt>
      <trkpt lat="45.00694" lon="-1.17602">
        <ele>19.7</ele>
        <time>2021-05-23T09:52:05Z</time>
      </trkpt>
      <trkpt lat="45.00691" lon="-1.17596">
        <ele>19.7</ele>
        <time>2021-05-23T09:52:07Z</time>
      </trkpt>
      <trkpt lat="45.0069" lon="-1.17587">
        <ele>19.7</ele>
        <time>2021-05-23T09:52:09Z</time>
      </trkpt>
      <trkpt lat="45.0069" lon="-1.17576">
        <ele>19.7</ele>
        <time>2021-05-23T09:52:11Z</time>
      </trkpt>
      <trkpt lat="45.00691" lon="-1.17562">
        <ele>19.5</ele>
        <time>2021-05-23T09:52:13Z</time>
      </trkpt>
      <trkpt lat="45.0069" lon="-1.17555">
        <ele>19.4</ele>
        <time>2021-05-23T09:52:14Z</time>
      </trkpt>
      <trkpt lat="45.00688" lon="-1.17548">
        <ele>19.3</ele>
        <time>2021-05-23T09:52:15Z</time>
      </trkpt>
      <trkpt lat="45.00685" lon="-1.17532">
        <ele>19.2</ele>
        <time>2021-05-23T09:52:17Z</time>
      </trkpt>
      <trkpt lat="45.00682" lon="-1.17516">
        <ele>19.1</ele>
        <time>2021-05-23T09:52:19Z</time>
      </trkpt>
      <trkpt lat="45.00677" lon="-1.17499">
        <ele>19.1</ele>
        <time>2021-05-23T09:52:21Z</time>
      </trkpt>
      <trkpt lat="45.00674" lon="-1.17484">
        <ele>19.1</ele>
        <time>2021-05-23T09:52:23Z</time>
      </trkpt>
      <trkpt lat="45.00672" lon="-1.17476">
        <ele>19.1</ele>
        <time>2021-05-23T09:52:24Z</time>
      </trkpt>
      <trkpt lat="45.0067" lon="-1.17468">
        <ele>19.2</ele>
        <time>2021-05-23T09:52:25Z</time>
      </trkpt>
      <trkpt lat="45.00668" lon="-1.17451">
        <ele>19.2</ele>
        <time>2021-05-23T09:52:27Z</time>
      </trkpt>
      <trkpt lat="45.00665" lon="-1.17435">
        <ele>19.2</ele>
        <time>2021-05-23T09:52:29Z</time>
      </trkpt>
      <trkpt lat="45.00663" lon="-1.17426">
        <ele>19.2</ele>
        <time>2021-05-23T09:52:30Z</time>
      </trkpt>
      <trkpt lat="45.00661" lon="-1.17418">
        <ele>19.3</ele>
        <time>2021-05-23T09:52:31Z</time>
      </trkpt>
      <trkpt lat="45.00658" lon="-1.17402">
        <ele>19.3</ele>
        <time>2021-05-23T09:52:33Z</time>
      </trkpt>
      <trkpt lat="45.00654" lon="-1.17387">
        <ele>19.4</ele>
        <time>2021-05-23T09:52:35Z</time>
      </trkpt>
      <trkpt lat="45.00653" lon="-1.17379">
        <ele>19.4</ele>
        <time>2021-05-23T09:52:36Z</time>
      </trkpt>
      <trkpt lat="45.00652" lon="-1.17372">
        <ele>19.4</ele>
        <time>2021-05-23T09:52:37Z</time>
      </trkpt>
      <trkpt lat="45.00649" lon="-1.17365">
        <ele>19.5</ele>
        <time>2021-05-23T09:52:38Z</time>
      </trkpt>
      <trkpt lat="45.00647" lon="-1.17358">
        <ele>19.5</ele>
        <time>2021-05-23T09:52:39Z</time>
      </trkpt>
      <trkpt lat="45.00644" lon="-1.1735">
        <ele>19.6</ele>
        <time>2021-05-23T09:52:40Z</time>
      </trkpt>
      <trkpt lat="45.00642" lon="-1.17342">
        <ele>19.7</ele>
        <time>2021-05-23T09:52:41Z</time>
      </trkpt>
      <trkpt lat="45.00639" lon="-1.17326">
        <ele>19.8</ele>
        <time>2021-05-23T09:52:43Z</time>
      </trkpt>
      <trkpt lat="45.00635" lon="-1.1731">
        <ele>19.9</ele>
        <time>2021-05-23T09:52:45Z</time>
      </trkpt>
      <trkpt lat="45.00633" lon="-1.17302">
        <ele>19.9</ele>
        <time>2021-05-23T09:52:46Z</time>
      </trkpt>
      <trkpt lat="45.00632" lon="-1.17295">
        <ele>19.9</ele>
        <time>2021-05-23T09:52:47Z</time>
      </trkpt>
      <trkpt lat="45.00628" lon="-1.17278">
        <ele>20</ele>
        <time>2021-05-23T09:52:49Z</time>
      </trkpt>
      <trkpt lat="45.00623" lon="-1.17259">
        <ele>20</ele>
        <time>2021-05-23T09:52:51Z</time>
      </trkpt>
      <trkpt lat="45.00621" lon="-1.1725">
        <ele>20.1</ele>
        <time>2021-05-23T09:52:52Z</time>
      </trkpt>
      <trkpt lat="45.00619" lon="-1.17241">
        <ele>20.1</ele>
        <time>2021-05-23T09:52:53Z</time>
      </trkpt>
      <trkpt lat="45.00614" lon="-1.17223">
        <ele>20.3</ele>
        <time>2021-05-23T09:52:55Z</time>
      </trkpt>
      <trkpt lat="45.0061" lon="-1.17205">
        <ele>20.5</ele>
        <time>2021-05-23T09:52:57Z</time>
      </trkpt>
      <trkpt lat="45.00607" lon="-1.17187">
        <ele>20.7</ele>
        <time>2021-05-23T09:52:59Z</time>
      </trkpt>
      <trkpt lat="45.00604" lon="-1.17169">
        <ele>20.8</ele>
        <time>2021-05-23T09:53:01Z</time>
      </trkpt>
      <trkpt lat="45.00601" lon="-1.17151">
        <ele>20.9</ele>
        <time>2021-05-23T09:53:03Z</time>
      </trkpt>
      <trkpt lat="45.00598" lon="-1.17133">
        <ele>20.9</ele>
        <time>2021-05-23T09:53:05Z</time>
      </trkpt>
      <trkpt lat="45.00595" lon="-1.17114">
        <ele>21</ele>
        <time>2021-05-23T09:53:07Z</time>
      </trkpt>
      <trkpt lat="45.00593" lon="-1.17105">
        <ele>21</ele>
        <time>2021-05-23T09:53:08Z</time>
      </trkpt>
      <trkpt lat="45.00592" lon="-1.17095">
        <ele>21.1</ele>
        <time>2021-05-23T09:53:09Z</time>
      </trkpt>
      <trkpt lat="45.0059" lon="-1.17076">
        <ele>21.2</ele>
        <time>2021-05-23T09:53:11Z</time>
      </trkpt>
      <trkpt lat="45.00588" lon="-1.17059">
        <ele>21.3</ele>
        <time>2021-05-23T09:53:13Z</time>
      </trkpt>
      <trkpt lat="45.00587" lon="-1.17049">
        <ele>21.4</ele>
        <time>2021-05-23T09:53:14Z</time>
      </trkpt>
      <trkpt lat="45.00587" lon="-1.1704">
        <ele>21.4</ele>
        <time>2021-05-23T09:53:15Z</time>
      </trkpt>
      <trkpt lat="45.00588" lon="-1.17021">
        <ele>21.5</ele>
        <time>2021-05-23T09:53:17Z</time>
      </trkpt>
      <trkpt lat="45.00587" lon="-1.17003">
        <ele>21.6</ele>
        <time>2021-05-23T09:53:19Z</time>
      </trkpt>
      <trkpt lat="45.00586" lon="-1.16984">
        <ele>21.7</ele>
        <time>2021-05-23T09:53:21Z</time>
      </trkpt>
      <trkpt lat="45.00586" lon="-1.16963">
        <ele>21.7</ele>
        <time>2021-05-23T09:53:23Z</time>
      </trkpt>
      <trkpt lat="45.00585" lon="-1.16943">
        <ele>21.7</ele>
        <time>2021-05-23T09:53:25Z</time>
      </trkpt>
      <trkpt lat="45.00585" lon="-1.16922">
        <ele>21.6</ele>
        <time>2021-05-23T09:53:27Z</time>
      </trkpt>
      <trkpt lat="45.00585" lon="-1.16898">
        <ele>21.6</ele>
        <time>2021-05-23T09:53:29Z</time>
      </trkpt>
      <trkpt lat="45.00585" lon="-1.16886">
        <ele>21.5</ele>
        <time>2021-05-23T09:53:30Z</time>
      </trkpt>
      <trkpt lat="45.00585" lon="-1.16873">
        <ele>21.5</ele>
        <time>2021-05-23T09:53:31Z</time>
      </trkpt>
      <trkpt lat="45.00585" lon="-1.16848">
        <ele>21.5</ele>
        <time>2021-05-23T09:53:33Z</time>
      </trkpt>
      <trkpt lat="45.00584" lon="-1.16825">
        <ele>21.5</ele>
        <time>2021-05-23T09:53:35Z</time>
      </trkpt>
      <trkpt lat="45.00583" lon="-1.16813">
        <ele>21.4</ele>
        <time>2021-05-23T09:53:36Z</time>
      </trkpt>
      <trkpt lat="45.00582" lon="-1.16802">
        <ele>21.4</ele>
        <time>2021-05-23T09:53:37Z</time>
      </trkpt>
      <trkpt lat="45.00581" lon="-1.16777">
        <ele>21.3</ele>
        <time>2021-05-23T09:53:39Z</time>
      </trkpt>
      <trkpt lat="45.0058" lon="-1.16765">
        <ele>21.3</ele>
        <time>2021-05-23T09:53:40Z</time>
      </trkpt>
      <trkpt lat="45.0058" lon="-1.16752">
        <ele>21.3</ele>
        <time>2021-05-23T09:53:41Z</time>
      </trkpt>
      <trkpt lat="45.0058" lon="-1.1674">
        <ele>21.2</ele>
        <time>2021-05-23T09:53:42Z</time>
      </trkpt>
      <trkpt lat="45.0058" lon="-1.16728">
        <ele>21.2</ele>
        <time>2021-05-23T09:53:43Z</time>
      </trkpt>
      <trkpt lat="45.0058" lon="-1.16704">
        <ele>21.1</ele>
        <time>2021-05-23T09:53:45Z</time>
      </trkpt>
      <trkpt lat="45.0058" lon="-1.1668">
        <ele>21</ele>
        <time>2021-05-23T09:53:47Z</time>
      </trkpt>
      <trkpt lat="45.00579" lon="-1.16667">
        <ele>21</ele>
        <time>2021-05-23T09:53:48Z</time>
      </trkpt>
      <trkpt lat="45.00579" lon="-1.16655">
        <ele>21</ele>
        <time>2021-05-23T09:53:49Z</time>
      </trkpt>
      <trkpt lat="45.00579" lon="-1.16632">
        <ele>20.9</ele>
        <time>2021-05-23T09:53:51Z</time>
      </trkpt>
      <trkpt lat="45.00579" lon="-1.16609">
        <ele>20.9</ele>
        <time>2021-05-23T09:53:53Z</time>
      </trkpt>
      <trkpt lat="45.00577" lon="-1.16587">
        <ele>20.9</ele>
        <time>2021-05-23T09:53:55Z</time>
      </trkpt>
      <trkpt lat="45.00576" lon="-1.16567">
        <ele>21</ele>
        <time>2021-05-23T09:53:57Z</time>
      </trkpt>
      <trkpt lat="45.00575" lon="-1.16559">
        <ele>21</ele>
        <time>2021-05-23T09:53:58Z</time>
      </trkpt>
      <trkpt lat="45.00574" lon="-1.16553">
        <ele>21</ele>
        <time>2021-05-23T09:53:59Z</time>
      </trkpt>
      <trkpt lat="45.00573" lon="-1.16544">
        <ele>21</ele>
        <time>2021-05-23T09:54:01Z</time>
      </trkpt>
      <trkpt lat="45.00573" lon="-1.16535">
        <ele>21</ele>
        <time>2021-05-23T09:54:03Z</time>
      </trkpt>
      <trkpt lat="45.00574" lon="-1.16524">
        <ele>20.9</ele>
        <time>2021-05-23T09:54:05Z</time>
      </trkpt>
      <trkpt lat="45.00574" lon="-1.16518">
        <ele>20.9</ele>
        <time>2021-05-23T09:54:06Z</time>
      </trkpt>
      <trkpt lat="45.00574" lon="-1.16514">
        <ele>20.9</ele>
        <time>2021-05-23T09:54:07Z</time>
      </trkpt>
      <trkpt lat="45.00574" lon="-1.16502">
        <ele>20.9</ele>
        <time>2021-05-23T09:54:09Z</time>
      </trkpt>
      <trkpt lat="45.00575" lon="-1.16492">
        <ele>20.8</ele>
        <time>2021-05-23T09:54:10Z</time>
      </trkpt>
      <trkpt lat="45.00575" lon="-1.16483">
        <ele>20.8</ele>
        <time>2021-05-23T09:54:11Z</time>
      </trkpt>
      <trkpt lat="45.00576" lon="-1.16463">
        <ele>20.9</ele>
        <time>2021-05-23T09:54:13Z</time>
      </trkpt>
      <trkpt lat="45.00577" lon="-1.16447">
        <ele>21</ele>
        <time>2021-05-23T09:54:15Z</time>
      </trkpt>
      <trkpt lat="45.00578" lon="-1.16432">
        <ele>21</ele>
        <time>2021-05-23T09:54:17Z</time>
      </trkpt>
      <trkpt lat="45.00579" lon="-1.16424">
        <ele>21</ele>
        <time>2021-05-23T09:54:18Z</time>
      </trkpt>
      <trkpt lat="45.0058" lon="-1.16417">
        <ele>21.1</ele>
        <time>2021-05-23T09:54:19Z</time>
      </trkpt>
      <trkpt lat="45.00581" lon="-1.16402">
        <ele>21.1</ele>
        <time>2021-05-23T09:54:21Z</time>
      </trkpt>
      <trkpt lat="45.00583" lon="-1.16388">
        <ele>21.1</ele>
        <time>2021-05-23T09:54:23Z</time>
      </trkpt>
      <trkpt lat="45.00585" lon="-1.16376">
        <ele>21.2</ele>
        <time>2021-05-23T09:54:25Z</time>
      </trkpt>
      <trkpt lat="45.00586" lon="-1.16369">
        <ele>21.2</ele>
        <time>2021-05-23T09:54:26Z</time>
      </trkpt>
      <trkpt lat="45.00587" lon="-1.16363">
        <ele>21.3</ele>
        <time>2021-05-23T09:54:27Z</time>
      </trkpt>
      <trkpt lat="45.0059" lon="-1.16349">
        <ele>21.3</ele>
        <time>2021-05-23T09:54:29Z</time>
      </trkpt>
      <trkpt lat="45.00593" lon="-1.16336">
        <ele>21.4</ele>
        <time>2021-05-23T09:54:31Z</time>
      </trkpt>
      <trkpt lat="45.00596" lon="-1.16324">
        <ele>21.5</ele>
        <time>2021-05-23T09:54:33Z</time>
      </trkpt>
      <trkpt lat="45.00598" lon="-1.16313">
        <ele>21.6</ele>
        <time>2021-05-23T09:54:35Z</time>
      </trkpt>
      <trkpt lat="45.00602" lon="-1.16302">
        <ele>21.8</ele>
        <time>2021-05-23T09:54:37Z</time>
      </trkpt>
      <trkpt lat="45.00606" lon="-1.16289">
        <ele>21.8</ele>
        <time>2021-05-23T09:54:39Z</time>
      </trkpt>
      <trkpt lat="45.0061" lon="-1.16276">
        <ele>21.9</ele>
        <time>2021-05-23T09:54:41Z</time>
      </trkpt>
      <trkpt lat="45.00615" lon="-1.16262">
        <ele>22</ele>
        <time>2021-05-23T09:54:43Z</time>
      </trkpt>
      <trkpt lat="45.00619" lon="-1.16247">
        <ele>22.2</ele>
        <time>2021-05-23T09:54:45Z</time>
      </trkpt>
      <trkpt lat="45.00624" lon="-1.16233">
        <ele>22.3</ele>
        <time>2021-05-23T09:54:47Z</time>
      </trkpt>
      <trkpt lat="45.00629" lon="-1.16218">
        <ele>22.4</ele>
        <time>2021-05-23T09:54:49Z</time>
      </trkpt>
      <trkpt lat="45.00635" lon="-1.16204">
        <ele>22.6</ele>
        <time>2021-05-23T09:54:51Z</time>
      </trkpt>
      <trkpt lat="45.00639" lon="-1.1619">
        <ele>22.8</ele>
        <time>2021-05-23T09:54:53Z</time>
      </trkpt>
      <trkpt lat="45.00644" lon="-1.16176">
        <ele>23</ele>
        <time>2021-05-23T09:54:55Z</time>
      </trkpt>
      <trkpt lat="45.00649" lon="-1.16161">
        <ele>23.2</ele>
        <time>2021-05-23T09:54:57Z</time>
      </trkpt>
      <trkpt lat="45.00654" lon="-1.16146">
        <ele>23.4</ele>
        <time>2021-05-23T09:54:59Z</time>
      </trkpt>
      <trkpt lat="45.00659" lon="-1.16131">
        <ele>23.6</ele>
        <time>2021-05-23T09:55:01Z</time>
      </trkpt>
      <trkpt lat="45.00662" lon="-1.16123">
        <ele>23.7</ele>
        <time>2021-05-23T09:55:02Z</time>
      </trkpt>
      <trkpt lat="45.00665" lon="-1.16115">
        <ele>23.8</ele>
        <time>2021-05-23T09:55:03Z</time>
      </trkpt>
      <trkpt lat="45.0067" lon="-1.16098">
        <ele>24</ele>
        <time>2021-05-23T09:55:05Z</time>
      </trkpt>
      <trkpt lat="45.00675" lon="-1.16081">
        <ele>24.1</ele>
        <time>2021-05-23T09:55:07Z</time>
      </trkpt>
      <trkpt lat="45.0068" lon="-1.16064">
        <ele>24.2</ele>
        <time>2021-05-23T09:55:09Z</time>
      </trkpt>
      <trkpt lat="45.00685" lon="-1.16045">
        <ele>24.4</ele>
        <time>2021-05-23T09:55:11Z</time>
      </trkpt>
      <trkpt lat="45.00689" lon="-1.16026">
        <ele>24.5</ele>
        <time>2021-05-23T09:55:13Z</time>
      </trkpt>
      <trkpt lat="45.00692" lon="-1.16006">
        <ele>24.5</ele>
        <time>2021-05-23T09:55:15Z</time>
      </trkpt>
      <trkpt lat="45.00695" lon="-1.15986">
        <ele>24.6</ele>
        <time>2021-05-23T09:55:17Z</time>
      </trkpt>
      <trkpt lat="45.00696" lon="-1.15965">
        <ele>24.6</ele>
        <time>2021-05-23T09:55:19Z</time>
      </trkpt>
      <trkpt lat="45.00697" lon="-1.15944">
        <ele>24.5</ele>
        <time>2021-05-23T09:55:21Z</time>
      </trkpt>
      <trkpt lat="45.00697" lon="-1.15933">
        <ele>24.5</ele>
        <time>2021-05-23T09:55:22Z</time>
      </trkpt>
      <trkpt lat="45.00696" lon="-1.15922">
        <ele>24.5</ele>
        <time>2021-05-23T09:55:23Z</time>
      </trkpt>
      <trkpt lat="45.00694" lon="-1.159">
        <ele>24.4</ele>
        <time>2021-05-23T09:55:25Z</time>
      </trkpt>
      <trkpt lat="45.00693" lon="-1.15879">
        <ele>24.3</ele>
        <time>2021-05-23T09:55:27Z</time>
      </trkpt>
      <trkpt lat="45.00691" lon="-1.15859">
        <ele>24.3</ele>
        <time>2021-05-23T09:55:29Z</time>
      </trkpt>
      <trkpt lat="45.00689" lon="-1.1584">
        <ele>24.2</ele>
        <time>2021-05-23T09:55:31Z</time>
      </trkpt>
      <trkpt lat="45.00687" lon="-1.15822">
        <ele>23.9</ele>
        <time>2021-05-23T09:55:33Z</time>
      </trkpt>
      <trkpt lat="45.00685" lon="-1.15803">
        <ele>23.4</ele>
        <time>2021-05-23T09:55:35Z</time>
      </trkpt>
      <trkpt lat="45.00684" lon="-1.1579">
        <ele>23.1</ele>
        <time>2021-05-23T09:55:37Z</time>
      </trkpt>
      <trkpt lat="45.00683" lon="-1.15786">
        <ele>23</ele>
        <time>2021-05-23T09:55:38Z</time>
      </trkpt>
      <trkpt lat="45.00681" lon="-1.15783">
        <ele>22.9</ele>
        <time>2021-05-23T09:55:39Z</time>
      </trkpt>
      <trkpt lat="45.0068" lon="-1.15772">
        <ele>22.6</ele>
        <time>2021-05-23T09:55:41Z</time>
      </trkpt>
      <trkpt lat="45.0068" lon="-1.15765">
        <ele>22.5</ele>
        <time>2021-05-23T09:55:42Z</time>
      </trkpt>
      <trkpt lat="45.00679" lon="-1.15758">
        <ele>22.5</ele>
        <time>2021-05-23T09:55:43Z</time>
      </trkpt>
      <trkpt lat="45.00678" lon="-1.15744">
        <ele>22.5</ele>
        <time>2021-05-23T09:55:45Z</time>
      </trkpt>
      <trkpt lat="45.00677" lon="-1.15728">
        <ele>22.6</ele>
        <time>2021-05-23T09:55:47Z</time>
      </trkpt>
      <trkpt lat="45.00677" lon="-1.15719">
        <ele>22.8</ele>
        <time>2021-05-23T09:55:48Z</time>
      </trkpt>
      <trkpt lat="45.00676" lon="-1.15711">
        <ele>23</ele>
        <time>2021-05-23T09:55:49Z</time>
      </trkpt>
      <trkpt lat="45.00676" lon="-1.15693">
        <ele>23.5</ele>
        <time>2021-05-23T09:55:51Z</time>
      </trkpt>
      <trkpt lat="45.00676" lon="-1.15676">
        <ele>24</ele>
        <time>2021-05-23T09:55:53Z</time>
      </trkpt>
      <trkpt lat="45.00677" lon="-1.15668">
        <ele>24.2</ele>
        <time>2021-05-23T09:55:54Z</time>
      </trkpt>
      <trkpt lat="45.00678" lon="-1.15661">
        <ele>24.3</ele>
        <time>2021-05-23T09:55:55Z</time>
      </trkpt>
      <trkpt lat="45.0068" lon="-1.15648">
        <ele>24.5</ele>
        <time>2021-05-23T09:55:57Z</time>
      </trkpt>
      <trkpt lat="45.0068" lon="-1.15636">
        <ele>24.6</ele>
        <time>2021-05-23T09:55:59Z</time>
      </trkpt>
      <trkpt lat="45.0068" lon="-1.1563">
        <ele>24.7</ele>
        <time>2021-05-23T09:56:00Z</time>
      </trkpt>
      <trkpt lat="45.0068" lon="-1.15625">
        <ele>24.7</ele>
        <time>2021-05-23T09:56:01Z</time>
      </trkpt>
      <trkpt lat="45.00681" lon="-1.15614">
        <ele>24.8</ele>
        <time>2021-05-23T09:56:03Z</time>
      </trkpt>
      <trkpt lat="45.00683" lon="-1.15605">
        <ele>24.9</ele>
        <time>2021-05-23T09:56:05Z</time>
      </trkpt>
      <trkpt lat="45.00685" lon="-1.15595">
        <ele>24.9</ele>
        <time>2021-05-23T09:56:07Z</time>
      </trkpt>
      <trkpt lat="45.00687" lon="-1.15583">
        <ele>25</ele>
        <time>2021-05-23T09:56:09Z</time>
      </trkpt>
      <trkpt lat="45.0069" lon="-1.15571">
        <ele>25.1</ele>
        <time>2021-05-23T09:56:11Z</time>
      </trkpt>
      <trkpt lat="45.00693" lon="-1.15558">
        <ele>25.2</ele>
        <time>2021-05-23T09:56:13Z</time>
      </trkpt>
      <trkpt lat="45.00694" lon="-1.15551">
        <ele>25.3</ele>
        <time>2021-05-23T09:56:14Z</time>
      </trkpt>
      <trkpt lat="45.00695" lon="-1.15545">
        <ele>25.3</ele>
        <time>2021-05-23T09:56:15Z</time>
      </trkpt>
      <trkpt lat="45.00697" lon="-1.15532">
        <ele>25.4</ele>
        <time>2021-05-23T09:56:17Z</time>
      </trkpt>
      <trkpt lat="45.00699" lon="-1.15519">
        <ele>25.5</ele>
        <time>2021-05-23T09:56:19Z</time>
      </trkpt>
      <trkpt lat="45.00702" lon="-1.15507">
        <ele>25.6</ele>
        <time>2021-05-23T09:56:21Z</time>
      </trkpt>
      <trkpt lat="45.00703" lon="-1.155">
        <ele>25.7</ele>
        <time>2021-05-23T09:56:22Z</time>
      </trkpt>
      <trkpt lat="45.00704" lon="-1.15493">
        <ele>25.8</ele>
        <time>2021-05-23T09:56:23Z</time>
      </trkpt>
      <trkpt lat="45.00707" lon="-1.15479">
        <ele>25.9</ele>
        <time>2021-05-23T09:56:25Z</time>
      </trkpt>
      <trkpt lat="45.00711" lon="-1.15465">
        <ele>26.1</ele>
        <time>2021-05-23T09:56:27Z</time>
      </trkpt>
      <trkpt lat="45.00712" lon="-1.15458">
        <ele>26.2</ele>
        <time>2021-05-23T09:56:28Z</time>
      </trkpt>
      <trkpt lat="45.00713" lon="-1.15451">
        <ele>26.2</ele>
        <time>2021-05-23T09:56:29Z</time>
      </trkpt>
      <trkpt lat="45.00715" lon="-1.15437">
        <ele>26.4</ele>
        <time>2021-05-23T09:56:31Z</time>
      </trkpt>
      <trkpt lat="45.00718" lon="-1.15422">
        <ele>26.6</ele>
        <time>2021-05-23T09:56:33Z</time>
      </trkpt>
      <trkpt lat="45.00721" lon="-1.15409">
        <ele>26.7</ele>
        <time>2021-05-23T09:56:35Z</time>
      </trkpt>
      <trkpt lat="45.00723" lon="-1.15396">
        <ele>26.9</ele>
        <time>2021-05-23T09:56:37Z</time>
      </trkpt>
      <trkpt lat="45.00726" lon="-1.15383">
        <ele>27</ele>
        <time>2021-05-23T09:56:39Z</time>
      </trkpt>
      <trkpt lat="45.00727" lon="-1.15378">
        <ele>27.1</ele>
        <time>2021-05-23T09:56:40Z</time>
      </trkpt>
      <trkpt lat="45.00728" lon="-1.15372">
        <ele>27.2</ele>
        <time>2021-05-23T09:56:41Z</time>
      </trkpt>
      <trkpt lat="45.0073" lon="-1.1536">
        <ele>27.4</ele>
        <time>2021-05-23T09:56:43Z</time>
      </trkpt>
      <trkpt lat="45.00732" lon="-1.15348">
        <ele>27.5</ele>
        <time>2021-05-23T09:56:45Z</time>
      </trkpt>
      <trkpt lat="45.00733" lon="-1.15341">
        <ele>27.5</ele>
        <time>2021-05-23T09:56:46Z</time>
      </trkpt>
      <trkpt lat="45.00734" lon="-1.15335">
        <ele>27.5</ele>
        <time>2021-05-23T09:56:47Z</time>
      </trkpt>
      <trkpt lat="45.00737" lon="-1.15321">
        <ele>27.6</ele>
        <time>2021-05-23T09:56:49Z</time>
      </trkpt>
      <trkpt lat="45.00739" lon="-1.15308">
        <ele>27.7</ele>
        <time>2021-05-23T09:56:51Z</time>
      </trkpt>
      <trkpt lat="45.0074" lon="-1.15301">
        <ele>27.8</ele>
        <time>2021-05-23T09:56:52Z</time>
      </trkpt>
      <trkpt lat="45.00741" lon="-1.15294">
        <ele>27.8</ele>
        <time>2021-05-23T09:56:53Z</time>
      </trkpt>
      <trkpt lat="45.00741" lon="-1.15281">
        <ele>27.9</ele>
        <time>2021-05-23T09:56:55Z</time>
      </trkpt>
      <trkpt lat="45.00739" lon="-1.15275">
        <ele>28</ele>
        <time>2021-05-23T09:56:56Z</time>
      </trkpt>
      <trkpt lat="45.00738" lon="-1.15268">
        <ele>28</ele>
        <time>2021-05-23T09:56:57Z</time>
      </trkpt>
      <trkpt lat="45.00735" lon="-1.15255">
        <ele>28.2</ele>
        <time>2021-05-23T09:56:59Z</time>
      </trkpt>
      <trkpt lat="45.00736" lon="-1.15242">
        <ele>28.2</ele>
        <time>2021-05-23T09:57:01Z</time>
      </trkpt>
      <trkpt lat="45.00739" lon="-1.15226">
        <ele>28.4</ele>
        <time>2021-05-23T09:57:03Z</time>
      </trkpt>
      <trkpt lat="45.00741" lon="-1.1521">
        <ele>28.5</ele>
        <time>2021-05-23T09:57:05Z</time>
      </trkpt>
      <trkpt lat="45.00743" lon="-1.15194">
        <ele>28.6</ele>
        <time>2021-05-23T09:57:07Z</time>
      </trkpt>
      <trkpt lat="45.00744" lon="-1.15187">
        <ele>28.7</ele>
        <time>2021-05-23T09:57:08Z</time>
      </trkpt>
      <trkpt lat="45.00745" lon="-1.15179">
        <ele>28.7</ele>
        <time>2021-05-23T09:57:09Z</time>
      </trkpt>
      <trkpt lat="45.00746" lon="-1.15163">
        <ele>28.9</ele>
        <time>2021-05-23T09:57:11Z</time>
      </trkpt>
      <trkpt lat="45.00748" lon="-1.15147">
        <ele>28.9</ele>
        <time>2021-05-23T09:57:13Z</time>
      </trkpt>
      <trkpt lat="45.00749" lon="-1.15132">
        <ele>29</ele>
        <time>2021-05-23T09:57:15Z</time>
      </trkpt>
      <trkpt lat="45.00749" lon="-1.15125">
        <ele>29.1</ele>
        <time>2021-05-23T09:57:16Z</time>
      </trkpt>
      <trkpt lat="45.0075" lon="-1.15118">
        <ele>29.1</ele>
        <time>2021-05-23T09:57:17Z</time>
      </trkpt>
      <trkpt lat="45.0075" lon="-1.15112">
        <ele>29.2</ele>
        <time>2021-05-23T09:57:18Z</time>
      </trkpt>
      <trkpt lat="45.00751" lon="-1.15105">
        <ele>29.3</ele>
        <time>2021-05-23T09:57:19Z</time>
      </trkpt>
      <trkpt lat="45.00752" lon="-1.15093">
        <ele>29.4</ele>
        <time>2021-05-23T09:57:21Z</time>
      </trkpt>
      <trkpt lat="45.00752" lon="-1.15082">
        <ele>29.6</ele>
        <time>2021-05-23T09:57:23Z</time>
      </trkpt>
      <trkpt lat="45.00752" lon="-1.15072">
        <ele>29.8</ele>
        <time>2021-05-23T09:57:25Z</time>
      </trkpt>
      <trkpt lat="45.00752" lon="-1.15068">
        <ele>29.8</ele>
        <time>2021-05-23T09:57:26Z</time>
      </trkpt>
      <trkpt lat="45.00753" lon="-1.15063">
        <ele>29.9</ele>
        <time>2021-05-23T09:57:27Z</time>
      </trkpt>
      <trkpt lat="45.00757" lon="-1.15061">
        <ele>29.9</ele>
        <time>2021-05-23T09:57:29Z</time>
      </trkpt>
      <trkpt lat="45.00758" lon="-1.15061">
        <ele>29.9</ele>
        <time>2021-05-23T09:57:30Z</time>
      </trkpt>
      <trkpt lat="45.00757" lon="-1.15057">
        <ele>30</ele>
        <time>2021-05-23T09:57:45Z</time>
      </trkpt>
      <trkpt lat="45.00757" lon="-1.15054">
        <ele>30</ele>
        <time>2021-05-23T09:57:46Z</time>
      </trkpt>
      <trkpt lat="45.00751" lon="-1.14942">
        <ele>30.9</ele>
        <time>2021-05-23T10:07:16Z</time>
      </trkpt>
      <trkpt lat="45.00752" lon="-1.14935">
        <ele>31</ele>
        <time>2021-05-23T10:07:17Z</time>
      </trkpt>
      <trkpt lat="45.00754" lon="-1.14919">
        <ele>31.1</ele>
        <time>2021-05-23T10:07:19Z</time>
      </trkpt>
      <trkpt lat="45.00756" lon="-1.14904">
        <ele>31.3</ele>
        <time>2021-05-23T10:07:21Z</time>
      </trkpt>
      <trkpt lat="45.00757" lon="-1.14896">
        <ele>31.3</ele>
        <time>2021-05-23T10:07:22Z</time>
      </trkpt>
      <trkpt lat="45.00758" lon="-1.14888">
        <ele>31.4</ele>
        <time>2021-05-23T10:07:23Z</time>
      </trkpt>
      <trkpt lat="45.00759" lon="-1.14872">
        <ele>31.5</ele>
        <time>2021-05-23T10:07:25Z</time>
      </trkpt>
      <trkpt lat="45.00762" lon="-1.14855">
        <ele>31.5</ele>
        <time>2021-05-23T10:07:27Z</time>
      </trkpt>
      <trkpt lat="45.00764" lon="-1.14837">
        <ele>31.6</ele>
        <time>2021-05-23T10:07:29Z</time>
      </trkpt>
      <trkpt lat="45.00766" lon="-1.1482">
        <ele>31.6</ele>
        <time>2021-05-23T10:07:31Z</time>
      </trkpt>
      <trkpt lat="45.00767" lon="-1.14811">
        <ele>31.6</ele>
        <time>2021-05-23T10:07:32Z</time>
      </trkpt>
      <trkpt lat="45.00768" lon="-1.14802">
        <ele>31.7</ele>
        <time>2021-05-23T10:07:33Z</time>
      </trkpt>
      <trkpt lat="45.0077" lon="-1.14784">
        <ele>31.8</ele>
        <time>2021-05-23T10:07:35Z</time>
      </trkpt>
      <trkpt lat="45.00771" lon="-1.14767">
        <ele>31.9</ele>
        <time>2021-05-23T10:07:37Z</time>
      </trkpt>
      <trkpt lat="45.00772" lon="-1.14758">
        <ele>31.9</ele>
        <time>2021-05-23T10:07:38Z</time>
      </trkpt>
      <trkpt lat="45.00774" lon="-1.14749">
        <ele>32</ele>
        <time>2021-05-23T10:07:39Z</time>
      </trkpt>
      <trkpt lat="45.00776" lon="-1.14731">
        <ele>32.1</ele>
        <time>2021-05-23T10:07:41Z</time>
      </trkpt>
      <trkpt lat="45.00776" lon="-1.14722">
        <ele>32.1</ele>
        <time>2021-05-23T10:07:42Z</time>
      </trkpt>
      <trkpt lat="45.00776" lon="-1.14713">
        <ele>32.2</ele>
        <time>2021-05-23T10:07:43Z</time>
      </trkpt>
      <trkpt lat="45.00775" lon="-1.14695">
        <ele>32.2</ele>
        <time>2021-05-23T10:07:45Z</time>
      </trkpt>
      <trkpt lat="45.00774" lon="-1.14676">
        <ele>32.2</ele>
        <time>2021-05-23T10:07:47Z</time>
      </trkpt>
      <trkpt lat="45.00774" lon="-1.14667">
        <ele>32.2</ele>
        <time>2021-05-23T10:07:48Z</time>
      </trkpt>
      <trkpt lat="45.00774" lon="-1.14657">
        <ele>32.2</ele>
        <time>2021-05-23T10:07:49Z</time>
      </trkpt>
      <trkpt lat="45.00775" lon="-1.14637">
        <ele>32</ele>
        <time>2021-05-23T10:07:51Z</time>
      </trkpt>
      <trkpt lat="45.00773" lon="-1.14617">
        <ele>32</ele>
        <time>2021-05-23T10:07:53Z</time>
      </trkpt>
      <trkpt lat="45.00772" lon="-1.14597">
        <ele>31.9</ele>
        <time>2021-05-23T10:07:55Z</time>
      </trkpt>
      <trkpt lat="45.00768" lon="-1.14578">
        <ele>31.7</ele>
        <time>2021-05-23T10:07:57Z</time>
      </trkpt>
      <trkpt lat="45.00766" lon="-1.14568">
        <ele>31.7</ele>
        <time>2021-05-23T10:07:58Z</time>
      </trkpt>
      <trkpt lat="45.00765" lon="-1.14558">
        <ele>31.6</ele>
        <time>2021-05-23T10:07:59Z</time>
      </trkpt>
      <trkpt lat="45.00762" lon="-1.14538">
        <ele>31.4</ele>
        <time>2021-05-23T10:08:01Z</time>
      </trkpt>
      <trkpt lat="45.00759" lon="-1.14518">
        <ele>31.3</ele>
        <time>2021-05-23T10:08:03Z</time>
      </trkpt>
      <trkpt lat="45.00757" lon="-1.14507">
        <ele>31.2</ele>
        <time>2021-05-23T10:08:04Z</time>
      </trkpt>
      <trkpt lat="45.00755" lon="-1.14497">
        <ele>31.1</ele>
        <time>2021-05-23T10:08:05Z</time>
      </trkpt>
      <trkpt lat="45.00753" lon="-1.14487">
        <ele>31</ele>
        <time>2021-05-23T10:08:06Z</time>
      </trkpt>
      <trkpt lat="45.0075" lon="-1.14477">
        <ele>30.9</ele>
        <time>2021-05-23T10:08:07Z</time>
      </trkpt>
      <trkpt lat="45.00744" lon="-1.14457">
        <ele>30.6</ele>
        <time>2021-05-23T10:08:09Z</time>
      </trkpt>
      <trkpt lat="45.00739" lon="-1.14436">
        <ele>30.4</ele>
        <time>2021-05-23T10:08:11Z</time>
      </trkpt>
      <trkpt lat="45.00733" lon="-1.14414">
        <ele>30.2</ele>
        <time>2021-05-23T10:08:13Z</time>
      </trkpt>
      <trkpt lat="45.00726" lon="-1.1439">
        <ele>30</ele>
        <time>2021-05-23T10:08:15Z</time>
      </trkpt>
      <trkpt lat="45.00719" lon="-1.14366">
        <ele>29.8</ele>
        <time>2021-05-23T10:08:17Z</time>
      </trkpt>
      <trkpt lat="45.00716" lon="-1.14355">
        <ele>29.7</ele>
        <time>2021-05-23T10:08:18Z</time>
      </trkpt>
      <trkpt lat="45.00714" lon="-1.14344">
        <ele>29.6</ele>
        <time>2021-05-23T10:08:19Z</time>
      </trkpt>
      <trkpt lat="45.0071" lon="-1.14317">
        <ele>29.3</ele>
        <time>2021-05-23T10:08:21Z</time>
      </trkpt>
      <trkpt lat="45.00703" lon="-1.14294">
        <ele>29</ele>
        <time>2021-05-23T10:08:23Z</time>
      </trkpt>
      <trkpt lat="45.00697" lon="-1.14273">
        <ele>28.8</ele>
        <time>2021-05-23T10:08:25Z</time>
      </trkpt>
      <trkpt lat="45.00695" lon="-1.14265">
        <ele>28.7</ele>
        <time>2021-05-23T10:08:26Z</time>
      </trkpt>
      <trkpt lat="45.00692" lon="-1.14259">
        <ele>28.5</ele>
        <time>2021-05-23T10:08:27Z</time>
      </trkpt>
      <trkpt lat="45.00687" lon="-1.14244">
        <ele>28.3</ele>
        <time>2021-05-23T10:08:29Z</time>
      </trkpt>
      <trkpt lat="45.00682" lon="-1.14226">
        <ele>28</ele>
        <time>2021-05-23T10:08:31Z</time>
      </trkpt>
      <trkpt lat="45.00675" lon="-1.14207">
        <ele>27.8</ele>
        <time>2021-05-23T10:08:33Z</time>
      </trkpt>
      <trkpt lat="45.00671" lon="-1.14197">
        <ele>27.7</ele>
        <time>2021-05-23T10:08:34Z</time>
      </trkpt>
      <trkpt lat="45.00667" lon="-1.14187">
        <ele>27.6</ele>
        <time>2021-05-23T10:08:35Z</time>
      </trkpt>
      <trkpt lat="45.00659" lon="-1.14166">
        <ele>27.4</ele>
        <time>2021-05-23T10:08:37Z</time>
      </trkpt>
      <trkpt lat="45.00655" lon="-1.14155">
        <ele>27.3</ele>
        <time>2021-05-23T10:08:38Z</time>
      </trkpt>
      <trkpt lat="45.00652" lon="-1.14146">
        <ele>27.3</ele>
        <time>2021-05-23T10:08:39Z</time>
      </trkpt>
      <trkpt lat="45.00645" lon="-1.14124">
        <ele>27.1</ele>
        <time>2021-05-23T10:08:41Z</time>
      </trkpt>
      <trkpt lat="45.00639" lon="-1.14101">
        <ele>27</ele>
        <time>2021-05-23T10:08:43Z</time>
      </trkpt>
      <trkpt lat="45.00636" lon="-1.1409">
        <ele>27</ele>
        <time>2021-05-23T10:08:44Z</time>
      </trkpt>
      <trkpt lat="45.00633" lon="-1.14079">
        <ele>27</ele>
        <time>2021-05-23T10:08:45Z</time>
      </trkpt>
      <trkpt lat="45.00625" lon="-1.14057">
        <ele>27.1</ele>
        <time>2021-05-23T10:08:47Z</time>
      </trkpt>
      <trkpt lat="45.00619" lon="-1.14035">
        <ele>27.1</ele>
        <time>2021-05-23T10:08:49Z</time>
      </trkpt>
      <trkpt lat="45.00612" lon="-1.14013">
        <ele>27.1</ele>
        <time>2021-05-23T10:08:51Z</time>
      </trkpt>
      <trkpt lat="45.00603" lon="-1.13991">
        <ele>27.2</ele>
        <time>2021-05-23T10:08:53Z</time>
      </trkpt>
      <trkpt lat="45.00592" lon="-1.13971">
        <ele>27.1</ele>
        <time>2021-05-23T10:08:55Z</time>
      </trkpt>
      <trkpt lat="45.00581" lon="-1.13952">
        <ele>27</ele>
        <time>2021-05-23T10:08:57Z</time>
      </trkpt>
      <trkpt lat="45.00575" lon="-1.13942">
        <ele>27</ele>
        <time>2021-05-23T10:08:58Z</time>
      </trkpt>
      <trkpt lat="45.00569" lon="-1.13933">
        <ele>26.9</ele>
        <time>2021-05-23T10:08:59Z</time>
      </trkpt>
      <trkpt lat="45.00556" lon="-1.13916">
        <ele>26.9</ele>
        <time>2021-05-23T10:09:01Z</time>
      </trkpt>
      <trkpt lat="45.00542" lon="-1.13899">
        <ele>26.9</ele>
        <time>2021-05-23T10:09:03Z</time>
      </trkpt>
      <trkpt lat="45.00526" lon="-1.13885">
        <ele>26.8</ele>
        <time>2021-05-23T10:09:05Z</time>
      </trkpt>
      <trkpt lat="45.00512" lon="-1.13869">
        <ele>26.8</ele>
        <time>2021-05-23T10:09:07Z</time>
      </trkpt>
      <trkpt lat="45.00505" lon="-1.13862">
        <ele>26.9</ele>
        <time>2021-05-23T10:09:08Z</time>
      </trkpt>
      <trkpt lat="45.00497" lon="-1.13855">
        <ele>26.9</ele>
        <time>2021-05-23T10:09:09Z</time>
      </trkpt>
      <trkpt lat="45.00483" lon="-1.13841">
        <ele>26.8</ele>
        <time>2021-05-23T10:09:11Z</time>
      </trkpt>
      <trkpt lat="45.00467" lon="-1.13826">
        <ele>26.8</ele>
        <time>2021-05-23T10:09:13Z</time>
      </trkpt>
      <trkpt lat="45.00453" lon="-1.13812">
        <ele>26.8</ele>
        <time>2021-05-23T10:09:15Z</time>
      </trkpt>
      <trkpt lat="45.0044" lon="-1.13796">
        <ele>26.9</ele>
        <time>2021-05-23T10:09:17Z</time>
      </trkpt>
      <trkpt lat="45.00434" lon="-1.13788">
        <ele>27</ele>
        <time>2021-05-23T10:09:18Z</time>
      </trkpt>
      <trkpt lat="45.00428" lon="-1.13781">
        <ele>27</ele>
        <time>2021-05-23T10:09:19Z</time>
      </trkpt>
      <trkpt lat="45.00422" lon="-1.13773">
        <ele>27.1</ele>
        <time>2021-05-23T10:09:20Z</time>
      </trkpt>
      <trkpt lat="45.00417" lon="-1.13768">
        <ele>27.1</ele>
        <time>2021-05-23T10:09:21Z</time>
      </trkpt>
      <trkpt lat="45.00405" lon="-1.13758">
        <ele>27.2</ele>
        <time>2021-05-23T10:09:23Z</time>
      </trkpt>
      <trkpt lat="45.0039" lon="-1.13755">
        <ele>27.1</ele>
        <time>2021-05-23T10:09:25Z</time>
      </trkpt>
      <trkpt lat="45.00383" lon="-1.13752">
        <ele>27</ele>
        <time>2021-05-23T10:09:26Z</time>
      </trkpt>
      <trkpt lat="45.00377" lon="-1.13746">
        <ele>26.9</ele>
        <time>2021-05-23T10:09:27Z</time>
      </trkpt>
      <trkpt lat="45.00366" lon="-1.13731">
        <ele>27</ele>
        <time>2021-05-23T10:09:29Z</time>
      </trkpt>
      <trkpt lat="45.00355" lon="-1.13715">
        <ele>27.1</ele>
        <time>2021-05-23T10:09:31Z</time>
      </trkpt>
      <trkpt lat="45.00345" lon="-1.13702">
        <ele>27.4</ele>
        <time>2021-05-23T10:09:33Z</time>
      </trkpt>
      <trkpt lat="45.00341" lon="-1.13697">
        <ele>27.5</ele>
        <time>2021-05-23T10:09:34Z</time>
      </trkpt>
      <trkpt lat="45.00338" lon="-1.13692">
        <ele>27.6</ele>
        <time>2021-05-23T10:09:35Z</time>
      </trkpt>
      <trkpt lat="45.00333" lon="-1.13679">
        <ele>27.6</ele>
        <time>2021-05-23T10:09:37Z</time>
      </trkpt>
      <trkpt lat="45.00332" lon="-1.13673">
        <ele>27.7</ele>
        <time>2021-05-23T10:09:38Z</time>
      </trkpt>
      <trkpt lat="45.00329" lon="-1.13667">
        <ele>27.6</ele>
        <time>2021-05-23T10:09:39Z</time>
      </trkpt>
      <trkpt lat="45.00328" lon="-1.1366">
        <ele>27.6</ele>
        <time>2021-05-23T10:09:40Z</time>
      </trkpt>
      <trkpt lat="45.00326" lon="-1.13653">
        <ele>27.6</ele>
        <time>2021-05-23T10:09:41Z</time>
      </trkpt>
      <trkpt lat="45.00322" lon="-1.13639">
        <ele>27.5</ele>
        <time>2021-05-23T10:09:43Z</time>
      </trkpt>
      <trkpt lat="45.0032" lon="-1.13632">
        <ele>27.5</ele>
        <time>2021-05-23T10:09:44Z</time>
      </trkpt>
      <trkpt lat="45.00319" lon="-1.13625">
        <ele>27.5</ele>
        <time>2021-05-23T10:09:45Z</time>
      </trkpt>
      <trkpt lat="45.00318" lon="-1.13611">
        <ele>27.3</ele>
        <time>2021-05-23T10:09:47Z</time>
      </trkpt>
      <trkpt lat="45.00317" lon="-1.13604">
        <ele>27.2</ele>
        <time>2021-05-23T10:09:48Z</time>
      </trkpt>
      <trkpt lat="45.00316" lon="-1.13596">
        <ele>27.1</ele>
        <time>2021-05-23T10:09:49Z</time>
      </trkpt>
      <trkpt lat="45.00315" lon="-1.13581">
        <ele>26.8</ele>
        <time>2021-05-23T10:09:51Z</time>
      </trkpt>
      <trkpt lat="45.00314" lon="-1.13566">
        <ele>26.6</ele>
        <time>2021-05-23T10:09:53Z</time>
      </trkpt>
      <trkpt lat="45.00314" lon="-1.13558">
        <ele>26.5</ele>
        <time>2021-05-23T10:09:54Z</time>
      </trkpt>
      <trkpt lat="45.00315" lon="-1.13551">
        <ele>26.4</ele>
        <time>2021-05-23T10:09:55Z</time>
      </trkpt>
      <trkpt lat="45.00316" lon="-1.13547">
        <ele>26.3</ele>
        <time>2021-05-23T10:09:56Z</time>
      </trkpt>
      <trkpt lat="45.00318" lon="-1.13544">
        <ele>26.3</ele>
        <time>2021-05-23T10:09:57Z</time>
      </trkpt>
      <trkpt lat="45.00321" lon="-1.13539">
        <ele>26.3</ele>
        <time>2021-05-23T10:09:58Z</time>
      </trkpt>
      <trkpt lat="45.00322" lon="-1.13535">
        <ele>26.2</ele>
        <time>2021-05-23T10:09:59Z</time>
      </trkpt>
      <trkpt lat="45.00323" lon="-1.13529">
        <ele>26.2</ele>
        <time>2021-05-23T10:10:00Z</time>
      </trkpt>
      <trkpt lat="45.00324" lon="-1.13522">
        <ele>26.2</ele>
        <time>2021-05-23T10:10:01Z</time>
      </trkpt>
      <trkpt lat="45.00325" lon="-1.13514">
        <ele>26.1</ele>
        <time>2021-05-23T10:10:02Z</time>
      </trkpt>
      <trkpt lat="45.00327" lon="-1.13506">
        <ele>26.1</ele>
        <time>2021-05-23T10:10:03Z</time>
      </trkpt>
      <trkpt lat="45.00329" lon="-1.1349">
        <ele>26.2</ele>
        <time>2021-05-23T10:10:05Z</time>
      </trkpt>
      <trkpt lat="45.00331" lon="-1.13481">
        <ele>26.3</ele>
        <time>2021-05-23T10:10:06Z</time>
      </trkpt>
      <trkpt lat="45.00333" lon="-1.13472">
        <ele>26.4</ele>
        <time>2021-05-23T10:10:07Z</time>
      </trkpt>
      <trkpt lat="45.00336" lon="-1.13455">
        <ele>26.8</ele>
        <time>2021-05-23T10:10:09Z</time>
      </trkpt>
      <trkpt lat="45.00339" lon="-1.13438">
        <ele>27</ele>
        <time>2021-05-23T10:10:11Z</time>
      </trkpt>
      <trkpt lat="45.0034" lon="-1.13429">
        <ele>27.1</ele>
        <time>2021-05-23T10:10:12Z</time>
      </trkpt>
      <trkpt lat="45.00341" lon="-1.13421">
        <ele>27.1</ele>
        <time>2021-05-23T10:10:13Z</time>
      </trkpt>
      <trkpt lat="45.00343" lon="-1.13413">
        <ele>27.1</ele>
        <time>2021-05-23T10:10:14Z</time>
      </trkpt>
      <trkpt lat="45.00344" lon="-1.13404">
        <ele>27.1</ele>
        <time>2021-05-23T10:10:15Z</time>
      </trkpt>
      <trkpt lat="45.00346" lon="-1.13388">
        <ele>27</ele>
        <time>2021-05-23T10:10:17Z</time>
      </trkpt>
      <trkpt lat="45.00346" lon="-1.13379">
        <ele>26.9</ele>
        <time>2021-05-23T10:10:18Z</time>
      </trkpt>
      <trkpt lat="45.00348" lon="-1.13371">
        <ele>26.9</ele>
        <time>2021-05-23T10:10:19Z</time>
      </trkpt>
      <trkpt lat="45.0035" lon="-1.13362">
        <ele>26.9</ele>
        <time>2021-05-23T10:10:20Z</time>
      </trkpt>
      <trkpt lat="45.00351" lon="-1.13353">
        <ele>26.8</ele>
        <time>2021-05-23T10:10:21Z</time>
      </trkpt>
      <trkpt lat="45.00353" lon="-1.13334">
        <ele>26.8</ele>
        <time>2021-05-23T10:10:23Z</time>
      </trkpt>
      <trkpt lat="45.00357" lon="-1.13316">
        <ele>26.7</ele>
        <time>2021-05-23T10:10:25Z</time>
      </trkpt>
      <trkpt lat="45.00362" lon="-1.13299">
        <ele>26.6</ele>
        <time>2021-05-23T10:10:27Z</time>
      </trkpt>
      <trkpt lat="45.00367" lon="-1.13281">
        <ele>26.5</ele>
        <time>2021-05-23T10:10:29Z</time>
      </trkpt>
      <trkpt lat="45.0037" lon="-1.13272">
        <ele>26.4</ele>
        <time>2021-05-23T10:10:30Z</time>
      </trkpt>
      <trkpt lat="45.00373" lon="-1.13263">
        <ele>26.4</ele>
        <time>2021-05-23T10:10:31Z</time>
      </trkpt>
      <trkpt lat="45.0038" lon="-1.13246">
        <ele>26.3</ele>
        <time>2021-05-23T10:10:33Z</time>
      </trkpt>
      <trkpt lat="45.00389" lon="-1.13228">
        <ele>26.1</ele>
        <time>2021-05-23T10:10:35Z</time>
      </trkpt>
      <trkpt lat="45.00393" lon="-1.13219">
        <ele>26</ele>
        <time>2021-05-23T10:10:36Z</time>
      </trkpt>
      <trkpt lat="45.00397" lon="-1.1321">
        <ele>25.8</ele>
        <time>2021-05-23T10:10:37Z</time>
      </trkpt>
      <trkpt lat="45.00406" lon="-1.13192">
        <ele>25.5</ele>
        <time>2021-05-23T10:10:39Z</time>
      </trkpt>
      <trkpt lat="45.0041" lon="-1.13183">
        <ele>25.4</ele>
        <time>2021-05-23T10:10:40Z</time>
      </trkpt>
      <trkpt lat="45.00415" lon="-1.13173">
        <ele>25.3</ele>
        <time>2021-05-23T10:10:41Z</time>
      </trkpt>
      <trkpt lat="45.00424" lon="-1.13153">
        <ele>24.9</ele>
        <time>2021-05-23T10:10:43Z</time>
      </trkpt>
      <trkpt lat="45.00429" lon="-1.13143">
        <ele>24.8</ele>
        <time>2021-05-23T10:10:44Z</time>
      </trkpt>
      <trkpt lat="45.00434" lon="-1.13132">
        <ele>24.7</ele>
        <time>2021-05-23T10:10:45Z</time>
      </trkpt>
      <trkpt lat="45.00443" lon="-1.13111">
        <ele>24.5</ele>
        <time>2021-05-23T10:10:47Z</time>
      </trkpt>
      <trkpt lat="45.00453" lon="-1.13089">
        <ele>24.5</ele>
        <time>2021-05-23T10:10:49Z</time>
      </trkpt>
      <trkpt lat="45.00461" lon="-1.13068">
        <ele>24.4</ele>
        <time>2021-05-23T10:10:51Z</time>
      </trkpt>
      <trkpt lat="45.00465" lon="-1.13057">
        <ele>24.2</ele>
        <time>2021-05-23T10:10:52Z</time>
      </trkpt>
      <trkpt lat="45.00468" lon="-1.13047">
        <ele>24.1</ele>
        <time>2021-05-23T10:10:53Z</time>
      </trkpt>
      <trkpt lat="45.00473" lon="-1.13036">
        <ele>24</ele>
        <time>2021-05-23T10:10:54Z</time>
      </trkpt>
      <trkpt lat="45.00476" lon="-1.13025">
        <ele>23.8</ele>
        <time>2021-05-23T10:10:55Z</time>
      </trkpt>
      <trkpt lat="45.00483" lon="-1.13">
        <ele>23.6</ele>
        <time>2021-05-23T10:10:57Z</time>
      </trkpt>
      <trkpt lat="45.00489" lon="-1.12974">
        <ele>23.5</ele>
        <time>2021-05-23T10:10:59Z</time>
      </trkpt>
      <trkpt lat="45.00496" lon="-1.12947">
        <ele>23.3</ele>
        <time>2021-05-23T10:11:01Z</time>
      </trkpt>
      <trkpt lat="45.00502" lon="-1.12919">
        <ele>23</ele>
        <time>2021-05-23T10:11:03Z</time>
      </trkpt>
      <trkpt lat="45.00508" lon="-1.12891">
        <ele>22.7</ele>
        <time>2021-05-23T10:11:05Z</time>
      </trkpt>
      <trkpt lat="45.00511" lon="-1.12878">
        <ele>22.6</ele>
        <time>2021-05-23T10:11:06Z</time>
      </trkpt>
      <trkpt lat="45.00515" lon="-1.12865">
        <ele>22.6</ele>
        <time>2021-05-23T10:11:07Z</time>
      </trkpt>
      <trkpt lat="45.00521" lon="-1.12838">
        <ele>22.6</ele>
        <time>2021-05-23T10:11:09Z</time>
      </trkpt>
      <trkpt lat="45.00527" lon="-1.12813">
        <ele>22.5</ele>
        <time>2021-05-23T10:11:11Z</time>
      </trkpt>
      <trkpt lat="45.00533" lon="-1.12787">
        <ele>22.4</ele>
        <time>2021-05-23T10:11:13Z</time>
      </trkpt>
      <trkpt lat="45.0054" lon="-1.12762">
        <ele>22.4</ele>
        <time>2021-05-23T10:11:15Z</time>
      </trkpt>
      <trkpt lat="45.00546" lon="-1.12737">
        <ele>22.4</ele>
        <time>2021-05-23T10:11:17Z</time>
      </trkpt>
      <trkpt lat="45.0055" lon="-1.12724">
        <ele>22.4</ele>
        <time>2021-05-23T10:11:18Z</time>
      </trkpt>
      <trkpt lat="45.00553" lon="-1.12712">
        <ele>22.3</ele>
        <time>2021-05-23T10:11:19Z</time>
      </trkpt>
      <trkpt lat="45.00559" lon="-1.12688">
        <ele>22.2</ele>
        <time>2021-05-23T10:11:21Z</time>
      </trkpt>
      <trkpt lat="45.00565" lon="-1.12663">
        <ele>22</ele>
        <time>2021-05-23T10:11:23Z</time>
      </trkpt>
      <trkpt lat="45.0057" lon="-1.12637">
        <ele>21.8</ele>
        <time>2021-05-23T10:11:25Z</time>
      </trkpt>
      <trkpt lat="45.00576" lon="-1.1261">
        <ele>21.7</ele>
        <time>2021-05-23T10:11:27Z</time>
      </trkpt>
      <trkpt lat="45.00583" lon="-1.12584">
        <ele>21.6</ele>
        <time>2021-05-23T10:11:29Z</time>
      </trkpt>
      <trkpt lat="45.00586" lon="-1.12571">
        <ele>21.6</ele>
        <time>2021-05-23T10:11:30Z</time>
      </trkpt>
      <trkpt lat="45.0059" lon="-1.12559">
        <ele>21.6</ele>
        <time>2021-05-23T10:11:31Z</time>
      </trkpt>
      <trkpt lat="45.00596" lon="-1.12536">
        <ele>21.6</ele>
        <time>2021-05-23T10:11:33Z</time>
      </trkpt>
      <trkpt lat="45.00601" lon="-1.12513">
        <ele>21.6</ele>
        <time>2021-05-23T10:11:35Z</time>
      </trkpt>
      <trkpt lat="45.00604" lon="-1.12502">
        <ele>21.7</ele>
        <time>2021-05-23T10:11:36Z</time>
      </trkpt>
      <trkpt lat="45.00607" lon="-1.1249">
        <ele>21.7</ele>
        <time>2021-05-23T10:11:37Z</time>
      </trkpt>
      <trkpt lat="45.00613" lon="-1.12467">
        <ele>21.7</ele>
        <time>2021-05-23T10:11:39Z</time>
      </trkpt>
      <trkpt lat="45.00618" lon="-1.12445">
        <ele>21.6</ele>
        <time>2021-05-23T10:11:41Z</time>
      </trkpt>
      <trkpt lat="45.00624" lon="-1.12424">
        <ele>21.6</ele>
        <time>2021-05-23T10:11:43Z</time>
      </trkpt>
      <trkpt lat="45.00627" lon="-1.12413">
        <ele>21.6</ele>
        <time>2021-05-23T10:11:44Z</time>
      </trkpt>
      <trkpt lat="45.00629" lon="-1.12403">
        <ele>21.5</ele>
        <time>2021-05-23T10:11:45Z</time>
      </trkpt>
      <trkpt lat="45.00634" lon="-1.12383">
        <ele>21.4</ele>
        <time>2021-05-23T10:11:47Z</time>
      </trkpt>
      <trkpt lat="45.00638" lon="-1.12364">
        <ele>21.4</ele>
        <time>2021-05-23T10:11:49Z</time>
      </trkpt>
      <trkpt lat="45.00643" lon="-1.12346">
        <ele>21.3</ele>
        <time>2021-05-23T10:11:51Z</time>
      </trkpt>
      <trkpt lat="45.00648" lon="-1.12327">
        <ele>21.3</ele>
        <time>2021-05-23T10:11:53Z</time>
      </trkpt>
      <trkpt lat="45.00653" lon="-1.12307">
        <ele>21.2</ele>
        <time>2021-05-23T10:11:55Z</time>
      </trkpt>
      <trkpt lat="45.00657" lon="-1.12288">
        <ele>21.1</ele>
        <time>2021-05-23T10:11:57Z</time>
      </trkpt>
      <trkpt lat="45.00663" lon="-1.12269">
        <ele>20.9</ele>
        <time>2021-05-23T10:11:59Z</time>
      </trkpt>
      <trkpt lat="45.00668" lon="-1.12249">
        <ele>20.7</ele>
        <time>2021-05-23T10:12:01Z</time>
      </trkpt>
      <trkpt lat="45.00674" lon="-1.12228">
        <ele>20.6</ele>
        <time>2021-05-23T10:12:03Z</time>
      </trkpt>
      <trkpt lat="45.00679" lon="-1.12207">
        <ele>20.5</ele>
        <time>2021-05-23T10:12:05Z</time>
      </trkpt>
      <trkpt lat="45.00683" lon="-1.12187">
        <ele>20.5</ele>
        <time>2021-05-23T10:12:07Z</time>
      </trkpt>
      <trkpt lat="45.00686" lon="-1.12178">
        <ele>20.4</ele>
        <time>2021-05-23T10:12:08Z</time>
      </trkpt>
      <trkpt lat="45.00688" lon="-1.12167">
        <ele>20.4</ele>
        <time>2021-05-23T10:12:09Z</time>
      </trkpt>
      <trkpt lat="45.00694" lon="-1.12147">
        <ele>20.3</ele>
        <time>2021-05-23T10:12:11Z</time>
      </trkpt>
      <trkpt lat="45.00699" lon="-1.12128">
        <ele>20.3</ele>
        <time>2021-05-23T10:12:13Z</time>
      </trkpt>
      <trkpt lat="45.00701" lon="-1.12118">
        <ele>20.3</ele>
        <time>2021-05-23T10:12:14Z</time>
      </trkpt>
      <trkpt lat="45.00703" lon="-1.12108">
        <ele>20.3</ele>
        <time>2021-05-23T10:12:15Z</time>
      </trkpt>
      <trkpt lat="45.00708" lon="-1.12089">
        <ele>20.2</ele>
        <time>2021-05-23T10:12:17Z</time>
      </trkpt>
      <trkpt lat="45.00714" lon="-1.12069">
        <ele>20.1</ele>
        <time>2021-05-23T10:12:19Z</time>
      </trkpt>
      <trkpt lat="45.00716" lon="-1.12059">
        <ele>20</ele>
        <time>2021-05-23T10:12:20Z</time>
      </trkpt>
      <trkpt lat="45.00719" lon="-1.12049">
        <ele>19.9</ele>
        <time>2021-05-23T10:12:21Z</time>
      </trkpt>
      <trkpt lat="45.00725" lon="-1.12029">
        <ele>19.7</ele>
        <time>2021-05-23T10:12:23Z</time>
      </trkpt>
      <trkpt lat="45.00729" lon="-1.12008">
        <ele>19.7</ele>
        <time>2021-05-23T10:12:25Z</time>
      </trkpt>
      <trkpt lat="45.00732" lon="-1.11997">
        <ele>19.7</ele>
        <time>2021-05-23T10:12:26Z</time>
      </trkpt>
      <trkpt lat="45.00734" lon="-1.11987">
        <ele>19.7</ele>
        <time>2021-05-23T10:12:27Z</time>
      </trkpt>
      <trkpt lat="45.00738" lon="-1.11968">
        <ele>19.7</ele>
        <time>2021-05-23T10:12:29Z</time>
      </trkpt>
      <trkpt lat="45.00742" lon="-1.11948">
        <ele>19.7</ele>
        <time>2021-05-23T10:12:31Z</time>
      </trkpt>
      <trkpt lat="45.00745" lon="-1.11938">
        <ele>19.6</ele>
        <time>2021-05-23T10:12:32Z</time>
      </trkpt>
      <trkpt lat="45.00747" lon="-1.11928">
        <ele>19.6</ele>
        <time>2021-05-23T10:12:33Z</time>
      </trkpt>
      <trkpt lat="45.00751" lon="-1.11908">
        <ele>19.6</ele>
        <time>2021-05-23T10:12:35Z</time>
      </trkpt>
      <trkpt lat="45.00755" lon="-1.11889">
        <ele>19.7</ele>
        <time>2021-05-23T10:12:37Z</time>
      </trkpt>
      <trkpt lat="45.00759" lon="-1.11871">
        <ele>19.8</ele>
        <time>2021-05-23T10:12:39Z</time>
      </trkpt>
      <trkpt lat="45.00763" lon="-1.11854">
        <ele>20</ele>
        <time>2021-05-23T10:12:41Z</time>
      </trkpt>
      <trkpt lat="45.00763" lon="-1.11847">
        <ele>20.1</ele>
        <time>2021-05-23T10:12:42Z</time>
      </trkpt>
      <trkpt lat="45.00764" lon="-1.11841">
        <ele>20.2</ele>
        <time>2021-05-23T10:12:43Z</time>
      </trkpt>
      <trkpt lat="45.00765" lon="-1.1183">
        <ele>20.3</ele>
        <time>2021-05-23T10:12:45Z</time>
      </trkpt>
      <trkpt lat="45.00766" lon="-1.11824">
        <ele>20.4</ele>
        <time>2021-05-23T10:12:47Z</time>
      </trkpt>
      <trkpt lat="45.00763" lon="-1.11818">
        <ele>20.3</ele>
        <time>2021-05-23T10:12:49Z</time>
      </trkpt>
      <trkpt lat="45.00759" lon="-1.1181">
        <ele>20.3</ele>
        <time>2021-05-23T10:12:51Z</time>
      </trkpt>
      <trkpt lat="45.00756" lon="-1.11806">
        <ele>20.3</ele>
        <time>2021-05-23T10:12:52Z</time>
      </trkpt>
      <trkpt lat="45.00753" lon="-1.11801">
        <ele>20.2</ele>
        <time>2021-05-23T10:12:53Z</time>
      </trkpt>
      <trkpt lat="45.00751" lon="-1.11795">
        <ele>20.2</ele>
        <time>2021-05-23T10:12:54Z</time>
      </trkpt>
      <trkpt lat="45.0075" lon="-1.11789">
        <ele>20.1</ele>
        <time>2021-05-23T10:12:55Z</time>
      </trkpt>
      <trkpt lat="45.00748" lon="-1.11777">
        <ele>20.1</ele>
        <time>2021-05-23T10:12:57Z</time>
      </trkpt>
      <trkpt lat="45.00744" lon="-1.11769">
        <ele>20</ele>
        <time>2021-05-23T10:12:59Z</time>
      </trkpt>
      <trkpt lat="45.00743" lon="-1.11762">
        <ele>20</ele>
        <time>2021-05-23T10:13:01Z</time>
      </trkpt>
      <trkpt lat="45.00745" lon="-1.11754">
        <ele>19.9</ele>
        <time>2021-05-23T10:13:03Z</time>
      </trkpt>
      <trkpt lat="45.00747" lon="-1.11749">
        <ele>19.9</ele>
        <time>2021-05-23T10:13:04Z</time>
      </trkpt>
      <trkpt lat="45.00749" lon="-1.11744">
        <ele>19.9</ele>
        <time>2021-05-23T10:13:05Z</time>
      </trkpt>
      <trkpt lat="45.00755" lon="-1.11731">
        <ele>19.8</ele>
        <time>2021-05-23T10:13:07Z</time>
      </trkpt>
      <trkpt lat="45.00759" lon="-1.11715">
        <ele>19.8</ele>
        <time>2021-05-23T10:13:09Z</time>
      </trkpt>
      <trkpt lat="45.00761" lon="-1.11697">
        <ele>19.8</ele>
        <time>2021-05-23T10:13:11Z</time>
      </trkpt>
      <trkpt lat="45.00762" lon="-1.11687">
        <ele>19.8</ele>
        <time>2021-05-23T10:13:12Z</time>
      </trkpt>
      <trkpt lat="45.00763" lon="-1.11678">
        <ele>19.9</ele>
        <time>2021-05-23T10:13:13Z</time>
      </trkpt>
      <trkpt lat="45.00764" lon="-1.11658">
        <ele>19.8</ele>
        <time>2021-05-23T10:13:15Z</time>
      </trkpt>
      <trkpt lat="45.00764" lon="-1.11638">
        <ele>19.8</ele>
        <time>2021-05-23T10:13:17Z</time>
      </trkpt>
      <trkpt lat="45.00763" lon="-1.11618">
        <ele>19.7</ele>
        <time>2021-05-23T10:13:19Z</time>
      </trkpt>
      <trkpt lat="45.00762" lon="-1.11597">
        <ele>19.7</ele>
        <time>2021-05-23T10:13:21Z</time>
      </trkpt>
      <trkpt lat="45.00762" lon="-1.11577">
        <ele>19.8</ele>
        <time>2021-05-23T10:13:23Z</time>
      </trkpt>
      <trkpt lat="45.00762" lon="-1.11556">
        <ele>20</ele>
        <time>2021-05-23T10:13:25Z</time>
      </trkpt>
      <trkpt lat="45.00761" lon="-1.11546">
        <ele>20</ele>
        <time>2021-05-23T10:13:26Z</time>
      </trkpt>
      <trkpt lat="45.00761" lon="-1.11536">
        <ele>20.1</ele>
        <time>2021-05-23T10:13:27Z</time>
      </trkpt>
      <trkpt lat="45.00759" lon="-1.11527">
        <ele>20.1</ele>
        <time>2021-05-23T10:13:28Z</time>
      </trkpt>
      <trkpt lat="45.00757" lon="-1.11518">
        <ele>20.1</ele>
        <time>2021-05-23T10:13:29Z</time>
      </trkpt>
      <trkpt lat="45.00756" lon="-1.11508">
        <ele>20.2</ele>
        <time>2021-05-23T10:13:30Z</time>
      </trkpt>
      <trkpt lat="45.00756" lon="-1.11499">
        <ele>20.2</ele>
        <time>2021-05-23T10:13:31Z</time>
      </trkpt>
      <trkpt lat="45.00756" lon="-1.1148">
        <ele>20.1</ele>
        <time>2021-05-23T10:13:33Z</time>
      </trkpt>
      <trkpt lat="45.00755" lon="-1.1146">
        <ele>20</ele>
        <time>2021-05-23T10:13:35Z</time>
      </trkpt>
      <trkpt lat="45.00755" lon="-1.1144">
        <ele>19.9</ele>
        <time>2021-05-23T10:13:37Z</time>
      </trkpt>
      <trkpt lat="45.00756" lon="-1.11418">
        <ele>19.7</ele>
        <time>2021-05-23T10:13:39Z</time>
      </trkpt>
      <trkpt lat="45.00756" lon="-1.11397">
        <ele>19.5</ele>
        <time>2021-05-23T10:13:41Z</time>
      </trkpt>
      <trkpt lat="45.00756" lon="-1.11386">
        <ele>19.4</ele>
        <time>2021-05-23T10:13:42Z</time>
      </trkpt>
      <trkpt lat="45.00756" lon="-1.11376">
        <ele>19.4</ele>
        <time>2021-05-23T10:13:43Z</time>
      </trkpt>
      <trkpt lat="45.00755" lon="-1.11353">
        <ele>19.2</ele>
        <time>2021-05-23T10:13:45Z</time>
      </trkpt>
      <trkpt lat="45.00754" lon="-1.11331">
        <ele>19</ele>
        <time>2021-05-23T10:13:47Z</time>
      </trkpt>
      <trkpt lat="45.00753" lon="-1.11309">
        <ele>18.9</ele>
        <time>2021-05-23T10:13:49Z</time>
      </trkpt>
      <trkpt lat="45.00752" lon="-1.11287">
        <ele>18.7</ele>
        <time>2021-05-23T10:13:51Z</time>
      </trkpt>
      <trkpt lat="45.00751" lon="-1.11264">
        <ele>18.6</ele>
        <time>2021-05-23T10:13:53Z</time>
      </trkpt>
      <trkpt lat="45.00751" lon="-1.11241">
        <ele>18.6</ele>
        <time>2021-05-23T10:13:55Z</time>
      </trkpt>
      <trkpt lat="45.00751" lon="-1.11219">
        <ele>18.6</ele>
        <time>2021-05-23T10:13:57Z</time>
      </trkpt>
      <trkpt lat="45.00751" lon="-1.11196">
        <ele>18.6</ele>
        <time>2021-05-23T10:13:59Z</time>
      </trkpt>
      <trkpt lat="45.0075" lon="-1.11174">
        <ele>18.5</ele>
        <time>2021-05-23T10:14:01Z</time>
      </trkpt>
      <trkpt lat="45.0075" lon="-1.11151">
        <ele>18.5</ele>
        <time>2021-05-23T10:14:03Z</time>
      </trkpt>
      <trkpt lat="45.0075" lon="-1.11128">
        <ele>18.5</ele>
        <time>2021-05-23T10:14:05Z</time>
      </trkpt>
      <trkpt lat="45.0075" lon="-1.11117">
        <ele>18.5</ele>
        <time>2021-05-23T10:14:06Z</time>
      </trkpt>
      <trkpt lat="45.0075" lon="-1.11106">
        <ele>18.5</ele>
        <time>2021-05-23T10:14:07Z</time>
      </trkpt>
      <trkpt lat="45.00749" lon="-1.11084">
        <ele>18.5</ele>
        <time>2021-05-23T10:14:09Z</time>
      </trkpt>
      <trkpt lat="45.00749" lon="-1.11061">
        <ele>18.4</ele>
        <time>2021-05-23T10:14:11Z</time>
      </trkpt>
      <trkpt lat="45.00748" lon="-1.11039">
        <ele>18.4</ele>
        <time>2021-05-23T10:14:13Z</time>
      </trkpt>
      <trkpt lat="45.00748" lon="-1.11028">
        <ele>18.4</ele>
        <time>2021-05-23T10:14:14Z</time>
      </trkpt>
      <trkpt lat="45.00747" lon="-1.11017">
        <ele>18.4</ele>
        <time>2021-05-23T10:14:15Z</time>
      </trkpt>
      <trkpt lat="45.00747" lon="-1.10995">
        <ele>18.4</ele>
        <time>2021-05-23T10:14:17Z</time>
      </trkpt>
      <trkpt lat="45.00746" lon="-1.10973">
        <ele>18.4</ele>
        <time>2021-05-23T10:14:19Z</time>
      </trkpt>
      <trkpt lat="45.00746" lon="-1.10951">
        <ele>18.4</ele>
        <time>2021-05-23T10:14:21Z</time>
      </trkpt>
      <trkpt lat="45.00745" lon="-1.10928">
        <ele>18.4</ele>
        <time>2021-05-23T10:14:23Z</time>
      </trkpt>
      <trkpt lat="45.00745" lon="-1.10906">
        <ele>18.4</ele>
        <time>2021-05-23T10:14:25Z</time>
      </trkpt>
      <trkpt lat="45.00745" lon="-1.10883">
        <ele>18.4</ele>
        <time>2021-05-23T10:14:27Z</time>
      </trkpt>
      <trkpt lat="45.00745" lon="-1.10871">
        <ele>18.4</ele>
        <time>2021-05-23T10:14:28Z</time>
      </trkpt>
      <trkpt lat="45.00745" lon="-1.1086">
        <ele>18.5</ele>
        <time>2021-05-23T10:14:29Z</time>
      </trkpt>
      <trkpt lat="45.00744" lon="-1.10837">
        <ele>18.5</ele>
        <time>2021-05-23T10:14:31Z</time>
      </trkpt>
      <trkpt lat="45.00743" lon="-1.10813">
        <ele>18.5</ele>
        <time>2021-05-23T10:14:33Z</time>
      </trkpt>
      <trkpt lat="45.00743" lon="-1.1079">
        <ele>18.5</ele>
        <time>2021-05-23T10:14:35Z</time>
      </trkpt>
      <trkpt lat="45.00741" lon="-1.10767">
        <ele>18.5</ele>
        <time>2021-05-23T10:14:37Z</time>
      </trkpt>
      <trkpt lat="45.0074" lon="-1.10745">
        <ele>18.5</ele>
        <time>2021-05-23T10:14:39Z</time>
      </trkpt>
      <trkpt lat="45.00737" lon="-1.10724">
        <ele>18.6</ele>
        <time>2021-05-23T10:14:41Z</time>
      </trkpt>
      <trkpt lat="45.00734" lon="-1.10703">
        <ele>18.6</ele>
        <time>2021-05-23T10:14:43Z</time>
      </trkpt>
      <trkpt lat="45.0073" lon="-1.10682">
        <ele>18.6</ele>
        <time>2021-05-23T10:14:45Z</time>
      </trkpt>
      <trkpt lat="45.00727" lon="-1.10662">
        <ele>18.6</ele>
        <time>2021-05-23T10:14:47Z</time>
      </trkpt>
      <trkpt lat="45.00723" lon="-1.10641">
        <ele>18.5</ele>
        <time>2021-05-23T10:14:49Z</time>
      </trkpt>
      <trkpt lat="45.0072" lon="-1.1063">
        <ele>18.5</ele>
        <time>2021-05-23T10:14:50Z</time>
      </trkpt>
      <trkpt lat="45.00718" lon="-1.1062">
        <ele>18.5</ele>
        <time>2021-05-23T10:14:51Z</time>
      </trkpt>
      <trkpt lat="45.00717" lon="-1.10609">
        <ele>18.5</ele>
        <time>2021-05-23T10:14:52Z</time>
      </trkpt>
      <trkpt lat="45.00715" lon="-1.10598">
        <ele>18.5</ele>
        <time>2021-05-23T10:14:53Z</time>
      </trkpt>
      <trkpt lat="45.00713" lon="-1.10587">
        <ele>18.5</ele>
        <time>2021-05-23T10:14:54Z</time>
      </trkpt>
      <trkpt lat="45.00711" lon="-1.10577">
        <ele>18.6</ele>
        <time>2021-05-23T10:14:55Z</time>
      </trkpt>
      <trkpt lat="45.00705" lon="-1.10556">
        <ele>18.6</ele>
        <time>2021-05-23T10:14:57Z</time>
      </trkpt>
      <trkpt lat="45.007" lon="-1.10535">
        <ele>18.6</ele>
        <time>2021-05-23T10:14:59Z</time>
      </trkpt>
      <trkpt lat="45.00697" lon="-1.10525">
        <ele>18.7</ele>
        <time>2021-05-23T10:15:00Z</time>
      </trkpt>
      <trkpt lat="45.00694" lon="-1.10515">
        <ele>18.7</ele>
        <time>2021-05-23T10:15:01Z</time>
      </trkpt>
      <trkpt lat="45.00689" lon="-1.10495">
        <ele>18.8</ele>
        <time>2021-05-23T10:15:03Z</time>
      </trkpt>
      <trkpt lat="45.00684" lon="-1.10475">
        <ele>18.9</ele>
        <time>2021-05-23T10:15:05Z</time>
      </trkpt>
      <trkpt lat="45.00681" lon="-1.10465">
        <ele>19</ele>
        <time>2021-05-23T10:15:06Z</time>
      </trkpt>
      <trkpt lat="45.0068" lon="-1.10456">
        <ele>19</ele>
        <time>2021-05-23T10:15:07Z</time>
      </trkpt>
      <trkpt lat="45.00677" lon="-1.10437">
        <ele>19.2</ele>
        <time>2021-05-23T10:15:09Z</time>
      </trkpt>
      <trkpt lat="45.00673" lon="-1.1043">
        <ele>19.2</ele>
        <time>2021-05-23T10:15:10Z</time>
      </trkpt>
      <trkpt lat="45.00668" lon="-1.10424">
        <ele>19.2</ele>
        <time>2021-05-23T10:15:11Z</time>
      </trkpt>
      <trkpt lat="45.00661" lon="-1.1042">
        <ele>19.2</ele>
        <time>2021-05-23T10:15:12Z</time>
      </trkpt>
      <trkpt lat="45.00655" lon="-1.10419">
        <ele>19.1</ele>
        <time>2021-05-23T10:15:13Z</time>
      </trkpt>
      <trkpt lat="45.00641" lon="-1.1042">
        <ele>19</ele>
        <time>2021-05-23T10:15:15Z</time>
      </trkpt>
      <trkpt lat="45.00626" lon="-1.10423">
        <ele>18.9</ele>
        <time>2021-05-23T10:15:17Z</time>
      </trkpt>
      <trkpt lat="45.0061" lon="-1.10426">
        <ele>18.8</ele>
        <time>2021-05-23T10:15:19Z</time>
      </trkpt>
      <trkpt lat="45.00594" lon="-1.10428">
        <ele>18.8</ele>
        <time>2021-05-23T10:15:21Z</time>
      </trkpt>
      <trkpt lat="45.00579" lon="-1.10431">
        <ele>18.8</ele>
        <time>2021-05-23T10:15:23Z</time>
      </trkpt>
      <trkpt lat="45.00564" lon="-1.1043">
        <ele>18.8</ele>
        <time>2021-05-23T10:15:25Z</time>
      </trkpt>
      <trkpt lat="45.00556" lon="-1.10426">
        <ele>18.9</ele>
        <time>2021-05-23T10:15:26Z</time>
      </trkpt>
      <trkpt lat="45.0055" lon="-1.10421">
        <ele>18.9</ele>
        <time>2021-05-23T10:15:27Z</time>
      </trkpt>
      <trkpt lat="45.00536" lon="-1.10409">
        <ele>18.9</ele>
        <time>2021-05-23T10:15:29Z</time>
      </trkpt>
      <trkpt lat="45.00523" lon="-1.10398">
        <ele>18.9</ele>
        <time>2021-05-23T10:15:31Z</time>
      </trkpt>
      <trkpt lat="45.00516" lon="-1.10392">
        <ele>18.9</ele>
        <time>2021-05-23T10:15:32Z</time>
      </trkpt>
      <trkpt lat="45.0051" lon="-1.10386">
        <ele>18.9</ele>
        <time>2021-05-23T10:15:33Z</time>
      </trkpt>
      <trkpt lat="45.00496" lon="-1.10375">
        <ele>18.9</ele>
        <time>2021-05-23T10:15:35Z</time>
      </trkpt>
      <trkpt lat="45.00482" lon="-1.10363">
        <ele>18.9</ele>
        <time>2021-05-23T10:15:37Z</time>
      </trkpt>
      <trkpt lat="45.00468" lon="-1.10352">
        <ele>18.9</ele>
        <time>2021-05-23T10:15:39Z</time>
      </trkpt>
      <trkpt lat="45.00455" lon="-1.10341">
        <ele>18.9</ele>
        <time>2021-05-23T10:15:41Z</time>
      </trkpt>
      <trkpt lat="45.00441" lon="-1.10329">
        <ele>19</ele>
        <time>2021-05-23T10:15:43Z</time>
      </trkpt>
      <trkpt lat="45.00427" lon="-1.1032">
        <ele>19</ele>
        <time>2021-05-23T10:15:45Z</time>
      </trkpt>
      <trkpt lat="45.00414" lon="-1.10309">
        <ele>19</ele>
        <time>2021-05-23T10:15:47Z</time>
      </trkpt>
      <trkpt lat="45.004" lon="-1.10299">
        <ele>19.1</ele>
        <time>2021-05-23T10:15:49Z</time>
      </trkpt>
      <trkpt lat="45.00393" lon="-1.10294">
        <ele>19.1</ele>
        <time>2021-05-23T10:15:50Z</time>
      </trkpt>
      <trkpt lat="45.00387" lon="-1.10288">
        <ele>19.2</ele>
        <time>2021-05-23T10:15:51Z</time>
      </trkpt>
      <trkpt lat="45.00374" lon="-1.10277">
        <ele>19.2</ele>
        <time>2021-05-23T10:15:53Z</time>
      </trkpt>
      <trkpt lat="45.0036" lon="-1.10264">
        <ele>19.2</ele>
        <time>2021-05-23T10:15:55Z</time>
      </trkpt>
      <trkpt lat="45.00354" lon="-1.10259">
        <ele>19.2</ele>
        <time>2021-05-23T10:15:56Z</time>
      </trkpt>
      <trkpt lat="45.00348" lon="-1.10253">
        <ele>19.2</ele>
        <time>2021-05-23T10:15:57Z</time>
      </trkpt>
      <trkpt lat="45.00334" lon="-1.10241">
        <ele>19.2</ele>
        <time>2021-05-23T10:15:59Z</time>
      </trkpt>
      <trkpt lat="45.0032" lon="-1.1023">
        <ele>19.1</ele>
        <time>2021-05-23T10:16:01Z</time>
      </trkpt>
      <trkpt lat="45.00306" lon="-1.10219">
        <ele>19.1</ele>
        <time>2021-05-23T10:16:03Z</time>
      </trkpt>
      <trkpt lat="45.00293" lon="-1.10207">
        <ele>19.1</ele>
        <time>2021-05-23T10:16:05Z</time>
      </trkpt>
      <trkpt lat="45.00286" lon="-1.10201">
        <ele>19.2</ele>
        <time>2021-05-23T10:16:06Z</time>
      </trkpt>
      <trkpt lat="45.00279" lon="-1.10196">
        <ele>19.2</ele>
        <time>2021-05-23T10:16:07Z</time>
      </trkpt>
      <trkpt lat="45.00266" lon="-1.10184">
        <ele>19.2</ele>
        <time>2021-05-23T10:16:09Z</time>
      </trkpt>
      <trkpt lat="45.00259" lon="-1.10177">
        <ele>19.2</ele>
        <time>2021-05-23T10:16:10Z</time>
      </trkpt>
      <trkpt lat="45.00251" lon="-1.10172">
        <ele>19.2</ele>
        <time>2021-05-23T10:16:11Z</time>
      </trkpt>
      <trkpt lat="45.00243" lon="-1.10167">
        <ele>19.2</ele>
        <time>2021-05-23T10:16:12Z</time>
      </trkpt>
      <trkpt lat="45.00234" lon="-1.10164">
        <ele>19.2</ele>
        <time>2021-05-23T10:16:13Z</time>
      </trkpt>
      <trkpt lat="45.00226" lon="-1.10163">
        <ele>19.2</ele>
        <time>2021-05-23T10:16:14Z</time>
      </trkpt>
      <trkpt lat="45.00217" lon="-1.10161">
        <ele>19.2</ele>
        <time>2021-05-23T10:16:15Z</time>
      </trkpt>
      <trkpt lat="45.002" lon="-1.10159">
        <ele>19.2</ele>
        <time>2021-05-23T10:16:17Z</time>
      </trkpt>
      <trkpt lat="45.00183" lon="-1.10156">
        <ele>19.2</ele>
        <time>2021-05-23T10:16:19Z</time>
      </trkpt>
      <trkpt lat="45.00168" lon="-1.10154">
        <ele>19.2</ele>
        <time>2021-05-23T10:16:21Z</time>
      </trkpt>
      <trkpt lat="45.00152" lon="-1.10151">
        <ele>19.2</ele>
        <time>2021-05-23T10:16:23Z</time>
      </trkpt>
      <trkpt lat="45.00137" lon="-1.10148">
        <ele>19.2</ele>
        <time>2021-05-23T10:16:25Z</time>
      </trkpt>
      <trkpt lat="45.00122" lon="-1.10146">
        <ele>19.2</ele>
        <time>2021-05-23T10:16:27Z</time>
      </trkpt>
      <trkpt lat="45.00108" lon="-1.10144">
        <ele>19.3</ele>
        <time>2021-05-23T10:16:29Z</time>
      </trkpt>
      <trkpt lat="45.00101" lon="-1.10143">
        <ele>19.3</ele>
        <time>2021-05-23T10:16:30Z</time>
      </trkpt>
      <trkpt lat="45.00095" lon="-1.10144">
        <ele>19.3</ele>
        <time>2021-05-23T10:16:31Z</time>
      </trkpt>
      <trkpt lat="45.00089" lon="-1.10148">
        <ele>19.3</ele>
        <time>2021-05-23T10:16:32Z</time>
      </trkpt>
      <trkpt lat="45.00084" lon="-1.10154">
        <ele>19.3</ele>
        <time>2021-05-23T10:16:33Z</time>
      </trkpt>
      <trkpt lat="45.0008" lon="-1.1016">
        <ele>19.3</ele>
        <time>2021-05-23T10:16:34Z</time>
      </trkpt>
      <trkpt lat="45.00076" lon="-1.10167">
        <ele>19.2</ele>
        <time>2021-05-23T10:16:35Z</time>
      </trkpt>
      <trkpt lat="45.00067" lon="-1.10182">
        <ele>19.1</ele>
        <time>2021-05-23T10:16:37Z</time>
      </trkpt>
      <trkpt lat="45.00058" lon="-1.10197">
        <ele>19.1</ele>
        <time>2021-05-23T10:16:39Z</time>
      </trkpt>
      <trkpt lat="45.00054" lon="-1.10205">
        <ele>19.1</ele>
        <time>2021-05-23T10:16:40Z</time>
      </trkpt>
      <trkpt lat="45.0005" lon="-1.10213">
        <ele>19.1</ele>
        <time>2021-05-23T10:16:41Z</time>
      </trkpt>
      <trkpt lat="45.0004" lon="-1.10228">
        <ele>19.1</ele>
        <time>2021-05-23T10:16:43Z</time>
      </trkpt>
      <trkpt lat="45.0003" lon="-1.10242">
        <ele>19.1</ele>
        <time>2021-05-23T10:16:45Z</time>
      </trkpt>
      <trkpt lat="45.00021" lon="-1.10254">
        <ele>19.2</ele>
        <time>2021-05-23T10:16:47Z</time>
      </trkpt>
      <trkpt lat="45.00012" lon="-1.10266">
        <ele>19.2</ele>
        <time>2021-05-23T10:16:49Z</time>
      </trkpt>
      <trkpt lat="45.00002" lon="-1.10266">
        <ele>19.2</ele>
        <time>2021-05-23T10:16:51Z</time>
      </trkpt>
      <trkpt lat="44.99992" lon="-1.10259">
        <ele>19.1</ele>
        <time>2021-05-23T10:16:53Z</time>
      </trkpt>
      <trkpt lat="44.99986" lon="-1.10254">
        <ele>19</ele>
        <time>2021-05-23T10:16:54Z</time>
      </trkpt>
      <trkpt lat="44.9998" lon="-1.10249">
        <ele>18.9</ele>
        <time>2021-05-23T10:16:55Z</time>
      </trkpt>
      <trkpt lat="44.99967" lon="-1.10238">
        <ele>18.7</ele>
        <time>2021-05-23T10:16:57Z</time>
      </trkpt>
      <trkpt lat="44.99954" lon="-1.10225">
        <ele>18.6</ele>
        <time>2021-05-23T10:16:59Z</time>
      </trkpt>
      <trkpt lat="44.99942" lon="-1.10211">
        <ele>18.5</ele>
        <time>2021-05-23T10:17:01Z</time>
      </trkpt>
      <trkpt lat="44.99936" lon="-1.10204">
        <ele>18.5</ele>
        <time>2021-05-23T10:17:02Z</time>
      </trkpt>
      <trkpt lat="44.9993" lon="-1.10197">
        <ele>18.5</ele>
        <time>2021-05-23T10:17:03Z</time>
      </trkpt>
      <trkpt lat="44.99916" lon="-1.10182">
        <ele>18.4</ele>
        <time>2021-05-23T10:17:05Z</time>
      </trkpt>
      <trkpt lat="44.9991" lon="-1.10174">
        <ele>18.5</ele>
        <time>2021-05-23T10:17:06Z</time>
      </trkpt>
      <trkpt lat="44.99905" lon="-1.10168">
        <ele>18.5</ele>
        <time>2021-05-23T10:17:07Z</time>
      </trkpt>
      <trkpt lat="44.99892" lon="-1.10153">
        <ele>18.5</ele>
        <time>2021-05-23T10:17:09Z</time>
      </trkpt>
      <trkpt lat="44.99879" lon="-1.10139">
        <ele>18.6</ele>
        <time>2021-05-23T10:17:11Z</time>
      </trkpt>
      <trkpt lat="44.99865" lon="-1.10128">
        <ele>18.6</ele>
        <time>2021-05-23T10:17:13Z</time>
      </trkpt>
      <trkpt lat="44.99858" lon="-1.10123">
        <ele>18.6</ele>
        <time>2021-05-23T10:17:14Z</time>
      </trkpt>
      <trkpt lat="44.99851" lon="-1.10117">
        <ele>18.7</ele>
        <time>2021-05-23T10:17:15Z</time>
      </trkpt>
      <trkpt lat="44.99839" lon="-1.10108">
        <ele>18.8</ele>
        <time>2021-05-23T10:17:17Z</time>
      </trkpt>
      <trkpt lat="44.99829" lon="-1.10101">
        <ele>18.9</ele>
        <time>2021-05-23T10:17:19Z</time>
      </trkpt>
      <trkpt lat="44.99821" lon="-1.10095">
        <ele>19</ele>
        <time>2021-05-23T10:17:21Z</time>
      </trkpt>
      <trkpt lat="44.99814" lon="-1.10099">
        <ele>19</ele>
        <time>2021-05-23T10:17:23Z</time>
      </trkpt>
      <trkpt lat="44.99809" lon="-1.10109">
        <ele>18.9</ele>
        <time>2021-05-23T10:17:25Z</time>
      </trkpt>
      <trkpt lat="44.99803" lon="-1.10122">
        <ele>18.9</ele>
        <time>2021-05-23T10:17:27Z</time>
      </trkpt>
      <trkpt lat="44.99796" lon="-1.10135">
        <ele>19</ele>
        <time>2021-05-23T10:17:29Z</time>
      </trkpt>
      <trkpt lat="44.99789" lon="-1.10149">
        <ele>18.9</ele>
        <time>2021-05-23T10:17:31Z</time>
      </trkpt>
      <trkpt lat="44.99782" lon="-1.10164">
        <ele>18.9</ele>
        <time>2021-05-23T10:17:33Z</time>
      </trkpt>
      <trkpt lat="44.99774" lon="-1.1018">
        <ele>18.9</ele>
        <time>2021-05-23T10:17:35Z</time>
      </trkpt>
      <trkpt lat="44.99766" lon="-1.10197">
        <ele>18.9</ele>
        <time>2021-05-23T10:17:37Z</time>
      </trkpt>
      <trkpt lat="44.9976" lon="-1.10204">
        <ele>18.9</ele>
        <time>2021-05-23T10:17:38Z</time>
      </trkpt>
      <trkpt lat="44.99755" lon="-1.10211">
        <ele>18.9</ele>
        <time>2021-05-23T10:17:39Z</time>
      </trkpt>
      <trkpt lat="44.99745" lon="-1.10225">
        <ele>18.8</ele>
        <time>2021-05-23T10:17:41Z</time>
      </trkpt>
      <trkpt lat="44.99733" lon="-1.10239">
        <ele>18.8</ele>
        <time>2021-05-23T10:17:43Z</time>
      </trkpt>
      <trkpt lat="44.99727" lon="-1.10245">
        <ele>18.7</ele>
        <time>2021-05-23T10:17:44Z</time>
      </trkpt>
      <trkpt lat="44.99721" lon="-1.1025">
        <ele>18.7</ele>
        <time>2021-05-23T10:17:45Z</time>
      </trkpt>
      <trkpt lat="44.99708" lon="-1.1026">
        <ele>18.7</ele>
        <time>2021-05-23T10:17:47Z</time>
      </trkpt>
      <trkpt lat="44.99695" lon="-1.10267">
        <ele>18.7</ele>
        <time>2021-05-23T10:17:49Z</time>
      </trkpt>
      <trkpt lat="44.9968" lon="-1.10273">
        <ele>18.6</ele>
        <time>2021-05-23T10:17:51Z</time>
      </trkpt>
      <trkpt lat="44.99666" lon="-1.10279">
        <ele>18.6</ele>
        <time>2021-05-23T10:17:53Z</time>
      </trkpt>
      <trkpt lat="44.99651" lon="-1.10284">
        <ele>18.5</ele>
        <time>2021-05-23T10:17:55Z</time>
      </trkpt>
      <trkpt lat="44.99637" lon="-1.10289">
        <ele>18.5</ele>
        <time>2021-05-23T10:17:57Z</time>
      </trkpt>
      <trkpt lat="44.99623" lon="-1.10293">
        <ele>18.5</ele>
        <time>2021-05-23T10:17:59Z</time>
      </trkpt>
      <trkpt lat="44.9961" lon="-1.10296">
        <ele>18.5</ele>
        <time>2021-05-23T10:18:01Z</time>
      </trkpt>
      <trkpt lat="44.99596" lon="-1.10297">
        <ele>18.5</ele>
        <time>2021-05-23T10:18:03Z</time>
      </trkpt>
      <trkpt lat="44.99582" lon="-1.10296">
        <ele>18.5</ele>
        <time>2021-05-23T10:18:05Z</time>
      </trkpt>
      <trkpt lat="44.99576" lon="-1.10296">
        <ele>18.4</ele>
        <time>2021-05-23T10:18:06Z</time>
      </trkpt>
      <trkpt lat="44.99569" lon="-1.10295">
        <ele>18.4</ele>
        <time>2021-05-23T10:18:07Z</time>
      </trkpt>
      <trkpt lat="44.99556" lon="-1.10293">
        <ele>18.4</ele>
        <time>2021-05-23T10:18:09Z</time>
      </trkpt>
      <trkpt lat="44.99543" lon="-1.1029">
        <ele>18.3</ele>
        <time>2021-05-23T10:18:11Z</time>
      </trkpt>
      <trkpt lat="44.9953" lon="-1.10287">
        <ele>18.3</ele>
        <time>2021-05-23T10:18:13Z</time>
      </trkpt>
      <trkpt lat="44.99523" lon="-1.10286">
        <ele>18.3</ele>
        <time>2021-05-23T10:18:14Z</time>
      </trkpt>
      <trkpt lat="44.99517" lon="-1.10284">
        <ele>18.3</ele>
        <time>2021-05-23T10:18:15Z</time>
      </trkpt>
      <trkpt lat="44.99503" lon="-1.10281">
        <ele>18.2</ele>
        <time>2021-05-23T10:18:17Z</time>
      </trkpt>
      <trkpt lat="44.99489" lon="-1.10277">
        <ele>18.2</ele>
        <time>2021-05-23T10:18:19Z</time>
      </trkpt>
      <trkpt lat="44.99476" lon="-1.10271">
        <ele>18.2</ele>
        <time>2021-05-23T10:18:21Z</time>
      </trkpt>
      <trkpt lat="44.99462" lon="-1.10264">
        <ele>18.2</ele>
        <time>2021-05-23T10:18:23Z</time>
      </trkpt>
      <trkpt lat="44.9945" lon="-1.10257">
        <ele>18.2</ele>
        <time>2021-05-23T10:18:25Z</time>
      </trkpt>
      <trkpt lat="44.99444" lon="-1.10253">
        <ele>18.2</ele>
        <time>2021-05-23T10:18:26Z</time>
      </trkpt>
      <trkpt lat="44.99438" lon="-1.10249">
        <ele>18.2</ele>
        <time>2021-05-23T10:18:27Z</time>
      </trkpt>
      <trkpt lat="44.99425" lon="-1.10241">
        <ele>18.2</ele>
        <time>2021-05-23T10:18:29Z</time>
      </trkpt>
      <trkpt lat="44.99413" lon="-1.10231">
        <ele>18.3</ele>
        <time>2021-05-23T10:18:31Z</time>
      </trkpt>
      <trkpt lat="44.994" lon="-1.1022">
        <ele>18.2</ele>
        <time>2021-05-23T10:18:33Z</time>
      </trkpt>
      <trkpt lat="44.99388" lon="-1.10208">
        <ele>18.2</ele>
        <time>2021-05-23T10:18:35Z</time>
      </trkpt>
      <trkpt lat="44.99376" lon="-1.10195">
        <ele>18.2</ele>
        <time>2021-05-23T10:18:37Z</time>
      </trkpt>
      <trkpt lat="44.99366" lon="-1.10181">
        <ele>18.2</ele>
        <time>2021-05-23T10:18:39Z</time>
      </trkpt>
      <trkpt lat="44.99356" lon="-1.10164">
        <ele>18.2</ele>
        <time>2021-05-23T10:18:41Z</time>
      </trkpt>
      <trkpt lat="44.99353" lon="-1.10155">
        <ele>18.2</ele>
        <time>2021-05-23T10:18:42Z</time>
      </trkpt>
      <trkpt lat="44.99349" lon="-1.10145">
        <ele>18.2</ele>
        <time>2021-05-23T10:18:43Z</time>
      </trkpt>
      <trkpt lat="44.99342" lon="-1.10126">
        <ele>18.3</ele>
        <time>2021-05-23T10:18:45Z</time>
      </trkpt>
      <trkpt lat="44.9934" lon="-1.10116">
        <ele>18.3</ele>
        <time>2021-05-23T10:18:46Z</time>
      </trkpt>
      <trkpt lat="44.99339" lon="-1.10105">
        <ele>18.4</ele>
        <time>2021-05-23T10:18:47Z</time>
      </trkpt>
      <trkpt lat="44.99338" lon="-1.10095">
        <ele>18.5</ele>
        <time>2021-05-23T10:18:48Z</time>
      </trkpt>
      <trkpt lat="44.99336" lon="-1.10086">
        <ele>18.6</ele>
        <time>2021-05-23T10:18:49Z</time>
      </trkpt>
      <trkpt lat="44.99331" lon="-1.10079">
        <ele>18.6</ele>
        <time>2021-05-23T10:18:50Z</time>
      </trkpt>
      <trkpt lat="44.99325" lon="-1.10077">
        <ele>18.6</ele>
        <time>2021-05-23T10:18:51Z</time>
      </trkpt>
      <trkpt lat="44.99318" lon="-1.10078">
        <ele>18.6</ele>
        <time>2021-05-23T10:18:52Z</time>
      </trkpt>
      <trkpt lat="44.99312" lon="-1.10082">
        <ele>18.5</ele>
        <time>2021-05-23T10:18:53Z</time>
      </trkpt>
      <trkpt lat="44.99299" lon="-1.10094">
        <ele>18.4</ele>
        <time>2021-05-23T10:18:55Z</time>
      </trkpt>
      <trkpt lat="44.99287" lon="-1.10107">
        <ele>18.3</ele>
        <time>2021-05-23T10:18:57Z</time>
      </trkpt>
      <trkpt lat="44.99273" lon="-1.10117">
        <ele>18.2</ele>
        <time>2021-05-23T10:18:59Z</time>
      </trkpt>
      <trkpt lat="44.99267" lon="-1.10121">
        <ele>18.2</ele>
        <time>2021-05-23T10:19:00Z</time>
      </trkpt>
      <trkpt lat="44.9926" lon="-1.10124">
        <ele>18.2</ele>
        <time>2021-05-23T10:19:01Z</time>
      </trkpt>
      <trkpt lat="44.99245" lon="-1.1013">
        <ele>18.1</ele>
        <time>2021-05-23T10:19:03Z</time>
      </trkpt>
      <trkpt lat="44.9923" lon="-1.10134">
        <ele>18.1</ele>
        <time>2021-05-23T10:19:05Z</time>
      </trkpt>
      <trkpt lat="44.99215" lon="-1.10136">
        <ele>18.1</ele>
        <time>2021-05-23T10:19:07Z</time>
      </trkpt>
      <trkpt lat="44.99199" lon="-1.10137">
        <ele>18.1</ele>
        <time>2021-05-23T10:19:09Z</time>
      </trkpt>
      <trkpt lat="44.99192" lon="-1.10136">
        <ele>18.1</ele>
        <time>2021-05-23T10:19:10Z</time>
      </trkpt>
      <trkpt lat="44.99184" lon="-1.10135">
        <ele>18.1</ele>
        <time>2021-05-23T10:19:11Z</time>
      </trkpt>
      <trkpt lat="44.99169" lon="-1.10132">
        <ele>18.1</ele>
        <time>2021-05-23T10:19:13Z</time>
      </trkpt>
      <trkpt lat="44.99155" lon="-1.10128">
        <ele>18.1</ele>
        <time>2021-05-23T10:19:15Z</time>
      </trkpt>
      <trkpt lat="44.99142" lon="-1.10123">
        <ele>18.2</ele>
        <time>2021-05-23T10:19:17Z</time>
      </trkpt>
      <trkpt lat="44.99129" lon="-1.10119">
        <ele>18.4</ele>
        <time>2021-05-23T10:19:19Z</time>
      </trkpt>
      <trkpt lat="44.99119" lon="-1.10115">
        <ele>18.7</ele>
        <time>2021-05-23T10:19:21Z</time>
      </trkpt>
      <trkpt lat="44.99113" lon="-1.10107">
        <ele>18.8</ele>
        <time>2021-05-23T10:19:23Z</time>
      </trkpt>
      <trkpt lat="44.99112" lon="-1.10102">
        <ele>18.9</ele>
        <time>2021-05-23T10:19:24Z</time>
      </trkpt>
      <trkpt lat="44.99112" lon="-1.10096">
        <ele>18.9</ele>
        <time>2021-05-23T10:19:25Z</time>
      </trkpt>
      <trkpt lat="44.99115" lon="-1.10085">
        <ele>18.8</ele>
        <time>2021-05-23T10:19:27Z</time>
      </trkpt>
      <trkpt lat="44.9912" lon="-1.10071">
        <ele>18.8</ele>
        <time>2021-05-23T10:19:29Z</time>
      </trkpt>
      <trkpt lat="44.99125" lon="-1.10058">
        <ele>18.8</ele>
        <time>2021-05-23T10:19:31Z</time>
      </trkpt>
      <trkpt lat="44.99128" lon="-1.10051">
        <ele>18.8</ele>
        <time>2021-05-23T10:19:32Z</time>
      </trkpt>
      <trkpt lat="44.99131" lon="-1.10043">
        <ele>18.8</ele>
        <time>2021-05-23T10:19:33Z</time>
      </trkpt>
      <trkpt lat="44.99136" lon="-1.10027">
        <ele>18.9</ele>
        <time>2021-05-23T10:19:35Z</time>
      </trkpt>
      <trkpt lat="44.99136" lon="-1.10019">
        <ele>19</ele>
        <time>2021-05-23T10:19:36Z</time>
      </trkpt>
      <trkpt lat="44.99133" lon="-1.10014">
        <ele>19</ele>
        <time>2021-05-23T10:19:37Z</time>
      </trkpt>
      <trkpt lat="44.99129" lon="-1.10008">
        <ele>19.1</ele>
        <time>2021-05-23T10:19:38Z</time>
      </trkpt>
      <trkpt lat="44.99124" lon="-1.10002">
        <ele>19.1</ele>
        <time>2021-05-23T10:19:39Z</time>
      </trkpt>
      <trkpt lat="44.99116" lon="-1.09986">
        <ele>19.2</ele>
        <time>2021-05-23T10:19:41Z</time>
      </trkpt>
      <trkpt lat="44.99112" lon="-1.09977">
        <ele>19.2</ele>
        <time>2021-05-23T10:19:42Z</time>
      </trkpt>
      <trkpt lat="44.99107" lon="-1.09968">
        <ele>19.1</ele>
        <time>2021-05-23T10:19:43Z</time>
      </trkpt>
      <trkpt lat="44.99098" lon="-1.0995">
        <ele>19.1</ele>
        <time>2021-05-23T10:19:45Z</time>
      </trkpt>
      <trkpt lat="44.99088" lon="-1.09931">
        <ele>19.1</ele>
        <time>2021-05-23T10:19:47Z</time>
      </trkpt>
      <trkpt lat="44.99083" lon="-1.09922">
        <ele>19.1</ele>
        <time>2021-05-23T10:19:48Z</time>
      </trkpt>
      <trkpt lat="44.99078" lon="-1.09912">
        <ele>19.1</ele>
        <time>2021-05-23T10:19:49Z</time>
      </trkpt>
      <trkpt lat="44.99068" lon="-1.09894">
        <ele>19</ele>
        <time>2021-05-23T10:19:51Z</time>
      </trkpt>
      <trkpt lat="44.99059" lon="-1.09877">
        <ele>19</ele>
        <time>2021-05-23T10:19:53Z</time>
      </trkpt>
      <trkpt lat="44.99054" lon="-1.09869">
        <ele>19</ele>
        <time>2021-05-23T10:19:54Z</time>
      </trkpt>
      <trkpt lat="44.9905" lon="-1.0986">
        <ele>19</ele>
        <time>2021-05-23T10:19:55Z</time>
      </trkpt>
      <trkpt lat="44.9904" lon="-1.09842">
        <ele>19</ele>
        <time>2021-05-23T10:19:57Z</time>
      </trkpt>
      <trkpt lat="44.9903" lon="-1.09824">
        <ele>19</ele>
        <time>2021-05-23T10:19:59Z</time>
      </trkpt>
      <trkpt lat="44.99026" lon="-1.09816">
        <ele>19</ele>
        <time>2021-05-23T10:20:00Z</time>
      </trkpt>
      <trkpt lat="44.99021" lon="-1.09807">
        <ele>19</ele>
        <time>2021-05-23T10:20:01Z</time>
      </trkpt>
      <trkpt lat="44.99014" lon="-1.09791">
        <ele>19</ele>
        <time>2021-05-23T10:20:03Z</time>
      </trkpt>
      <trkpt lat="44.9901" lon="-1.09784">
        <ele>19</ele>
        <time>2021-05-23T10:20:04Z</time>
      </trkpt>
      <trkpt lat="44.99006" lon="-1.09776">
        <ele>19</ele>
        <time>2021-05-23T10:20:05Z</time>
      </trkpt>
      <trkpt lat="44.98997" lon="-1.09762">
        <ele>19</ele>
        <time>2021-05-23T10:20:07Z</time>
      </trkpt>
      <trkpt lat="44.98989" lon="-1.09748">
        <ele>19</ele>
        <time>2021-05-23T10:20:09Z</time>
      </trkpt>
      <trkpt lat="44.98981" lon="-1.09733">
        <ele>19</ele>
        <time>2021-05-23T10:20:11Z</time>
      </trkpt>
      <trkpt lat="44.98973" lon="-1.09719">
        <ele>19</ele>
        <time>2021-05-23T10:20:13Z</time>
      </trkpt>
      <trkpt lat="44.98965" lon="-1.09703">
        <ele>19.1</ele>
        <time>2021-05-23T10:20:15Z</time>
      </trkpt>
      <trkpt lat="44.98961" lon="-1.09696">
        <ele>19.1</ele>
        <time>2021-05-23T10:20:16Z</time>
      </trkpt>
      <trkpt lat="44.98957" lon="-1.09688">
        <ele>19.2</ele>
        <time>2021-05-23T10:20:17Z</time>
      </trkpt>
      <trkpt lat="44.98949" lon="-1.09673">
        <ele>19.2</ele>
        <time>2021-05-23T10:20:19Z</time>
      </trkpt>
      <trkpt lat="44.98942" lon="-1.09659">
        <ele>19.2</ele>
        <time>2021-05-23T10:20:21Z</time>
      </trkpt>
      <trkpt lat="44.98938" lon="-1.09652">
        <ele>19.2</ele>
        <time>2021-05-23T10:20:22Z</time>
      </trkpt>
      <trkpt lat="44.98934" lon="-1.09646">
        <ele>19.2</ele>
        <time>2021-05-23T10:20:23Z</time>
      </trkpt>
      <trkpt lat="44.98926" lon="-1.09635">
        <ele>19.2</ele>
        <time>2021-05-23T10:20:25Z</time>
      </trkpt>
      <trkpt lat="44.98921" lon="-1.0963">
        <ele>19.2</ele>
        <time>2021-05-23T10:20:26Z</time>
      </trkpt>
      <trkpt lat="44.98915" lon="-1.09627">
        <ele>19.3</ele>
        <time>2021-05-23T10:20:27Z</time>
      </trkpt>
      <trkpt lat="44.98904" lon="-1.09619">
        <ele>19.3</ele>
        <time>2021-05-23T10:20:29Z</time>
      </trkpt>
      <trkpt lat="44.98894" lon="-1.09612">
        <ele>19.4</ele>
        <time>2021-05-23T10:20:31Z</time>
      </trkpt>
      <trkpt lat="44.98888" lon="-1.09608">
        <ele>19.4</ele>
        <time>2021-05-23T10:20:32Z</time>
      </trkpt>
      <trkpt lat="44.98883" lon="-1.09604">
        <ele>19.5</ele>
        <time>2021-05-23T10:20:33Z</time>
      </trkpt>
      <trkpt lat="44.98873" lon="-1.09601">
        <ele>19.5</ele>
        <time>2021-05-23T10:20:35Z</time>
      </trkpt>
      <trkpt lat="44.98865" lon="-1.09612">
        <ele>19.4</ele>
        <time>2021-05-23T10:20:37Z</time>
      </trkpt>
      <trkpt lat="44.98862" lon="-1.09629">
        <ele>19.2</ele>
        <time>2021-05-23T10:20:39Z</time>
      </trkpt>
      <trkpt lat="44.98859" lon="-1.09645">
        <ele>19.1</ele>
        <time>2021-05-23T10:20:41Z</time>
      </trkpt>
      <trkpt lat="44.98856" lon="-1.09661">
        <ele>19.1</ele>
        <time>2021-05-23T10:20:43Z</time>
      </trkpt>
      <trkpt lat="44.98853" lon="-1.09678">
        <ele>19</ele>
        <time>2021-05-23T10:20:45Z</time>
      </trkpt>
      <trkpt lat="44.98849" lon="-1.09695">
        <ele>18.9</ele>
        <time>2021-05-23T10:20:47Z</time>
      </trkpt>
      <trkpt lat="44.98845" lon="-1.09712">
        <ele>18.9</ele>
        <time>2021-05-23T10:20:49Z</time>
      </trkpt>
      <trkpt lat="44.98841" lon="-1.09729">
        <ele>18.8</ele>
        <time>2021-05-23T10:20:51Z</time>
      </trkpt>
      <trkpt lat="44.98839" lon="-1.09738">
        <ele>18.8</ele>
        <time>2021-05-23T10:20:52Z</time>
      </trkpt>
      <trkpt lat="44.98837" lon="-1.09747">
        <ele>18.8</ele>
        <time>2021-05-23T10:20:53Z</time>
      </trkpt>
      <trkpt lat="44.98833" lon="-1.09765">
        <ele>18.7</ele>
        <time>2021-05-23T10:20:55Z</time>
      </trkpt>
      <trkpt lat="44.98829" lon="-1.09782">
        <ele>18.7</ele>
        <time>2021-05-23T10:20:57Z</time>
      </trkpt>
      <trkpt lat="44.98825" lon="-1.09799">
        <ele>18.7</ele>
        <time>2021-05-23T10:20:59Z</time>
      </trkpt>
      <trkpt lat="44.98823" lon="-1.09814">
        <ele>18.6</ele>
        <time>2021-05-23T10:21:01Z</time>
      </trkpt>
      <trkpt lat="44.98819" lon="-1.09833">
        <ele>18.6</ele>
        <time>2021-05-23T10:21:03Z</time>
      </trkpt>
      <trkpt lat="44.98816" lon="-1.09849">
        <ele>18.6</ele>
        <time>2021-05-23T10:21:05Z</time>
      </trkpt>
      <trkpt lat="44.98812" lon="-1.09866">
        <ele>18.6</ele>
        <time>2021-05-23T10:21:07Z</time>
      </trkpt>
      <trkpt lat="44.9881" lon="-1.09874">
        <ele>18.6</ele>
        <time>2021-05-23T10:21:08Z</time>
      </trkpt>
      <trkpt lat="44.98809" lon="-1.09882">
        <ele>18.5</ele>
        <time>2021-05-23T10:21:09Z</time>
      </trkpt>
      <trkpt lat="44.98807" lon="-1.09896">
        <ele>18.4</ele>
        <time>2021-05-23T10:21:11Z</time>
      </trkpt>
      <trkpt lat="44.98806" lon="-1.09904">
        <ele>18.3</ele>
        <time>2021-05-23T10:21:12Z</time>
      </trkpt>
      <trkpt lat="44.98803" lon="-1.09913">
        <ele>18.3</ele>
        <time>2021-05-23T10:21:13Z</time>
      </trkpt>
      <trkpt lat="44.98799" lon="-1.09931">
        <ele>18.2</ele>
        <time>2021-05-23T10:21:15Z</time>
      </trkpt>
      <trkpt lat="44.98794" lon="-1.09949">
        <ele>18.2</ele>
        <time>2021-05-23T10:21:17Z</time>
      </trkpt>
      <trkpt lat="44.98792" lon="-1.09958">
        <ele>18.3</ele>
        <time>2021-05-23T10:21:18Z</time>
      </trkpt>
      <trkpt lat="44.98789" lon="-1.09967">
        <ele>18.3</ele>
        <time>2021-05-23T10:21:19Z</time>
      </trkpt>
      <trkpt lat="44.98785" lon="-1.09984">
        <ele>18.3</ele>
        <time>2021-05-23T10:21:21Z</time>
      </trkpt>
      <trkpt lat="44.98782" lon="-1.10001">
        <ele>18.4</ele>
        <time>2021-05-23T10:21:23Z</time>
      </trkpt>
      <trkpt lat="44.98778" lon="-1.10016">
        <ele>18.4</ele>
        <time>2021-05-23T10:21:25Z</time>
      </trkpt>
      <trkpt lat="44.98777" lon="-1.10022">
        <ele>18.4</ele>
        <time>2021-05-23T10:21:26Z</time>
      </trkpt>
      <trkpt lat="44.98776" lon="-1.10029">
        <ele>18.3</ele>
        <time>2021-05-23T10:21:27Z</time>
      </trkpt>
      <trkpt lat="44.98773" lon="-1.10044">
        <ele>18.3</ele>
        <time>2021-05-23T10:21:29Z</time>
      </trkpt>
      <trkpt lat="44.98771" lon="-1.10053">
        <ele>18.3</ele>
        <time>2021-05-23T10:21:30Z</time>
      </trkpt>
      <trkpt lat="44.98769" lon="-1.10062">
        <ele>18.2</ele>
        <time>2021-05-23T10:21:31Z</time>
      </trkpt>
      <trkpt lat="44.98764" lon="-1.1008">
        <ele>18.2</ele>
        <time>2021-05-23T10:21:33Z</time>
      </trkpt>
      <trkpt lat="44.98759" lon="-1.10097">
        <ele>18.3</ele>
        <time>2021-05-23T10:21:35Z</time>
      </trkpt>
      <trkpt lat="44.98755" lon="-1.10113">
        <ele>18.4</ele>
        <time>2021-05-23T10:21:37Z</time>
      </trkpt>
      <trkpt lat="44.98751" lon="-1.1013">
        <ele>18.5</ele>
        <time>2021-05-23T10:21:39Z</time>
      </trkpt>
      <trkpt lat="44.98746" lon="-1.10146">
        <ele>18.5</ele>
        <time>2021-05-23T10:21:41Z</time>
      </trkpt>
      <trkpt lat="44.98742" lon="-1.10154">
        <ele>18.5</ele>
        <time>2021-05-23T10:21:42Z</time>
      </trkpt>
      <trkpt lat="44.98736" lon="-1.10157">
        <ele>18.6</ele>
        <time>2021-05-23T10:21:43Z</time>
      </trkpt>
      <trkpt lat="44.9873" lon="-1.10158">
        <ele>18.5</ele>
        <time>2021-05-23T10:21:44Z</time>
      </trkpt>
      <trkpt lat="44.98723" lon="-1.10156">
        <ele>18.4</ele>
        <time>2021-05-23T10:21:45Z</time>
      </trkpt>
      <trkpt lat="44.98712" lon="-1.1015">
        <ele>18.3</ele>
        <time>2021-05-23T10:21:47Z</time>
      </trkpt>
      <trkpt lat="44.987" lon="-1.10144">
        <ele>18.3</ele>
        <time>2021-05-23T10:21:49Z</time>
      </trkpt>
      <trkpt lat="44.98688" lon="-1.10138">
        <ele>18.3</ele>
        <time>2021-05-23T10:21:51Z</time>
      </trkpt>
      <trkpt lat="44.98677" lon="-1.10133">
        <ele>18.3</ele>
        <time>2021-05-23T10:21:53Z</time>
      </trkpt>
      <trkpt lat="44.98665" lon="-1.10127">
        <ele>18.2</ele>
        <time>2021-05-23T10:21:55Z</time>
      </trkpt>
      <trkpt lat="44.98659" lon="-1.10123">
        <ele>18.2</ele>
        <time>2021-05-23T10:21:56Z</time>
      </trkpt>
      <trkpt lat="44.98653" lon="-1.1012">
        <ele>18.2</ele>
        <time>2021-05-23T10:21:57Z</time>
      </trkpt>
      <trkpt lat="44.98642" lon="-1.10114">
        <ele>18.2</ele>
        <time>2021-05-23T10:21:59Z</time>
      </trkpt>
      <trkpt lat="44.9863" lon="-1.10108">
        <ele>18.2</ele>
        <time>2021-05-23T10:22:01Z</time>
      </trkpt>
      <trkpt lat="44.98618" lon="-1.10102">
        <ele>18.1</ele>
        <time>2021-05-23T10:22:03Z</time>
      </trkpt>
      <trkpt lat="44.98607" lon="-1.10094">
        <ele>18.2</ele>
        <time>2021-05-23T10:22:05Z</time>
      </trkpt>
      <trkpt lat="44.98595" lon="-1.10087">
        <ele>18.2</ele>
        <time>2021-05-23T10:22:07Z</time>
      </trkpt>
      <trkpt lat="44.98583" lon="-1.10081">
        <ele>18.3</ele>
        <time>2021-05-23T10:22:09Z</time>
      </trkpt>
      <trkpt lat="44.98577" lon="-1.10078">
        <ele>18.3</ele>
        <time>2021-05-23T10:22:10Z</time>
      </trkpt>
      <trkpt lat="44.98572" lon="-1.10075">
        <ele>18.4</ele>
        <time>2021-05-23T10:22:11Z</time>
      </trkpt>
      <trkpt lat="44.98562" lon="-1.1007">
        <ele>18.4</ele>
        <time>2021-05-23T10:22:13Z</time>
      </trkpt>
      <trkpt lat="44.98552" lon="-1.10064">
        <ele>18.4</ele>
        <time>2021-05-23T10:22:15Z</time>
      </trkpt>
      <trkpt lat="44.98542" lon="-1.10059">
        <ele>18.4</ele>
        <time>2021-05-23T10:22:17Z</time>
      </trkpt>
      <trkpt lat="44.98532" lon="-1.10053">
        <ele>18.4</ele>
        <time>2021-05-23T10:22:19Z</time>
      </trkpt>
      <trkpt lat="44.98521" lon="-1.10046">
        <ele>18.4</ele>
        <time>2021-05-23T10:22:21Z</time>
      </trkpt>
      <trkpt lat="44.98511" lon="-1.10038">
        <ele>18.4</ele>
        <time>2021-05-23T10:22:23Z</time>
      </trkpt>
      <trkpt lat="44.98506" lon="-1.10033">
        <ele>18.4</ele>
        <time>2021-05-23T10:22:24Z</time>
      </trkpt>
      <trkpt lat="44.98502" lon="-1.10028">
        <ele>18.4</ele>
        <time>2021-05-23T10:22:25Z</time>
      </trkpt>
      <trkpt lat="44.98498" lon="-1.10023">
        <ele>18.4</ele>
        <time>2021-05-23T10:22:26Z</time>
      </trkpt>
      <trkpt lat="44.98493" lon="-1.10017">
        <ele>18.4</ele>
        <time>2021-05-23T10:22:27Z</time>
      </trkpt>
      <trkpt lat="44.98485" lon="-1.10006">
        <ele>18.5</ele>
        <time>2021-05-23T10:22:29Z</time>
      </trkpt>
      <trkpt lat="44.98476" lon="-1.09995">
        <ele>18.5</ele>
        <time>2021-05-23T10:22:31Z</time>
      </trkpt>
      <trkpt lat="44.98472" lon="-1.0999">
        <ele>18.5</ele>
        <time>2021-05-23T10:22:32Z</time>
      </trkpt>
      <trkpt lat="44.98467" lon="-1.09985">
        <ele>18.5</ele>
        <time>2021-05-23T10:22:33Z</time>
      </trkpt>
      <trkpt lat="44.98458" lon="-1.09974">
        <ele>18.5</ele>
        <time>2021-05-23T10:22:35Z</time>
      </trkpt>
      <trkpt lat="44.98454" lon="-1.09969">
        <ele>18.6</ele>
        <time>2021-05-23T10:22:36Z</time>
      </trkpt>
      <trkpt lat="44.98449" lon="-1.09964">
        <ele>18.6</ele>
        <time>2021-05-23T10:22:37Z</time>
      </trkpt>
      <trkpt lat="44.98445" lon="-1.09958">
        <ele>18.6</ele>
        <time>2021-05-23T10:22:38Z</time>
      </trkpt>
      <trkpt lat="44.9844" lon="-1.09952">
        <ele>18.6</ele>
        <time>2021-05-23T10:22:39Z</time>
      </trkpt>
      <trkpt lat="44.98431" lon="-1.09941">
        <ele>18.7</ele>
        <time>2021-05-23T10:22:41Z</time>
      </trkpt>
      <trkpt lat="44.98422" lon="-1.09931">
        <ele>18.7</ele>
        <time>2021-05-23T10:22:43Z</time>
      </trkpt>
      <trkpt lat="44.98413" lon="-1.0992">
        <ele>18.7</ele>
        <time>2021-05-23T10:22:45Z</time>
      </trkpt>
      <trkpt lat="44.98409" lon="-1.09915">
        <ele>18.7</ele>
        <time>2021-05-23T10:22:46Z</time>
      </trkpt>
      <trkpt lat="44.98404" lon="-1.09909">
        <ele>18.7</ele>
        <time>2021-05-23T10:22:47Z</time>
      </trkpt>
      <trkpt lat="44.98395" lon="-1.09897">
        <ele>18.6</ele>
        <time>2021-05-23T10:22:49Z</time>
      </trkpt>
      <trkpt lat="44.9839" lon="-1.0989">
        <ele>18.6</ele>
        <time>2021-05-23T10:22:50Z</time>
      </trkpt>
      <trkpt lat="44.98385" lon="-1.09883">
        <ele>18.6</ele>
        <time>2021-05-23T10:22:51Z</time>
      </trkpt>
      <trkpt lat="44.98374" lon="-1.09873">
        <ele>18.6</ele>
        <time>2021-05-23T10:22:53Z</time>
      </trkpt>
      <trkpt lat="44.98363" lon="-1.09863">
        <ele>18.6</ele>
        <time>2021-05-23T10:22:55Z</time>
      </trkpt>
      <trkpt lat="44.98352" lon="-1.09856">
        <ele>18.5</ele>
        <time>2021-05-23T10:22:57Z</time>
      </trkpt>
      <trkpt lat="44.98346" lon="-1.09852">
        <ele>18.5</ele>
        <time>2021-05-23T10:22:58Z</time>
      </trkpt>
      <trkpt lat="44.98342" lon="-1.09848">
        <ele>18.5</ele>
        <time>2021-05-23T10:22:59Z</time>
      </trkpt>
      <trkpt lat="44.98337" lon="-1.09844">
        <ele>18.4</ele>
        <time>2021-05-23T10:23:00Z</time>
      </trkpt>
      <trkpt lat="44.98333" lon="-1.09839">
        <ele>18.4</ele>
        <time>2021-05-23T10:23:01Z</time>
      </trkpt>
      <trkpt lat="44.9833" lon="-1.09834">
        <ele>18.4</ele>
        <time>2021-05-23T10:23:02Z</time>
      </trkpt>
      <trkpt lat="44.98326" lon="-1.09829">
        <ele>18.4</ele>
        <time>2021-05-23T10:23:03Z</time>
      </trkpt>
      <trkpt lat="44.98321" lon="-1.09825">
        <ele>18.4</ele>
        <time>2021-05-23T10:23:04Z</time>
      </trkpt>
      <trkpt lat="44.98316" lon="-1.09821">
        <ele>18.4</ele>
        <time>2021-05-23T10:23:05Z</time>
      </trkpt>
      <trkpt lat="44.98307" lon="-1.09814">
        <ele>18.3</ele>
        <time>2021-05-23T10:23:07Z</time>
      </trkpt>
      <trkpt lat="44.98298" lon="-1.09807">
        <ele>18.3</ele>
        <time>2021-05-23T10:23:09Z</time>
      </trkpt>
      <trkpt lat="44.98288" lon="-1.09804">
        <ele>18.3</ele>
        <time>2021-05-23T10:23:11Z</time>
      </trkpt>
      <trkpt lat="44.98283" lon="-1.09802">
        <ele>18.3</ele>
        <time>2021-05-23T10:23:12Z</time>
      </trkpt>
      <trkpt lat="44.98278" lon="-1.09798">
        <ele>18.3</ele>
        <time>2021-05-23T10:23:13Z</time>
      </trkpt>
      <trkpt lat="44.98274" lon="-1.09794">
        <ele>18.3</ele>
        <time>2021-05-23T10:23:14Z</time>
      </trkpt>
      <trkpt lat="44.98269" lon="-1.09789">
        <ele>18.3</ele>
        <time>2021-05-23T10:23:15Z</time>
      </trkpt>
      <trkpt lat="44.98264" lon="-1.09785">
        <ele>18.3</ele>
        <time>2021-05-23T10:23:16Z</time>
      </trkpt>
      <trkpt lat="44.98259" lon="-1.09781">
        <ele>18.3</ele>
        <time>2021-05-23T10:23:17Z</time>
      </trkpt>
      <trkpt lat="44.98249" lon="-1.09774">
        <ele>18.2</ele>
        <time>2021-05-23T10:23:19Z</time>
      </trkpt>
      <trkpt lat="44.98239" lon="-1.09768">
        <ele>18.2</ele>
        <time>2021-05-23T10:23:21Z</time>
      </trkpt>
      <trkpt lat="44.98229" lon="-1.09761">
        <ele>18.2</ele>
        <time>2021-05-23T10:23:23Z</time>
      </trkpt>
      <trkpt lat="44.98219" lon="-1.09754">
        <ele>18.2</ele>
        <time>2021-05-23T10:23:25Z</time>
      </trkpt>
      <trkpt lat="44.98215" lon="-1.09751">
        <ele>18.1</ele>
        <time>2021-05-23T10:23:26Z</time>
      </trkpt>
      <trkpt lat="44.9821" lon="-1.09748">
        <ele>18.1</ele>
        <time>2021-05-23T10:23:27Z</time>
      </trkpt>
      <trkpt lat="44.98206" lon="-1.09745">
        <ele>18.1</ele>
        <time>2021-05-23T10:23:28Z</time>
      </trkpt>
      <trkpt lat="44.98202" lon="-1.09741">
        <ele>18.1</ele>
        <time>2021-05-23T10:23:29Z</time>
      </trkpt>
      <trkpt lat="44.98194" lon="-1.09735">
        <ele>18.1</ele>
        <time>2021-05-23T10:23:31Z</time>
      </trkpt>
      <trkpt lat="44.98187" lon="-1.09729">
        <ele>18.1</ele>
        <time>2021-05-23T10:23:33Z</time>
      </trkpt>
      <trkpt lat="44.98181" lon="-1.09725">
        <ele>18.1</ele>
        <time>2021-05-23T10:23:35Z</time>
      </trkpt>
      <trkpt lat="44.98179" lon="-1.09723">
        <ele>18.1</ele>
        <time>2021-05-23T10:23:36Z</time>
      </trkpt>
      <trkpt lat="44.98176" lon="-1.09721">
        <ele>18.1</ele>
        <time>2021-05-23T10:23:37Z</time>
      </trkpt>
      <trkpt lat="44.98173" lon="-1.09716">
        <ele>18.1</ele>
        <time>2021-05-23T10:23:39Z</time>
      </trkpt>
      <trkpt lat="44.98169" lon="-1.09712">
        <ele>18.1</ele>
        <time>2021-05-23T10:23:41Z</time>
      </trkpt>
      <trkpt lat="44.98168" lon="-1.09709">
        <ele>18.1</ele>
        <time>2021-05-23T10:23:42Z</time>
      </trkpt>
      <trkpt lat="44.98169" lon="-1.09707">
        <ele>18.1</ele>
        <time>2021-05-23T10:23:43Z</time>
      </trkpt>
      <trkpt lat="44.98171" lon="-1.09708">
        <ele>18.1</ele>
        <time>2021-05-23T10:23:45Z</time>
      </trkpt>
      <trkpt lat="44.98175" lon="-1.09713">
        <ele>18.1</ele>
        <time>2021-05-23T10:23:47Z</time>
      </trkpt>
      <trkpt lat="44.98178" lon="-1.09719">
        <ele>18.1</ele>
        <time>2021-05-23T10:23:49Z</time>
      </trkpt>
      <trkpt lat="44.98182" lon="-1.09724">
        <ele>18</ele>
        <time>2021-05-23T10:23:51Z</time>
      </trkpt>
      <trkpt lat="44.98185" lon="-1.09728">
        <ele>18</ele>
        <time>2021-05-23T10:23:53Z</time>
      </trkpt>
      <trkpt lat="44.98188" lon="-1.09731">
        <ele>18</ele>
        <time>2021-05-23T10:23:55Z</time>
      </trkpt>
      <trkpt lat="44.9819" lon="-1.09733">
        <ele>18</ele>
        <time>2021-05-23T10:23:56Z</time>
      </trkpt>
      <trkpt lat="44.98189" lon="-1.09735">
        <ele>18</ele>
        <time>2021-05-23T10:23:57Z</time>
      </trkpt>
      <trkpt lat="44.98189" lon="-1.09737">
        <ele>18</ele>
        <time>2021-05-23T10:23:58Z</time>
      </trkpt>
      <trkpt lat="44.98189" lon="-1.09738">
        <ele>18</ele>
        <time>2021-05-23T10:23:59Z</time>
      </trkpt>
      <trkpt lat="44.98184" lon="-1.09733">
        <ele>18</ele>
        <time>2021-05-23T10:28:03Z</time>
      </trkpt>
      <trkpt lat="44.98181" lon="-1.09728">
        <ele>18</ele>
        <time>2021-05-23T10:28:05Z</time>
      </trkpt>
      <trkpt lat="44.98178" lon="-1.09724">
        <ele>18</ele>
        <time>2021-05-23T10:28:07Z</time>
      </trkpt>
      <trkpt lat="44.98174" lon="-1.09719">
        <ele>18</ele>
        <time>2021-05-23T10:28:09Z</time>
      </trkpt>
      <trkpt lat="44.98171" lon="-1.09717">
        <ele>18</ele>
        <time>2021-05-23T10:28:10Z</time>
      </trkpt>
      <trkpt lat="44.98169" lon="-1.09715">
        <ele>18</ele>
        <time>2021-05-23T10:28:11Z</time>
      </trkpt>
      <trkpt lat="44.98165" lon="-1.0971">
        <ele>18</ele>
        <time>2021-05-23T10:28:13Z</time>
      </trkpt>
      <trkpt lat="44.98161" lon="-1.09706">
        <ele>18</ele>
        <time>2021-05-23T10:28:15Z</time>
      </trkpt>
      <trkpt lat="44.98156" lon="-1.09701">
        <ele>18</ele>
        <time>2021-05-23T10:28:17Z</time>
      </trkpt>
      <trkpt lat="44.98154" lon="-1.09698">
        <ele>18</ele>
        <time>2021-05-23T10:28:18Z</time>
      </trkpt>
      <trkpt lat="44.98151" lon="-1.09696">
        <ele>18</ele>
        <time>2021-05-23T10:28:19Z</time>
      </trkpt>
      <trkpt lat="44.98146" lon="-1.0969">
        <ele>18</ele>
        <time>2021-05-23T10:28:21Z</time>
      </trkpt>
      <trkpt lat="44.9814" lon="-1.09684">
        <ele>18</ele>
        <time>2021-05-23T10:28:23Z</time>
      </trkpt>
      <trkpt lat="44.98134" lon="-1.09677">
        <ele>18</ele>
        <time>2021-05-23T10:28:25Z</time>
      </trkpt>
      <trkpt lat="44.98128" lon="-1.0967">
        <ele>18</ele>
        <time>2021-05-23T10:28:27Z</time>
      </trkpt>
      <trkpt lat="44.98121" lon="-1.09663">
        <ele>18</ele>
        <time>2021-05-23T10:28:29Z</time>
      </trkpt>
      <trkpt lat="44.98114" lon="-1.09655">
        <ele>18</ele>
        <time>2021-05-23T10:28:31Z</time>
      </trkpt>
      <trkpt lat="44.98111" lon="-1.09652">
        <ele>18</ele>
        <time>2021-05-23T10:28:32Z</time>
      </trkpt>
      <trkpt lat="44.98107" lon="-1.09648">
        <ele>18</ele>
        <time>2021-05-23T10:28:33Z</time>
      </trkpt>
      <trkpt lat="44.981" lon="-1.09639">
        <ele>18</ele>
        <time>2021-05-23T10:28:35Z</time>
      </trkpt>
      <trkpt lat="44.98093" lon="-1.0963">
        <ele>18.1</ele>
        <time>2021-05-23T10:28:37Z</time>
      </trkpt>
      <trkpt lat="44.98089" lon="-1.09625">
        <ele>18.1</ele>
        <time>2021-05-23T10:28:38Z</time>
      </trkpt>
      <trkpt lat="44.98085" lon="-1.09621">
        <ele>18.1</ele>
        <time>2021-05-23T10:28:39Z</time>
      </trkpt>
      <trkpt lat="44.98082" lon="-1.09616">
        <ele>18.1</ele>
        <time>2021-05-23T10:28:40Z</time>
      </trkpt>
      <trkpt lat="44.98078" lon="-1.09611">
        <ele>18.1</ele>
        <time>2021-05-23T10:28:41Z</time>
      </trkpt>
      <trkpt lat="44.98075" lon="-1.09606">
        <ele>18.1</ele>
        <time>2021-05-23T10:28:42Z</time>
      </trkpt>
      <trkpt lat="44.98072" lon="-1.096">
        <ele>18.1</ele>
        <time>2021-05-23T10:28:43Z</time>
      </trkpt>
      <trkpt lat="44.98067" lon="-1.09588">
        <ele>18.1</ele>
        <time>2021-05-23T10:28:45Z</time>
      </trkpt>
      <trkpt lat="44.98062" lon="-1.09576">
        <ele>18.1</ele>
        <time>2021-05-23T10:28:47Z</time>
      </trkpt>
      <trkpt lat="44.98058" lon="-1.09565">
        <ele>18.1</ele>
        <time>2021-05-23T10:28:49Z</time>
      </trkpt>
      <trkpt lat="44.98056" lon="-1.0956">
        <ele>18.1</ele>
        <time>2021-05-23T10:28:50Z</time>
      </trkpt>
      <trkpt lat="44.98053" lon="-1.09555">
        <ele>18.1</ele>
        <time>2021-05-23T10:28:51Z</time>
      </trkpt>
      <trkpt lat="44.98048" lon="-1.09544">
        <ele>18.1</ele>
        <time>2021-05-23T10:28:53Z</time>
      </trkpt>
      <trkpt lat="44.98042" lon="-1.09532">
        <ele>18.1</ele>
        <time>2021-05-23T10:28:55Z</time>
      </trkpt>
      <trkpt lat="44.98037" lon="-1.0952">
        <ele>18.1</ele>
        <time>2021-05-23T10:28:57Z</time>
      </trkpt>
      <trkpt lat="44.98034" lon="-1.09514">
        <ele>18.1</ele>
        <time>2021-05-23T10:28:58Z</time>
      </trkpt>
      <trkpt lat="44.98032" lon="-1.09508">
        <ele>18.1</ele>
        <time>2021-05-23T10:28:59Z</time>
      </trkpt>
      <trkpt lat="44.98027" lon="-1.09497">
        <ele>18.1</ele>
        <time>2021-05-23T10:29:01Z</time>
      </trkpt>
      <trkpt lat="44.98022" lon="-1.09485">
        <ele>18</ele>
        <time>2021-05-23T10:29:03Z</time>
      </trkpt>
      <trkpt lat="44.98019" lon="-1.0948">
        <ele>18</ele>
        <time>2021-05-23T10:29:04Z</time>
      </trkpt>
      <trkpt lat="44.98017" lon="-1.09473">
        <ele>18</ele>
        <time>2021-05-23T10:29:05Z</time>
      </trkpt>
      <trkpt lat="44.98012" lon="-1.09458">
        <ele>17.9</ele>
        <time>2021-05-23T10:29:07Z</time>
      </trkpt>
      <trkpt lat="44.98011" lon="-1.0945">
        <ele>17.9</ele>
        <time>2021-05-23T10:29:08Z</time>
      </trkpt>
      <trkpt lat="44.98009" lon="-1.09442">
        <ele>17.9</ele>
        <time>2021-05-23T10:29:09Z</time>
      </trkpt>
      <trkpt lat="44.98006" lon="-1.09426">
        <ele>17.8</ele>
        <time>2021-05-23T10:29:11Z</time>
      </trkpt>
      <trkpt lat="44.98004" lon="-1.09409">
        <ele>17.8</ele>
        <time>2021-05-23T10:29:13Z</time>
      </trkpt>
      <trkpt lat="44.98001" lon="-1.09393">
        <ele>17.8</ele>
        <time>2021-05-23T10:29:15Z</time>
      </trkpt>
      <trkpt lat="44.97999" lon="-1.09377">
        <ele>17.8</ele>
        <time>2021-05-23T10:29:17Z</time>
      </trkpt>
      <trkpt lat="44.97996" lon="-1.09361">
        <ele>17.9</ele>
        <time>2021-05-23T10:29:19Z</time>
      </trkpt>
      <trkpt lat="44.97992" lon="-1.09346">
        <ele>17.9</ele>
        <time>2021-05-23T10:29:21Z</time>
      </trkpt>
      <trkpt lat="44.97985" lon="-1.09333">
        <ele>17.9</ele>
        <time>2021-05-23T10:29:23Z</time>
      </trkpt>
      <trkpt lat="44.97981" lon="-1.09328">
        <ele>17.9</ele>
        <time>2021-05-23T10:29:24Z</time>
      </trkpt>
      <trkpt lat="44.97977" lon="-1.09323">
        <ele>17.9</ele>
        <time>2021-05-23T10:29:25Z</time>
      </trkpt>
      <trkpt lat="44.97968" lon="-1.09314">
        <ele>17.9</ele>
        <time>2021-05-23T10:29:27Z</time>
      </trkpt>
      <trkpt lat="44.97958" lon="-1.09305">
        <ele>17.8</ele>
        <time>2021-05-23T10:29:29Z</time>
      </trkpt>
      <trkpt lat="44.97949" lon="-1.09295">
        <ele>17.8</ele>
        <time>2021-05-23T10:29:31Z</time>
      </trkpt>
      <trkpt lat="44.97941" lon="-1.09286">
        <ele>17.8</ele>
        <time>2021-05-23T10:29:33Z</time>
      </trkpt>
      <trkpt lat="44.97932" lon="-1.09278">
        <ele>17.8</ele>
        <time>2021-05-23T10:29:35Z</time>
      </trkpt>
      <trkpt lat="44.97927" lon="-1.09273">
        <ele>17.8</ele>
        <time>2021-05-23T10:29:36Z</time>
      </trkpt>
      <trkpt lat="44.97923" lon="-1.09269">
        <ele>17.8</ele>
        <time>2021-05-23T10:29:37Z</time>
      </trkpt>
      <trkpt lat="44.97915" lon="-1.0926">
        <ele>17.8</ele>
        <time>2021-05-23T10:29:39Z</time>
      </trkpt>
      <trkpt lat="44.97906" lon="-1.09251">
        <ele>17.8</ele>
        <time>2021-05-23T10:29:41Z</time>
      </trkpt>
      <trkpt lat="44.97902" lon="-1.09246">
        <ele>17.8</ele>
        <time>2021-05-23T10:29:42Z</time>
      </trkpt>
      <trkpt lat="44.97897" lon="-1.09241">
        <ele>17.8</ele>
        <time>2021-05-23T10:29:43Z</time>
      </trkpt>
      <trkpt lat="44.97888" lon="-1.09231">
        <ele>17.8</ele>
        <time>2021-05-23T10:29:45Z</time>
      </trkpt>
      <trkpt lat="44.97878" lon="-1.09221">
        <ele>17.8</ele>
        <time>2021-05-23T10:29:47Z</time>
      </trkpt>
      <trkpt lat="44.97867" lon="-1.09216">
        <ele>17.8</ele>
        <time>2021-05-23T10:29:49Z</time>
      </trkpt>
      <trkpt lat="44.97856" lon="-1.09216">
        <ele>17.8</ele>
        <time>2021-05-23T10:29:51Z</time>
      </trkpt>
      <trkpt lat="44.97845" lon="-1.09216">
        <ele>17.8</ele>
        <time>2021-05-23T10:29:53Z</time>
      </trkpt>
      <trkpt lat="44.97834" lon="-1.09217">
        <ele>17.8</ele>
        <time>2021-05-23T10:29:55Z</time>
      </trkpt>
      <trkpt lat="44.97823" lon="-1.09217">
        <ele>17.8</ele>
        <time>2021-05-23T10:29:57Z</time>
      </trkpt>
      <trkpt lat="44.97813" lon="-1.09216">
        <ele>17.8</ele>
        <time>2021-05-23T10:29:59Z</time>
      </trkpt>
      <trkpt lat="44.97809" lon="-1.09214">
        <ele>17.8</ele>
        <time>2021-05-23T10:30:00Z</time>
      </trkpt>
      <trkpt lat="44.97806" lon="-1.0921">
        <ele>17.8</ele>
        <time>2021-05-23T10:30:01Z</time>
      </trkpt>
      <trkpt lat="44.97802" lon="-1.09198">
        <ele>17.9</ele>
        <time>2021-05-23T10:30:03Z</time>
      </trkpt>
      <trkpt lat="44.97802" lon="-1.09185">
        <ele>18</ele>
        <time>2021-05-23T10:30:05Z</time>
      </trkpt>
      <trkpt lat="44.97802" lon="-1.09171">
        <ele>18.1</ele>
        <time>2021-05-23T10:30:07Z</time>
      </trkpt>
      <trkpt lat="44.97803" lon="-1.09163">
        <ele>18.1</ele>
        <time>2021-05-23T10:30:08Z</time>
      </trkpt>
      <trkpt lat="44.97802" lon="-1.09156">
        <ele>18.2</ele>
        <time>2021-05-23T10:30:09Z</time>
      </trkpt>
      <trkpt lat="44.97802" lon="-1.09149">
        <ele>18.2</ele>
        <time>2021-05-23T10:30:10Z</time>
      </trkpt>
      <trkpt lat="44.97803" lon="-1.09143">
        <ele>18.2</ele>
        <time>2021-05-23T10:30:11Z</time>
      </trkpt>
      <trkpt lat="44.97803" lon="-1.09132">
        <ele>18.3</ele>
        <time>2021-05-23T10:30:13Z</time>
      </trkpt>
      <trkpt lat="44.97803" lon="-1.09125">
        <ele>18.3</ele>
        <time>2021-05-23T10:30:15Z</time>
      </trkpt>
      <trkpt lat="44.97804" lon="-1.0912">
        <ele>18.3</ele>
        <time>2021-05-23T10:30:17Z</time>
      </trkpt>
      <trkpt lat="44.97804" lon="-1.09116">
        <ele>18.3</ele>
        <time>2021-05-23T10:30:19Z</time>
      </trkpt>
      <trkpt lat="44.97806" lon="-1.09115">
        <ele>18.3</ele>
        <time>2021-05-23T10:30:20Z</time>
      </trkpt>
      <trkpt lat="44.97808" lon="-1.09118">
        <ele>18.4</ele>
        <time>2021-05-23T10:30:21Z</time>
      </trkpt>
      <trkpt lat="44.97809" lon="-1.09122">
        <ele>18.4</ele>
        <time>2021-05-23T10:30:22Z</time>
      </trkpt>
      <trkpt lat="44.97809" lon="-1.09127">
        <ele>18.4</ele>
        <time>2021-05-23T10:30:23Z</time>
      </trkpt>
      <trkpt lat="44.97809" lon="-1.09131">
        <ele>18.4</ele>
        <time>2021-05-23T10:30:24Z</time>
      </trkpt>
      <trkpt lat="44.97808" lon="-1.09136">
        <ele>18.4</ele>
        <time>2021-05-23T10:30:25Z</time>
      </trkpt>
      <trkpt lat="44.97808" lon="-1.09144">
        <ele>18.4</ele>
        <time>2021-05-23T10:30:27Z</time>
      </trkpt>
      <trkpt lat="44.97808" lon="-1.09152">
        <ele>18.3</ele>
        <time>2021-05-23T10:30:29Z</time>
      </trkpt>
      <trkpt lat="44.97809" lon="-1.09155">
        <ele>18.3</ele>
        <time>2021-05-23T10:30:30Z</time>
      </trkpt>
      <trkpt lat="44.9781" lon="-1.09158">
        <ele>18.3</ele>
        <time>2021-05-23T10:30:31Z</time>
      </trkpt>
      <trkpt lat="44.97812" lon="-1.09165">
        <ele>18.3</ele>
        <time>2021-05-23T10:30:33Z</time>
      </trkpt>
      <trkpt lat="44.97813" lon="-1.09168">
        <ele>18.2</ele>
        <time>2021-05-23T10:30:34Z</time>
      </trkpt>
      <trkpt lat="44.97813" lon="-1.09172">
        <ele>18.2</ele>
        <time>2021-05-23T10:30:35Z</time>
      </trkpt>
      <trkpt lat="44.97813" lon="-1.09179">
        <ele>18.1</ele>
        <time>2021-05-23T10:30:37Z</time>
      </trkpt>
      <trkpt lat="44.9781" lon="-1.09186">
        <ele>18</ele>
        <time>2021-05-23T10:30:39Z</time>
      </trkpt>
      <trkpt lat="44.9781" lon="-1.0919">
        <ele>18</ele>
        <time>2021-05-23T10:30:41Z</time>
      </trkpt>
      <trkpt lat="44.97809" lon="-1.09193">
        <ele>18.1</ele>
        <time>2021-05-23T10:30:43Z</time>
      </trkpt>
      <trkpt lat="44.97811" lon="-1.0918">
        <ele>18.2</ele>
        <time>2021-05-23T10:32:41Z</time>
      </trkpt>
      <trkpt lat="44.97811" lon="-1.09174">
        <ele>18.2</ele>
        <time>2021-05-23T10:32:43Z</time>
      </trkpt>
      <trkpt lat="44.97811" lon="-1.09168">
        <ele>18.2</ele>
        <time>2021-05-23T10:32:45Z</time>
      </trkpt>
      <trkpt lat="44.97808" lon="-1.09163">
        <ele>18.2</ele>
        <time>2021-05-23T10:32:47Z</time>
      </trkpt>
      <trkpt lat="44.97807" lon="-1.09161">
        <ele>18.2</ele>
        <time>2021-05-23T10:32:48Z</time>
      </trkpt>
      <trkpt lat="44.97804" lon="-1.09158">
        <ele>18.1</ele>
        <time>2021-05-23T10:32:49Z</time>
      </trkpt>
      <trkpt lat="44.97803" lon="-1.09154">
        <ele>18.2</ele>
        <time>2021-05-23T10:32:50Z</time>
      </trkpt>
      <trkpt lat="44.97803" lon="-1.0915">
        <ele>18.2</ele>
        <time>2021-05-23T10:32:51Z</time>
      </trkpt>
      <trkpt lat="44.97803" lon="-1.0914">
        <ele>18.2</ele>
        <time>2021-05-23T10:32:53Z</time>
      </trkpt>
      <trkpt lat="44.97803" lon="-1.0913">
        <ele>18.3</ele>
        <time>2021-05-23T10:32:55Z</time>
      </trkpt>
      <trkpt lat="44.97803" lon="-1.09119">
        <ele>18.3</ele>
        <time>2021-05-23T10:32:57Z</time>
      </trkpt>
      <trkpt lat="44.97804" lon="-1.09114">
        <ele>18.4</ele>
        <time>2021-05-23T10:32:58Z</time>
      </trkpt>
      <trkpt lat="44.97805" lon="-1.09109">
        <ele>18.4</ele>
        <time>2021-05-23T10:32:59Z</time>
      </trkpt>
      <trkpt lat="44.97806" lon="-1.09099">
        <ele>18.4</ele>
        <time>2021-05-23T10:33:01Z</time>
      </trkpt>
      <trkpt lat="44.97808" lon="-1.09089">
        <ele>18.5</ele>
        <time>2021-05-23T10:33:03Z</time>
      </trkpt>
      <trkpt lat="44.97809" lon="-1.09083">
        <ele>18.5</ele>
        <time>2021-05-23T10:33:04Z</time>
      </trkpt>
      <trkpt lat="44.9781" lon="-1.09078">
        <ele>18.5</ele>
        <time>2021-05-23T10:33:05Z</time>
      </trkpt>
      <trkpt lat="44.97811" lon="-1.09066">
        <ele>18.6</ele>
        <time>2021-05-23T10:33:07Z</time>
      </trkpt>
      <trkpt lat="44.97812" lon="-1.09055">
        <ele>18.6</ele>
        <time>2021-05-23T10:33:09Z</time>
      </trkpt>
      <trkpt lat="44.97813" lon="-1.09043">
        <ele>18.6</ele>
        <time>2021-05-23T10:33:11Z</time>
      </trkpt>
      <trkpt lat="44.97813" lon="-1.09031">
        <ele>18.7</ele>
        <time>2021-05-23T10:33:13Z</time>
      </trkpt>
      <trkpt lat="44.97813" lon="-1.09018">
        <ele>18.7</ele>
        <time>2021-05-23T10:33:15Z</time>
      </trkpt>
      <trkpt lat="44.97813" lon="-1.09006">
        <ele>18.7</ele>
        <time>2021-05-23T10:33:17Z</time>
      </trkpt>
      <trkpt lat="44.97814" lon="-1.08992">
        <ele>18.8</ele>
        <time>2021-05-23T10:33:19Z</time>
      </trkpt>
      <trkpt lat="44.97814" lon="-1.08979">
        <ele>18.8</ele>
        <time>2021-05-23T10:33:21Z</time>
      </trkpt>
      <trkpt lat="44.97813" lon="-1.08967">
        <ele>18.8</ele>
        <time>2021-05-23T10:33:23Z</time>
      </trkpt>
      <trkpt lat="44.97814" lon="-1.08957">
        <ele>18.8</ele>
        <time>2021-05-23T10:33:25Z</time>
      </trkpt>
      <trkpt lat="44.97814" lon="-1.08945">
        <ele>18.8</ele>
        <time>2021-05-23T10:33:27Z</time>
      </trkpt>
      <trkpt lat="44.97814" lon="-1.08934">
        <ele>18.7</ele>
        <time>2021-05-23T10:33:29Z</time>
      </trkpt>
      <trkpt lat="44.97814" lon="-1.08924">
        <ele>18.7</ele>
        <time>2021-05-23T10:33:31Z</time>
      </trkpt>
      <trkpt lat="44.97815" lon="-1.08915">
        <ele>18.7</ele>
        <time>2021-05-23T10:33:33Z</time>
      </trkpt>
      <trkpt lat="44.97815" lon="-1.08907">
        <ele>18.7</ele>
        <time>2021-05-23T10:33:35Z</time>
      </trkpt>
      <trkpt lat="44.97816" lon="-1.08896">
        <ele>18.7</ele>
        <time>2021-05-23T10:33:37Z</time>
      </trkpt>
      <trkpt lat="44.97817" lon="-1.08883">
        <ele>18.7</ele>
        <time>2021-05-23T10:33:39Z</time>
      </trkpt>
      <trkpt lat="44.97818" lon="-1.08869">
        <ele>18.7</ele>
        <time>2021-05-23T10:33:41Z</time>
      </trkpt>
      <trkpt lat="44.97819" lon="-1.08854">
        <ele>18.7</ele>
        <time>2021-05-23T10:33:43Z</time>
      </trkpt>
      <trkpt lat="44.97819" lon="-1.08838">
        <ele>18.7</ele>
        <time>2021-05-23T10:33:45Z</time>
      </trkpt>
      <trkpt lat="44.97819" lon="-1.08831">
        <ele>18.7</ele>
        <time>2021-05-23T10:33:46Z</time>
      </trkpt>
      <trkpt lat="44.97819" lon="-1.08823">
        <ele>18.7</ele>
        <time>2021-05-23T10:33:47Z</time>
      </trkpt>
      <trkpt lat="44.97819" lon="-1.08807">
        <ele>18.7</ele>
        <time>2021-05-23T10:33:49Z</time>
      </trkpt>
      <trkpt lat="44.97819" lon="-1.08791">
        <ele>18.7</ele>
        <time>2021-05-23T10:33:51Z</time>
      </trkpt>
      <trkpt lat="44.97819" lon="-1.08775">
        <ele>18.7</ele>
        <time>2021-05-23T10:33:53Z</time>
      </trkpt>
      <trkpt lat="44.97819" lon="-1.08758">
        <ele>18.6</ele>
        <time>2021-05-23T10:33:55Z</time>
      </trkpt>
      <trkpt lat="44.97819" lon="-1.08742">
        <ele>18.6</ele>
        <time>2021-05-23T10:33:57Z</time>
      </trkpt>
      <trkpt lat="44.97819" lon="-1.08726">
        <ele>18.6</ele>
        <time>2021-05-23T10:33:59Z</time>
      </trkpt>
      <trkpt lat="44.9782" lon="-1.0871">
        <ele>18.6</ele>
        <time>2021-05-23T10:34:01Z</time>
      </trkpt>
      <trkpt lat="44.9782" lon="-1.08702">
        <ele>18.6</ele>
        <time>2021-05-23T10:34:02Z</time>
      </trkpt>
      <trkpt lat="44.97819" lon="-1.08695">
        <ele>18.6</ele>
        <time>2021-05-23T10:34:03Z</time>
      </trkpt>
      <trkpt lat="44.97819" lon="-1.08679">
        <ele>18.6</ele>
        <time>2021-05-23T10:34:05Z</time>
      </trkpt>
      <trkpt lat="44.9782" lon="-1.08671">
        <ele>18.6</ele>
        <time>2021-05-23T10:34:06Z</time>
      </trkpt>
      <trkpt lat="44.9782" lon="-1.08663">
        <ele>18.6</ele>
        <time>2021-05-23T10:34:07Z</time>
      </trkpt>
      <trkpt lat="44.97819" lon="-1.08648">
        <ele>18.6</ele>
        <time>2021-05-23T10:34:09Z</time>
      </trkpt>
      <trkpt lat="44.97818" lon="-1.08633">
        <ele>18.6</ele>
        <time>2021-05-23T10:34:11Z</time>
      </trkpt>
      <trkpt lat="44.97818" lon="-1.08627">
        <ele>18.6</ele>
        <time>2021-05-23T10:34:12Z</time>
      </trkpt>
      <trkpt lat="44.97818" lon="-1.08621">
        <ele>18.6</ele>
        <time>2021-05-23T10:34:13Z</time>
      </trkpt>
      <trkpt lat="44.97819" lon="-1.08609">
        <ele>18.6</ele>
        <time>2021-05-23T10:34:15Z</time>
      </trkpt>
      <trkpt lat="44.97819" lon="-1.08596">
        <ele>18.6</ele>
        <time>2021-05-23T10:34:17Z</time>
      </trkpt>
      <trkpt lat="44.9782" lon="-1.08589">
        <ele>18.6</ele>
        <time>2021-05-23T10:34:18Z</time>
      </trkpt>
      <trkpt lat="44.97819" lon="-1.08582">
        <ele>18.6</ele>
        <time>2021-05-23T10:34:19Z</time>
      </trkpt>
      <trkpt lat="44.9782" lon="-1.08569">
        <ele>18.6</ele>
        <time>2021-05-23T10:34:21Z</time>
      </trkpt>
      <trkpt lat="44.97819" lon="-1.08559">
        <ele>18.6</ele>
        <time>2021-05-23T10:34:23Z</time>
      </trkpt>
      <trkpt lat="44.97818" lon="-1.08551">
        <ele>18.6</ele>
        <time>2021-05-23T10:34:25Z</time>
      </trkpt>
      <trkpt lat="44.97818" lon="-1.08541">
        <ele>18.6</ele>
        <time>2021-05-23T10:34:27Z</time>
      </trkpt>
      <trkpt lat="44.97817" lon="-1.08535">
        <ele>18.6</ele>
        <time>2021-05-23T10:34:28Z</time>
      </trkpt>
      <trkpt lat="44.97816" lon="-1.08528">
        <ele>18.6</ele>
        <time>2021-05-23T10:34:29Z</time>
      </trkpt>
      <trkpt lat="44.97816" lon="-1.08512">
        <ele>18.6</ele>
        <time>2021-05-23T10:34:31Z</time>
      </trkpt>
      <trkpt lat="44.97816" lon="-1.08496">
        <ele>18.6</ele>
        <time>2021-05-23T10:34:33Z</time>
      </trkpt>
      <trkpt lat="44.97816" lon="-1.08479">
        <ele>18.6</ele>
        <time>2021-05-23T10:34:35Z</time>
      </trkpt>
      <trkpt lat="44.97816" lon="-1.08463">
        <ele>18.6</ele>
        <time>2021-05-23T10:34:37Z</time>
      </trkpt>
      <trkpt lat="44.97816" lon="-1.08455">
        <ele>18.6</ele>
        <time>2021-05-23T10:34:38Z</time>
      </trkpt>
      <trkpt lat="44.97816" lon="-1.08447">
        <ele>18.6</ele>
        <time>2021-05-23T10:34:39Z</time>
      </trkpt>
      <trkpt lat="44.97816" lon="-1.08431">
        <ele>18.7</ele>
        <time>2021-05-23T10:34:41Z</time>
      </trkpt>
      <trkpt lat="44.97816" lon="-1.08414">
        <ele>18.7</ele>
        <time>2021-05-23T10:34:43Z</time>
      </trkpt>
      <trkpt lat="44.97816" lon="-1.08397">
        <ele>18.7</ele>
        <time>2021-05-23T10:34:45Z</time>
      </trkpt>
      <trkpt lat="44.97816" lon="-1.08389">
        <ele>18.7</ele>
        <time>2021-05-23T10:34:46Z</time>
      </trkpt>
      <trkpt lat="44.97816" lon="-1.0838">
        <ele>18.7</ele>
        <time>2021-05-23T10:34:47Z</time>
      </trkpt>
      <trkpt lat="44.97816" lon="-1.08364">
        <ele>18.7</ele>
        <time>2021-05-23T10:34:49Z</time>
      </trkpt>
      <trkpt lat="44.97816" lon="-1.08347">
        <ele>18.8</ele>
        <time>2021-05-23T10:34:51Z</time>
      </trkpt>
      <trkpt lat="44.97816" lon="-1.08338">
        <ele>18.8</ele>
        <time>2021-05-23T10:34:52Z</time>
      </trkpt>
      <trkpt lat="44.97816" lon="-1.08329">
        <ele>18.8</ele>
        <time>2021-05-23T10:34:53Z</time>
      </trkpt>
      <trkpt lat="44.97817" lon="-1.08312">
        <ele>18.8</ele>
        <time>2021-05-23T10:34:55Z</time>
      </trkpt>
      <trkpt lat="44.97816" lon="-1.08294">
        <ele>18.8</ele>
        <time>2021-05-23T10:34:57Z</time>
      </trkpt>
      <trkpt lat="44.97817" lon="-1.08277">
        <ele>18.8</ele>
        <time>2021-05-23T10:34:59Z</time>
      </trkpt>
      <trkpt lat="44.97817" lon="-1.0826">
        <ele>18.8</ele>
        <time>2021-05-23T10:35:01Z</time>
      </trkpt>
      <trkpt lat="44.97818" lon="-1.08242">
        <ele>18.8</ele>
        <time>2021-05-23T10:35:03Z</time>
      </trkpt>
      <trkpt lat="44.97818" lon="-1.08224">
        <ele>18.8</ele>
        <time>2021-05-23T10:35:05Z</time>
      </trkpt>
      <trkpt lat="44.97818" lon="-1.0821">
        <ele>18.9</ele>
        <time>2021-05-23T10:35:07Z</time>
      </trkpt>
      <trkpt lat="44.97818" lon="-1.08205">
        <ele>18.9</ele>
        <time>2021-05-23T10:35:08Z</time>
      </trkpt>
      <trkpt lat="44.97818" lon="-1.082">
        <ele>18.9</ele>
        <time>2021-05-23T10:35:09Z</time>
      </trkpt>
      <trkpt lat="44.97818" lon="-1.0819">
        <ele>18.9</ele>
        <time>2021-05-23T10:35:11Z</time>
      </trkpt>
      <trkpt lat="44.97818" lon="-1.08181">
        <ele>18.9</ele>
        <time>2021-05-23T10:35:13Z</time>
      </trkpt>
      <trkpt lat="44.97818" lon="-1.08172">
        <ele>18.9</ele>
        <time>2021-05-23T10:35:15Z</time>
      </trkpt>
      <trkpt lat="44.97818" lon="-1.08161">
        <ele>18.9</ele>
        <time>2021-05-23T10:35:17Z</time>
      </trkpt>
      <trkpt lat="44.97818" lon="-1.08155">
        <ele>18.9</ele>
        <time>2021-05-23T10:35:18Z</time>
      </trkpt>
      <trkpt lat="44.97818" lon="-1.0815">
        <ele>18.9</ele>
        <time>2021-05-23T10:35:19Z</time>
      </trkpt>
      <trkpt lat="44.97818" lon="-1.08138">
        <ele>18.9</ele>
        <time>2021-05-23T10:35:21Z</time>
      </trkpt>
      <trkpt lat="44.97818" lon="-1.08126">
        <ele>18.9</ele>
        <time>2021-05-23T10:35:23Z</time>
      </trkpt>
      <trkpt lat="44.97818" lon="-1.08116">
        <ele>18.9</ele>
        <time>2021-05-23T10:35:25Z</time>
      </trkpt>
      <trkpt lat="44.97818" lon="-1.08106">
        <ele>18.9</ele>
        <time>2021-05-23T10:35:27Z</time>
      </trkpt>
      <trkpt lat="44.97819" lon="-1.08093">
        <ele>18.9</ele>
        <time>2021-05-13T12:54:01Z</time>
      </trkpt>
      <trkpt lat="44.97813" lon="-1.08096">
        <ele>18.8</ele>
        <time>2021-05-13T12:51:30Z</time>
      </trkpt>
      <trkpt lat="44.97813" lon="-1.08097">
        <ele>18.8</ele>
        <time>2021-05-13T12:51:07Z</time>
      </trkpt>
      <trkpt lat="44.97811" lon="-1.08097">
        <ele>18.8</ele>
        <time>2021-05-13T12:51:06Z</time>
      </trkpt>
      <trkpt lat="44.97803" lon="-1.08096">
        <ele>18.7</ele>
        <time>2021-05-13T12:51:04Z</time>
      </trkpt>
      <trkpt lat="44.97781" lon="-1.08094">
        <ele>18.4</ele>
        <time>2021-05-13T12:51:00Z</time>
      </trkpt>
      <trkpt lat="44.97743" lon="-1.08092">
        <ele>18.6</ele>
        <time>2021-05-13T12:50:54Z</time>
      </trkpt>
      <trkpt lat="44.97732" lon="-1.08085">
        <ele>18.8</ele>
        <time>2021-05-13T12:50:52Z</time>
      </trkpt>
      <trkpt lat="44.97728" lon="-1.08079">
        <ele>18.8</ele>
        <time>2021-05-13T12:50:51Z</time>
      </trkpt>
      <trkpt lat="44.97716" lon="-1.0806">
        <ele>18.8</ele>
        <time>2021-05-13T12:50:48Z</time>
      </trkpt>
      <trkpt lat="44.97711" lon="-1.08055">
        <ele>18.8</ele>
        <time>2021-05-13T12:50:47Z</time>
      </trkpt>
      <trkpt lat="44.97706" lon="-1.08051">
        <ele>18.8</ele>
        <time>2021-05-13T12:50:46Z</time>
      </trkpt>
      <trkpt lat="44.97684" lon="-1.08047">
        <ele>18.8</ele>
        <time>2021-05-13T12:50:42Z</time>
      </trkpt>
      <trkpt lat="44.97674" lon="-1.08046">
        <ele>18.9</ele>
        <time>2021-05-13T12:50:40Z</time>
      </trkpt>
      <trkpt lat="44.97659" lon="-1.08044">
        <ele>19.1</ele>
        <time>2021-05-13T12:50:37Z</time>
      </trkpt>
      <trkpt lat="44.9765" lon="-1.08045">
        <ele>19.1</ele>
        <time>2021-05-13T12:50:35Z</time>
      </trkpt>
      <trkpt lat="44.97646" lon="-1.08058">
        <ele>19</ele>
        <time>2021-05-13T12:50:33Z</time>
      </trkpt>
      <trkpt lat="44.97642" lon="-1.0808">
        <ele>18.8</ele>
        <time>2021-05-13T12:50:30Z</time>
      </trkpt>
      <trkpt lat="44.97639" lon="-1.08088">
        <ele>18.7</ele>
        <time>2021-05-13T12:50:29Z</time>
      </trkpt>
      <trkpt lat="44.97632" lon="-1.08104">
        <ele>18.6</ele>
        <time>2021-05-13T12:50:27Z</time>
      </trkpt>
      <trkpt lat="44.97621" lon="-1.08111">
        <ele>18.5</ele>
        <time>2021-05-13T12:50:25Z</time>
      </trkpt>
      <trkpt lat="44.97601" lon="-1.08109">
        <ele>18.3</ele>
        <time>2021-05-13T12:50:22Z</time>
      </trkpt>
      <trkpt lat="44.97574" lon="-1.08107">
        <ele>18.3</ele>
        <time>2021-05-13T12:50:18Z</time>
      </trkpt>
      <trkpt lat="44.97561" lon="-1.08106">
        <ele>18.4</ele>
        <time>2021-05-13T12:50:16Z</time>
      </trkpt>
      <trkpt lat="44.97548" lon="-1.08105">
        <ele>18.4</ele>
        <time>2021-05-13T12:50:14Z</time>
      </trkpt>
      <trkpt lat="44.97542" lon="-1.08104">
        <ele>18.4</ele>
        <time>2021-05-13T12:50:13Z</time>
      </trkpt>
      <trkpt lat="44.97521" lon="-1.08101">
        <ele>18.4</ele>
        <time>2021-05-13T12:50:10Z</time>
      </trkpt>
      <trkpt lat="44.97506" lon="-1.08101">
        <ele>18.4</ele>
        <time>2021-05-13T12:50:08Z</time>
      </trkpt>
      <trkpt lat="44.975" lon="-1.08099">
        <ele>18.5</ele>
        <time>2021-05-13T12:50:07Z</time>
      </trkpt>
      <trkpt lat="44.97494" lon="-1.08096">
        <ele>18.5</ele>
        <time>2021-05-13T12:50:06Z</time>
      </trkpt>
      <trkpt lat="44.97478" lon="-1.08077">
        <ele>18.6</ele>
        <time>2021-05-13T12:50:03Z</time>
      </trkpt>
      <trkpt lat="44.97472" lon="-1.08071">
        <ele>18.6</ele>
        <time>2021-05-13T12:50:02Z</time>
      </trkpt>
      <trkpt lat="44.97458" lon="-1.08062">
        <ele>18.7</ele>
        <time>2021-05-13T12:50:00Z</time>
      </trkpt>
      <trkpt lat="44.97419" lon="-1.08057">
        <ele>18.8</ele>
        <time>2021-05-13T12:49:55Z</time>
      </trkpt>
      <trkpt lat="44.97389" lon="-1.08054">
        <ele>18.7</ele>
        <time>2021-05-13T12:49:50Z</time>
      </trkpt>
      <trkpt lat="44.97356" lon="-1.08051">
        <ele>18.9</ele>
        <time>2021-05-13T12:49:45Z</time>
      </trkpt>
      <trkpt lat="44.97318" lon="-1.08046">
        <ele>18.9</ele>
        <time>2021-05-13T12:49:39Z</time>
      </trkpt>
      <trkpt lat="44.97292" lon="-1.08042">
        <ele>18.8</ele>
        <time>2021-05-13T12:49:35Z</time>
      </trkpt>
      <trkpt lat="44.9728" lon="-1.0804">
        <ele>18.7</ele>
        <time>2021-05-13T12:49:33Z</time>
      </trkpt>
      <trkpt lat="44.97274" lon="-1.08039">
        <ele>18.7</ele>
        <time>2021-05-13T12:49:32Z</time>
      </trkpt>
      <trkpt lat="44.97267" lon="-1.08039">
        <ele>18.7</ele>
        <time>2021-05-13T12:49:31Z</time>
      </trkpt>
      <trkpt lat="44.9724" lon="-1.08036">
        <ele>18.6</ele>
        <time>2021-05-13T12:49:27Z</time>
      </trkpt>
      <trkpt lat="44.97227" lon="-1.08035">
        <ele>18.7</ele>
        <time>2021-05-13T12:49:25Z</time>
      </trkpt>
      <trkpt lat="44.97214" lon="-1.08033">
        <ele>18.7</ele>
        <time>2021-05-13T12:49:23Z</time>
      </trkpt>
      <trkpt lat="44.97181" lon="-1.08026">
        <ele>18.9</ele>
        <time>2021-05-13T12:49:18Z</time>
      </trkpt>
      <trkpt lat="44.97169" lon="-1.08023">
        <ele>18.9</ele>
        <time>2021-05-13T12:49:16Z</time>
      </trkpt>
      <trkpt lat="44.97159" lon="-1.0802">
        <ele>18.8</ele>
        <time>2021-05-13T12:49:14Z</time>
      </trkpt>
      <trkpt lat="44.97132" lon="-1.08012">
        <ele>18.8</ele>
        <time>2021-05-13T12:49:09Z</time>
      </trkpt>
      <trkpt lat="44.97124" lon="-1.08008">
        <ele>18.7</ele>
        <time>2021-05-13T12:49:07Z</time>
      </trkpt>
      <trkpt lat="44.97118" lon="-1.08006">
        <ele>18.7</ele>
        <time>2021-05-13T12:49:06Z</time>
      </trkpt>
      <trkpt lat="44.97094" lon="-1.07999">
        <ele>18.7</ele>
        <time>2021-05-13T12:49:02Z</time>
      </trkpt>
      <trkpt lat="44.97057" lon="-1.07985">
        <ele>18.7</ele>
        <time>2021-05-13T12:48:56Z</time>
      </trkpt>
      <trkpt lat="44.97023" lon="-1.0797">
        <ele>18.8</ele>
        <time>2021-05-13T12:48:50Z</time>
      </trkpt>
      <trkpt lat="44.96991" lon="-1.07957">
        <ele>18.7</ele>
        <time>2021-05-13T12:48:45Z</time>
      </trkpt>
      <trkpt lat="44.96941" lon="-1.07931">
        <ele>18.7</ele>
        <time>2021-05-13T12:48:37Z</time>
      </trkpt>
      <trkpt lat="44.96929" lon="-1.07924">
        <ele>18.8</ele>
        <time>2021-05-13T12:48:35Z</time>
      </trkpt>
      <trkpt lat="44.96925" lon="-1.07921">
        <ele>18.8</ele>
        <time>2021-05-13T12:48:34Z</time>
      </trkpt>
      <trkpt lat="44.9691" lon="-1.07907">
        <ele>18.7</ele>
        <time>2021-05-13T12:48:30Z</time>
      </trkpt>
      <trkpt lat="44.96865" lon="-1.07875">
        <ele>18.6</ele>
        <time>2021-05-13T12:48:22Z</time>
      </trkpt>
      <trkpt lat="44.96826" lon="-1.07845">
        <ele>18.6</ele>
        <time>2021-05-13T12:48:15Z</time>
      </trkpt>
      <trkpt lat="44.96796" lon="-1.07818">
        <ele>18.9</ele>
        <time>2021-05-13T12:48:09Z</time>
      </trkpt>
      <trkpt lat="44.96762" lon="-1.07783">
        <ele>18.7</ele>
        <time>2021-05-13T12:48:02Z</time>
      </trkpt>
      <trkpt lat="44.96727" lon="-1.07746">
        <ele>18.7</ele>
        <time>2021-05-13T12:47:55Z</time>
      </trkpt>
      <trkpt lat="44.96692" lon="-1.07707">
        <ele>18.5</ele>
        <time>2021-05-13T12:47:48Z</time>
      </trkpt>
      <trkpt lat="44.96687" lon="-1.07702">
        <ele>18.4</ele>
        <time>2021-05-13T12:47:47Z</time>
      </trkpt>
      <trkpt lat="44.96645" lon="-1.07648">
        <ele>18.4</ele>
        <time>2021-05-13T12:47:38Z</time>
      </trkpt>
      <trkpt lat="44.96613" lon="-1.07604">
        <ele>18.1</ele>
        <time>2021-05-13T12:47:31Z</time>
      </trkpt>
      <trkpt lat="44.96575" lon="-1.07546">
        <ele>18</ele>
        <time>2021-05-13T12:47:22Z</time>
      </trkpt>
      <trkpt lat="44.96545" lon="-1.075">
        <ele>18.2</ele>
        <time>2021-05-13T12:47:15Z</time>
      </trkpt>
      <trkpt lat="44.96514" lon="-1.07456">
        <ele>18.1</ele>
        <time>2021-05-13T12:47:08Z</time>
      </trkpt>
      <trkpt lat="44.96486" lon="-1.07411">
        <ele>18.2</ele>
        <time>2021-05-13T12:47:01Z</time>
      </trkpt>
      <trkpt lat="44.96474" lon="-1.07392">
        <ele>18.2</ele>
        <time>2021-05-13T12:46:58Z</time>
      </trkpt>
      <trkpt lat="44.96466" lon="-1.07379">
        <ele>18.3</ele>
        <time>2021-05-13T12:46:56Z</time>
      </trkpt>
      <trkpt lat="44.96459" lon="-1.07366">
        <ele>18.3</ele>
        <time>2021-05-13T12:46:54Z</time>
      </trkpt>
      <trkpt lat="44.96451" lon="-1.07353">
        <ele>18.4</ele>
        <time>2021-05-13T12:46:52Z</time>
      </trkpt>
      <trkpt lat="44.96438" lon="-1.07334">
        <ele>18.6</ele>
        <time>2021-05-13T12:46:49Z</time>
      </trkpt>
      <trkpt lat="44.9643" lon="-1.07321">
        <ele>18.8</ele>
        <time>2021-05-13T12:46:47Z</time>
      </trkpt>
      <trkpt lat="44.96419" lon="-1.07303">
        <ele>19.1</ele>
        <time>2021-05-13T12:46:44Z</time>
      </trkpt>
      <trkpt lat="44.96416" lon="-1.07299">
        <ele>19.3</ele>
        <time>2021-05-13T12:46:43Z</time>
      </trkpt>
      <trkpt lat="44.96413" lon="-1.07294">
        <ele>19.5</ele>
        <time>2021-05-13T12:46:42Z</time>
      </trkpt>
      <trkpt lat="44.96402" lon="-1.07275">
        <ele>20</ele>
        <time>2021-05-13T12:46:38Z</time>
      </trkpt>
      <trkpt lat="44.96398" lon="-1.07265">
        <ele>19.9</ele>
        <time>2021-05-13T12:46:35Z</time>
      </trkpt>
      <trkpt lat="44.96396" lon="-1.07262">
        <ele>19.9</ele>
        <time>2021-05-13T12:46:34Z</time>
      </trkpt>
      <trkpt lat="44.96384" lon="-1.07249">
        <ele>19.4</ele>
        <time>2021-05-13T12:46:30Z</time>
      </trkpt>
      <trkpt lat="44.96363" lon="-1.07218">
        <ele>18.8</ele>
        <time>2021-05-13T12:46:24Z</time>
      </trkpt>
      <trkpt lat="44.96341" lon="-1.07183">
        <ele>18.6</ele>
        <time>2021-05-13T12:46:18Z</time>
      </trkpt>
      <trkpt lat="44.96308" lon="-1.07135">
        <ele>18.5</ele>
        <time>2021-05-13T12:46:10Z</time>
      </trkpt>
      <trkpt lat="44.96284" lon="-1.07099">
        <ele>18.7</ele>
        <time>2021-05-13T12:46:04Z</time>
      </trkpt>
      <trkpt lat="44.96268" lon="-1.07074">
        <ele>18.8</ele>
        <time>2021-05-13T12:46:00Z</time>
      </trkpt>
      <trkpt lat="44.9626" lon="-1.07063">
        <ele>18.9</ele>
        <time>2021-05-13T12:45:58Z</time>
      </trkpt>
      <trkpt lat="44.96253" lon="-1.07051">
        <ele>19</ele>
        <time>2021-05-13T12:45:56Z</time>
      </trkpt>
      <trkpt lat="44.96243" lon="-1.07033">
        <ele>19.1</ele>
        <time>2021-05-13T12:45:53Z</time>
      </trkpt>
      <trkpt lat="44.96221" lon="-1.06999">
        <ele>19.2</ele>
        <time>2021-05-13T12:45:47Z</time>
      </trkpt>
      <trkpt lat="44.962" lon="-1.06966">
        <ele>19.4</ele>
        <time>2021-05-13T12:45:41Z</time>
      </trkpt>
      <trkpt lat="44.96182" lon="-1.06936">
        <ele>19.4</ele>
        <time>2021-05-13T12:45:35Z</time>
      </trkpt>
      <trkpt lat="44.96165" lon="-1.0691">
        <ele>19.6</ele>
        <time>2021-05-13T12:45:29Z</time>
      </trkpt>
      <trkpt lat="44.96156" lon="-1.06894">
        <ele>19.6</ele>
        <time>2021-05-13T12:45:24Z</time>
      </trkpt>
      <trkpt lat="44.96155" lon="-1.06892">
        <ele>19.7</ele>
        <time>2021-05-13T12:45:23Z</time>
      </trkpt>
      <trkpt lat="44.96145" lon="-1.06877">
        <ele>19.7</ele>
        <time>2021-05-13T12:43:53Z</time>
      </trkpt>
      <trkpt lat="44.96137" lon="-1.06867">
        <ele>19.8</ele>
        <time>2021-05-13T12:43:51Z</time>
      </trkpt>
      <trkpt lat="44.96115" lon="-1.06831">
        <ele>20.1</ele>
        <time>2021-05-13T12:43:45Z</time>
      </trkpt>
      <trkpt lat="44.96094" lon="-1.06797">
        <ele>20.3</ele>
        <time>2021-05-13T12:43:40Z</time>
      </trkpt>
      <trkpt lat="44.96062" lon="-1.06748">
        <ele>20.5</ele>
        <time>2021-05-13T12:43:33Z</time>
      </trkpt>
      <trkpt lat="44.96033" lon="-1.06702">
        <ele>20.8</ele>
        <time>2021-05-13T12:43:26Z</time>
      </trkpt>
      <trkpt lat="44.96007" lon="-1.06662">
        <ele>20.9</ele>
        <time>2021-05-13T12:43:20Z</time>
      </trkpt>
      <trkpt lat="44.95984" lon="-1.06627">
        <ele>21.2</ele>
        <time>2021-05-13T12:43:15Z</time>
      </trkpt>
      <trkpt lat="44.95952" lon="-1.06577">
        <ele>21.1</ele>
        <time>2021-05-13T12:43:08Z</time>
      </trkpt>
      <trkpt lat="44.95921" lon="-1.0653">
        <ele>21.2</ele>
        <time>2021-05-13T12:43:01Z</time>
      </trkpt>
      <trkpt lat="44.95881" lon="-1.06469">
        <ele>21.3</ele>
        <time>2021-05-13T12:42:52Z</time>
      </trkpt>
      <trkpt lat="44.95877" lon="-1.06462">
        <ele>21.3</ele>
        <time>2021-05-13T12:42:51Z</time>
      </trkpt>
      <trkpt lat="44.95839" lon="-1.06402">
        <ele>21.4</ele>
        <time>2021-05-13T12:42:42Z</time>
      </trkpt>
      <trkpt lat="44.95807" lon="-1.06353">
        <ele>21.4</ele>
        <time>2021-05-13T12:42:35Z</time>
      </trkpt>
      <trkpt lat="44.95771" lon="-1.06299">
        <ele>21.4</ele>
        <time>2021-05-13T12:42:27Z</time>
      </trkpt>
      <trkpt lat="44.95744" lon="-1.06259">
        <ele>21.4</ele>
        <time>2021-05-13T12:42:21Z</time>
      </trkpt>
      <trkpt lat="44.95722" lon="-1.06225">
        <ele>21.6</ele>
        <time>2021-05-13T12:42:16Z</time>
      </trkpt>
      <trkpt lat="44.95699" lon="-1.06193">
        <ele>21.7</ele>
        <time>2021-05-13T12:42:11Z</time>
      </trkpt>
      <trkpt lat="44.95671" lon="-1.06153">
        <ele>21.9</ele>
        <time>2021-05-13T12:42:05Z</time>
      </trkpt>
      <trkpt lat="44.95667" lon="-1.06146">
        <ele>21.9</ele>
        <time>2021-05-13T12:42:04Z</time>
      </trkpt>
      <trkpt lat="44.9564" lon="-1.06097">
        <ele>22</ele>
        <time>2021-05-13T12:41:57Z</time>
      </trkpt>
      <trkpt lat="44.95615" lon="-1.06057">
        <ele>22.1</ele>
        <time>2021-05-13T12:41:51Z</time>
      </trkpt>
      <trkpt lat="44.95577" lon="-1.06004">
        <ele>22.1</ele>
        <time>2021-05-13T12:41:43Z</time>
      </trkpt>
      <trkpt lat="44.95543" lon="-1.0595">
        <ele>22.4</ele>
        <time>2021-05-13T12:41:35Z</time>
      </trkpt>
      <trkpt lat="44.95512" lon="-1.05904">
        <ele>22.5</ele>
        <time>2021-05-13T12:41:28Z</time>
      </trkpt>
      <trkpt lat="44.95503" lon="-1.05891">
        <ele>22.6</ele>
        <time>2021-05-13T12:41:26Z</time>
      </trkpt>
      <trkpt lat="44.9549" lon="-1.0587">
        <ele>22.6</ele>
        <time>2021-05-13T12:41:23Z</time>
      </trkpt>
      <trkpt lat="44.95462" lon="-1.05823">
        <ele>22.7</ele>
        <time>2021-05-13T12:41:16Z</time>
      </trkpt>
      <trkpt lat="44.95439" lon="-1.05783">
        <ele>22.7</ele>
        <time>2021-05-13T12:41:10Z</time>
      </trkpt>
      <trkpt lat="44.95413" lon="-1.05745">
        <ele>22.7</ele>
        <time>2021-05-13T12:41:04Z</time>
      </trkpt>
      <trkpt lat="44.95382" lon="-1.05699">
        <ele>22.8</ele>
        <time>2021-05-13T12:40:57Z</time>
      </trkpt>
      <trkpt lat="44.95345" lon="-1.05647">
        <ele>23</ele>
        <time>2021-05-13T12:40:49Z</time>
      </trkpt>
      <trkpt lat="44.95337" lon="-1.05634">
        <ele>23</ele>
        <time>2021-05-13T12:40:47Z</time>
      </trkpt>
      <trkpt lat="44.95299" lon="-1.05572">
        <ele>23.1</ele>
        <time>2021-05-13T12:40:38Z</time>
      </trkpt>
      <trkpt lat="44.9527" lon="-1.05523">
        <ele>23.3</ele>
        <time>2021-05-13T12:40:31Z</time>
      </trkpt>
      <trkpt lat="44.95262" lon="-1.05509">
        <ele>23.4</ele>
        <time>2021-05-13T12:40:29Z</time>
      </trkpt>
      <trkpt lat="44.95239" lon="-1.05476">
        <ele>23.6</ele>
        <time>2021-05-13T12:40:24Z</time>
      </trkpt>
      <trkpt lat="44.9523" lon="-1.05463">
        <ele>23.7</ele>
        <time>2021-05-13T12:40:22Z</time>
      </trkpt>
      <trkpt lat="44.95217" lon="-1.05446">
        <ele>23.8</ele>
        <time>2021-05-13T12:40:19Z</time>
      </trkpt>
      <trkpt lat="44.95214" lon="-1.0544">
        <ele>23.8</ele>
        <time>2021-05-13T12:40:18Z</time>
      </trkpt>
      <trkpt lat="44.95198" lon="-1.05415">
        <ele>23.9</ele>
        <time>2021-05-13T12:40:14Z</time>
      </trkpt>
      <trkpt lat="44.95165" lon="-1.05372">
        <ele>23.8</ele>
        <time>2021-05-13T12:40:07Z</time>
      </trkpt>
      <trkpt lat="44.95139" lon="-1.05332">
        <ele>23.8</ele>
        <time>2021-05-13T12:40:01Z</time>
      </trkpt>
      <trkpt lat="44.95113" lon="-1.05292">
        <ele>23.5</ele>
        <time>2021-05-13T12:39:55Z</time>
      </trkpt>
      <trkpt lat="44.95109" lon="-1.05286">
        <ele>23.5</ele>
        <time>2021-05-13T12:39:54Z</time>
      </trkpt>
      <trkpt lat="44.95083" lon="-1.05247">
        <ele>23.4</ele>
        <time>2021-05-13T12:39:48Z</time>
      </trkpt>
      <trkpt lat="44.95053" lon="-1.05199">
        <ele>23.5</ele>
        <time>2021-05-13T12:39:41Z</time>
      </trkpt>
      <trkpt lat="44.95024" lon="-1.05152">
        <ele>23.6</ele>
        <time>2021-05-13T12:39:34Z</time>
      </trkpt>
      <trkpt lat="44.94992" lon="-1.05098">
        <ele>23.6</ele>
        <time>2021-05-13T12:39:26Z</time>
      </trkpt>
      <trkpt lat="44.94959" lon="-1.05044">
        <ele>23.8</ele>
        <time>2021-05-13T12:39:18Z</time>
      </trkpt>
      <trkpt lat="44.94936" lon="-1.05003">
        <ele>23.9</ele>
        <time>2021-05-13T12:39:12Z</time>
      </trkpt>
      <trkpt lat="44.94918" lon="-1.04977">
        <ele>23.8</ele>
        <time>2021-05-13T12:39:08Z</time>
      </trkpt>
      <trkpt lat="44.94891" lon="-1.04939">
        <ele>23.6</ele>
        <time>2021-05-13T12:39:02Z</time>
      </trkpt>
      <trkpt lat="44.94857" lon="-1.04886">
        <ele>23.7</ele>
        <time>2021-05-13T12:38:54Z</time>
      </trkpt>
      <trkpt lat="44.94827" lon="-1.04842">
        <ele>23.8</ele>
        <time>2021-05-13T12:38:47Z</time>
      </trkpt>
      <trkpt lat="44.94794" lon="-1.04789">
        <ele>23.9</ele>
        <time>2021-05-13T12:38:39Z</time>
      </trkpt>
      <trkpt lat="44.94766" lon="-1.04741">
        <ele>24</ele>
        <time>2021-05-13T12:38:32Z</time>
      </trkpt>
      <trkpt lat="44.94731" lon="-1.04689">
        <ele>24.1</ele>
        <time>2021-05-13T12:38:24Z</time>
      </trkpt>
      <trkpt lat="44.94701" lon="-1.04643">
        <ele>24.1</ele>
        <time>2021-05-13T12:38:17Z</time>
      </trkpt>
      <trkpt lat="44.94676" lon="-1.04603">
        <ele>24.2</ele>
        <time>2021-05-13T12:38:11Z</time>
      </trkpt>
      <trkpt lat="44.9465" lon="-1.04563">
        <ele>24.2</ele>
        <time>2021-05-13T12:38:05Z</time>
      </trkpt>
      <trkpt lat="44.94615" lon="-1.0451">
        <ele>24.3</ele>
        <time>2021-05-13T12:37:57Z</time>
      </trkpt>
      <trkpt lat="44.94585" lon="-1.04462">
        <ele>24.4</ele>
        <time>2021-05-13T12:37:50Z</time>
      </trkpt>
      <trkpt lat="44.94556" lon="-1.04416">
        <ele>24.5</ele>
        <time>2021-05-13T12:37:43Z</time>
      </trkpt>
      <trkpt lat="44.94527" lon="-1.0437">
        <ele>24.6</ele>
        <time>2021-05-13T12:37:36Z</time>
      </trkpt>
      <trkpt lat="44.94496" lon="-1.04324">
        <ele>24.6</ele>
        <time>2021-05-13T12:37:29Z</time>
      </trkpt>
      <trkpt lat="44.9447" lon="-1.04284">
        <ele>24.7</ele>
        <time>2021-05-13T12:37:23Z</time>
      </trkpt>
      <trkpt lat="44.94437" lon="-1.04231">
        <ele>24.8</ele>
        <time>2021-05-13T12:37:15Z</time>
      </trkpt>
      <trkpt lat="44.94421" lon="-1.04204">
        <ele>24.8</ele>
        <time>2021-05-13T12:37:11Z</time>
      </trkpt>
      <trkpt lat="44.94416" lon="-1.04198">
        <ele>24.8</ele>
        <time>2021-05-13T12:37:10Z</time>
      </trkpt>
      <trkpt lat="44.94411" lon="-1.04192">
        <ele>24.8</ele>
        <time>2021-05-13T12:37:09Z</time>
      </trkpt>
      <trkpt lat="44.94387" lon="-1.04153">
        <ele>24.9</ele>
        <time>2021-05-13T12:37:03Z</time>
      </trkpt>
      <trkpt lat="44.94358" lon="-1.04105">
        <ele>25.1</ele>
        <time>2021-05-13T12:36:56Z</time>
      </trkpt>
      <trkpt lat="44.94353" lon="-1.04098">
        <ele>25.1</ele>
        <time>2021-05-13T12:36:55Z</time>
      </trkpt>
      <trkpt lat="44.94327" lon="-1.04059">
        <ele>25.3</ele>
        <time>2021-05-13T12:36:49Z</time>
      </trkpt>
      <trkpt lat="44.94303" lon="-1.04019">
        <ele>25.5</ele>
        <time>2021-05-13T12:36:43Z</time>
      </trkpt>
      <trkpt lat="44.94275" lon="-1.03975">
        <ele>25.5</ele>
        <time>2021-05-13T12:36:36Z</time>
      </trkpt>
      <trkpt lat="44.94258" lon="-1.0395">
        <ele>25.4</ele>
        <time>2021-05-13T12:36:32Z</time>
      </trkpt>
      <trkpt lat="44.94254" lon="-1.03944">
        <ele>25.4</ele>
        <time>2021-05-13T12:36:31Z</time>
      </trkpt>
      <trkpt lat="44.94242" lon="-1.03924">
        <ele>25.4</ele>
        <time>2021-05-13T12:36:28Z</time>
      </trkpt>
      <trkpt lat="44.9423" lon="-1.03906">
        <ele>25.4</ele>
        <time>2021-05-13T12:36:25Z</time>
      </trkpt>
      <trkpt lat="44.94192" lon="-1.03848">
        <ele>25.4</ele>
        <time>2021-05-13T12:36:16Z</time>
      </trkpt>
      <trkpt lat="44.94162" lon="-1.03803">
        <ele>25.5</ele>
        <time>2021-05-13T12:36:09Z</time>
      </trkpt>
      <trkpt lat="44.94127" lon="-1.03752">
        <ele>25.6</ele>
        <time>2021-05-13T12:36:01Z</time>
      </trkpt>
      <trkpt lat="44.94102" lon="-1.03713">
        <ele>25.8</ele>
        <time>2021-05-13T12:35:55Z</time>
      </trkpt>
      <trkpt lat="44.94069" lon="-1.0366">
        <ele>26</ele>
        <time>2021-05-13T12:35:47Z</time>
      </trkpt>
      <trkpt lat="44.9404" lon="-1.03609">
        <ele>25.9</ele>
        <time>2021-05-13T12:35:40Z</time>
      </trkpt>
      <trkpt lat="44.9401" lon="-1.03564">
        <ele>25.9</ele>
        <time>2021-05-13T12:35:33Z</time>
      </trkpt>
      <trkpt lat="44.93981" lon="-1.0352">
        <ele>25.9</ele>
        <time>2021-05-13T12:35:26Z</time>
      </trkpt>
      <trkpt lat="44.93953" lon="-1.03477">
        <ele>25.8</ele>
        <time>2021-05-13T12:35:19Z</time>
      </trkpt>
      <trkpt lat="44.93949" lon="-1.0347">
        <ele>25.8</ele>
        <time>2021-05-13T12:35:18Z</time>
      </trkpt>
      <trkpt lat="44.93921" lon="-1.03427">
        <ele>25.9</ele>
        <time>2021-05-13T12:35:11Z</time>
      </trkpt>
      <trkpt lat="44.93888" lon="-1.03376">
        <ele>25.9</ele>
        <time>2021-05-13T12:35:03Z</time>
      </trkpt>
      <trkpt lat="44.93851" lon="-1.03319">
        <ele>25.8</ele>
        <time>2021-05-13T12:34:54Z</time>
      </trkpt>
      <trkpt lat="44.93843" lon="-1.03306">
        <ele>25.7</ele>
        <time>2021-05-13T12:34:52Z</time>
      </trkpt>
      <trkpt lat="44.93807" lon="-1.03249">
        <ele>25.9</ele>
        <time>2021-05-13T12:34:43Z</time>
      </trkpt>
      <trkpt lat="44.9377" lon="-1.03195">
        <ele>25.9</ele>
        <time>2021-05-13T12:34:34Z</time>
      </trkpt>
      <trkpt lat="44.93742" lon="-1.03152">
        <ele>25.9</ele>
        <time>2021-05-13T12:34:27Z</time>
      </trkpt>
      <trkpt lat="44.93705" lon="-1.03095">
        <ele>26</ele>
        <time>2021-05-13T12:34:18Z</time>
      </trkpt>
      <trkpt lat="44.93671" lon="-1.03044">
        <ele>26</ele>
        <time>2021-05-13T12:34:10Z</time>
      </trkpt>
      <trkpt lat="44.93639" lon="-1.02998">
        <ele>26</ele>
        <time>2021-05-13T12:34:02Z</time>
      </trkpt>
      <trkpt lat="44.93608" lon="-1.02948">
        <ele>26.2</ele>
        <time>2021-05-13T12:33:54Z</time>
      </trkpt>
      <trkpt lat="44.93575" lon="-1.02898">
        <ele>26.3</ele>
        <time>2021-05-13T12:33:46Z</time>
      </trkpt>
      <trkpt lat="44.93571" lon="-1.02892">
        <ele>26.3</ele>
        <time>2021-05-13T12:33:45Z</time>
      </trkpt>
      <trkpt lat="44.93547" lon="-1.02855">
        <ele>26.6</ele>
        <time>2021-05-13T12:33:39Z</time>
      </trkpt>
      <trkpt lat="44.93526" lon="-1.02824">
        <ele>26.8</ele>
        <time>2021-05-13T12:33:34Z</time>
      </trkpt>
      <trkpt lat="44.93523" lon="-1.02817">
        <ele>26.9</ele>
        <time>2021-05-13T12:33:33Z</time>
      </trkpt>
      <trkpt lat="44.93516" lon="-1.02803">
        <ele>27.1</ele>
        <time>2021-05-13T12:33:31Z</time>
      </trkpt>
      <trkpt lat="44.9351" lon="-1.02793">
        <ele>27.1</ele>
        <time>2021-05-13T12:33:29Z</time>
      </trkpt>
      <trkpt lat="44.93498" lon="-1.02777">
        <ele>27</ele>
        <time>2021-05-13T12:33:25Z</time>
      </trkpt>
      <trkpt lat="44.93477" lon="-1.02744">
        <ele>26.8</ele>
        <time>2021-05-13T12:33:19Z</time>
      </trkpt>
      <trkpt lat="44.9347" lon="-1.02733">
        <ele>26.7</ele>
        <time>2021-05-13T12:33:17Z</time>
      </trkpt>
      <trkpt lat="44.93459" lon="-1.02716">
        <ele>26.7</ele>
        <time>2021-05-13T12:33:14Z</time>
      </trkpt>
      <trkpt lat="44.93435" lon="-1.02679">
        <ele>26.7</ele>
        <time>2021-05-13T12:33:08Z</time>
      </trkpt>
      <trkpt lat="44.93428" lon="-1.02666">
        <ele>26.7</ele>
        <time>2021-05-13T12:33:06Z</time>
      </trkpt>
      <trkpt lat="44.93412" lon="-1.02641">
        <ele>26.9</ele>
        <time>2021-05-13T12:33:02Z</time>
      </trkpt>
      <trkpt lat="44.93384" lon="-1.02599">
        <ele>27</ele>
        <time>2021-05-13T12:32:55Z</time>
      </trkpt>
      <trkpt lat="44.93356" lon="-1.02557">
        <ele>27</ele>
        <time>2021-05-13T12:32:48Z</time>
      </trkpt>
      <trkpt lat="44.93347" lon="-1.02544">
        <ele>27</ele>
        <time>2021-05-13T12:32:46Z</time>
      </trkpt>
      <trkpt lat="44.93336" lon="-1.02526">
        <ele>27.1</ele>
        <time>2021-05-13T12:32:43Z</time>
      </trkpt>
      <trkpt lat="44.93315" lon="-1.0249">
        <ele>27.2</ele>
        <time>2021-05-13T12:32:37Z</time>
      </trkpt>
      <trkpt lat="44.93311" lon="-1.02485">
        <ele>27.2</ele>
        <time>2021-05-13T12:32:36Z</time>
      </trkpt>
      <trkpt lat="44.93304" lon="-1.02474">
        <ele>27.2</ele>
        <time>2021-05-13T12:32:34Z</time>
      </trkpt>
      <trkpt lat="44.93301" lon="-1.02469">
        <ele>27.2</ele>
        <time>2021-05-13T12:32:33Z</time>
      </trkpt>
      <trkpt lat="44.93293" lon="-1.02457">
        <ele>27.2</ele>
        <time>2021-05-13T12:32:31Z</time>
      </trkpt>
      <trkpt lat="44.93286" lon="-1.02447">
        <ele>27.2</ele>
        <time>2021-05-13T12:32:29Z</time>
      </trkpt>
      <trkpt lat="44.93258" lon="-1.02407">
        <ele>27.5</ele>
        <time>2021-05-13T12:32:22Z</time>
      </trkpt>
      <trkpt lat="44.93244" lon="-1.02384">
        <ele>27.5</ele>
        <time>2021-05-13T12:32:18Z</time>
      </trkpt>
      <trkpt lat="44.93241" lon="-1.02378">
        <ele>27.5</ele>
        <time>2021-05-13T12:32:17Z</time>
      </trkpt>
      <trkpt lat="44.93238" lon="-1.02372">
        <ele>27.4</ele>
        <time>2021-05-13T12:32:16Z</time>
      </trkpt>
      <trkpt lat="44.93212" lon="-1.02332">
        <ele>27.4</ele>
        <time>2021-05-13T12:32:09Z</time>
      </trkpt>
      <trkpt lat="44.93189" lon="-1.02297">
        <ele>27.6</ele>
        <time>2021-05-13T12:32:03Z</time>
      </trkpt>
      <trkpt lat="44.93162" lon="-1.02258">
        <ele>27.7</ele>
        <time>2021-05-13T12:31:57Z</time>
      </trkpt>
      <trkpt lat="44.93157" lon="-1.02251">
        <ele>27.6</ele>
        <time>2021-05-13T12:31:56Z</time>
      </trkpt>
      <trkpt lat="44.93115" lon="-1.02189">
        <ele>27.5</ele>
        <time>2021-05-13T12:31:47Z</time>
      </trkpt>
      <trkpt lat="44.9311" lon="-1.02183">
        <ele>27.5</ele>
        <time>2021-05-13T12:31:46Z</time>
      </trkpt>
      <trkpt lat="44.9307" lon="-1.02129">
        <ele>27.7</ele>
        <time>2021-05-13T12:31:38Z</time>
      </trkpt>
      <trkpt lat="44.9304" lon="-1.02086">
        <ele>27.8</ele>
        <time>2021-05-13T12:31:32Z</time>
      </trkpt>
      <trkpt lat="44.93031" lon="-1.02072">
        <ele>27.8</ele>
        <time>2021-05-13T12:31:30Z</time>
      </trkpt>
      <trkpt lat="44.92993" lon="-1.02013">
        <ele>28</ele>
        <time>2021-05-13T12:31:22Z</time>
      </trkpt>
      <trkpt lat="44.92988" lon="-1.02006">
        <ele>28</ele>
        <time>2021-05-13T12:31:21Z</time>
      </trkpt>
      <trkpt lat="44.92949" lon="-1.01948">
        <ele>28.2</ele>
        <time>2021-05-13T12:31:13Z</time>
      </trkpt>
      <trkpt lat="44.92912" lon="-1.01889">
        <ele>28.3</ele>
        <time>2021-05-13T12:31:05Z</time>
      </trkpt>
      <trkpt lat="44.92879" lon="-1.01838">
        <ele>28.3</ele>
        <time>2021-05-13T12:30:58Z</time>
      </trkpt>
      <trkpt lat="44.92842" lon="-1.0178">
        <ele>28.4</ele>
        <time>2021-05-13T12:30:50Z</time>
      </trkpt>
      <trkpt lat="44.92833" lon="-1.01766">
        <ele>28.5</ele>
        <time>2021-05-13T12:30:48Z</time>
      </trkpt>
      <trkpt lat="44.92798" lon="-1.01707">
        <ele>28.5</ele>
        <time>2021-05-13T12:30:40Z</time>
      </trkpt>
      <trkpt lat="44.9277" lon="-1.01654">
        <ele>28.5</ele>
        <time>2021-05-13T12:30:33Z</time>
      </trkpt>
      <trkpt lat="44.92738" lon="-1.01605">
        <ele>28.7</ele>
        <time>2021-05-13T12:30:26Z</time>
      </trkpt>
      <trkpt lat="44.9271" lon="-1.01553">
        <ele>29</ele>
        <time>2021-05-13T12:30:19Z</time>
      </trkpt>
      <trkpt lat="44.92703" lon="-1.01538">
        <ele>29.1</ele>
        <time>2021-05-13T12:30:17Z</time>
      </trkpt>
      <trkpt lat="44.92685" lon="-1.01509">
        <ele>29.2</ele>
        <time>2021-05-13T12:30:13Z</time>
      </trkpt>
      <trkpt lat="44.92656" lon="-1.01459">
        <ele>29.3</ele>
        <time>2021-05-13T12:30:06Z</time>
      </trkpt>
      <trkpt lat="44.92651" lon="-1.01451">
        <ele>29.3</ele>
        <time>2021-05-13T12:30:05Z</time>
      </trkpt>
      <trkpt lat="44.92614" lon="-1.01386">
        <ele>29.3</ele>
        <time>2021-05-13T12:29:56Z</time>
      </trkpt>
      <trkpt lat="44.92592" lon="-1.01338">
        <ele>29.6</ele>
        <time>2021-05-13T12:29:50Z</time>
      </trkpt>
      <trkpt lat="44.92586" lon="-1.01323">
        <ele>29.7</ele>
        <time>2021-05-13T12:29:48Z</time>
      </trkpt>
      <trkpt lat="44.92578" lon="-1.01309">
        <ele>29.7</ele>
        <time>2021-05-13T12:29:46Z</time>
      </trkpt>
      <trkpt lat="44.92565" lon="-1.01279">
        <ele>29.8</ele>
        <time>2021-05-13T12:29:42Z</time>
      </trkpt>
      <trkpt lat="44.92554" lon="-1.01254">
        <ele>29.8</ele>
        <time>2021-05-13T12:29:39Z</time>
      </trkpt>
      <trkpt lat="44.92551" lon="-1.01247">
        <ele>29.9</ele>
        <time>2021-05-13T12:29:38Z</time>
      </trkpt>
      <trkpt lat="44.92544" lon="-1.01233">
        <ele>29.9</ele>
        <time>2021-05-13T12:29:36Z</time>
      </trkpt>
      <trkpt lat="44.92538" lon="-1.0122">
        <ele>29.9</ele>
        <time>2021-05-13T12:29:34Z</time>
      </trkpt>
      <trkpt lat="44.92521" lon="-1.01178">
        <ele>30</ele>
        <time>2021-05-13T12:29:29Z</time>
      </trkpt>
      <trkpt lat="44.92509" lon="-1.01146">
        <ele>30.1</ele>
        <time>2021-05-13T12:29:25Z</time>
      </trkpt>
      <trkpt lat="44.92506" lon="-1.01139">
        <ele>30.1</ele>
        <time>2021-05-13T12:29:24Z</time>
      </trkpt>
      <trkpt lat="44.925" lon="-1.01126">
        <ele>30.1</ele>
        <time>2021-05-13T12:29:22Z</time>
      </trkpt>
      <trkpt lat="44.92494" lon="-1.01111">
        <ele>30.1</ele>
        <time>2021-05-13T12:29:20Z</time>
      </trkpt>
      <trkpt lat="44.92485" lon="-1.01089">
        <ele>30.2</ele>
        <time>2021-05-13T12:29:17Z</time>
      </trkpt>
      <trkpt lat="44.9247" lon="-1.01049">
        <ele>30.3</ele>
        <time>2021-05-13T12:29:12Z</time>
      </trkpt>
      <trkpt lat="44.92452" lon="-1.01002">
        <ele>30.1</ele>
        <time>2021-05-13T12:29:06Z</time>
      </trkpt>
      <trkpt lat="44.92449" lon="-1.00994">
        <ele>30.1</ele>
        <time>2021-05-13T12:29:05Z</time>
      </trkpt>
      <trkpt lat="44.92442" lon="-1.0097">
        <ele>30.1</ele>
        <time>2021-05-13T12:29:02Z</time>
      </trkpt>
      <trkpt lat="44.92439" lon="-1.00962">
        <ele>30.1</ele>
        <time>2021-05-13T12:29:01Z</time>
      </trkpt>
      <trkpt lat="44.92433" lon="-1.0094">
        <ele>30.1</ele>
        <time>2021-05-13T12:28:58Z</time>
      </trkpt>
      <trkpt lat="44.92416" lon="-1.00885">
        <ele>30.3</ele>
        <time>2021-05-13T12:28:51Z</time>
      </trkpt>
      <trkpt lat="44.92398" lon="-1.0082">
        <ele>30.4</ele>
        <time>2021-05-13T12:28:43Z</time>
      </trkpt>
      <trkpt lat="44.92395" lon="-1.00812">
        <ele>30.4</ele>
        <time>2021-05-13T12:28:42Z</time>
      </trkpt>
      <trkpt lat="44.92375" lon="-1.00738">
        <ele>30.6</ele>
        <time>2021-05-13T12:28:33Z</time>
      </trkpt>
      <trkpt lat="44.92373" lon="-1.00729">
        <ele>30.6</ele>
        <time>2021-05-13T12:28:32Z</time>
      </trkpt>
      <trkpt lat="44.92355" lon="-1.00653">
        <ele>30.7</ele>
        <time>2021-05-13T12:28:23Z</time>
      </trkpt>
      <trkpt lat="44.92353" lon="-1.00645">
        <ele>30.7</ele>
        <time>2021-05-13T12:28:22Z</time>
      </trkpt>
      <trkpt lat="44.92334" lon="-1.00571">
        <ele>30.9</ele>
        <time>2021-05-13T12:28:13Z</time>
      </trkpt>
      <trkpt lat="44.9232" lon="-1.00516">
        <ele>31</ele>
        <time>2021-05-13T12:28:06Z</time>
      </trkpt>
      <trkpt lat="44.92316" lon="-1.00501">
        <ele>31</ele>
        <time>2021-05-13T12:28:04Z</time>
      </trkpt>
      <trkpt lat="44.92298" lon="-1.00429">
        <ele>31.1</ele>
        <time>2021-05-13T12:27:55Z</time>
      </trkpt>
      <trkpt lat="44.92281" lon="-1.00354">
        <ele>31.2</ele>
        <time>2021-05-13T12:27:46Z</time>
      </trkpt>
      <trkpt lat="44.92266" lon="-1.00299">
        <ele>31.4</ele>
        <time>2021-05-13T12:27:39Z</time>
      </trkpt>
      <trkpt lat="44.92251" lon="-1.00235">
        <ele>31.5</ele>
        <time>2021-05-13T12:27:31Z</time>
      </trkpt>
      <trkpt lat="44.92247" lon="-1.0022">
        <ele>31.5</ele>
        <time>2021-05-13T12:27:29Z</time>
      </trkpt>
      <trkpt lat="44.9223" lon="-1.00147">
        <ele>31.6</ele>
        <time>2021-05-13T12:27:20Z</time>
      </trkpt>
      <trkpt lat="44.92209" lon="-1.00071">
        <ele>31.8</ele>
        <time>2021-05-13T12:27:10Z</time>
      </trkpt>
      <trkpt lat="44.92197" lon="-1.00026">
        <ele>31.9</ele>
        <time>2021-05-13T12:27:04Z</time>
      </trkpt>
      <trkpt lat="44.92195" lon="-1.00019">
        <ele>31.9</ele>
        <time>2021-05-13T12:27:03Z</time>
      </trkpt>
      <trkpt lat="44.92188" lon="-0.99988">
        <ele>31.9</ele>
        <time>2021-05-13T12:26:59Z</time>
      </trkpt>
      <trkpt lat="44.92184" lon="-0.99973">
        <ele>31.9</ele>
        <time>2021-05-13T12:26:57Z</time>
      </trkpt>
      <trkpt lat="44.92172" lon="-0.99927">
        <ele>32</ele>
        <time>2021-05-13T12:26:51Z</time>
      </trkpt>
      <trkpt lat="44.92159" lon="-0.99871">
        <ele>32.1</ele>
        <time>2021-05-13T12:26:44Z</time>
      </trkpt>
      <trkpt lat="44.92143" lon="-0.99808">
        <ele>32.2</ele>
        <time>2021-05-13T12:26:36Z</time>
      </trkpt>
      <trkpt lat="44.92137" lon="-0.99785">
        <ele>32.3</ele>
        <time>2021-05-13T12:26:33Z</time>
      </trkpt>
      <trkpt lat="44.92132" lon="-0.99761">
        <ele>32.3</ele>
        <time>2021-05-13T12:26:30Z</time>
      </trkpt>
      <trkpt lat="44.92118" lon="-0.99706">
        <ele>32.5</ele>
        <time>2021-05-13T12:26:23Z</time>
      </trkpt>
      <trkpt lat="44.92101" lon="-0.99643">
        <ele>32.7</ele>
        <time>2021-05-13T12:26:15Z</time>
      </trkpt>
      <trkpt lat="44.92083" lon="-0.99571">
        <ele>32.8</ele>
        <time>2021-05-13T12:26:06Z</time>
      </trkpt>
      <trkpt lat="44.92067" lon="-0.99506">
        <ele>32.8</ele>
        <time>2021-05-13T12:25:58Z</time>
      </trkpt>
      <trkpt lat="44.92048" lon="-0.99433">
        <ele>33</ele>
        <time>2021-05-13T12:25:49Z</time>
      </trkpt>
      <trkpt lat="44.92031" lon="-0.99361">
        <ele>33.1</ele>
        <time>2021-05-13T12:25:40Z</time>
      </trkpt>
      <trkpt lat="44.92016" lon="-0.99302">
        <ele>33.3</ele>
        <time>2021-05-13T12:25:32Z</time>
      </trkpt>
      <trkpt lat="44.92001" lon="-0.99245">
        <ele>33.5</ele>
        <time>2021-05-13T12:25:24Z</time>
      </trkpt>
      <trkpt lat="44.91985" lon="-0.99172">
        <ele>33.7</ele>
        <time>2021-05-13T12:25:14Z</time>
      </trkpt>
      <trkpt lat="44.91975" lon="-0.99119">
        <ele>33.6</ele>
        <time>2021-05-13T12:25:07Z</time>
      </trkpt>
      <trkpt lat="44.91969" lon="-0.99087">
        <ele>33.6</ele>
        <time>2021-05-13T12:25:02Z</time>
      </trkpt>
      <trkpt lat="44.91962" lon="-0.99042">
        <ele>33.4</ele>
        <time>2021-05-13T12:24:55Z</time>
      </trkpt>
      <trkpt lat="44.91955" lon="-0.98998">
        <ele>33.6</ele>
        <time>2021-05-13T12:24:48Z</time>
      </trkpt>
      <trkpt lat="44.91954" lon="-0.98977">
        <ele>33.9</ele>
        <time>2021-05-13T12:24:44Z</time>
      </trkpt>
      <trkpt lat="44.91951" lon="-0.98958">
        <ele>34.1</ele>
        <time>2021-05-13T12:24:39Z</time>
      </trkpt>
      <trkpt lat="44.9195" lon="-0.98947">
        <ele>34</ele>
        <time>2021-05-13T12:24:34Z</time>
      </trkpt>
      <trkpt lat="44.91946" lon="-0.98923">
        <ele>33.8</ele>
        <time>2021-05-13T12:24:29Z</time>
      </trkpt>
      <trkpt lat="44.91939" lon="-0.98861">
        <ele>33.6</ele>
        <time>2021-05-13T12:24:19Z</time>
      </trkpt>
      <trkpt lat="44.91937" lon="-0.98848">
        <ele>33.7</ele>
        <time>2021-05-13T12:24:17Z</time>
      </trkpt>
      <trkpt lat="44.91934" lon="-0.98818">
        <ele>33.8</ele>
        <time>2021-05-13T12:24:12Z</time>
      </trkpt>
      <trkpt lat="44.91931" lon="-0.98783">
        <ele>33.9</ele>
        <time>2021-05-13T12:24:06Z</time>
      </trkpt>
      <trkpt lat="44.9193" lon="-0.98753">
        <ele>34</ele>
        <time>2021-05-13T12:24:01Z</time>
      </trkpt>
      <trkpt lat="44.9193" lon="-0.98726">
        <ele>34.1</ele>
        <time>2021-05-13T12:23:56Z</time>
      </trkpt>
      <trkpt lat="44.9193" lon="-0.98692">
        <ele>34.3</ele>
        <time>2021-05-13T12:23:49Z</time>
      </trkpt>
      <trkpt lat="44.91929" lon="-0.98675">
        <ele>34.4</ele>
        <time>2021-05-13T12:23:45Z</time>
      </trkpt>
      <trkpt lat="44.91931" lon="-0.98673">
        <ele>34.4</ele>
        <time>2021-05-13T12:23:44Z</time>
      </trkpt>
      <trkpt lat="44.91937" lon="-0.98676">
        <ele>34.4</ele>
        <time>2021-05-13T12:23:40Z</time>
      </trkpt>
      <trkpt lat="44.91938" lon="-0.98676">
        <ele>34.4</ele>
        <time>2021-05-13T12:23:39Z</time>
      </trkpt>
      <trkpt lat="44.91939" lon="-0.98674">
        <ele>34.4</ele>
        <time>2021-05-13T12:23:37Z</time>
      </trkpt>
      <trkpt lat="44.9194" lon="-0.98672">
        <ele>34.4</ele>
        <time>2021-05-13T12:23:36Z</time>
      </trkpt>
      <trkpt lat="44.91939" lon="-0.98668">
        <ele>34.4</ele>
        <time>2021-05-13T12:23:32Z</time>
      </trkpt>
      <trkpt lat="44.91949" lon="-0.98671">
        <ele>34.3</ele>
        <time>2021-05-13T11:50:08Z</time>
      </trkpt>
      <trkpt lat="44.91948" lon="-0.98658">
        <ele>34.3</ele>
        <time>2021-05-13T11:50:01Z</time>
      </trkpt>
      <trkpt lat="44.91945" lon="-0.98637">
        <ele>34.3</ele>
        <time>2021-05-13T11:49:58Z</time>
      </trkpt>
      <trkpt lat="44.91943" lon="-0.9862">
        <ele>34.2</ele>
        <time>2021-05-13T11:49:56Z</time>
      </trkpt>
      <trkpt lat="44.91943" lon="-0.98599">
        <ele>34.2</ele>
        <time>2021-05-13T11:49:54Z</time>
      </trkpt>
      <trkpt lat="44.91946" lon="-0.98579">
        <ele>34.2</ele>
        <time>2021-05-13T11:49:52Z</time>
      </trkpt>
      <trkpt lat="44.91947" lon="-0.98571">
        <ele>34.2</ele>
        <time>2021-05-13T11:49:51Z</time>
      </trkpt>
      <trkpt lat="44.9195" lon="-0.9855">
        <ele>34.1</ele>
        <time>2021-05-13T11:49:48Z</time>
      </trkpt>
      <trkpt lat="44.91952" lon="-0.98524">
        <ele>34</ele>
        <time>2021-05-13T11:49:44Z</time>
      </trkpt>
      <trkpt lat="44.91953" lon="-0.98517">
        <ele>34</ele>
        <time>2021-05-13T11:49:43Z</time>
      </trkpt>
      <trkpt lat="44.91953" lon="-0.9851">
        <ele>34</ele>
        <time>2021-05-13T11:49:42Z</time>
      </trkpt>
      <trkpt lat="44.91956" lon="-0.98484">
        <ele>33.9</ele>
        <time>2021-05-13T11:49:39Z</time>
      </trkpt>
      <trkpt lat="44.91959" lon="-0.98465">
        <ele>33.9</ele>
        <time>2021-05-13T11:49:37Z</time>
      </trkpt>
      <trkpt lat="44.91964" lon="-0.98434">
        <ele>33.9</ele>
        <time>2021-05-13T11:49:34Z</time>
      </trkpt>
      <trkpt lat="44.91966" lon="-0.98423">
        <ele>34</ele>
        <time>2021-05-13T11:49:33Z</time>
      </trkpt>
      <trkpt lat="44.9197" lon="-0.98393">
        <ele>34.1</ele>
        <time>2021-05-13T11:49:30Z</time>
      </trkpt>
      <trkpt lat="44.91972" lon="-0.98378">
        <ele>34.1</ele>
        <time>2021-05-13T11:49:28Z</time>
      </trkpt>
      <trkpt lat="44.91975" lon="-0.98356">
        <ele>34.2</ele>
        <time>2021-05-13T11:49:25Z</time>
      </trkpt>
      <trkpt lat="44.91977" lon="-0.98348">
        <ele>34.2</ele>
        <time>2021-05-13T11:49:24Z</time>
      </trkpt>
      <trkpt lat="44.91981" lon="-0.98325">
        <ele>34.2</ele>
        <time>2021-05-13T11:49:21Z</time>
      </trkpt>
      <trkpt lat="44.91988" lon="-0.98294">
        <ele>34.2</ele>
        <time>2021-05-13T11:49:17Z</time>
      </trkpt>
      <trkpt lat="44.91992" lon="-0.9828">
        <ele>34.2</ele>
        <time>2021-05-13T11:49:15Z</time>
      </trkpt>
      <trkpt lat="44.91995" lon="-0.98267">
        <ele>34.2</ele>
        <time>2021-05-13T11:49:13Z</time>
      </trkpt>
      <trkpt lat="44.91998" lon="-0.98253">
        <ele>34.3</ele>
        <time>2021-05-13T11:49:11Z</time>
      </trkpt>
      <trkpt lat="44.92" lon="-0.98244">
        <ele>34.3</ele>
        <time>2021-05-13T11:49:10Z</time>
      </trkpt>
      <trkpt lat="44.92003" lon="-0.98228">
        <ele>34.3</ele>
        <time>2021-05-13T11:49:08Z</time>
      </trkpt>
      <trkpt lat="44.92007" lon="-0.98214">
        <ele>34.3</ele>
        <time>2021-05-13T11:49:06Z</time>
      </trkpt>
      <trkpt lat="44.92011" lon="-0.982">
        <ele>34.3</ele>
        <time>2021-05-13T11:49:04Z</time>
      </trkpt>
      <trkpt lat="44.92015" lon="-0.98184">
        <ele>34.3</ele>
        <time>2021-05-13T11:49:02Z</time>
      </trkpt>
      <trkpt lat="44.92019" lon="-0.98167">
        <ele>34.3</ele>
        <time>2021-05-13T11:49:00Z</time>
      </trkpt>
      <trkpt lat="44.92031" lon="-0.98127">
        <ele>34.5</ele>
        <time>2021-05-13T11:48:55Z</time>
      </trkpt>
      <trkpt lat="44.92049" lon="-0.98071">
        <ele>34.6</ele>
        <time>2021-05-13T11:48:48Z</time>
      </trkpt>
      <trkpt lat="44.92064" lon="-0.98028">
        <ele>34.8</ele>
        <time>2021-05-13T11:48:42Z</time>
      </trkpt>
      <trkpt lat="44.92081" lon="-0.97976">
        <ele>35.3</ele>
        <time>2021-05-13T11:48:35Z</time>
      </trkpt>
      <trkpt lat="44.9209" lon="-0.97949">
        <ele>35.5</ele>
        <time>2021-05-13T11:48:31Z</time>
      </trkpt>
      <trkpt lat="44.92092" lon="-0.97944">
        <ele>35.4</ele>
        <time>2021-05-13T11:48:30Z</time>
      </trkpt>
      <trkpt lat="44.921" lon="-0.97918">
        <ele>35.3</ele>
        <time>2021-05-13T11:48:26Z</time>
      </trkpt>
      <trkpt lat="44.92102" lon="-0.97911">
        <ele>35.2</ele>
        <time>2021-05-13T11:48:25Z</time>
      </trkpt>
      <trkpt lat="44.92108" lon="-0.97892">
        <ele>35.1</ele>
        <time>2021-05-13T11:48:22Z</time>
      </trkpt>
      <trkpt lat="44.92125" lon="-0.97843">
        <ele>35.1</ele>
        <time>2021-05-13T11:48:15Z</time>
      </trkpt>
      <trkpt lat="44.92149" lon="-0.97772">
        <ele>35</ele>
        <time>2021-05-13T11:48:06Z</time>
      </trkpt>
      <trkpt lat="44.9217" lon="-0.97711">
        <ele>35.1</ele>
        <time>2021-05-13T11:47:58Z</time>
      </trkpt>
      <trkpt lat="44.92173" lon="-0.97703">
        <ele>35.1</ele>
        <time>2021-05-13T11:47:57Z</time>
      </trkpt>
      <trkpt lat="44.92196" lon="-0.97634">
        <ele>35.1</ele>
        <time>2021-05-13T11:47:48Z</time>
      </trkpt>
      <trkpt lat="44.92221" lon="-0.97557">
        <ele>35.2</ele>
        <time>2021-05-13T11:47:38Z</time>
      </trkpt>
      <trkpt lat="44.92223" lon="-0.97549">
        <ele>35.2</ele>
        <time>2021-05-13T11:47:37Z</time>
      </trkpt>
      <trkpt lat="44.92249" lon="-0.97473">
        <ele>35.2</ele>
        <time>2021-05-13T11:47:27Z</time>
      </trkpt>
      <trkpt lat="44.92269" lon="-0.97414">
        <ele>35.4</ele>
        <time>2021-05-13T11:47:19Z</time>
      </trkpt>
      <trkpt lat="44.92293" lon="-0.9734">
        <ele>35.5</ele>
        <time>2021-05-13T11:47:09Z</time>
      </trkpt>
      <trkpt lat="44.92313" lon="-0.97283">
        <ele>35.6</ele>
        <time>2021-05-13T11:47:01Z</time>
      </trkpt>
      <trkpt lat="44.92331" lon="-0.97225">
        <ele>35.6</ele>
        <time>2021-05-13T11:46:53Z</time>
      </trkpt>
      <trkpt lat="44.92348" lon="-0.97175">
        <ele>35.7</ele>
        <time>2021-05-13T11:46:46Z</time>
      </trkpt>
      <trkpt lat="44.92358" lon="-0.97145">
        <ele>35.8</ele>
        <time>2021-05-13T11:46:42Z</time>
      </trkpt>
      <trkpt lat="44.92363" lon="-0.97129">
        <ele>35.8</ele>
        <time>2021-05-13T11:46:40Z</time>
      </trkpt>
      <trkpt lat="44.92385" lon="-0.97064">
        <ele>35.9</ele>
        <time>2021-05-13T11:46:32Z</time>
      </trkpt>
      <trkpt lat="44.9241" lon="-0.96992">
        <ele>36</ele>
        <time>2021-05-13T11:46:23Z</time>
      </trkpt>
      <trkpt lat="44.92431" lon="-0.96928">
        <ele>36.3</ele>
        <time>2021-05-13T11:46:15Z</time>
      </trkpt>
      <trkpt lat="44.92453" lon="-0.96865">
        <ele>36.5</ele>
        <time>2021-05-13T11:46:07Z</time>
      </trkpt>
      <trkpt lat="44.92474" lon="-0.96799">
        <ele>36.6</ele>
        <time>2021-05-13T11:45:59Z</time>
      </trkpt>
      <trkpt lat="44.92493" lon="-0.96739">
        <ele>36.9</ele>
        <time>2021-05-13T11:45:52Z</time>
      </trkpt>
      <trkpt lat="44.92507" lon="-0.967">
        <ele>37</ele>
        <time>2021-05-13T11:45:47Z</time>
      </trkpt>
      <trkpt lat="44.92525" lon="-0.96644">
        <ele>37</ele>
        <time>2021-05-13T11:45:40Z</time>
      </trkpt>
      <trkpt lat="44.92546" lon="-0.96581">
        <ele>37</ele>
        <time>2021-05-13T11:45:32Z</time>
      </trkpt>
      <trkpt lat="44.92565" lon="-0.96528">
        <ele>37</ele>
        <time>2021-05-13T11:45:25Z</time>
      </trkpt>
      <trkpt lat="44.92583" lon="-0.96476">
        <ele>37</ele>
        <time>2021-05-13T11:45:18Z</time>
      </trkpt>
      <trkpt lat="44.926" lon="-0.96428">
        <ele>36.9</ele>
        <time>2021-05-13T11:45:11Z</time>
      </trkpt>
      <trkpt lat="44.92605" lon="-0.96414">
        <ele>36.9</ele>
        <time>2021-05-13T11:45:09Z</time>
      </trkpt>
      <trkpt lat="44.92612" lon="-0.96392">
        <ele>37</ele>
        <time>2021-05-13T11:45:06Z</time>
      </trkpt>
      <trkpt lat="44.92614" lon="-0.96385">
        <ele>37</ele>
        <time>2021-05-13T11:45:05Z</time>
      </trkpt>
      <trkpt lat="44.92628" lon="-0.9634">
        <ele>37.1</ele>
        <time>2021-05-13T11:44:59Z</time>
      </trkpt>
      <trkpt lat="44.9265" lon="-0.96272">
        <ele>37.1</ele>
        <time>2021-05-13T11:44:50Z</time>
      </trkpt>
      <trkpt lat="44.9267" lon="-0.96213">
        <ele>37.3</ele>
        <time>2021-05-13T11:44:42Z</time>
      </trkpt>
      <trkpt lat="44.92684" lon="-0.9617">
        <ele>37.4</ele>
        <time>2021-05-13T11:44:36Z</time>
      </trkpt>
      <trkpt lat="44.92699" lon="-0.96126">
        <ele>37.4</ele>
        <time>2021-05-13T11:44:30Z</time>
      </trkpt>
      <trkpt lat="44.92714" lon="-0.9608">
        <ele>37.5</ele>
        <time>2021-05-13T11:44:24Z</time>
      </trkpt>
      <trkpt lat="44.92716" lon="-0.96073">
        <ele>37.5</ele>
        <time>2021-05-13T11:44:23Z</time>
      </trkpt>
      <trkpt lat="44.92721" lon="-0.9606">
        <ele>37.5</ele>
        <time>2021-05-13T11:44:21Z</time>
      </trkpt>
      <trkpt lat="44.92735" lon="-0.96015">
        <ele>37.4</ele>
        <time>2021-05-13T11:44:15Z</time>
      </trkpt>
      <trkpt lat="44.92761" lon="-0.95941">
        <ele>37.5</ele>
        <time>2021-05-13T11:44:05Z</time>
      </trkpt>
      <trkpt lat="44.92783" lon="-0.95874">
        <ele>37.6</ele>
        <time>2021-05-13T11:43:56Z</time>
      </trkpt>
      <trkpt lat="44.92805" lon="-0.95808">
        <ele>37.8</ele>
        <time>2021-05-13T11:43:47Z</time>
      </trkpt>
      <trkpt lat="44.92821" lon="-0.95763">
        <ele>37.9</ele>
        <time>2021-05-13T11:43:41Z</time>
      </trkpt>
      <trkpt lat="44.92838" lon="-0.95711">
        <ele>37.9</ele>
        <time>2021-05-13T11:43:34Z</time>
      </trkpt>
      <trkpt lat="44.92859" lon="-0.95648">
        <ele>37.9</ele>
        <time>2021-05-13T11:43:25Z</time>
      </trkpt>
      <trkpt lat="44.92878" lon="-0.95592">
        <ele>38.1</ele>
        <time>2021-05-13T11:43:17Z</time>
      </trkpt>
      <trkpt lat="44.92894" lon="-0.95542">
        <ele>38.1</ele>
        <time>2021-05-13T11:43:10Z</time>
      </trkpt>
      <trkpt lat="44.92913" lon="-0.95486">
        <ele>38.2</ele>
        <time>2021-05-13T11:43:02Z</time>
      </trkpt>
      <trkpt lat="44.92929" lon="-0.95437">
        <ele>38.2</ele>
        <time>2021-05-13T11:42:55Z</time>
      </trkpt>
      <trkpt lat="44.92947" lon="-0.95383">
        <ele>38.3</ele>
        <time>2021-05-13T11:42:48Z</time>
      </trkpt>
      <trkpt lat="44.92964" lon="-0.95328">
        <ele>38.3</ele>
        <time>2021-05-13T11:42:41Z</time>
      </trkpt>
      <trkpt lat="44.92981" lon="-0.95276">
        <ele>38.4</ele>
        <time>2021-05-13T11:42:34Z</time>
      </trkpt>
      <trkpt lat="44.92998" lon="-0.95227">
        <ele>38.5</ele>
        <time>2021-05-13T11:42:27Z</time>
      </trkpt>
      <trkpt lat="44.93013" lon="-0.95178">
        <ele>38.5</ele>
        <time>2021-05-13T11:42:20Z</time>
      </trkpt>
      <trkpt lat="44.93027" lon="-0.95137">
        <ele>38.5</ele>
        <time>2021-05-13T11:42:14Z</time>
      </trkpt>
      <trkpt lat="44.93046" lon="-0.95081">
        <ele>38.7</ele>
        <time>2021-05-13T11:42:06Z</time>
      </trkpt>
      <trkpt lat="44.93066" lon="-0.95027">
        <ele>38.7</ele>
        <time>2021-05-13T11:41:58Z</time>
      </trkpt>
      <trkpt lat="44.9308" lon="-0.94984">
        <ele>38.8</ele>
        <time>2021-05-13T11:41:52Z</time>
      </trkpt>
      <trkpt lat="44.93084" lon="-0.9497">
        <ele>38.8</ele>
        <time>2021-05-13T11:41:50Z</time>
      </trkpt>
      <trkpt lat="44.93097" lon="-0.94932">
        <ele>38.9</ele>
        <time>2021-05-13T11:41:45Z</time>
      </trkpt>
      <trkpt lat="44.93102" lon="-0.94917">
        <ele>38.9</ele>
        <time>2021-05-13T11:41:43Z</time>
      </trkpt>
      <trkpt lat="44.93109" lon="-0.94896">
        <ele>38.9</ele>
        <time>2021-05-13T11:41:40Z</time>
      </trkpt>
      <trkpt lat="44.93114" lon="-0.94882">
        <ele>38.9</ele>
        <time>2021-05-13T11:41:38Z</time>
      </trkpt>
      <trkpt lat="44.93122" lon="-0.94861">
        <ele>38.9</ele>
        <time>2021-05-13T11:41:35Z</time>
      </trkpt>
      <trkpt lat="44.93139" lon="-0.94807">
        <ele>38.9</ele>
        <time>2021-05-13T11:41:28Z</time>
      </trkpt>
      <trkpt lat="44.93147" lon="-0.94783">
        <ele>38.9</ele>
        <time>2021-05-13T11:41:25Z</time>
      </trkpt>
      <trkpt lat="44.93152" lon="-0.94768">
        <ele>39</ele>
        <time>2021-05-13T11:41:23Z</time>
      </trkpt>
      <trkpt lat="44.9317" lon="-0.94718">
        <ele>38.8</ele>
        <time>2021-05-13T11:41:16Z</time>
      </trkpt>
      <trkpt lat="44.93192" lon="-0.94653">
        <ele>39</ele>
        <time>2021-05-13T11:41:07Z</time>
      </trkpt>
      <trkpt lat="44.93211" lon="-0.94591">
        <ele>39.1</ele>
        <time>2021-05-13T11:40:59Z</time>
      </trkpt>
      <trkpt lat="44.93214" lon="-0.94583">
        <ele>39.1</ele>
        <time>2021-05-13T11:40:58Z</time>
      </trkpt>
      <trkpt lat="44.93218" lon="-0.94568">
        <ele>39.2</ele>
        <time>2021-05-13T11:40:56Z</time>
      </trkpt>
      <trkpt lat="44.93221" lon="-0.9456">
        <ele>39.2</ele>
        <time>2021-05-13T11:40:55Z</time>
      </trkpt>
      <trkpt lat="44.93223" lon="-0.94552">
        <ele>39.3</ele>
        <time>2021-05-13T11:40:54Z</time>
      </trkpt>
      <trkpt lat="44.93234" lon="-0.94521">
        <ele>39.5</ele>
        <time>2021-05-13T11:40:50Z</time>
      </trkpt>
      <trkpt lat="44.93243" lon="-0.94493">
        <ele>39.7</ele>
        <time>2021-05-13T11:40:46Z</time>
      </trkpt>
      <trkpt lat="44.93248" lon="-0.9448">
        <ele>39.7</ele>
        <time>2021-05-13T11:40:44Z</time>
      </trkpt>
      <trkpt lat="44.93254" lon="-0.94464">
        <ele>39.7</ele>
        <time>2021-05-13T11:40:42Z</time>
      </trkpt>
      <trkpt lat="44.93259" lon="-0.9445">
        <ele>39.8</ele>
        <time>2021-05-13T11:40:40Z</time>
      </trkpt>
      <trkpt lat="44.93263" lon="-0.94437">
        <ele>39.8</ele>
        <time>2021-05-13T11:40:38Z</time>
      </trkpt>
      <trkpt lat="44.93271" lon="-0.94414">
        <ele>39.8</ele>
        <time>2021-05-13T11:40:35Z</time>
      </trkpt>
      <trkpt lat="44.93275" lon="-0.944">
        <ele>39.8</ele>
        <time>2021-05-13T11:40:33Z</time>
      </trkpt>
      <trkpt lat="44.93277" lon="-0.94393">
        <ele>39.8</ele>
        <time>2021-05-13T11:40:32Z</time>
      </trkpt>
      <trkpt lat="44.93286" lon="-0.94366">
        <ele>39.9</ele>
        <time>2021-05-13T11:40:28Z</time>
      </trkpt>
      <trkpt lat="44.93293" lon="-0.94345">
        <ele>39.9</ele>
        <time>2021-05-13T11:40:25Z</time>
      </trkpt>
      <trkpt lat="44.93295" lon="-0.94338">
        <ele>39.9</ele>
        <time>2021-05-13T11:40:24Z</time>
      </trkpt>
      <trkpt lat="44.93297" lon="-0.94331">
        <ele>39.9</ele>
        <time>2021-05-13T11:40:23Z</time>
      </trkpt>
      <trkpt lat="44.93304" lon="-0.94309">
        <ele>39.8</ele>
        <time>2021-05-13T11:40:19Z</time>
      </trkpt>
      <trkpt lat="44.93306" lon="-0.94303">
        <ele>39.8</ele>
        <time>2021-05-13T11:40:18Z</time>
      </trkpt>
      <trkpt lat="44.9331" lon="-0.94291">
        <ele>39.7</ele>
        <time>2021-05-13T11:40:16Z</time>
      </trkpt>
      <trkpt lat="44.93318" lon="-0.94266">
        <ele>39.6</ele>
        <time>2021-05-13T11:40:12Z</time>
      </trkpt>
      <trkpt lat="44.93331" lon="-0.9423">
        <ele>39.4</ele>
        <time>2021-05-13T11:40:07Z</time>
      </trkpt>
      <trkpt lat="44.93343" lon="-0.94191">
        <ele>39.4</ele>
        <time>2021-05-13T11:40:02Z</time>
      </trkpt>
      <trkpt lat="44.93358" lon="-0.94147">
        <ele>39.6</ele>
        <time>2021-05-13T11:39:56Z</time>
      </trkpt>
      <trkpt lat="44.93369" lon="-0.94117">
        <ele>39.6</ele>
        <time>2021-05-13T11:39:52Z</time>
      </trkpt>
      <trkpt lat="44.93371" lon="-0.9411">
        <ele>39.6</ele>
        <time>2021-05-13T11:39:51Z</time>
      </trkpt>
      <trkpt lat="44.93378" lon="-0.94088">
        <ele>39.7</ele>
        <time>2021-05-13T11:39:48Z</time>
      </trkpt>
      <trkpt lat="44.93384" lon="-0.94075">
        <ele>39.8</ele>
        <time>2021-05-13T11:39:46Z</time>
      </trkpt>
      <trkpt lat="44.93389" lon="-0.94062">
        <ele>39.8</ele>
        <time>2021-05-13T11:39:44Z</time>
      </trkpt>
      <trkpt lat="44.93396" lon="-0.94042">
        <ele>39.9</ele>
        <time>2021-05-13T11:39:41Z</time>
      </trkpt>
      <trkpt lat="44.93406" lon="-0.94015">
        <ele>39.8</ele>
        <time>2021-05-13T11:39:37Z</time>
      </trkpt>
      <trkpt lat="44.93421" lon="-0.93972">
        <ele>39.8</ele>
        <time>2021-05-13T11:39:31Z</time>
      </trkpt>
      <trkpt lat="44.93423" lon="-0.93965">
        <ele>39.9</ele>
        <time>2021-05-13T11:39:30Z</time>
      </trkpt>
      <trkpt lat="44.93429" lon="-0.93943">
        <ele>39.9</ele>
        <time>2021-05-13T11:39:27Z</time>
      </trkpt>
      <trkpt lat="44.9344" lon="-0.93907">
        <ele>40</ele>
        <time>2021-05-13T11:39:22Z</time>
      </trkpt>
      <trkpt lat="44.93447" lon="-0.93886">
        <ele>39.9</ele>
        <time>2021-05-13T11:39:19Z</time>
      </trkpt>
      <trkpt lat="44.93454" lon="-0.93864">
        <ele>39.9</ele>
        <time>2021-05-13T11:39:16Z</time>
      </trkpt>
      <trkpt lat="44.93456" lon="-0.93858">
        <ele>39.9</ele>
        <time>2021-05-13T11:39:15Z</time>
      </trkpt>
      <trkpt lat="44.93472" lon="-0.93811">
        <ele>39.9</ele>
        <time>2021-05-13T11:39:08Z</time>
      </trkpt>
      <trkpt lat="44.93495" lon="-0.93743">
        <ele>40</ele>
        <time>2021-05-13T11:38:58Z</time>
      </trkpt>
      <trkpt lat="44.93514" lon="-0.93684">
        <ele>40</ele>
        <time>2021-05-13T11:38:49Z</time>
      </trkpt>
      <trkpt lat="44.93528" lon="-0.93641">
        <ele>40.1</ele>
        <time>2021-05-13T11:38:42Z</time>
      </trkpt>
      <trkpt lat="44.93532" lon="-0.93631">
        <ele>40.2</ele>
        <time>2021-05-13T11:38:40Z</time>
      </trkpt>
      <trkpt lat="44.93538" lon="-0.9361">
        <ele>40.2</ele>
        <time>2021-05-13T11:38:36Z</time>
      </trkpt>
      <trkpt lat="44.93551" lon="-0.93573">
        <ele>40.3</ele>
        <time>2021-05-13T11:38:29Z</time>
      </trkpt>
      <trkpt lat="44.93553" lon="-0.93567">
        <ele>40.3</ele>
        <time>2021-05-13T11:38:28Z</time>
      </trkpt>
      <trkpt lat="44.93562" lon="-0.93537">
        <ele>40.3</ele>
        <time>2021-05-13T11:38:23Z</time>
      </trkpt>
      <trkpt lat="44.93575" lon="-0.93499">
        <ele>40.3</ele>
        <time>2021-05-13T11:38:16Z</time>
      </trkpt>
      <trkpt lat="44.9358" lon="-0.93481">
        <ele>40.3</ele>
        <time>2021-05-13T11:38:13Z</time>
      </trkpt>
      <trkpt lat="44.93587" lon="-0.93463">
        <ele>40.3</ele>
        <time>2021-05-13T11:38:10Z</time>
      </trkpt>
      <trkpt lat="44.93588" lon="-0.93458">
        <ele>40.3</ele>
        <time>2021-05-13T11:38:09Z</time>
      </trkpt>
      <trkpt lat="44.93593" lon="-0.93445">
        <ele>40.3</ele>
        <time>2021-05-13T11:38:07Z</time>
      </trkpt>
      <trkpt lat="44.93598" lon="-0.93432">
        <ele>40.3</ele>
        <time>2021-05-13T11:38:05Z</time>
      </trkpt>
      <trkpt lat="44.936" lon="-0.93425">
        <ele>40.3</ele>
        <time>2021-05-13T11:38:04Z</time>
      </trkpt>
      <trkpt lat="44.93604" lon="-0.93412">
        <ele>40.3</ele>
        <time>2021-05-13T11:38:02Z</time>
      </trkpt>
      <trkpt lat="44.93611" lon="-0.93391">
        <ele>40.3</ele>
        <time>2021-05-13T11:37:59Z</time>
      </trkpt>
      <trkpt lat="44.93629" lon="-0.93337">
        <ele>40.3</ele>
        <time>2021-05-13T11:37:51Z</time>
      </trkpt>
      <trkpt lat="44.93642" lon="-0.93297">
        <ele>40.4</ele>
        <time>2021-05-13T11:37:45Z</time>
      </trkpt>
      <trkpt lat="44.93658" lon="-0.93246">
        <ele>40.4</ele>
        <time>2021-05-13T11:37:38Z</time>
      </trkpt>
      <trkpt lat="44.93665" lon="-0.93224">
        <ele>40.5</ele>
        <time>2021-05-13T11:37:35Z</time>
      </trkpt>
      <trkpt lat="44.93668" lon="-0.93216">
        <ele>40.5</ele>
        <time>2021-05-13T11:37:34Z</time>
      </trkpt>
      <trkpt lat="44.93672" lon="-0.93209">
        <ele>40.5</ele>
        <time>2021-05-13T11:37:33Z</time>
      </trkpt>
      <trkpt lat="44.93676" lon="-0.93194">
        <ele>40.6</ele>
        <time>2021-05-13T11:37:31Z</time>
      </trkpt>
      <trkpt lat="44.93679" lon="-0.93186">
        <ele>40.6</ele>
        <time>2021-05-13T11:37:30Z</time>
      </trkpt>
      <trkpt lat="44.93681" lon="-0.93178">
        <ele>40.6</ele>
        <time>2021-05-13T11:37:29Z</time>
      </trkpt>
      <trkpt lat="44.93693" lon="-0.9314">
        <ele>40.8</ele>
        <time>2021-05-13T11:37:24Z</time>
      </trkpt>
      <trkpt lat="44.93695" lon="-0.93134">
        <ele>40.8</ele>
        <time>2021-05-13T11:37:23Z</time>
      </trkpt>
      <trkpt lat="44.93704" lon="-0.93109">
        <ele>40.8</ele>
        <time>2021-05-13T11:37:19Z</time>
      </trkpt>
      <trkpt lat="44.93715" lon="-0.93076">
        <ele>40.8</ele>
        <time>2021-05-13T11:37:14Z</time>
      </trkpt>
      <trkpt lat="44.93719" lon="-0.93064">
        <ele>40.8</ele>
        <time>2021-05-13T11:37:12Z</time>
      </trkpt>
      <trkpt lat="44.93726" lon="-0.93043">
        <ele>40.8</ele>
        <time>2021-05-13T11:37:09Z</time>
      </trkpt>
      <trkpt lat="44.93741" lon="-0.92998">
        <ele>40.8</ele>
        <time>2021-05-13T11:37:03Z</time>
      </trkpt>
      <trkpt lat="44.93756" lon="-0.92954">
        <ele>40.9</ele>
        <time>2021-05-13T11:36:57Z</time>
      </trkpt>
      <trkpt lat="44.93772" lon="-0.92907">
        <ele>40.9</ele>
        <time>2021-05-13T11:36:50Z</time>
      </trkpt>
      <trkpt lat="44.93784" lon="-0.92873">
        <ele>40.9</ele>
        <time>2021-05-13T11:36:45Z</time>
      </trkpt>
      <trkpt lat="44.93798" lon="-0.92828">
        <ele>41</ele>
        <time>2021-05-13T11:36:39Z</time>
      </trkpt>
      <trkpt lat="44.93815" lon="-0.92777">
        <ele>40.9</ele>
        <time>2021-05-13T11:36:32Z</time>
      </trkpt>
      <trkpt lat="44.93826" lon="-0.92741">
        <ele>40.9</ele>
        <time>2021-05-13T11:36:27Z</time>
      </trkpt>
      <trkpt lat="44.93844" lon="-0.9269">
        <ele>40.8</ele>
        <time>2021-05-13T11:36:20Z</time>
      </trkpt>
      <trkpt lat="44.93856" lon="-0.92655">
        <ele>40.9</ele>
        <time>2021-05-13T11:36:15Z</time>
      </trkpt>
      <trkpt lat="44.93871" lon="-0.92607">
        <ele>41.3</ele>
        <time>2021-05-13T11:36:09Z</time>
      </trkpt>
      <trkpt lat="44.93887" lon="-0.92556">
        <ele>41.1</ele>
        <time>2021-05-13T11:36:03Z</time>
      </trkpt>
      <trkpt lat="44.9389" lon="-0.92547">
        <ele>41.1</ele>
        <time>2021-05-13T11:36:02Z</time>
      </trkpt>
      <trkpt lat="44.93902" lon="-0.92512">
        <ele>41.1</ele>
        <time>2021-05-13T11:35:58Z</time>
      </trkpt>
      <trkpt lat="44.93917" lon="-0.92467">
        <ele>41.2</ele>
        <time>2021-05-13T11:35:53Z</time>
      </trkpt>
      <trkpt lat="44.93932" lon="-0.92424">
        <ele>41.1</ele>
        <time>2021-05-13T11:35:48Z</time>
      </trkpt>
      <trkpt lat="44.93946" lon="-0.92387">
        <ele>41.2</ele>
        <time>2021-05-13T11:35:44Z</time>
      </trkpt>
      <trkpt lat="44.93964" lon="-0.92332">
        <ele>41.3</ele>
        <time>2021-05-13T11:35:38Z</time>
      </trkpt>
      <trkpt lat="44.93979" lon="-0.92289">
        <ele>41.4</ele>
        <time>2021-05-13T11:35:33Z</time>
      </trkpt>
      <trkpt lat="44.9399" lon="-0.92255">
        <ele>41.3</ele>
        <time>2021-05-13T11:35:29Z</time>
      </trkpt>
      <trkpt lat="44.94008" lon="-0.92203">
        <ele>41.3</ele>
        <time>2021-05-13T11:35:23Z</time>
      </trkpt>
      <trkpt lat="44.94026" lon="-0.92148">
        <ele>41.5</ele>
        <time>2021-05-13T11:35:17Z</time>
      </trkpt>
      <trkpt lat="44.94035" lon="-0.92122">
        <ele>41.6</ele>
        <time>2021-05-13T11:35:14Z</time>
      </trkpt>
      <trkpt lat="44.94042" lon="-0.92104">
        <ele>41.7</ele>
        <time>2021-05-13T11:35:12Z</time>
      </trkpt>
      <trkpt lat="44.94063" lon="-0.92039">
        <ele>41.8</ele>
        <time>2021-05-13T11:35:05Z</time>
      </trkpt>
      <trkpt lat="44.94088" lon="-0.91966">
        <ele>41.8</ele>
        <time>2021-05-13T11:34:57Z</time>
      </trkpt>
      <trkpt lat="44.94109" lon="-0.91902">
        <ele>41.7</ele>
        <time>2021-05-13T11:34:50Z</time>
      </trkpt>
      <trkpt lat="44.94131" lon="-0.91837">
        <ele>41.7</ele>
        <time>2021-05-13T11:34:43Z</time>
      </trkpt>
      <trkpt lat="44.94145" lon="-0.91793">
        <ele>41.8</ele>
        <time>2021-05-13T11:34:38Z</time>
      </trkpt>
      <trkpt lat="44.94168" lon="-0.91724">
        <ele>41.8</ele>
        <time>2021-05-13T11:34:30Z</time>
      </trkpt>
      <trkpt lat="44.94171" lon="-0.91716">
        <ele>41.8</ele>
        <time>2021-05-13T11:34:29Z</time>
      </trkpt>
      <trkpt lat="44.94195" lon="-0.91647">
        <ele>41.8</ele>
        <time>2021-05-13T11:34:21Z</time>
      </trkpt>
      <trkpt lat="44.94214" lon="-0.91593">
        <ele>41.8</ele>
        <time>2021-05-13T11:34:15Z</time>
      </trkpt>
      <trkpt lat="44.94234" lon="-0.91533">
        <ele>41.9</ele>
        <time>2021-05-13T11:34:08Z</time>
      </trkpt>
      <trkpt lat="44.94258" lon="-0.91467">
        <ele>42</ele>
        <time>2021-05-13T11:34:00Z</time>
      </trkpt>
      <trkpt lat="44.94272" lon="-0.91427">
        <ele>42</ele>
        <time>2021-05-13T11:33:55Z</time>
      </trkpt>
      <trkpt lat="44.94275" lon="-0.91419">
        <ele>42</ele>
        <time>2021-05-13T11:33:54Z</time>
      </trkpt>
      <trkpt lat="44.94284" lon="-0.91395">
        <ele>42.1</ele>
        <time>2021-05-13T11:33:51Z</time>
      </trkpt>
      <trkpt lat="44.9429" lon="-0.91378">
        <ele>42.1</ele>
        <time>2021-05-13T11:33:49Z</time>
      </trkpt>
      <trkpt lat="44.94296" lon="-0.91361">
        <ele>42.1</ele>
        <time>2021-05-13T11:33:47Z</time>
      </trkpt>
      <trkpt lat="44.94299" lon="-0.91353">
        <ele>42.1</ele>
        <time>2021-05-13T11:33:46Z</time>
      </trkpt>
      <trkpt lat="44.94313" lon="-0.9132">
        <ele>42.1</ele>
        <time>2021-05-13T11:33:42Z</time>
      </trkpt>
      <trkpt lat="44.94333" lon="-0.91272">
        <ele>42.1</ele>
        <time>2021-05-13T11:33:36Z</time>
      </trkpt>
      <trkpt lat="44.94358" lon="-0.91215">
        <ele>42.2</ele>
        <time>2021-05-13T11:33:29Z</time>
      </trkpt>
      <trkpt lat="44.94383" lon="-0.91158">
        <ele>42.5</ele>
        <time>2021-05-13T11:33:22Z</time>
      </trkpt>
      <trkpt lat="44.94404" lon="-0.91111">
        <ele>43</ele>
        <time>2021-05-13T11:33:16Z</time>
      </trkpt>
      <trkpt lat="44.94411" lon="-0.91097">
        <ele>43.2</ele>
        <time>2021-05-13T11:33:14Z</time>
      </trkpt>
      <trkpt lat="44.9442" lon="-0.91079">
        <ele>43</ele>
        <time>2021-05-13T11:33:11Z</time>
      </trkpt>
      <trkpt lat="44.94439" lon="-0.9104">
        <ele>42.6</ele>
        <time>2021-05-13T11:33:05Z</time>
      </trkpt>
      <trkpt lat="44.94468" lon="-0.90985">
        <ele>42.5</ele>
        <time>2021-05-13T11:32:58Z</time>
      </trkpt>
      <trkpt lat="44.9449" lon="-0.90939">
        <ele>42.5</ele>
        <time>2021-05-13T11:32:52Z</time>
      </trkpt>
      <trkpt lat="44.94498" lon="-0.90924">
        <ele>42.5</ele>
        <time>2021-05-13T11:32:50Z</time>
      </trkpt>
      <trkpt lat="44.94509" lon="-0.90902">
        <ele>42.5</ele>
        <time>2021-05-13T11:32:47Z</time>
      </trkpt>
      <trkpt lat="44.94538" lon="-0.90851">
        <ele>42.6</ele>
        <time>2021-05-13T11:32:40Z</time>
      </trkpt>
      <trkpt lat="44.94557" lon="-0.90815">
        <ele>42.7</ele>
        <time>2021-05-13T11:32:35Z</time>
      </trkpt>
      <trkpt lat="44.94574" lon="-0.90786">
        <ele>42.7</ele>
        <time>2021-05-13T11:32:31Z</time>
      </trkpt>
      <trkpt lat="44.94609" lon="-0.90729">
        <ele>42.8</ele>
        <time>2021-05-13T11:32:23Z</time>
      </trkpt>
      <trkpt lat="44.94631" lon="-0.90693">
        <ele>43</ele>
        <time>2021-05-13T11:32:18Z</time>
      </trkpt>
      <trkpt lat="44.94657" lon="-0.90651">
        <ele>43.1</ele>
        <time>2021-05-13T11:32:12Z</time>
      </trkpt>
      <trkpt lat="44.94684" lon="-0.9061">
        <ele>43.2</ele>
        <time>2021-05-13T11:32:06Z</time>
      </trkpt>
      <trkpt lat="44.94711" lon="-0.90571">
        <ele>43.4</ele>
        <time>2021-05-13T11:32:00Z</time>
      </trkpt>
      <trkpt lat="44.94724" lon="-0.9055">
        <ele>43.4</ele>
        <time>2021-05-13T11:31:57Z</time>
      </trkpt>
      <trkpt lat="44.94733" lon="-0.90537">
        <ele>43.4</ele>
        <time>2021-05-13T11:31:55Z</time>
      </trkpt>
      <trkpt lat="44.94752" lon="-0.9051">
        <ele>43.5</ele>
        <time>2021-05-13T11:31:51Z</time>
      </trkpt>
      <trkpt lat="44.94785" lon="-0.90463">
        <ele>43.7</ele>
        <time>2021-05-13T11:31:44Z</time>
      </trkpt>
      <trkpt lat="44.94809" lon="-0.90431">
        <ele>43.9</ele>
        <time>2021-05-13T11:31:39Z</time>
      </trkpt>
      <trkpt lat="44.94832" lon="-0.90399">
        <ele>44</ele>
        <time>2021-05-13T11:31:34Z</time>
      </trkpt>
      <trkpt lat="44.94858" lon="-0.90362">
        <ele>43.8</ele>
        <time>2021-05-13T11:31:28Z</time>
      </trkpt>
      <trkpt lat="44.94895" lon="-0.90311">
        <ele>44</ele>
        <time>2021-05-13T11:31:20Z</time>
      </trkpt>
      <trkpt lat="44.94918" lon="-0.90278">
        <ele>44</ele>
        <time>2021-05-13T11:31:15Z</time>
      </trkpt>
      <trkpt lat="44.94946" lon="-0.90239">
        <ele>43.9</ele>
        <time>2021-05-13T11:31:09Z</time>
      </trkpt>
      <trkpt lat="44.9498" lon="-0.90193">
        <ele>43.9</ele>
        <time>2021-05-13T11:31:02Z</time>
      </trkpt>
      <trkpt lat="44.95008" lon="-0.90153">
        <ele>43.9</ele>
        <time>2021-05-13T11:30:56Z</time>
      </trkpt>
      <trkpt lat="44.95042" lon="-0.90107">
        <ele>43.9</ele>
        <time>2021-05-13T11:30:49Z</time>
      </trkpt>
      <trkpt lat="44.95075" lon="-0.90062">
        <ele>43.9</ele>
        <time>2021-05-13T11:30:42Z</time>
      </trkpt>
      <trkpt lat="44.9511" lon="-0.90013">
        <ele>44</ele>
        <time>2021-05-13T11:30:34Z</time>
      </trkpt>
      <trkpt lat="44.9514" lon="-0.89971">
        <ele>44</ele>
        <time>2021-05-13T11:30:27Z</time>
      </trkpt>
      <trkpt lat="44.95166" lon="-0.89933">
        <ele>44</ele>
        <time>2021-05-13T11:30:21Z</time>
      </trkpt>
      <trkpt lat="44.95193" lon="-0.89896">
        <ele>44</ele>
        <time>2021-05-13T11:30:15Z</time>
      </trkpt>
      <trkpt lat="44.95198" lon="-0.89889">
        <ele>44</ele>
        <time>2021-05-13T11:30:14Z</time>
      </trkpt>
      <trkpt lat="44.95225" lon="-0.89852">
        <ele>44.1</ele>
        <time>2021-05-13T11:30:08Z</time>
      </trkpt>
      <trkpt lat="44.95252" lon="-0.89813">
        <ele>44.1</ele>
        <time>2021-05-13T11:30:02Z</time>
      </trkpt>
      <trkpt lat="44.9528" lon="-0.89775">
        <ele>44.2</ele>
        <time>2021-05-13T11:29:56Z</time>
      </trkpt>
      <trkpt lat="44.95307" lon="-0.89738">
        <ele>44.3</ele>
        <time>2021-05-13T11:29:50Z</time>
      </trkpt>
      <trkpt lat="44.95329" lon="-0.89706">
        <ele>44.1</ele>
        <time>2021-05-13T11:29:45Z</time>
      </trkpt>
      <trkpt lat="44.95366" lon="-0.89655">
        <ele>44.2</ele>
        <time>2021-05-13T11:29:37Z</time>
      </trkpt>
      <trkpt lat="44.95395" lon="-0.89616">
        <ele>44.3</ele>
        <time>2021-05-13T11:29:31Z</time>
      </trkpt>
      <trkpt lat="44.95417" lon="-0.89584">
        <ele>44.3</ele>
        <time>2021-05-13T11:29:26Z</time>
      </trkpt>
      <trkpt lat="44.95453" lon="-0.89533">
        <ele>44.3</ele>
        <time>2021-05-13T11:29:18Z</time>
      </trkpt>
      <trkpt lat="44.95486" lon="-0.89487">
        <ele>44.3</ele>
        <time>2021-05-13T11:29:11Z</time>
      </trkpt>
      <trkpt lat="44.95523" lon="-0.89435">
        <ele>44.4</ele>
        <time>2021-05-13T11:29:03Z</time>
      </trkpt>
      <trkpt lat="44.95556" lon="-0.89389">
        <ele>44.4</ele>
        <time>2021-05-13T11:28:56Z</time>
      </trkpt>
      <trkpt lat="44.95577" lon="-0.8936">
        <ele>44.4</ele>
        <time>2021-05-13T11:28:51Z</time>
      </trkpt>
      <trkpt lat="44.95599" lon="-0.89331">
        <ele>44.4</ele>
        <time>2021-05-13T11:28:46Z</time>
      </trkpt>
      <trkpt lat="44.95622" lon="-0.89301">
        <ele>44.4</ele>
        <time>2021-05-13T11:28:41Z</time>
      </trkpt>
      <trkpt lat="44.95649" lon="-0.89262">
        <ele>44.3</ele>
        <time>2021-05-13T11:28:35Z</time>
      </trkpt>
      <trkpt lat="44.95676" lon="-0.89224">
        <ele>44.4</ele>
        <time>2021-05-13T11:28:29Z</time>
      </trkpt>
      <trkpt lat="44.95693" lon="-0.892">
        <ele>44.4</ele>
        <time>2021-05-13T11:28:25Z</time>
      </trkpt>
      <trkpt lat="44.9571" lon="-0.89175">
        <ele>44.4</ele>
        <time>2021-05-13T11:28:21Z</time>
      </trkpt>
      <trkpt lat="44.95715" lon="-0.89169">
        <ele>44.4</ele>
        <time>2021-05-13T11:28:20Z</time>
      </trkpt>
      <trkpt lat="44.95724" lon="-0.89157">
        <ele>44.4</ele>
        <time>2021-05-13T11:28:18Z</time>
      </trkpt>
      <trkpt lat="44.95738" lon="-0.89139">
        <ele>44.4</ele>
        <time>2021-05-13T11:28:15Z</time>
      </trkpt>
      <trkpt lat="44.95772" lon="-0.89091">
        <ele>44.5</ele>
        <time>2021-05-13T11:28:07Z</time>
      </trkpt>
      <trkpt lat="44.95793" lon="-0.89061">
        <ele>44.4</ele>
        <time>2021-05-13T11:28:02Z</time>
      </trkpt>
      <trkpt lat="44.95818" lon="-0.89026">
        <ele>44.4</ele>
        <time>2021-05-13T11:27:56Z</time>
      </trkpt>
      <trkpt lat="44.95843" lon="-0.88991">
        <ele>44.5</ele>
        <time>2021-05-13T11:27:50Z</time>
      </trkpt>
      <trkpt lat="44.95868" lon="-0.88955">
        <ele>44.4</ele>
        <time>2021-05-13T11:27:44Z</time>
      </trkpt>
      <trkpt lat="44.95887" lon="-0.88928">
        <ele>44.3</ele>
        <time>2021-05-13T11:27:39Z</time>
      </trkpt>
      <trkpt lat="44.95905" lon="-0.88902">
        <ele>44.3</ele>
        <time>2021-05-13T11:27:34Z</time>
      </trkpt>
      <trkpt lat="44.95926" lon="-0.88869">
        <ele>44.3</ele>
        <time>2021-05-13T11:27:28Z</time>
      </trkpt>
      <trkpt lat="44.95937" lon="-0.88853">
        <ele>44.3</ele>
        <time>2021-05-13T11:27:25Z</time>
      </trkpt>
      <trkpt lat="44.95941" lon="-0.88847">
        <ele>44.3</ele>
        <time>2021-05-13T11:27:24Z</time>
      </trkpt>
      <trkpt lat="44.95951" lon="-0.88833">
        <ele>44.3</ele>
        <time>2021-05-13T11:27:21Z</time>
      </trkpt>
      <trkpt lat="44.95959" lon="-0.88819">
        <ele>44.3</ele>
        <time>2021-05-13T11:27:18Z</time>
      </trkpt>
      <trkpt lat="44.95961" lon="-0.88814">
        <ele>44.3</ele>
        <time>2021-05-13T11:27:17Z</time>
      </trkpt>
      <trkpt lat="44.95973" lon="-0.8879">
        <ele>44.5</ele>
        <time>2021-05-13T11:27:12Z</time>
      </trkpt>
      <trkpt lat="44.95981" lon="-0.88776">
        <ele>44.6</ele>
        <time>2021-05-13T11:27:08Z</time>
      </trkpt>
      <trkpt lat="44.95985" lon="-0.88766">
        <ele>44.7</ele>
        <time>2021-05-13T11:27:04Z</time>
      </trkpt>
      <trkpt lat="44.95986" lon="-0.88764">
        <ele>44.7</ele>
        <time>2021-05-13T11:27:03Z</time>
      </trkpt>
      <trkpt lat="44.95987" lon="-0.88756">
        <ele>44.7</ele>
        <time>2021-05-13T11:26:59Z</time>
      </trkpt>
      <trkpt lat="44.96" lon="-0.88729">
        <ele>44.5</ele>
        <time>2021-05-13T11:26:54Z</time>
      </trkpt>
      <trkpt lat="44.96003" lon="-0.88723">
        <ele>44.5</ele>
        <time>2021-05-13T11:26:53Z</time>
      </trkpt>
      <trkpt lat="44.96012" lon="-0.88697">
        <ele>44.4</ele>
        <time>2021-05-13T11:26:49Z</time>
      </trkpt>
      <trkpt lat="44.96025" lon="-0.88663">
        <ele>44.3</ele>
        <time>2021-05-13T11:26:44Z</time>
      </trkpt>
      <trkpt lat="44.96039" lon="-0.88621">
        <ele>44.4</ele>
        <time>2021-05-13T11:26:38Z</time>
      </trkpt>
      <trkpt lat="44.96048" lon="-0.88593">
        <ele>44.5</ele>
        <time>2021-05-13T11:26:34Z</time>
      </trkpt>
      <trkpt lat="44.9605" lon="-0.88586">
        <ele>44.6</ele>
        <time>2021-05-13T11:26:33Z</time>
      </trkpt>
      <trkpt lat="44.96065" lon="-0.88542">
        <ele>44.7</ele>
        <time>2021-05-13T11:26:26Z</time>
      </trkpt>
      <trkpt lat="44.96078" lon="-0.88502">
        <ele>44.7</ele>
        <time>2021-05-13T11:26:20Z</time>
      </trkpt>
      <trkpt lat="44.96087" lon="-0.88475">
        <ele>44.6</ele>
        <time>2021-05-13T11:26:16Z</time>
      </trkpt>
      <trkpt lat="44.96089" lon="-0.88469">
        <ele>44.5</ele>
        <time>2021-05-13T11:26:15Z</time>
      </trkpt>
      <trkpt lat="44.961" lon="-0.88432">
        <ele>44.4</ele>
        <time>2021-05-13T11:26:09Z</time>
      </trkpt>
      <trkpt lat="44.96103" lon="-0.88419">
        <ele>44.4</ele>
        <time>2021-05-13T11:26:07Z</time>
      </trkpt>
      <trkpt lat="44.96112" lon="-0.88388">
        <ele>44.3</ele>
        <time>2021-05-13T11:26:02Z</time>
      </trkpt>
      <trkpt lat="44.96122" lon="-0.88349">
        <ele>44.4</ele>
        <time>2021-05-13T11:25:56Z</time>
      </trkpt>
      <trkpt lat="44.96124" lon="-0.88342">
        <ele>44.5</ele>
        <time>2021-05-13T11:25:55Z</time>
      </trkpt>
      <trkpt lat="44.96126" lon="-0.88328">
        <ele>44.6</ele>
        <time>2021-05-13T11:25:53Z</time>
      </trkpt>
      <trkpt lat="44.96128" lon="-0.88322">
        <ele>44.6</ele>
        <time>2021-05-13T11:25:52Z</time>
      </trkpt>
      <trkpt lat="44.96131" lon="-0.88316">
        <ele>44.7</ele>
        <time>2021-05-13T11:25:51Z</time>
      </trkpt>
      <trkpt lat="44.96135" lon="-0.883">
        <ele>44.7</ele>
        <time>2021-05-13T11:25:48Z</time>
      </trkpt>
      <trkpt lat="44.96135" lon="-0.88279">
        <ele>44.7</ele>
        <time>2021-05-13T11:25:44Z</time>
      </trkpt>
      <trkpt lat="44.96138" lon="-0.88248">
        <ele>44.7</ele>
        <time>2021-05-13T11:25:40Z</time>
      </trkpt>
      <trkpt lat="44.96143" lon="-0.88207">
        <ele>44.5</ele>
        <time>2021-05-13T11:25:35Z</time>
      </trkpt>
      <trkpt lat="44.96149" lon="-0.88154">
        <ele>44.4</ele>
        <time>2021-05-13T11:25:29Z</time>
      </trkpt>
      <trkpt lat="44.96152" lon="-0.88116">
        <ele>44.3</ele>
        <time>2021-05-13T11:25:25Z</time>
      </trkpt>
      <trkpt lat="44.96152" lon="-0.88106">
        <ele>44.3</ele>
        <time>2021-05-13T11:25:24Z</time>
      </trkpt>
      <trkpt lat="44.96152" lon="-0.88097">
        <ele>44.3</ele>
        <time>2021-05-13T11:25:23Z</time>
      </trkpt>
      <trkpt lat="44.96153" lon="-0.88078">
        <ele>44.3</ele>
        <time>2021-05-13T11:25:21Z</time>
      </trkpt>
      <trkpt lat="44.96153" lon="-0.88051">
        <ele>44.3</ele>
        <time>2021-05-13T11:25:18Z</time>
      </trkpt>
      <trkpt lat="44.96153" lon="-0.88022">
        <ele>44.4</ele>
        <time>2021-05-13T11:25:15Z</time>
      </trkpt>
      <trkpt lat="44.96152" lon="-0.87983">
        <ele>44.3</ele>
        <time>2021-05-13T11:25:11Z</time>
      </trkpt>
      <trkpt lat="44.96151" lon="-0.87934">
        <ele>44.2</ele>
        <time>2021-05-13T11:25:06Z</time>
      </trkpt>
      <trkpt lat="44.96146" lon="-0.87877">
        <ele>44.3</ele>
        <time>2021-05-13T11:25:00Z</time>
      </trkpt>
      <trkpt lat="44.96143" lon="-0.87851">
        <ele>44.5</ele>
        <time>2021-05-13T11:24:57Z</time>
      </trkpt>
      <trkpt lat="44.96143" lon="-0.87833">
        <ele>44.5</ele>
        <time>2021-05-13T11:24:55Z</time>
      </trkpt>
      <trkpt lat="44.96142" lon="-0.87824">
        <ele>44.5</ele>
        <time>2021-05-13T11:24:54Z</time>
      </trkpt>
      <trkpt lat="44.96139" lon="-0.87799">
        <ele>44.6</ele>
        <time>2021-05-13T11:24:51Z</time>
      </trkpt>
      <trkpt lat="44.9613" lon="-0.87746">
        <ele>44.7</ele>
        <time>2021-05-13T11:24:45Z</time>
      </trkpt>
      <trkpt lat="44.96126" lon="-0.8772">
        <ele>44.7</ele>
        <time>2021-05-13T11:24:42Z</time>
      </trkpt>
      <trkpt lat="44.96123" lon="-0.87702">
        <ele>44.7</ele>
        <time>2021-05-13T11:24:40Z</time>
      </trkpt>
      <trkpt lat="44.96113" lon="-0.8765">
        <ele>44.8</ele>
        <time>2021-05-13T11:24:34Z</time>
      </trkpt>
      <trkpt lat="44.96093" lon="-0.87571">
        <ele>44.7</ele>
        <time>2021-05-13T11:24:25Z</time>
      </trkpt>
      <trkpt lat="44.96074" lon="-0.87511">
        <ele>44.9</ele>
        <time>2021-05-13T11:24:18Z</time>
      </trkpt>
      <trkpt lat="44.9605" lon="-0.87444">
        <ele>45</ele>
        <time>2021-05-13T11:24:10Z</time>
      </trkpt>
      <trkpt lat="44.96041" lon="-0.87419">
        <ele>45</ele>
        <time>2021-05-13T11:24:07Z</time>
      </trkpt>
      <trkpt lat="44.96037" lon="-0.87411">
        <ele>45.1</ele>
        <time>2021-05-13T11:24:06Z</time>
      </trkpt>
      <trkpt lat="44.96021" lon="-0.8737">
        <ele>45.2</ele>
        <time>2021-05-13T11:24:01Z</time>
      </trkpt>
      <trkpt lat="44.96009" lon="-0.87343">
        <ele>45.3</ele>
        <time>2021-05-13T11:23:57Z</time>
      </trkpt>
      <trkpt lat="44.95982" lon="-0.87284">
        <ele>45.3</ele>
        <time>2021-05-13T11:23:49Z</time>
      </trkpt>
      <trkpt lat="44.95964" lon="-0.87249">
        <ele>45.2</ele>
        <time>2021-05-13T11:23:44Z</time>
      </trkpt>
      <trkpt lat="44.95936" lon="-0.87201">
        <ele>45.3</ele>
        <time>2021-05-13T11:23:37Z</time>
      </trkpt>
      <trkpt lat="44.95913" lon="-0.87161">
        <ele>45.1</ele>
        <time>2021-05-13T11:23:31Z</time>
      </trkpt>
      <trkpt lat="44.95889" lon="-0.87119">
        <ele>45.1</ele>
        <time>2021-05-13T11:23:25Z</time>
      </trkpt>
      <trkpt lat="44.9586" lon="-0.87071">
        <ele>45.1</ele>
        <time>2021-05-13T11:23:18Z</time>
      </trkpt>
      <trkpt lat="44.95827" lon="-0.87016">
        <ele>45.1</ele>
        <time>2021-05-13T11:23:10Z</time>
      </trkpt>
      <trkpt lat="44.95791" lon="-0.86953">
        <ele>45.4</ele>
        <time>2021-05-13T11:23:01Z</time>
      </trkpt>
      <trkpt lat="44.95769" lon="-0.86915">
        <ele>45.5</ele>
        <time>2021-05-13T11:22:55Z</time>
      </trkpt>
      <trkpt lat="44.95748" lon="-0.86879">
        <ele>45.5</ele>
        <time>2021-05-13T11:22:49Z</time>
      </trkpt>
      <trkpt lat="44.95741" lon="-0.86867">
        <ele>45.6</ele>
        <time>2021-05-13T11:22:47Z</time>
      </trkpt>
      <trkpt lat="44.9573" lon="-0.86849">
        <ele>45.7</ele>
        <time>2021-05-13T11:22:44Z</time>
      </trkpt>
      <trkpt lat="44.95712" lon="-0.86815">
        <ele>45.7</ele>
        <time>2021-05-13T11:22:39Z</time>
      </trkpt>
      <trkpt lat="44.95701" lon="-0.86796">
        <ele>45.8</ele>
        <time>2021-05-13T11:22:36Z</time>
      </trkpt>
      <trkpt lat="44.95693" lon="-0.86783">
        <ele>45.8</ele>
        <time>2021-05-13T11:22:34Z</time>
      </trkpt>
      <trkpt lat="44.95685" lon="-0.8677">
        <ele>45.8</ele>
        <time>2021-05-13T11:22:32Z</time>
      </trkpt>
      <trkpt lat="44.95674" lon="-0.8675">
        <ele>45.7</ele>
        <time>2021-05-13T11:22:29Z</time>
      </trkpt>
      <trkpt lat="44.95651" lon="-0.8671">
        <ele>45.8</ele>
        <time>2021-05-13T11:22:23Z</time>
      </trkpt>
      <trkpt lat="44.95643" lon="-0.86698">
        <ele>45.8</ele>
        <time>2021-05-13T11:22:21Z</time>
      </trkpt>
      <trkpt lat="44.95632" lon="-0.86678">
        <ele>45.9</ele>
        <time>2021-05-13T11:22:18Z</time>
      </trkpt>
      <trkpt lat="44.95609" lon="-0.86638">
        <ele>45.9</ele>
        <time>2021-05-13T11:22:12Z</time>
      </trkpt>
      <trkpt lat="44.95578" lon="-0.86586">
        <ele>45.9</ele>
        <time>2021-05-13T11:22:04Z</time>
      </trkpt>
      <trkpt lat="44.95574" lon="-0.86579">
        <ele>45.9</ele>
        <time>2021-05-13T11:22:03Z</time>
      </trkpt>
      <trkpt lat="44.95552" lon="-0.86538">
        <ele>45.9</ele>
        <time>2021-05-13T11:21:57Z</time>
      </trkpt>
      <trkpt lat="44.95525" lon="-0.86493">
        <ele>45.9</ele>
        <time>2021-05-13T11:21:50Z</time>
      </trkpt>
      <trkpt lat="44.95522" lon="-0.86487">
        <ele>45.9</ele>
        <time>2021-05-13T11:21:49Z</time>
      </trkpt>
      <trkpt lat="44.95503" lon="-0.86455">
        <ele>45.9</ele>
        <time>2021-05-13T11:21:44Z</time>
      </trkpt>
      <trkpt lat="44.95492" lon="-0.86432">
        <ele>45.9</ele>
        <time>2021-05-13T11:21:41Z</time>
      </trkpt>
      <trkpt lat="44.95484" lon="-0.86419">
        <ele>45.9</ele>
        <time>2021-05-13T11:21:39Z</time>
      </trkpt>
      <trkpt lat="44.95476" lon="-0.86406">
        <ele>45.9</ele>
        <time>2021-05-13T11:21:37Z</time>
      </trkpt>
      <trkpt lat="44.95454" lon="-0.86372">
        <ele>46</ele>
        <time>2021-05-13T11:21:32Z</time>
      </trkpt>
      <trkpt lat="44.95427" lon="-0.8633">
        <ele>46.1</ele>
        <time>2021-05-13T11:21:26Z</time>
      </trkpt>
      <trkpt lat="44.95424" lon="-0.86322">
        <ele>46.1</ele>
        <time>2021-05-13T11:21:25Z</time>
      </trkpt>
      <trkpt lat="44.95404" lon="-0.86289">
        <ele>46.2</ele>
        <time>2021-05-13T11:21:20Z</time>
      </trkpt>
      <trkpt lat="44.95373" lon="-0.86235">
        <ele>46.1</ele>
        <time>2021-05-13T11:21:12Z</time>
      </trkpt>
      <trkpt lat="44.95366" lon="-0.86221">
        <ele>46.1</ele>
        <time>2021-05-13T11:21:10Z</time>
      </trkpt>
      <trkpt lat="44.95329" lon="-0.8616">
        <ele>46</ele>
        <time>2021-05-13T11:21:01Z</time>
      </trkpt>
      <trkpt lat="44.95293" lon="-0.86098">
        <ele>46</ele>
        <time>2021-05-13T11:20:52Z</time>
      </trkpt>
      <trkpt lat="44.95268" lon="-0.86057">
        <ele>46</ele>
        <time>2021-05-13T11:20:46Z</time>
      </trkpt>
      <trkpt lat="44.9524" lon="-0.86008">
        <ele>46.1</ele>
        <time>2021-05-13T11:20:39Z</time>
      </trkpt>
      <trkpt lat="44.95216" lon="-0.85968">
        <ele>46.3</ele>
        <time>2021-05-13T11:20:33Z</time>
      </trkpt>
      <trkpt lat="44.95212" lon="-0.85961">
        <ele>46.4</ele>
        <time>2021-05-13T11:20:32Z</time>
      </trkpt>
      <trkpt lat="44.95186" lon="-0.85916">
        <ele>46.4</ele>
        <time>2021-05-13T11:20:25Z</time>
      </trkpt>
      <trkpt lat="44.95155" lon="-0.85862">
        <ele>46.5</ele>
        <time>2021-05-13T11:20:17Z</time>
      </trkpt>
      <trkpt lat="44.95124" lon="-0.85807">
        <ele>46.6</ele>
        <time>2021-05-13T11:20:09Z</time>
      </trkpt>
      <trkpt lat="44.95096" lon="-0.85761">
        <ele>46.7</ele>
        <time>2021-05-13T11:20:02Z</time>
      </trkpt>
      <trkpt lat="44.95092" lon="-0.85755">
        <ele>46.7</ele>
        <time>2021-05-13T11:20:01Z</time>
      </trkpt>
      <trkpt lat="44.95066" lon="-0.8571">
        <ele>46.9</ele>
        <time>2021-05-13T11:19:54Z</time>
      </trkpt>
      <trkpt lat="44.95058" lon="-0.85698">
        <ele>46.9</ele>
        <time>2021-05-13T11:19:52Z</time>
      </trkpt>
      <trkpt lat="44.9505" lon="-0.85681">
        <ele>47</ele>
        <time>2021-05-13T11:19:49Z</time>
      </trkpt>
      <trkpt lat="44.95039" lon="-0.85664">
        <ele>46.7</ele>
        <time>2021-05-13T11:19:45Z</time>
      </trkpt>
      <trkpt lat="44.95009" lon="-0.85613">
        <ele>46.2</ele>
        <time>2021-05-13T11:19:37Z</time>
      </trkpt>
      <trkpt lat="44.94972" lon="-0.8555">
        <ele>46.1</ele>
        <time>2021-05-13T11:19:28Z</time>
      </trkpt>
      <trkpt lat="44.94943" lon="-0.85501">
        <ele>46.1</ele>
        <time>2021-05-13T11:19:21Z</time>
      </trkpt>
      <trkpt lat="44.94935" lon="-0.85488">
        <ele>46.2</ele>
        <time>2021-05-13T11:19:19Z</time>
      </trkpt>
      <trkpt lat="44.94919" lon="-0.8546">
        <ele>46.2</ele>
        <time>2021-05-13T11:19:15Z</time>
      </trkpt>
      <trkpt lat="44.94891" lon="-0.85411">
        <ele>46.2</ele>
        <time>2021-05-13T11:19:08Z</time>
      </trkpt>
      <trkpt lat="44.94866" lon="-0.85368">
        <ele>46.3</ele>
        <time>2021-05-13T11:19:02Z</time>
      </trkpt>
      <trkpt lat="44.94842" lon="-0.85327">
        <ele>46.5</ele>
        <time>2021-05-13T11:18:56Z</time>
      </trkpt>
      <trkpt lat="44.94808" lon="-0.85271">
        <ele>46.8</ele>
        <time>2021-05-13T11:18:48Z</time>
      </trkpt>
      <trkpt lat="44.94792" lon="-0.85243">
        <ele>47.2</ele>
        <time>2021-05-13T11:18:44Z</time>
      </trkpt>
      <trkpt lat="44.94786" lon="-0.85231">
        <ele>47.4</ele>
        <time>2021-05-13T11:18:42Z</time>
      </trkpt>
      <trkpt lat="44.94781" lon="-0.85222">
        <ele>47.3</ele>
        <time>2021-05-13T11:18:40Z</time>
      </trkpt>
      <trkpt lat="44.94759" lon="-0.85183">
        <ele>46.9</ele>
        <time>2021-05-13T11:18:33Z</time>
      </trkpt>
      <trkpt lat="44.94737" lon="-0.85145">
        <ele>46.9</ele>
        <time>2021-05-13T11:18:27Z</time>
      </trkpt>
      <trkpt lat="44.94712" lon="-0.85104">
        <ele>46.8</ele>
        <time>2021-05-13T11:18:21Z</time>
      </trkpt>
      <trkpt lat="44.94683" lon="-0.85056">
        <ele>46.8</ele>
        <time>2021-05-13T11:18:14Z</time>
      </trkpt>
      <trkpt lat="44.94651" lon="-0.84999">
        <ele>46.9</ele>
        <time>2021-05-13T11:18:06Z</time>
      </trkpt>
      <trkpt lat="44.94643" lon="-0.84985">
        <ele>47</ele>
        <time>2021-05-13T11:18:04Z</time>
      </trkpt>
      <trkpt lat="44.94627" lon="-0.84958">
        <ele>47.1</ele>
        <time>2021-05-13T11:18:00Z</time>
      </trkpt>
      <trkpt lat="44.94607" lon="-0.84923">
        <ele>47.2</ele>
        <time>2021-05-13T11:17:55Z</time>
      </trkpt>
      <trkpt lat="44.94603" lon="-0.84917">
        <ele>47.2</ele>
        <time>2021-05-13T11:17:54Z</time>
      </trkpt>
      <trkpt lat="44.94583" lon="-0.84882">
        <ele>47.2</ele>
        <time>2021-05-13T11:17:49Z</time>
      </trkpt>
      <trkpt lat="44.9455" lon="-0.84826">
        <ele>47.5</ele>
        <time>2021-05-13T11:17:41Z</time>
      </trkpt>
      <trkpt lat="44.94526" lon="-0.84784">
        <ele>47.7</ele>
        <time>2021-05-13T11:17:35Z</time>
      </trkpt>
      <trkpt lat="44.94518" lon="-0.8477">
        <ele>47.8</ele>
        <time>2021-05-13T11:17:33Z</time>
      </trkpt>
      <trkpt lat="44.9451" lon="-0.84755">
        <ele>47.9</ele>
        <time>2021-05-13T11:17:31Z</time>
      </trkpt>
      <trkpt lat="44.9449" lon="-0.8472">
        <ele>47.9</ele>
        <time>2021-05-13T11:17:26Z</time>
      </trkpt>
      <trkpt lat="44.94479" lon="-0.847">
        <ele>47.9</ele>
        <time>2021-05-13T11:17:23Z</time>
      </trkpt>
      <trkpt lat="44.94474" lon="-0.84694">
        <ele>48</ele>
        <time>2021-05-13T11:17:22Z</time>
      </trkpt>
      <trkpt lat="44.94454" lon="-0.8466">
        <ele>48</ele>
        <time>2021-05-13T11:17:17Z</time>
      </trkpt>
      <trkpt lat="44.94422" lon="-0.84605">
        <ele>48.1</ele>
        <time>2021-05-13T11:17:09Z</time>
      </trkpt>
      <trkpt lat="44.9439" lon="-0.84551">
        <ele>48.2</ele>
        <time>2021-05-13T11:17:01Z</time>
      </trkpt>
      <trkpt lat="44.94357" lon="-0.84497">
        <ele>48.1</ele>
        <time>2021-05-13T11:16:53Z</time>
      </trkpt>
      <trkpt lat="44.94329" lon="-0.84448">
        <ele>48.2</ele>
        <time>2021-05-13T11:16:46Z</time>
      </trkpt>
      <trkpt lat="44.94295" lon="-0.84394">
        <ele>48.3</ele>
        <time>2021-05-13T11:16:38Z</time>
      </trkpt>
      <trkpt lat="44.9427" lon="-0.84353">
        <ele>48.3</ele>
        <time>2021-05-13T11:16:32Z</time>
      </trkpt>
      <trkpt lat="44.94266" lon="-0.84346">
        <ele>48.4</ele>
        <time>2021-05-13T11:16:31Z</time>
      </trkpt>
      <trkpt lat="44.94251" lon="-0.84318">
        <ele>48.5</ele>
        <time>2021-05-13T11:16:27Z</time>
      </trkpt>
      <trkpt lat="44.94218" lon="-0.84264">
        <ele>48.5</ele>
        <time>2021-05-13T11:16:19Z</time>
      </trkpt>
      <trkpt lat="44.94206" lon="-0.84245">
        <ele>48.6</ele>
        <time>2021-05-13T11:16:16Z</time>
      </trkpt>
      <trkpt lat="44.94199" lon="-0.84231">
        <ele>48.6</ele>
        <time>2021-05-13T11:16:14Z</time>
      </trkpt>
      <trkpt lat="44.94193" lon="-0.84218">
        <ele>48.5</ele>
        <time>2021-05-13T11:16:12Z</time>
      </trkpt>
      <trkpt lat="44.94182" lon="-0.84199">
        <ele>48.4</ele>
        <time>2021-05-13T11:16:09Z</time>
      </trkpt>
      <trkpt lat="44.94174" lon="-0.84186">
        <ele>48.4</ele>
        <time>2021-05-13T11:16:07Z</time>
      </trkpt>
      <trkpt lat="44.94137" lon="-0.84124">
        <ele>48.5</ele>
        <time>2021-05-13T11:15:58Z</time>
      </trkpt>
      <trkpt lat="44.94104" lon="-0.84068">
        <ele>48.7</ele>
        <time>2021-05-13T11:15:50Z</time>
      </trkpt>
      <trkpt lat="44.94092" lon="-0.84048">
        <ele>48.7</ele>
        <time>2021-05-13T11:15:47Z</time>
      </trkpt>
      <trkpt lat="44.94081" lon="-0.84028">
        <ele>48.8</ele>
        <time>2021-05-13T11:15:44Z</time>
      </trkpt>
      <trkpt lat="44.94075" lon="-0.84016">
        <ele>48.9</ele>
        <time>2021-05-13T11:15:42Z</time>
      </trkpt>
      <trkpt lat="44.94072" lon="-0.8401">
        <ele>48.9</ele>
        <time>2021-05-13T11:15:41Z</time>
      </trkpt>
      <trkpt lat="44.94049" lon="-0.8397">
        <ele>49.1</ele>
        <time>2021-05-13T11:15:35Z</time>
      </trkpt>
      <trkpt lat="44.94035" lon="-0.83946">
        <ele>49.1</ele>
        <time>2021-05-13T11:15:31Z</time>
      </trkpt>
      <trkpt lat="44.94031" lon="-0.8394">
        <ele>49.1</ele>
        <time>2021-05-13T11:15:30Z</time>
      </trkpt>
      <trkpt lat="44.94016" lon="-0.83915">
        <ele>48.8</ele>
        <time>2021-05-13T11:15:26Z</time>
      </trkpt>
      <trkpt lat="44.93992" lon="-0.83874">
        <ele>48.7</ele>
        <time>2021-05-13T11:15:19Z</time>
      </trkpt>
      <trkpt lat="44.93986" lon="-0.83863">
        <ele>48.7</ele>
        <time>2021-05-13T11:15:17Z</time>
      </trkpt>
      <trkpt lat="44.93972" lon="-0.83839">
        <ele>48.6</ele>
        <time>2021-05-13T11:15:13Z</time>
      </trkpt>
      <trkpt lat="44.93948" lon="-0.83799">
        <ele>48.6</ele>
        <time>2021-05-13T11:15:06Z</time>
      </trkpt>
      <trkpt lat="44.93925" lon="-0.8376">
        <ele>48.6</ele>
        <time>2021-05-13T11:14:59Z</time>
      </trkpt>
      <trkpt lat="44.9391" lon="-0.83735">
        <ele>48.6</ele>
        <time>2021-05-13T11:14:53Z</time>
      </trkpt>
      <trkpt lat="44.93892" lon="-0.83702">
        <ele>48.5</ele>
        <time>2021-05-13T11:14:47Z</time>
      </trkpt>
      <trkpt lat="44.93878" lon="-0.83677">
        <ele>48.5</ele>
        <time>2021-05-13T11:14:42Z</time>
      </trkpt>
      <trkpt lat="44.93872" lon="-0.83665">
        <ele>48.5</ele>
        <time>2021-05-13T11:14:37Z</time>
      </trkpt>
      <trkpt lat="44.93869" lon="-0.8366">
        <ele>48.5</ele>
        <time>2021-05-13T11:12:13Z</time>
      </trkpt>
      <trkpt lat="44.93865" lon="-0.83653">
        <ele>48.5</ele>
        <time>2021-05-13T11:12:11Z</time>
      </trkpt>
      <trkpt lat="44.93851" lon="-0.83628">
        <ele>48.5</ele>
        <time>2021-05-13T11:12:05Z</time>
      </trkpt>
      <trkpt lat="44.93845" lon="-0.83618">
        <ele>48.5</ele>
        <time>2021-05-13T11:12:03Z</time>
      </trkpt>
      <trkpt lat="44.93834" lon="-0.836">
        <ele>48.6</ele>
        <time>2021-05-13T11:12:00Z</time>
      </trkpt>
      <trkpt lat="44.9381" lon="-0.83557">
        <ele>48.7</ele>
        <time>2021-05-13T11:11:53Z</time>
      </trkpt>
      <trkpt lat="44.93789" lon="-0.83519">
        <ele>49.1</ele>
        <time>2021-05-13T11:11:47Z</time>
      </trkpt>
      <trkpt lat="44.93783" lon="-0.83508">
        <ele>49.1</ele>
        <time>2021-05-13T11:11:45Z</time>
      </trkpt>
      <trkpt lat="44.93778" lon="-0.83498">
        <ele>49.1</ele>
        <time>2021-05-13T11:11:43Z</time>
      </trkpt>
      <trkpt lat="44.93775" lon="-0.83495">
        <ele>49</ele>
        <time>2021-05-13T11:11:42Z</time>
      </trkpt>
      <trkpt lat="44.93748" lon="-0.8348">
        <ele>48.6</ele>
        <time>2021-05-13T11:11:37Z</time>
      </trkpt>
      <trkpt lat="44.93742" lon="-0.83476">
        <ele>48.5</ele>
        <time>2021-05-13T11:11:36Z</time>
      </trkpt>
      <trkpt lat="44.93688" lon="-0.83448">
        <ele>48.3</ele>
        <time>2021-05-13T11:11:27Z</time>
      </trkpt>
      <trkpt lat="44.93682" lon="-0.83445">
        <ele>48.2</ele>
        <time>2021-05-13T11:11:26Z</time>
      </trkpt>
      <trkpt lat="44.93628" lon="-0.83418">
        <ele>48.2</ele>
        <time>2021-05-13T11:11:17Z</time>
      </trkpt>
      <trkpt lat="44.93616" lon="-0.83412">
        <ele>48.3</ele>
        <time>2021-05-13T11:11:15Z</time>
      </trkpt>
      <trkpt lat="44.9361" lon="-0.83408">
        <ele>48.4</ele>
        <time>2021-05-13T11:11:14Z</time>
      </trkpt>
      <trkpt lat="44.93606" lon="-0.83402">
        <ele>48.5</ele>
        <time>2021-05-13T11:11:13Z</time>
      </trkpt>
      <trkpt lat="44.93602" lon="-0.83377">
        <ele>48.5</ele>
        <time>2021-05-13T11:11:10Z</time>
      </trkpt>
      <trkpt lat="44.93598" lon="-0.83336">
        <ele>48.8</ele>
        <time>2021-05-13T11:11:05Z</time>
      </trkpt>
      <trkpt lat="44.93603" lon="-0.83322">
        <ele>48.9</ele>
        <time>2021-05-13T11:11:03Z</time>
      </trkpt>
      <trkpt lat="44.93616" lon="-0.83308">
        <ele>48.9</ele>
        <time>2021-05-13T11:11:00Z</time>
      </trkpt>
      <trkpt lat="44.93637" lon="-0.83283">
        <ele>49.2</ele>
        <time>2021-05-13T11:10:55Z</time>
      </trkpt>
      <trkpt lat="44.93639" lon="-0.8327">
        <ele>49.4</ele>
        <time>2021-05-13T11:10:53Z</time>
      </trkpt>
      <trkpt lat="44.93634" lon="-0.83259">
        <ele>49.4</ele>
        <time>2021-05-13T11:10:51Z</time>
      </trkpt>
      <trkpt lat="44.93612" lon="-0.83222">
        <ele>49.2</ele>
        <time>2021-05-13T11:10:44Z</time>
      </trkpt>
      <trkpt lat="44.93595" lon="-0.83195">
        <ele>49.3</ele>
        <time>2021-05-13T11:10:38Z</time>
      </trkpt>
      <trkpt lat="44.93588" lon="-0.83181">
        <ele>49.4</ele>
        <time>2021-05-13T11:10:34Z</time>
      </trkpt>
      <trkpt lat="44.93586" lon="-0.83176">
        <ele>49.4</ele>
        <time>2021-05-13T11:10:32Z</time>
      </trkpt>
      <trkpt lat="44.93577" lon="-0.83162">
        <ele>49.4</ele>
        <time>2021-05-13T11:08:53Z</time>
      </trkpt>
      <trkpt lat="44.93574" lon="-0.83159">
        <ele>49.3</ele>
        <time>2021-05-13T11:08:49Z</time>
      </trkpt>
      <trkpt lat="44.93557" lon="-0.8314">
        <ele>48.9</ele>
        <time>2021-05-13T11:08:43Z</time>
      </trkpt>
      <trkpt lat="44.93554" lon="-0.83136">
        <ele>48.8</ele>
        <time>2021-05-13T11:08:42Z</time>
      </trkpt>
      <trkpt lat="44.93543" lon="-0.83118">
        <ele>48.7</ele>
        <time>2021-05-13T11:08:38Z</time>
      </trkpt>
      <trkpt lat="44.93533" lon="-0.83103">
        <ele>48.6</ele>
        <time>2021-05-13T11:08:35Z</time>
      </trkpt>
      <trkpt lat="44.93527" lon="-0.83092">
        <ele>48.5</ele>
        <time>2021-05-13T11:08:33Z</time>
      </trkpt>
      <trkpt lat="44.93521" lon="-0.83081">
        <ele>48.4</ele>
        <time>2021-05-13T11:08:31Z</time>
      </trkpt>
      <trkpt lat="44.93508" lon="-0.83059">
        <ele>48.4</ele>
        <time>2021-05-13T11:08:27Z</time>
      </trkpt>
      <trkpt lat="44.93487" lon="-0.83025">
        <ele>48.5</ele>
        <time>2021-05-13T11:08:21Z</time>
      </trkpt>
      <trkpt lat="44.93468" lon="-0.82991">
        <ele>48.6</ele>
        <time>2021-05-13T11:08:15Z</time>
      </trkpt>
      <trkpt lat="44.93459" lon="-0.82975">
        <ele>48.7</ele>
        <time>2021-05-13T11:08:11Z</time>
      </trkpt>
      <trkpt lat="44.9345" lon="-0.82956">
        <ele>48.7</ele>
        <time>2021-05-13T11:08:05Z</time>
      </trkpt>
      <trkpt lat="44.93441" lon="-0.82939">
        <ele>48.8</ele>
        <time>2021-05-13T11:08:01Z</time>
      </trkpt>
      <trkpt lat="44.93436" lon="-0.82928">
        <ele>48.9</ele>
        <time>2021-05-13T11:07:59Z</time>
      </trkpt>
      <trkpt lat="44.93433" lon="-0.82921">
        <ele>48.9</ele>
        <time>2021-05-13T11:07:58Z</time>
      </trkpt>
      <trkpt lat="44.93421" lon="-0.82898">
        <ele>49</ele>
        <time>2021-05-13T11:07:55Z</time>
      </trkpt>
      <trkpt lat="44.9341" lon="-0.82876">
        <ele>49.1</ele>
        <time>2021-05-13T11:07:52Z</time>
      </trkpt>
      <trkpt lat="44.93401" lon="-0.82862">
        <ele>49.1</ele>
        <time>2021-05-13T11:07:50Z</time>
      </trkpt>
      <trkpt lat="44.93393" lon="-0.82849">
        <ele>49.2</ele>
        <time>2021-05-13T11:07:48Z</time>
      </trkpt>
      <trkpt lat="44.93368" lon="-0.82807">
        <ele>49.3</ele>
        <time>2021-05-13T11:07:42Z</time>
      </trkpt>
      <trkpt lat="44.93339" lon="-0.82758">
        <ele>49.1</ele>
        <time>2021-05-13T11:07:35Z</time>
      </trkpt>
      <trkpt lat="44.93306" lon="-0.82699">
        <ele>48.9</ele>
        <time>2021-05-13T11:07:27Z</time>
      </trkpt>
      <trkpt lat="44.93271" lon="-0.82639">
        <ele>48.9</ele>
        <time>2021-05-13T11:07:19Z</time>
      </trkpt>
      <trkpt lat="44.93266" lon="-0.82631">
        <ele>48.9</ele>
        <time>2021-05-13T11:07:18Z</time>
      </trkpt>
      <trkpt lat="44.93231" lon="-0.82571">
        <ele>48.9</ele>
        <time>2021-05-13T11:07:10Z</time>
      </trkpt>
      <trkpt lat="44.93226" lon="-0.82563">
        <ele>49</ele>
        <time>2021-05-13T11:07:09Z</time>
      </trkpt>
      <trkpt lat="44.93191" lon="-0.82504">
        <ele>49.1</ele>
        <time>2021-05-13T11:07:01Z</time>
      </trkpt>
      <trkpt lat="44.93183" lon="-0.82489">
        <ele>49.1</ele>
        <time>2021-05-13T11:06:59Z</time>
      </trkpt>
      <trkpt lat="44.93148" lon="-0.8243">
        <ele>49.3</ele>
        <time>2021-05-13T11:06:51Z</time>
      </trkpt>
      <trkpt lat="44.93143" lon="-0.82423">
        <ele>49.3</ele>
        <time>2021-05-13T11:06:50Z</time>
      </trkpt>
      <trkpt lat="44.93108" lon="-0.82363">
        <ele>49.2</ele>
        <time>2021-05-13T11:06:42Z</time>
      </trkpt>
      <trkpt lat="44.93081" lon="-0.8232">
        <ele>49.3</ele>
        <time>2021-05-13T11:06:36Z</time>
      </trkpt>
      <trkpt lat="44.93073" lon="-0.82307">
        <ele>49.4</ele>
        <time>2021-05-13T11:06:34Z</time>
      </trkpt>
      <trkpt lat="44.93065" lon="-0.82292">
        <ele>49.4</ele>
        <time>2021-05-13T11:06:32Z</time>
      </trkpt>
      <trkpt lat="44.93035" lon="-0.82242">
        <ele>49.3</ele>
        <time>2021-05-13T11:06:25Z</time>
      </trkpt>
      <trkpt lat="44.93009" lon="-0.82198">
        <ele>49.4</ele>
        <time>2021-05-13T11:06:19Z</time>
      </trkpt>
      <trkpt lat="44.93001" lon="-0.82184">
        <ele>49.4</ele>
        <time>2021-05-13T11:06:17Z</time>
      </trkpt>
      <trkpt lat="44.92963" lon="-0.82121">
        <ele>49.5</ele>
        <time>2021-05-13T11:06:08Z</time>
      </trkpt>
      <trkpt lat="44.92926" lon="-0.8206">
        <ele>49.6</ele>
        <time>2021-05-13T11:05:59Z</time>
      </trkpt>
      <trkpt lat="44.92888" lon="-0.81998">
        <ele>49.5</ele>
        <time>2021-05-13T11:05:50Z</time>
      </trkpt>
      <trkpt lat="44.92884" lon="-0.8199">
        <ele>49.5</ele>
        <time>2021-05-13T11:05:49Z</time>
      </trkpt>
      <trkpt lat="44.92847" lon="-0.81929">
        <ele>49.5</ele>
        <time>2021-05-13T11:05:40Z</time>
      </trkpt>
      <trkpt lat="44.9283" lon="-0.81902">
        <ele>49.6</ele>
        <time>2021-05-13T11:05:36Z</time>
      </trkpt>
      <trkpt lat="44.92826" lon="-0.81895">
        <ele>49.6</ele>
        <time>2021-05-13T11:05:35Z</time>
      </trkpt>
      <trkpt lat="44.92794" lon="-0.81841">
        <ele>49.6</ele>
        <time>2021-05-13T11:05:27Z</time>
      </trkpt>
      <trkpt lat="44.92766" lon="-0.81794">
        <ele>49.4</ele>
        <time>2021-05-13T11:05:20Z</time>
      </trkpt>
      <trkpt lat="44.92734" lon="-0.8174">
        <ele>49.2</ele>
        <time>2021-05-13T11:05:12Z</time>
      </trkpt>
      <trkpt lat="44.92696" lon="-0.81679">
        <ele>49.2</ele>
        <time>2021-05-13T11:05:03Z</time>
      </trkpt>
      <trkpt lat="44.92688" lon="-0.81666">
        <ele>49.2</ele>
        <time>2021-05-13T11:05:01Z</time>
      </trkpt>
      <trkpt lat="44.92663" lon="-0.81624">
        <ele>49.2</ele>
        <time>2021-05-13T11:04:55Z</time>
      </trkpt>
      <trkpt lat="44.92632" lon="-0.81574">
        <ele>49.1</ele>
        <time>2021-05-13T11:04:48Z</time>
      </trkpt>
      <trkpt lat="44.92602" lon="-0.81523">
        <ele>49</ele>
        <time>2021-05-13T11:04:41Z</time>
      </trkpt>
      <trkpt lat="44.9259" lon="-0.81502">
        <ele>48.9</ele>
        <time>2021-05-13T11:04:38Z</time>
      </trkpt>
      <trkpt lat="44.92578" lon="-0.81481">
        <ele>48.9</ele>
        <time>2021-05-13T11:04:35Z</time>
      </trkpt>
      <trkpt lat="44.92545" lon="-0.81426">
        <ele>48.9</ele>
        <time>2021-05-13T11:04:27Z</time>
      </trkpt>
      <trkpt lat="44.92541" lon="-0.81419">
        <ele>48.9</ele>
        <time>2021-05-13T11:04:26Z</time>
      </trkpt>
      <trkpt lat="44.92505" lon="-0.81358">
        <ele>48.8</ele>
        <time>2021-05-13T11:04:17Z</time>
      </trkpt>
      <trkpt lat="44.92488" lon="-0.81332">
        <ele>48.8</ele>
        <time>2021-05-13T11:04:13Z</time>
      </trkpt>
      <trkpt lat="44.92484" lon="-0.81325">
        <ele>48.8</ele>
        <time>2021-05-13T11:04:12Z</time>
      </trkpt>
      <trkpt lat="44.92456" lon="-0.81279">
        <ele>48.8</ele>
        <time>2021-05-13T11:04:05Z</time>
      </trkpt>
      <trkpt lat="44.9242" lon="-0.81219">
        <ele>48.7</ele>
        <time>2021-05-13T11:03:56Z</time>
      </trkpt>
      <trkpt lat="44.92416" lon="-0.81212">
        <ele>48.7</ele>
        <time>2021-05-13T11:03:55Z</time>
      </trkpt>
      <trkpt lat="44.9238" lon="-0.81151">
        <ele>48.6</ele>
        <time>2021-05-13T11:03:46Z</time>
      </trkpt>
      <trkpt lat="44.92376" lon="-0.81144">
        <ele>48.6</ele>
        <time>2021-05-13T11:03:45Z</time>
      </trkpt>
      <trkpt lat="44.92341" lon="-0.81086">
        <ele>48.5</ele>
        <time>2021-05-13T11:03:36Z</time>
      </trkpt>
      <trkpt lat="44.92305" lon="-0.81028">
        <ele>48.4</ele>
        <time>2021-05-13T11:03:27Z</time>
      </trkpt>
      <trkpt lat="44.92274" lon="-0.80975">
        <ele>48.5</ele>
        <time>2021-05-13T11:03:19Z</time>
      </trkpt>
      <trkpt lat="44.92246" lon="-0.8093">
        <ele>48.5</ele>
        <time>2021-05-13T11:03:12Z</time>
      </trkpt>
      <trkpt lat="44.92219" lon="-0.80883">
        <ele>48.5</ele>
        <time>2021-05-13T11:03:05Z</time>
      </trkpt>
      <trkpt lat="44.92192" lon="-0.80839">
        <ele>48.5</ele>
        <time>2021-05-13T11:02:58Z</time>
      </trkpt>
      <trkpt lat="44.92181" lon="-0.8082">
        <ele>48.5</ele>
        <time>2021-05-13T11:02:55Z</time>
      </trkpt>
      <trkpt lat="44.92161" lon="-0.80787">
        <ele>48.4</ele>
        <time>2021-05-13T11:02:50Z</time>
      </trkpt>
      <trkpt lat="44.9215" lon="-0.80768">
        <ele>48.3</ele>
        <time>2021-05-13T11:02:47Z</time>
      </trkpt>
      <trkpt lat="44.92146" lon="-0.80762">
        <ele>48.3</ele>
        <time>2021-05-13T11:02:46Z</time>
      </trkpt>
      <trkpt lat="44.92118" lon="-0.80717">
        <ele>48.2</ele>
        <time>2021-05-13T11:02:39Z</time>
      </trkpt>
      <trkpt lat="44.92089" lon="-0.80666">
        <ele>48.1</ele>
        <time>2021-05-13T11:02:31Z</time>
      </trkpt>
      <trkpt lat="44.92063" lon="-0.80624">
        <ele>48.1</ele>
        <time>2021-05-13T11:02:24Z</time>
      </trkpt>
      <trkpt lat="44.9203" lon="-0.8057">
        <ele>48.1</ele>
        <time>2021-05-13T11:02:15Z</time>
      </trkpt>
      <trkpt lat="44.92001" lon="-0.80522">
        <ele>48</ele>
        <time>2021-05-13T11:02:07Z</time>
      </trkpt>
      <trkpt lat="44.91994" lon="-0.8051">
        <ele>47.9</ele>
        <time>2021-05-13T11:02:05Z</time>
      </trkpt>
      <trkpt lat="44.91971" lon="-0.80473">
        <ele>47.8</ele>
        <time>2021-05-13T11:01:59Z</time>
      </trkpt>
      <trkpt lat="44.91939" lon="-0.80423">
        <ele>47.8</ele>
        <time>2021-05-13T11:01:51Z</time>
      </trkpt>
      <trkpt lat="44.91928" lon="-0.80406">
        <ele>47.8</ele>
        <time>2021-05-13T11:01:48Z</time>
      </trkpt>
      <trkpt lat="44.91922" lon="-0.80394">
        <ele>47.8</ele>
        <time>2021-05-13T11:01:46Z</time>
      </trkpt>
      <trkpt lat="44.91902" lon="-0.80365">
        <ele>47.8</ele>
        <time>2021-05-13T11:01:41Z</time>
      </trkpt>
      <trkpt lat="44.91875" lon="-0.80317">
        <ele>47.7</ele>
        <time>2021-05-13T11:01:33Z</time>
      </trkpt>
      <trkpt lat="44.91857" lon="-0.80283">
        <ele>47.7</ele>
        <time>2021-05-13T11:01:27Z</time>
      </trkpt>
      <trkpt lat="44.91853" lon="-0.80277">
        <ele>47.7</ele>
        <time>2021-05-13T11:01:26Z</time>
      </trkpt>
      <trkpt lat="44.91834" lon="-0.80247">
        <ele>47.6</ele>
        <time>2021-05-13T11:01:21Z</time>
      </trkpt>
      <trkpt lat="44.91824" lon="-0.80229">
        <ele>47.7</ele>
        <time>2021-05-13T11:01:18Z</time>
      </trkpt>
      <trkpt lat="44.91817" lon="-0.80217">
        <ele>47.6</ele>
        <time>2021-05-13T11:01:16Z</time>
      </trkpt>
      <trkpt lat="44.91803" lon="-0.80193">
        <ele>47.6</ele>
        <time>2021-05-13T11:01:12Z</time>
      </trkpt>
      <trkpt lat="44.91775" lon="-0.80146">
        <ele>47.6</ele>
        <time>2021-05-13T11:01:05Z</time>
      </trkpt>
      <trkpt lat="44.91763" lon="-0.80127">
        <ele>47.6</ele>
        <time>2021-05-13T11:01:02Z</time>
      </trkpt>
      <trkpt lat="44.91755" lon="-0.80115">
        <ele>47.7</ele>
        <time>2021-05-13T11:01:00Z</time>
      </trkpt>
      <trkpt lat="44.91748" lon="-0.80102">
        <ele>47.6</ele>
        <time>2021-05-13T11:00:58Z</time>
      </trkpt>
      <trkpt lat="44.91729" lon="-0.8007">
        <ele>47.4</ele>
        <time>2021-05-13T11:00:53Z</time>
      </trkpt>
      <trkpt lat="44.91705" lon="-0.80029">
        <ele>47.4</ele>
        <time>2021-05-13T11:00:47Z</time>
      </trkpt>
      <trkpt lat="44.91687" lon="-0.79998">
        <ele>47.4</ele>
        <time>2021-05-13T11:00:42Z</time>
      </trkpt>
      <trkpt lat="44.91679" lon="-0.79988">
        <ele>47.3</ele>
        <time>2021-05-13T11:00:40Z</time>
      </trkpt>
      <trkpt lat="44.91673" lon="-0.79976">
        <ele>47.3</ele>
        <time>2021-05-13T11:00:38Z</time>
      </trkpt>
      <trkpt lat="44.91666" lon="-0.79964">
        <ele>47.2</ele>
        <time>2021-05-13T11:00:36Z</time>
      </trkpt>
      <trkpt lat="44.91651" lon="-0.79939">
        <ele>47.1</ele>
        <time>2021-05-13T11:00:32Z</time>
      </trkpt>
      <trkpt lat="44.9164" lon="-0.7992">
        <ele>47.1</ele>
        <time>2021-05-13T11:00:29Z</time>
      </trkpt>
      <trkpt lat="44.91636" lon="-0.79914">
        <ele>47.1</ele>
        <time>2021-05-13T11:00:28Z</time>
      </trkpt>
      <trkpt lat="44.91632" lon="-0.79908">
        <ele>47</ele>
        <time>2021-05-13T11:00:27Z</time>
      </trkpt>
      <trkpt lat="44.91606" lon="-0.79866">
        <ele>46.9</ele>
        <time>2021-05-13T11:00:20Z</time>
      </trkpt>
      <trkpt lat="44.91581" lon="-0.79823">
        <ele>46.8</ele>
        <time>2021-05-13T11:00:13Z</time>
      </trkpt>
      <trkpt lat="44.9155" lon="-0.79773">
        <ele>46.5</ele>
        <time>2021-05-13T11:00:05Z</time>
      </trkpt>
      <trkpt lat="44.91518" lon="-0.7972">
        <ele>46.4</ele>
        <time>2021-05-13T10:59:57Z</time>
      </trkpt>
      <trkpt lat="44.91488" lon="-0.79671">
        <ele>46.3</ele>
        <time>2021-05-13T10:59:50Z</time>
      </trkpt>
      <trkpt lat="44.91478" lon="-0.79657">
        <ele>46.3</ele>
        <time>2021-05-13T10:59:48Z</time>
      </trkpt>
      <trkpt lat="44.91462" lon="-0.79625">
        <ele>46.2</ele>
        <time>2021-05-13T10:59:44Z</time>
      </trkpt>
      <trkpt lat="44.91457" lon="-0.79617">
        <ele>46.2</ele>
        <time>2021-05-13T10:59:43Z</time>
      </trkpt>
      <trkpt lat="44.91434" lon="-0.79574">
        <ele>46.2</ele>
        <time>2021-05-13T10:59:38Z</time>
      </trkpt>
      <trkpt lat="44.9142" lon="-0.79551">
        <ele>46.2</ele>
        <time>2021-05-13T10:59:35Z</time>
      </trkpt>
      <trkpt lat="44.91415" lon="-0.79544">
        <ele>46.1</ele>
        <time>2021-05-13T10:59:34Z</time>
      </trkpt>
      <trkpt lat="44.91411" lon="-0.79538">
        <ele>46.1</ele>
        <time>2021-05-13T10:59:33Z</time>
      </trkpt>
      <trkpt lat="44.91407" lon="-0.79531">
        <ele>46.1</ele>
        <time>2021-05-13T10:59:32Z</time>
      </trkpt>
      <trkpt lat="44.91403" lon="-0.79524">
        <ele>46.1</ele>
        <time>2021-05-13T10:59:31Z</time>
      </trkpt>
      <trkpt lat="44.9138" lon="-0.79484">
        <ele>46</ele>
        <time>2021-05-13T10:59:26Z</time>
      </trkpt>
      <trkpt lat="44.91344" lon="-0.79426">
        <ele>45.9</ele>
        <time>2021-05-13T10:59:19Z</time>
      </trkpt>
      <trkpt lat="44.91339" lon="-0.79417">
        <ele>45.9</ele>
        <time>2021-05-13T10:59:18Z</time>
      </trkpt>
      <trkpt lat="44.9133" lon="-0.79401">
        <ele>45.8</ele>
        <time>2021-05-13T10:59:16Z</time>
      </trkpt>
      <trkpt lat="44.91325" lon="-0.79392">
        <ele>45.8</ele>
        <time>2021-05-13T10:59:15Z</time>
      </trkpt>
      <trkpt lat="44.91311" lon="-0.79366">
        <ele>45.7</ele>
        <time>2021-05-13T10:59:12Z</time>
      </trkpt>
      <trkpt lat="44.91307" lon="-0.79358">
        <ele>45.7</ele>
        <time>2021-05-13T10:59:11Z</time>
      </trkpt>
      <trkpt lat="44.91303" lon="-0.7935">
        <ele>45.7</ele>
        <time>2021-05-13T10:59:10Z</time>
      </trkpt>
      <trkpt lat="44.91293" lon="-0.79334">
        <ele>45.7</ele>
        <time>2021-05-13T10:59:08Z</time>
      </trkpt>
      <trkpt lat="44.91284" lon="-0.79318">
        <ele>45.7</ele>
        <time>2021-05-13T10:59:06Z</time>
      </trkpt>
      <trkpt lat="44.9128" lon="-0.79311">
        <ele>45.7</ele>
        <time>2021-05-13T10:59:05Z</time>
      </trkpt>
      <trkpt lat="44.91265" lon="-0.79289">
        <ele>45.8</ele>
        <time>2021-05-13T10:59:02Z</time>
      </trkpt>
      <trkpt lat="44.9125" lon="-0.7927">
        <ele>45.7</ele>
        <time>2021-05-13T10:58:59Z</time>
      </trkpt>
      <trkpt lat="44.91241" lon="-0.79255">
        <ele>45.6</ele>
        <time>2021-05-13T10:58:57Z</time>
      </trkpt>
      <trkpt lat="44.91208" lon="-0.79201">
        <ele>45.6</ele>
        <time>2021-05-13T10:58:50Z</time>
      </trkpt>
      <trkpt lat="44.91169" lon="-0.79137">
        <ele>45.5</ele>
        <time>2021-05-13T10:58:42Z</time>
      </trkpt>
      <trkpt lat="44.91138" lon="-0.79088">
        <ele>45.4</ele>
        <time>2021-05-13T10:58:36Z</time>
      </trkpt>
      <trkpt lat="44.91109" lon="-0.79039">
        <ele>45.3</ele>
        <time>2021-05-13T10:58:30Z</time>
      </trkpt>
      <trkpt lat="44.91085" lon="-0.79">
        <ele>45.2</ele>
        <time>2021-05-13T10:58:25Z</time>
      </trkpt>
      <trkpt lat="44.91053" lon="-0.78946">
        <ele>45</ele>
        <time>2021-05-13T10:58:18Z</time>
      </trkpt>
      <trkpt lat="44.91034" lon="-0.78914">
        <ele>45</ele>
        <time>2021-05-13T10:58:14Z</time>
      </trkpt>
      <trkpt lat="44.91029" lon="-0.78906">
        <ele>45</ele>
        <time>2021-05-13T10:58:13Z</time>
      </trkpt>
      <trkpt lat="44.91024" lon="-0.78898">
        <ele>45</ele>
        <time>2021-05-13T10:58:12Z</time>
      </trkpt>
      <trkpt lat="44.91019" lon="-0.7889">
        <ele>45</ele>
        <time>2021-05-13T10:58:11Z</time>
      </trkpt>
      <trkpt lat="44.90987" lon="-0.78838">
        <ele>44.8</ele>
        <time>2021-05-13T10:58:04Z</time>
      </trkpt>
      <trkpt lat="44.9095" lon="-0.78774">
        <ele>44.7</ele>
        <time>2021-05-13T10:57:56Z</time>
      </trkpt>
      <trkpt lat="44.90936" lon="-0.78751">
        <ele>44.7</ele>
        <time>2021-05-13T10:57:53Z</time>
      </trkpt>
      <trkpt lat="44.90927" lon="-0.78737">
        <ele>44.7</ele>
        <time>2021-05-13T10:57:51Z</time>
      </trkpt>
      <trkpt lat="44.90899" lon="-0.78692">
        <ele>44.7</ele>
        <time>2021-05-13T10:57:45Z</time>
      </trkpt>
      <trkpt lat="44.90866" lon="-0.7864">
        <ele>44.7</ele>
        <time>2021-05-13T10:57:38Z</time>
      </trkpt>
      <trkpt lat="44.90836" lon="-0.78589">
        <ele>44.5</ele>
        <time>2021-05-13T10:57:31Z</time>
      </trkpt>
      <trkpt lat="44.90809" lon="-0.78546">
        <ele>44.5</ele>
        <time>2021-05-13T10:57:25Z</time>
      </trkpt>
      <trkpt lat="44.90776" lon="-0.78494">
        <ele>44.4</ele>
        <time>2021-05-13T10:57:18Z</time>
      </trkpt>
      <trkpt lat="44.90743" lon="-0.78438">
        <ele>44.4</ele>
        <time>2021-05-13T10:57:11Z</time>
      </trkpt>
      <trkpt lat="44.90715" lon="-0.7839">
        <ele>44.3</ele>
        <time>2021-05-13T10:57:05Z</time>
      </trkpt>
      <trkpt lat="44.90686" lon="-0.78343">
        <ele>44.3</ele>
        <time>2021-05-13T10:56:58Z</time>
      </trkpt>
      <trkpt lat="44.90659" lon="-0.78299">
        <ele>44.4</ele>
        <time>2021-05-13T10:56:52Z</time>
      </trkpt>
      <trkpt lat="44.90649" lon="-0.78278">
        <ele>44.4</ele>
        <time>2021-05-13T10:56:49Z</time>
      </trkpt>
      <trkpt lat="44.90641" lon="-0.78265">
        <ele>44.4</ele>
        <time>2021-05-13T10:56:47Z</time>
      </trkpt>
      <trkpt lat="44.90607" lon="-0.78209">
        <ele>44.2</ele>
        <time>2021-05-13T10:56:39Z</time>
      </trkpt>
      <trkpt lat="44.90568" lon="-0.78146">
        <ele>44.1</ele>
        <time>2021-05-13T10:56:30Z</time>
      </trkpt>
      <trkpt lat="44.90542" lon="-0.78099">
        <ele>44</ele>
        <time>2021-05-13T10:56:23Z</time>
      </trkpt>
      <trkpt lat="44.90515" lon="-0.78054">
        <ele>43.9</ele>
        <time>2021-05-13T10:56:16Z</time>
      </trkpt>
      <trkpt lat="44.90511" lon="-0.78048">
        <ele>43.9</ele>
        <time>2021-05-13T10:56:15Z</time>
      </trkpt>
      <trkpt lat="44.90497" lon="-0.78024">
        <ele>43.8</ele>
        <time>2021-05-13T10:56:11Z</time>
      </trkpt>
      <trkpt lat="44.9047" lon="-0.7798">
        <ele>43.8</ele>
        <time>2021-05-13T10:56:04Z</time>
      </trkpt>
      <trkpt lat="44.90439" lon="-0.7793">
        <ele>43.7</ele>
        <time>2021-05-13T10:55:56Z</time>
      </trkpt>
      <trkpt lat="44.90415" lon="-0.77887">
        <ele>43.5</ele>
        <time>2021-05-13T10:55:49Z</time>
      </trkpt>
      <trkpt lat="44.90386" lon="-0.77839">
        <ele>43.3</ele>
        <time>2021-05-13T10:55:41Z</time>
      </trkpt>
      <trkpt lat="44.90358" lon="-0.77792">
        <ele>43.2</ele>
        <time>2021-05-13T10:55:33Z</time>
      </trkpt>
      <trkpt lat="44.90344" lon="-0.77769">
        <ele>43.1</ele>
        <time>2021-05-13T10:55:29Z</time>
      </trkpt>
      <trkpt lat="44.90334" lon="-0.77753">
        <ele>43.1</ele>
        <time>2021-05-13T10:55:26Z</time>
      </trkpt>
      <trkpt lat="44.90306" lon="-0.77709">
        <ele>42.9</ele>
        <time>2021-05-13T10:55:18Z</time>
      </trkpt>
      <trkpt lat="44.90292" lon="-0.77684">
        <ele>42.8</ele>
        <time>2021-05-13T10:55:13Z</time>
      </trkpt>
      <trkpt lat="44.90276" lon="-0.77654">
        <ele>42.7</ele>
        <time>2021-05-13T10:55:07Z</time>
      </trkpt>
      <trkpt lat="44.90254" lon="-0.77617">
        <ele>42.6</ele>
        <time>2021-05-13T10:55:00Z</time>
      </trkpt>
      <trkpt lat="44.90226" lon="-0.77568">
        <ele>42.5</ele>
        <time>2021-05-13T10:54:52Z</time>
      </trkpt>
      <trkpt lat="44.90204" lon="-0.77533">
        <ele>42.4</ele>
        <time>2021-05-13T10:54:46Z</time>
      </trkpt>
      <trkpt lat="44.9018" lon="-0.77493">
        <ele>42.4</ele>
        <time>2021-05-13T10:54:40Z</time>
      </trkpt>
      <trkpt lat="44.90163" lon="-0.77461">
        <ele>42.4</ele>
        <time>2021-05-13T10:54:36Z</time>
      </trkpt>
      <trkpt lat="44.90159" lon="-0.77452">
        <ele>42.4</ele>
        <time>2021-05-13T10:54:35Z</time>
      </trkpt>
      <trkpt lat="44.90133" lon="-0.77407">
        <ele>42.5</ele>
        <time>2021-05-13T10:54:29Z</time>
      </trkpt>
      <trkpt lat="44.90097" lon="-0.77349">
        <ele>42.3</ele>
        <time>2021-05-13T10:54:21Z</time>
      </trkpt>
      <trkpt lat="44.90059" lon="-0.77291">
        <ele>42.3</ele>
        <time>2021-05-13T10:54:13Z</time>
      </trkpt>
      <trkpt lat="44.9005" lon="-0.77275">
        <ele>42.4</ele>
        <time>2021-05-13T10:54:11Z</time>
      </trkpt>
      <trkpt lat="44.90036" lon="-0.77251">
        <ele>42.4</ele>
        <time>2021-05-13T10:54:08Z</time>
      </trkpt>
      <trkpt lat="44.90025" lon="-0.77227">
        <ele>42.4</ele>
        <time>2021-05-13T10:54:05Z</time>
      </trkpt>
      <trkpt lat="44.90021" lon="-0.77221">
        <ele>42.4</ele>
        <time>2021-05-13T10:54:04Z</time>
      </trkpt>
      <trkpt lat="44.90001" lon="-0.77188">
        <ele>42.3</ele>
        <time>2021-05-13T10:53:59Z</time>
      </trkpt>
      <trkpt lat="44.89973" lon="-0.77147">
        <ele>42.1</ele>
        <time>2021-05-13T10:53:53Z</time>
      </trkpt>
      <trkpt lat="44.89967" lon="-0.77141">
        <ele>42.1</ele>
        <time>2021-05-13T10:53:52Z</time>
      </trkpt>
      <trkpt lat="44.89946" lon="-0.77108">
        <ele>42</ele>
        <time>2021-05-13T10:53:47Z</time>
      </trkpt>
      <trkpt lat="44.89917" lon="-0.7706">
        <ele>42.1</ele>
        <time>2021-05-13T10:53:40Z</time>
      </trkpt>
      <trkpt lat="44.8991" lon="-0.77048">
        <ele>42.2</ele>
        <time>2021-05-13T10:53:38Z</time>
      </trkpt>
      <trkpt lat="44.89905" lon="-0.77038">
        <ele>42.2</ele>
        <time>2021-05-13T10:53:36Z</time>
      </trkpt>
      <trkpt lat="44.89896" lon="-0.77024">
        <ele>42</ele>
        <time>2021-05-13T10:53:32Z</time>
      </trkpt>
      <trkpt lat="44.89892" lon="-0.7702">
        <ele>41.9</ele>
        <time>2021-05-13T10:53:31Z</time>
      </trkpt>
      <trkpt lat="44.89875" lon="-0.76991">
        <ele>41.3</ele>
        <time>2021-05-13T10:53:26Z</time>
      </trkpt>
      <trkpt lat="44.89847" lon="-0.76945">
        <ele>40.9</ele>
        <time>2021-05-13T10:53:19Z</time>
      </trkpt>
      <trkpt lat="44.89824" lon="-0.76906">
        <ele>40.6</ele>
        <time>2021-05-13T10:53:13Z</time>
      </trkpt>
      <trkpt lat="44.89798" lon="-0.7686">
        <ele>40.4</ele>
        <time>2021-05-13T10:53:06Z</time>
      </trkpt>
      <trkpt lat="44.89782" lon="-0.76834">
        <ele>40.3</ele>
        <time>2021-05-13T10:53:02Z</time>
      </trkpt>
      <trkpt lat="44.89778" lon="-0.76828">
        <ele>40.3</ele>
        <time>2021-05-13T10:53:01Z</time>
      </trkpt>
      <trkpt lat="44.89756" lon="-0.76788">
        <ele>40.2</ele>
        <time>2021-05-13T10:52:55Z</time>
      </trkpt>
      <trkpt lat="44.89752" lon="-0.76782">
        <ele>40.2</ele>
        <time>2021-05-13T10:52:54Z</time>
      </trkpt>
      <trkpt lat="44.89744" lon="-0.7677">
        <ele>40.2</ele>
        <time>2021-05-13T10:52:52Z</time>
      </trkpt>
      <trkpt lat="44.89731" lon="-0.76753">
        <ele>40.1</ele>
        <time>2021-05-13T10:52:49Z</time>
      </trkpt>
      <trkpt lat="44.89703" lon="-0.76708">
        <ele>40.3</ele>
        <time>2021-05-13T10:52:42Z</time>
      </trkpt>
      <trkpt lat="44.897" lon="-0.76701">
        <ele>40.4</ele>
        <time>2021-05-13T10:52:41Z</time>
      </trkpt>
      <trkpt lat="44.89689" lon="-0.76678">
        <ele>40.6</ele>
        <time>2021-05-13T10:52:37Z</time>
      </trkpt>
      <trkpt lat="44.89679" lon="-0.7666">
        <ele>40.5</ele>
        <time>2021-05-13T10:52:32Z</time>
      </trkpt>
      <trkpt lat="44.89663" lon="-0.76636">
        <ele>40.3</ele>
        <time>2021-05-13T10:52:27Z</time>
      </trkpt>
      <trkpt lat="44.89635" lon="-0.76588">
        <ele>40.2</ele>
        <time>2021-05-13T10:52:20Z</time>
      </trkpt>
      <trkpt lat="44.89631" lon="-0.76581">
        <ele>40.2</ele>
        <time>2021-05-13T10:52:19Z</time>
      </trkpt>
      <trkpt lat="44.89623" lon="-0.76568">
        <ele>40.2</ele>
        <time>2021-05-13T10:52:17Z</time>
      </trkpt>
      <trkpt lat="44.8961" lon="-0.76546">
        <ele>40.3</ele>
        <time>2021-05-13T10:52:14Z</time>
      </trkpt>
      <trkpt lat="44.89595" lon="-0.76518">
        <ele>40.4</ele>
        <time>2021-05-13T10:52:10Z</time>
      </trkpt>
      <trkpt lat="44.89586" lon="-0.76504">
        <ele>40.4</ele>
        <time>2021-05-13T10:52:08Z</time>
      </trkpt>
      <trkpt lat="44.89582" lon="-0.76497">
        <ele>40.4</ele>
        <time>2021-05-13T10:52:07Z</time>
      </trkpt>
      <trkpt lat="44.89558" lon="-0.76426">
        <ele>40.4</ele>
        <time>2021-05-13T10:51:59Z</time>
      </trkpt>
      <trkpt lat="44.89556" lon="-0.76402">
        <ele>40.3</ele>
        <time>2021-05-13T10:51:57Z</time>
      </trkpt>
      <trkpt lat="44.89543" lon="-0.76382">
        <ele>40.2</ele>
        <time>2021-05-13T10:51:54Z</time>
      </trkpt>
      <trkpt lat="44.89529" lon="-0.76365">
        <ele>40.2</ele>
        <time>2021-05-13T10:51:51Z</time>
      </trkpt>
      <trkpt lat="44.89519" lon="-0.76355">
        <ele>40.1</ele>
        <time>2021-05-13T10:51:49Z</time>
      </trkpt>
      <trkpt lat="44.89503" lon="-0.76342">
        <ele>39.9</ele>
        <time>2021-05-13T10:51:46Z</time>
      </trkpt>
      <trkpt lat="44.89493" lon="-0.76332">
        <ele>39.8</ele>
        <time>2021-05-13T10:51:44Z</time>
      </trkpt>
      <trkpt lat="44.89488" lon="-0.76328">
        <ele>39.8</ele>
        <time>2021-05-13T10:51:43Z</time>
      </trkpt>
      <trkpt lat="44.89478" lon="-0.76318">
        <ele>39.7</ele>
        <time>2021-05-13T10:51:41Z</time>
      </trkpt>
      <trkpt lat="44.89473" lon="-0.76313">
        <ele>39.7</ele>
        <time>2021-05-13T10:51:40Z</time>
      </trkpt>
      <trkpt lat="44.89463" lon="-0.76303">
        <ele>39.6</ele>
        <time>2021-05-13T10:51:38Z</time>
      </trkpt>
      <trkpt lat="44.89447" lon="-0.76279">
        <ele>39.4</ele>
        <time>2021-05-13T10:51:34Z</time>
      </trkpt>
      <trkpt lat="44.89419" lon="-0.76233">
        <ele>39.1</ele>
        <time>2021-05-13T10:51:27Z</time>
      </trkpt>
      <trkpt lat="44.89388" lon="-0.76181">
        <ele>38.6</ele>
        <time>2021-05-13T10:51:19Z</time>
      </trkpt>
      <trkpt lat="44.89355" lon="-0.76127">
        <ele>38.2</ele>
        <time>2021-05-13T10:51:10Z</time>
      </trkpt>
      <trkpt lat="44.89339" lon="-0.76097">
        <ele>38.3</ele>
        <time>2021-05-13T10:51:05Z</time>
      </trkpt>
      <trkpt lat="44.89335" lon="-0.76092">
        <ele>38.3</ele>
        <time>2021-05-13T10:51:04Z</time>
      </trkpt>
      <trkpt lat="44.89332" lon="-0.76087">
        <ele>38.2</ele>
        <time>2021-05-13T10:51:03Z</time>
      </trkpt>
      <trkpt lat="44.89325" lon="-0.76078">
        <ele>38.2</ele>
        <time>2021-05-13T10:51:00Z</time>
      </trkpt>
      <trkpt lat="44.89322" lon="-0.76068">
        <ele>38</ele>
        <time>2021-05-13T10:50:58Z</time>
      </trkpt>
      <trkpt lat="44.89312" lon="-0.76045">
        <ele>37.5</ele>
        <time>2021-05-13T10:50:54Z</time>
      </trkpt>
      <trkpt lat="44.89291" lon="-0.76008">
        <ele>37</ele>
        <time>2021-05-13T10:50:48Z</time>
      </trkpt>
      <trkpt lat="44.89265" lon="-0.75956">
        <ele>36.5</ele>
        <time>2021-05-13T10:50:41Z</time>
      </trkpt>
      <trkpt lat="44.8924" lon="-0.75896">
        <ele>36.3</ele>
        <time>2021-05-13T10:50:33Z</time>
      </trkpt>
      <trkpt lat="44.89221" lon="-0.75846">
        <ele>36.2</ele>
        <time>2021-05-13T10:50:26Z</time>
      </trkpt>
      <trkpt lat="44.89203" lon="-0.75801">
        <ele>36.2</ele>
        <time>2021-05-13T10:50:20Z</time>
      </trkpt>
      <trkpt lat="44.89195" lon="-0.75779">
        <ele>36.2</ele>
        <time>2021-05-13T10:50:17Z</time>
      </trkpt>
      <trkpt lat="44.89189" lon="-0.75764">
        <ele>36.2</ele>
        <time>2021-05-13T10:50:15Z</time>
      </trkpt>
      <trkpt lat="44.89184" lon="-0.7575">
        <ele>36.2</ele>
        <time>2021-05-13T10:50:13Z</time>
      </trkpt>
      <trkpt lat="44.89178" lon="-0.75728">
        <ele>36.2</ele>
        <time>2021-05-13T10:50:10Z</time>
      </trkpt>
      <trkpt lat="44.89171" lon="-0.75705">
        <ele>36.3</ele>
        <time>2021-05-13T10:50:07Z</time>
      </trkpt>
      <trkpt lat="44.89169" lon="-0.75697">
        <ele>36.3</ele>
        <time>2021-05-13T10:50:06Z</time>
      </trkpt>
      <trkpt lat="44.89165" lon="-0.75675">
        <ele>36.2</ele>
        <time>2021-05-13T10:50:03Z</time>
      </trkpt>
      <trkpt lat="44.89163" lon="-0.75669">
        <ele>36.2</ele>
        <time>2021-05-13T10:50:02Z</time>
      </trkpt>
      <trkpt lat="44.89149" lon="-0.75628">
        <ele>35.7</ele>
        <time>2021-05-13T10:49:55Z</time>
      </trkpt>
      <trkpt lat="44.89146" lon="-0.75616">
        <ele>35.6</ele>
        <time>2021-05-13T10:49:53Z</time>
      </trkpt>
      <trkpt lat="44.8914" lon="-0.75597">
        <ele>35.5</ele>
        <time>2021-05-13T10:49:50Z</time>
      </trkpt>
      <trkpt lat="44.89135" lon="-0.75577">
        <ele>35.4</ele>
        <time>2021-05-13T10:49:47Z</time>
      </trkpt>
      <trkpt lat="44.89133" lon="-0.7557">
        <ele>35.4</ele>
        <time>2021-05-13T10:49:46Z</time>
      </trkpt>
      <trkpt lat="44.89129" lon="-0.75564">
        <ele>35.3</ele>
        <time>2021-05-13T10:49:45Z</time>
      </trkpt>
      <trkpt lat="44.89117" lon="-0.75528">
        <ele>35.2</ele>
        <time>2021-05-13T10:49:40Z</time>
      </trkpt>
      <trkpt lat="44.89105" lon="-0.75483">
        <ele>35.1</ele>
        <time>2021-05-13T10:49:34Z</time>
      </trkpt>
      <trkpt lat="44.89089" lon="-0.75418">
        <ele>35</ele>
        <time>2021-05-13T10:49:26Z</time>
      </trkpt>
      <trkpt lat="44.89077" lon="-0.7537">
        <ele>34.7</ele>
        <time>2021-05-13T10:49:20Z</time>
      </trkpt>
      <trkpt lat="44.89071" lon="-0.75348">
        <ele>34.6</ele>
        <time>2021-05-13T10:49:17Z</time>
      </trkpt>
      <trkpt lat="44.89069" lon="-0.75341">
        <ele>34.6</ele>
        <time>2021-05-13T10:49:16Z</time>
      </trkpt>
      <trkpt lat="44.89059" lon="-0.75286">
        <ele>34.2</ele>
        <time>2021-05-13T10:49:09Z</time>
      </trkpt>
      <trkpt lat="44.89052" lon="-0.75237">
        <ele>34</ele>
        <time>2021-05-13T10:49:03Z</time>
      </trkpt>
      <trkpt lat="44.89051" lon="-0.75228">
        <ele>34</ele>
        <time>2021-05-13T10:49:02Z</time>
      </trkpt>
      <trkpt lat="44.89043" lon="-0.7521">
        <ele>34</ele>
        <time>2021-05-13T10:48:59Z</time>
      </trkpt>
      <trkpt lat="44.89038" lon="-0.75198">
        <ele>34</ele>
        <time>2021-05-13T10:48:57Z</time>
      </trkpt>
      <trkpt lat="44.89038" lon="-0.75185">
        <ele>34.1</ele>
        <time>2021-05-13T10:48:55Z</time>
      </trkpt>
      <trkpt lat="44.89037" lon="-0.75178">
        <ele>34.2</ele>
        <time>2021-05-13T10:48:54Z</time>
      </trkpt>
      <trkpt lat="44.89037" lon="-0.75165">
        <ele>34.2</ele>
        <time>2021-05-13T10:48:52Z</time>
      </trkpt>
      <trkpt lat="44.89037" lon="-0.75158">
        <ele>34.2</ele>
        <time>2021-05-13T10:48:51Z</time>
      </trkpt>
      <trkpt lat="44.89036" lon="-0.75152">
        <ele>34.2</ele>
        <time>2021-05-13T10:48:50Z</time>
      </trkpt>
      <trkpt lat="44.89032" lon="-0.75129">
        <ele>34</ele>
        <time>2021-05-13T10:48:46Z</time>
      </trkpt>
      <trkpt lat="44.89027" lon="-0.75102">
        <ele>33.7</ele>
        <time>2021-05-13T10:48:41Z</time>
      </trkpt>
      <trkpt lat="44.89025" lon="-0.75089">
        <ele>33.6</ele>
        <time>2021-05-13T10:48:39Z</time>
      </trkpt>
      <trkpt lat="44.89022" lon="-0.75076">
        <ele>33.5</ele>
        <time>2021-05-13T10:48:37Z</time>
      </trkpt>
      <trkpt lat="44.89021" lon="-0.75068">
        <ele>33.4</ele>
        <time>2021-05-13T10:48:36Z</time>
      </trkpt>
      <trkpt lat="44.89017" lon="-0.75025">
        <ele>33.2</ele>
        <time>2021-05-13T10:48:31Z</time>
      </trkpt>
      <trkpt lat="44.89016" lon="-0.75008">
        <ele>33.1</ele>
        <time>2021-05-13T10:48:29Z</time>
      </trkpt>
      <trkpt lat="44.89012" lon="-0.74994">
        <ele>33</ele>
        <time>2021-05-13T10:48:27Z</time>
      </trkpt>
      <trkpt lat="44.89007" lon="-0.74969">
        <ele>32.9</ele>
        <time>2021-05-13T10:48:24Z</time>
      </trkpt>
      <trkpt lat="44.89003" lon="-0.74954">
        <ele>32.9</ele>
        <time>2021-05-13T10:48:22Z</time>
      </trkpt>
      <trkpt lat="44.89" lon="-0.74938">
        <ele>32.9</ele>
        <time>2021-05-13T10:48:20Z</time>
      </trkpt>
      <trkpt lat="44.88995" lon="-0.74912">
        <ele>32.9</ele>
        <time>2021-05-13T10:48:17Z</time>
      </trkpt>
      <trkpt lat="44.8899" lon="-0.74878">
        <ele>32.7</ele>
        <time>2021-05-13T10:48:13Z</time>
      </trkpt>
      <trkpt lat="44.88989" lon="-0.7487">
        <ele>32.7</ele>
        <time>2021-05-13T10:48:12Z</time>
      </trkpt>
      <trkpt lat="44.88986" lon="-0.74804">
        <ele>32.4</ele>
        <time>2021-05-13T10:48:04Z</time>
      </trkpt>
      <trkpt lat="44.88984" lon="-0.74757">
        <ele>32.2</ele>
        <time>2021-05-13T10:47:58Z</time>
      </trkpt>
      <trkpt lat="44.88983" lon="-0.747">
        <ele>31.9</ele>
        <time>2021-05-13T10:47:51Z</time>
      </trkpt>
      <trkpt lat="44.88983" lon="-0.74651">
        <ele>31.8</ele>
        <time>2021-05-13T10:47:45Z</time>
      </trkpt>
      <trkpt lat="44.88981" lon="-0.74634">
        <ele>31.7</ele>
        <time>2021-05-13T10:47:43Z</time>
      </trkpt>
      <trkpt lat="44.88983" lon="-0.74611">
        <ele>31.6</ele>
        <time>2021-05-13T10:47:40Z</time>
      </trkpt>
      <trkpt lat="44.88984" lon="-0.74596">
        <ele>31.5</ele>
        <time>2021-05-13T10:47:38Z</time>
      </trkpt>
      <trkpt lat="44.88982" lon="-0.74572">
        <ele>31.4</ele>
        <time>2021-05-13T10:47:35Z</time>
      </trkpt>
      <trkpt lat="44.88979" lon="-0.74556">
        <ele>31.4</ele>
        <time>2021-05-13T10:47:33Z</time>
      </trkpt>
      <trkpt lat="44.88977" lon="-0.74524">
        <ele>31.4</ele>
        <time>2021-05-13T10:47:29Z</time>
      </trkpt>
      <trkpt lat="44.88976" lon="-0.74516">
        <ele>31.4</ele>
        <time>2021-05-13T10:47:28Z</time>
      </trkpt>
      <trkpt lat="44.88975" lon="-0.74501">
        <ele>31.3</ele>
        <time>2021-05-13T10:47:26Z</time>
      </trkpt>
      <trkpt lat="44.88975" lon="-0.74493">
        <ele>31.3</ele>
        <time>2021-05-13T10:47:25Z</time>
      </trkpt>
      <trkpt lat="44.88975" lon="-0.74486">
        <ele>31.3</ele>
        <time>2021-05-13T10:47:24Z</time>
      </trkpt>
      <trkpt lat="44.88977" lon="-0.74447">
        <ele>31.1</ele>
        <time>2021-05-13T10:47:19Z</time>
      </trkpt>
      <trkpt lat="44.88974" lon="-0.74409">
        <ele>31</ele>
        <time>2021-05-13T10:47:14Z</time>
      </trkpt>
      <trkpt lat="44.88974" lon="-0.74366">
        <ele>30.8</ele>
        <time>2021-05-13T10:47:08Z</time>
      </trkpt>
      <trkpt lat="44.88976" lon="-0.74351">
        <ele>30.8</ele>
        <time>2021-05-13T10:47:06Z</time>
      </trkpt>
      <trkpt lat="44.88975" lon="-0.74319">
        <ele>30.7</ele>
        <time>2021-05-13T10:47:02Z</time>
      </trkpt>
      <trkpt lat="44.88976" lon="-0.74296">
        <ele>30.6</ele>
        <time>2021-05-13T10:46:59Z</time>
      </trkpt>
      <trkpt lat="44.88976" lon="-0.7429">
        <ele>30.5</ele>
        <time>2021-05-13T10:46:58Z</time>
      </trkpt>
      <trkpt lat="44.88979" lon="-0.74275">
        <ele>30.4</ele>
        <time>2021-05-13T10:46:54Z</time>
      </trkpt>
      <trkpt lat="44.88979" lon="-0.7427">
        <ele>30.4</ele>
        <time>2021-05-13T10:46:45Z</time>
      </trkpt>
      <trkpt lat="44.88979" lon="-0.74267">
        <ele>30.4</ele>
        <time>2021-05-13T10:46:40Z</time>
      </trkpt>
      <trkpt lat="44.88979" lon="-0.74252">
        <ele>30.3</ele>
        <time>2021-05-13T10:46:36Z</time>
      </trkpt>
      <trkpt lat="44.88968" lon="-0.7423">
        <ele>30</ele>
        <time>2021-05-13T10:46:32Z</time>
      </trkpt>
      <trkpt lat="44.88967" lon="-0.74223">
        <ele>29.9</ele>
        <time>2021-05-13T10:46:31Z</time>
      </trkpt>
      <trkpt lat="44.88965" lon="-0.742">
        <ele>29.8</ele>
        <time>2021-05-13T10:46:28Z</time>
      </trkpt>
      <trkpt lat="44.88962" lon="-0.74187">
        <ele>29.7</ele>
        <time>2021-05-13T10:46:26Z</time>
      </trkpt>
      <trkpt lat="44.88959" lon="-0.74151">
        <ele>29.6</ele>
        <time>2021-05-13T10:46:22Z</time>
      </trkpt>
      <trkpt lat="44.88958" lon="-0.74097">
        <ele>29.7</ele>
        <time>2021-05-13T10:46:16Z</time>
      </trkpt>
      <trkpt lat="44.88958" lon="-0.74056">
        <ele>29.5</ele>
        <time>2021-05-13T10:46:11Z</time>
      </trkpt>
      <trkpt lat="44.88958" lon="-0.74015">
        <ele>29.4</ele>
        <time>2021-05-13T10:46:06Z</time>
      </trkpt>
      <trkpt lat="44.88959" lon="-0.73998">
        <ele>29.4</ele>
        <time>2021-05-13T10:46:04Z</time>
      </trkpt>
      <trkpt lat="44.88961" lon="-0.73989">
        <ele>29.3</ele>
        <time>2021-05-13T10:46:03Z</time>
      </trkpt>
      <trkpt lat="44.88964" lon="-0.73954">
        <ele>29.3</ele>
        <time>2021-05-13T10:45:59Z</time>
      </trkpt>
      <trkpt lat="44.88965" lon="-0.73944">
        <ele>29.2</ele>
        <time>2021-05-13T10:45:58Z</time>
      </trkpt>
      <trkpt lat="44.88966" lon="-0.73935">
        <ele>29.2</ele>
        <time>2021-05-13T10:45:57Z</time>
      </trkpt>
      <trkpt lat="44.88969" lon="-0.73895">
        <ele>29.2</ele>
        <time>2021-05-13T10:45:53Z</time>
      </trkpt>
      <trkpt lat="44.88973" lon="-0.73865">
        <ele>29.1</ele>
        <time>2021-05-13T10:45:50Z</time>
      </trkpt>
      <trkpt lat="44.88972" lon="-0.73851">
        <ele>29.1</ele>
        <time>2021-05-13T10:45:48Z</time>
      </trkpt>
      <trkpt lat="44.88971" lon="-0.73813">
        <ele>29</ele>
        <time>2021-05-13T10:45:43Z</time>
      </trkpt>
      <trkpt lat="44.88973" lon="-0.73782">
        <ele>28.9</ele>
        <time>2021-05-13T10:45:39Z</time>
      </trkpt>
      <trkpt lat="44.88971" lon="-0.73751">
        <ele>28.8</ele>
        <time>2021-05-13T10:45:34Z</time>
      </trkpt>
      <trkpt lat="44.8897" lon="-0.73737">
        <ele>28.7</ele>
        <time>2021-05-13T10:45:32Z</time>
      </trkpt>
      <trkpt lat="44.88972" lon="-0.73721">
        <ele>28.7</ele>
        <time>2021-05-13T10:45:30Z</time>
      </trkpt>
      <trkpt lat="44.88976" lon="-0.73671">
        <ele>28.5</ele>
        <time>2021-05-13T10:45:24Z</time>
      </trkpt>
      <trkpt lat="44.8898" lon="-0.73623">
        <ele>28.3</ele>
        <time>2021-05-13T10:45:18Z</time>
      </trkpt>
      <trkpt lat="44.88983" lon="-0.73597">
        <ele>28.3</ele>
        <time>2021-05-13T10:45:14Z</time>
      </trkpt>
      <trkpt lat="44.88985" lon="-0.73576">
        <ele>28.1</ele>
        <time>2021-05-13T10:45:09Z</time>
      </trkpt>
      <trkpt lat="44.8899" lon="-0.73533">
        <ele>27.8</ele>
        <time>2021-05-13T10:45:03Z</time>
      </trkpt>
      <trkpt lat="44.88995" lon="-0.73493">
        <ele>27.8</ele>
        <time>2021-05-13T10:44:58Z</time>
      </trkpt>
      <trkpt lat="44.89" lon="-0.73453">
        <ele>27.7</ele>
        <time>2021-05-13T10:44:53Z</time>
      </trkpt>
      <trkpt lat="44.89001" lon="-0.73444">
        <ele>27.7</ele>
        <time>2021-05-13T10:44:52Z</time>
      </trkpt>
      <trkpt lat="44.8901" lon="-0.73386">
        <ele>27.6</ele>
        <time>2021-05-13T10:44:45Z</time>
      </trkpt>
      <trkpt lat="44.89023" lon="-0.73318">
        <ele>27.4</ele>
        <time>2021-05-13T10:44:37Z</time>
      </trkpt>
      <trkpt lat="44.89034" lon="-0.73259">
        <ele>27.2</ele>
        <time>2021-05-13T10:44:30Z</time>
      </trkpt>
      <trkpt lat="44.89043" lon="-0.73218">
        <ele>27.1</ele>
        <time>2021-05-13T10:44:25Z</time>
      </trkpt>
      <trkpt lat="44.89044" lon="-0.73211">
        <ele>27.1</ele>
        <time>2021-05-13T10:44:24Z</time>
      </trkpt>
      <trkpt lat="44.89048" lon="-0.73199">
        <ele>27.1</ele>
        <time>2021-05-13T10:44:22Z</time>
      </trkpt>
      <trkpt lat="44.89051" lon="-0.73188">
        <ele>27</ele>
        <time>2021-05-13T10:44:20Z</time>
      </trkpt>
      <trkpt lat="44.89053" lon="-0.73182">
        <ele>27</ele>
        <time>2021-05-13T10:44:19Z</time>
      </trkpt>
      <trkpt lat="44.89057" lon="-0.73167">
        <ele>26.9</ele>
        <time>2021-05-13T10:44:16Z</time>
      </trkpt>
      <trkpt lat="44.8906" lon="-0.73146">
        <ele>26.9</ele>
        <time>2021-05-13T10:44:11Z</time>
      </trkpt>
      <trkpt lat="44.89068" lon="-0.73115">
        <ele>26.8</ele>
        <time>2021-05-13T10:44:06Z</time>
      </trkpt>
      <trkpt lat="44.8907" lon="-0.73108">
        <ele>26.8</ele>
        <time>2021-05-13T10:44:05Z</time>
      </trkpt>
      <trkpt lat="44.89078" lon="-0.73073">
        <ele>26.7</ele>
        <time>2021-05-13T10:44:00Z</time>
      </trkpt>
      <trkpt lat="44.89079" lon="-0.73067">
        <ele>26.7</ele>
        <time>2021-05-13T10:43:59Z</time>
      </trkpt>
      <trkpt lat="44.89088" lon="-0.73037">
        <ele>26.6</ele>
        <time>2021-05-13T10:43:54Z</time>
      </trkpt>
      <trkpt lat="44.89089" lon="-0.7303">
        <ele>26.6</ele>
        <time>2021-05-13T10:43:53Z</time>
      </trkpt>
      <trkpt lat="44.89092" lon="-0.73017">
        <ele>26.6</ele>
        <time>2021-05-13T10:43:51Z</time>
      </trkpt>
      <trkpt lat="44.89093" lon="-0.73011">
        <ele>26.5</ele>
        <time>2021-05-13T10:43:50Z</time>
      </trkpt>
      <trkpt lat="44.89105" lon="-0.72978">
        <ele>26.4</ele>
        <time>2021-05-13T10:43:45Z</time>
      </trkpt>
      <trkpt lat="44.89107" lon="-0.72972">
        <ele>26.4</ele>
        <time>2021-05-13T10:43:44Z</time>
      </trkpt>
      <trkpt lat="44.89122" lon="-0.72926">
        <ele>26.2</ele>
        <time>2021-05-13T10:43:37Z</time>
      </trkpt>
      <trkpt lat="44.89137" lon="-0.72877">
        <ele>26.1</ele>
        <time>2021-05-13T10:43:29Z</time>
      </trkpt>
      <trkpt lat="44.89152" lon="-0.72833">
        <ele>26</ele>
        <time>2021-05-13T10:43:22Z</time>
      </trkpt>
      <trkpt lat="44.89166" lon="-0.72786">
        <ele>25.9</ele>
        <time>2021-05-13T10:43:15Z</time>
      </trkpt>
      <trkpt lat="44.89175" lon="-0.72757">
        <ele>25.9</ele>
        <time>2021-05-13T10:43:11Z</time>
      </trkpt>
      <trkpt lat="44.89175" lon="-0.7275">
        <ele>25.9</ele>
        <time>2021-05-13T10:43:09Z</time>
      </trkpt>
      <trkpt lat="44.89177" lon="-0.72739">
        <ele>25.9</ele>
        <time>2021-05-13T10:43:07Z</time>
      </trkpt>
      <trkpt lat="44.8918" lon="-0.72727">
        <ele>25.9</ele>
        <time>2021-05-13T10:43:05Z</time>
      </trkpt>
      <trkpt lat="44.89183" lon="-0.7271">
        <ele>25.8</ele>
        <time>2021-05-13T10:43:02Z</time>
      </trkpt>
      <trkpt lat="44.89187" lon="-0.72679">
        <ele>25.8</ele>
        <time>2021-05-13T10:42:56Z</time>
      </trkpt>
      <trkpt lat="44.89191" lon="-0.72658">
        <ele>25.8</ele>
        <time>2021-05-13T10:42:52Z</time>
      </trkpt>
      <trkpt lat="44.89197" lon="-0.72627">
        <ele>25.9</ele>
        <time>2021-05-13T10:42:46Z</time>
      </trkpt>
      <trkpt lat="44.89203" lon="-0.72604">
        <ele>25.8</ele>
        <time>2021-05-13T10:42:41Z</time>
      </trkpt>
      <trkpt lat="44.89213" lon="-0.72562">
        <ele>25.8</ele>
        <time>2021-05-13T10:42:33Z</time>
      </trkpt>
      <trkpt lat="44.8922" lon="-0.72539">
        <ele>25.8</ele>
        <time>2021-05-13T10:42:28Z</time>
      </trkpt>
      <trkpt lat="44.89221" lon="-0.72529">
        <ele>25.8</ele>
        <time>2021-05-13T10:42:26Z</time>
      </trkpt>
      <trkpt lat="44.89221" lon="-0.72521">
        <ele>25.8</ele>
        <time>2021-05-13T10:42:24Z</time>
      </trkpt>
      <trkpt lat="44.89223" lon="-0.72516">
        <ele>25.8</ele>
        <time>2021-05-13T10:42:22Z</time>
      </trkpt>
      <trkpt lat="44.89227" lon="-0.72518">
        <ele>25.8</ele>
        <time>2021-05-13T10:42:19Z</time>
      </trkpt>
      <trkpt lat="44.89232" lon="-0.72529">
        <ele>25.8</ele>
        <time>2021-05-13T10:20:34Z</time>
      </trkpt>
      <trkpt lat="44.89231" lon="-0.72529">
        <ele>25.8</ele>
        <time>2021-05-13T10:20:29Z</time>
      </trkpt>
      <trkpt lat="44.89231" lon="-0.72525">
        <ele>25.8</ele>
        <time>2021-05-13T10:20:27Z</time>
      </trkpt>
      <trkpt lat="44.8923" lon="-0.72521">
        <ele>25.8</ele>
        <time>2021-05-13T10:20:26Z</time>
      </trkpt>
      <trkpt lat="44.8923" lon="-0.72511">
        <ele>25.8</ele>
        <time>2021-05-13T10:20:24Z</time>
      </trkpt>
      <trkpt lat="44.89239" lon="-0.72483">
        <ele>25.7</ele>
        <time>2021-05-13T10:20:20Z</time>
      </trkpt>
      <trkpt lat="44.89258" lon="-0.72433">
        <ele>25.7</ele>
        <time>2021-05-13T10:20:13Z</time>
      </trkpt>
      <trkpt lat="44.89282" lon="-0.7238">
        <ele>25.7</ele>
        <time>2021-05-13T10:20:05Z</time>
      </trkpt>
      <trkpt lat="44.89295" lon="-0.72356">
        <ele>25.7</ele>
        <time>2021-05-13T10:20:01Z</time>
      </trkpt>
      <trkpt lat="44.89298" lon="-0.7235">
        <ele>25.7</ele>
        <time>2021-05-13T10:20:00Z</time>
      </trkpt>
      <trkpt lat="44.89301" lon="-0.72345">
        <ele>25.7</ele>
        <time>2021-05-13T10:19:59Z</time>
      </trkpt>
      <trkpt lat="44.89307" lon="-0.72335">
        <ele>25.7</ele>
        <time>2021-05-13T10:19:57Z</time>
      </trkpt>
      <trkpt lat="44.89309" lon="-0.72329">
        <ele>25.8</ele>
        <time>2021-05-13T10:19:56Z</time>
      </trkpt>
      <trkpt lat="44.89311" lon="-0.72317">
        <ele>25.8</ele>
        <time>2021-05-13T10:19:54Z</time>
      </trkpt>
      <trkpt lat="44.89311" lon="-0.72307">
        <ele>25.7</ele>
        <time>2021-05-13T10:19:52Z</time>
      </trkpt>
      <trkpt lat="44.89312" lon="-0.72304">
        <ele>25.7</ele>
        <time>2021-05-13T10:19:51Z</time>
      </trkpt>
      <trkpt lat="44.89319" lon="-0.72294">
        <ele>25.7</ele>
        <time>2021-05-13T10:19:48Z</time>
      </trkpt>
      <trkpt lat="44.89325" lon="-0.72285">
        <ele>25.6</ele>
        <time>2021-05-13T10:19:43Z</time>
      </trkpt>
      <trkpt lat="44.89329" lon="-0.72278">
        <ele>25.6</ele>
        <time>2021-05-13T10:19:32Z</time>
      </trkpt>
      <trkpt lat="44.89336" lon="-0.72258">
        <ele>25.2</ele>
        <time>2021-05-13T10:19:27Z</time>
      </trkpt>
      <trkpt lat="44.89338" lon="-0.72252">
        <ele>25.1</ele>
        <time>2021-05-13T10:19:26Z</time>
      </trkpt>
      <trkpt lat="44.89342" lon="-0.7224">
        <ele>25</ele>
        <time>2021-05-13T10:19:24Z</time>
      </trkpt>
      <trkpt lat="44.89346" lon="-0.72228">
        <ele>24.9</ele>
        <time>2021-05-13T10:19:22Z</time>
      </trkpt>
      <trkpt lat="44.8936" lon="-0.72184">
        <ele>24.5</ele>
        <time>2021-05-13T10:19:15Z</time>
      </trkpt>
      <trkpt lat="44.89368" lon="-0.72152">
        <ele>24.3</ele>
        <time>2021-05-13T10:19:10Z</time>
      </trkpt>
      <trkpt lat="44.89376" lon="-0.72114">
        <ele>24.1</ele>
        <time>2021-05-13T10:19:04Z</time>
      </trkpt>
      <trkpt lat="44.89385" lon="-0.72067">
        <ele>23.7</ele>
        <time>2021-05-13T10:18:57Z</time>
      </trkpt>
      <trkpt lat="44.89392" lon="-0.7201">
        <ele>23.4</ele>
        <time>2021-05-13T10:18:49Z</time>
      </trkpt>
      <trkpt lat="44.89394" lon="-0.71959">
        <ele>23.3</ele>
        <time>2021-05-13T10:18:42Z</time>
      </trkpt>
      <trkpt lat="44.89392" lon="-0.71928">
        <ele>23.5</ele>
        <time>2021-05-13T10:18:37Z</time>
      </trkpt>
      <trkpt lat="44.89389" lon="-0.71901">
        <ele>23.2</ele>
        <time>2021-05-13T10:18:31Z</time>
      </trkpt>
      <trkpt lat="44.89387" lon="-0.71875">
        <ele>22.9</ele>
        <time>2021-05-13T10:18:25Z</time>
      </trkpt>
      <trkpt lat="44.89383" lon="-0.71851">
        <ele>22.7</ele>
        <time>2021-05-13T10:18:21Z</time>
      </trkpt>
      <trkpt lat="44.89379" lon="-0.71817">
        <ele>22.6</ele>
        <time>2021-05-13T10:18:16Z</time>
      </trkpt>
      <trkpt lat="44.89377" lon="-0.71803">
        <ele>22.6</ele>
        <time>2021-05-13T10:18:14Z</time>
      </trkpt>
      <trkpt lat="44.89371" lon="-0.71768">
        <ele>22.8</ele>
        <time>2021-05-13T10:18:08Z</time>
      </trkpt>
      <trkpt lat="44.89362" lon="-0.71742">
        <ele>22.5</ele>
        <time>2021-05-13T10:18:03Z</time>
      </trkpt>
      <trkpt lat="44.89355" lon="-0.71693">
        <ele>22.3</ele>
        <time>2021-05-13T10:17:56Z</time>
      </trkpt>
      <trkpt lat="44.89343" lon="-0.71643">
        <ele>22</ele>
        <time>2021-05-13T10:17:48Z</time>
      </trkpt>
      <trkpt lat="44.89338" lon="-0.7161">
        <ele>21.8</ele>
        <time>2021-05-13T10:17:42Z</time>
      </trkpt>
      <trkpt lat="44.89332" lon="-0.71589">
        <ele>21.7</ele>
        <time>2021-05-13T10:17:37Z</time>
      </trkpt>
      <trkpt lat="44.89328" lon="-0.71582">
        <ele>21.7</ele>
        <time>2021-05-13T10:17:33Z</time>
      </trkpt>
      <trkpt lat="44.89327" lon="-0.71583">
        <ele>21.7</ele>
        <time>2021-05-13T10:17:27Z</time>
      </trkpt>
      <trkpt lat="44.89326" lon="-0.7158">
        <ele>21.7</ele>
        <time>2021-05-13T09:46:14Z</time>
      </trkpt>
      <trkpt lat="44.89327" lon="-0.71575">
        <ele>21.7</ele>
        <time>2021-05-13T09:46:13Z</time>
      </trkpt>
      <trkpt lat="44.89327" lon="-0.71567">
        <ele>21.7</ele>
        <time>2021-05-13T09:46:11Z</time>
      </trkpt>
      <trkpt lat="44.89324" lon="-0.71553">
        <ele>21.6</ele>
        <time>2021-05-13T09:46:07Z</time>
      </trkpt>
      <trkpt lat="44.89319" lon="-0.71535">
        <ele>21.5</ele>
        <time>2021-05-13T09:46:03Z</time>
      </trkpt>
      <trkpt lat="44.89316" lon="-0.71523">
        <ele>21.5</ele>
        <time>2021-05-13T09:46:01Z</time>
      </trkpt>
      <trkpt lat="44.89314" lon="-0.71511">
        <ele>21.4</ele>
        <time>2021-05-13T09:45:59Z</time>
      </trkpt>
      <trkpt lat="44.89311" lon="-0.71496">
        <ele>21.4</ele>
        <time>2021-05-13T09:45:56Z</time>
      </trkpt>
      <trkpt lat="44.8931" lon="-0.71493">
        <ele>21.3</ele>
        <time>2021-05-13T09:45:55Z</time>
      </trkpt>
      <trkpt lat="44.89306" lon="-0.71484">
        <ele>21.2</ele>
        <time>2021-05-13T09:45:52Z</time>
      </trkpt>
      <trkpt lat="44.89296" lon="-0.7144">
        <ele>20.8</ele>
        <time>2021-05-13T09:45:45Z</time>
      </trkpt>
      <trkpt lat="44.89282" lon="-0.71381">
        <ele>20.6</ele>
        <time>2021-05-13T09:45:37Z</time>
      </trkpt>
      <trkpt lat="44.89273" lon="-0.71339">
        <ele>20.5</ele>
        <time>2021-05-13T09:45:31Z</time>
      </trkpt>
      <trkpt lat="44.89266" lon="-0.71289">
        <ele>20.3</ele>
        <time>2021-05-13T09:45:24Z</time>
      </trkpt>
      <trkpt lat="44.89261" lon="-0.71234">
        <ele>19.9</ele>
        <time>2021-05-13T09:45:17Z</time>
      </trkpt>
      <trkpt lat="44.89258" lon="-0.71179">
        <ele>19.7</ele>
        <time>2021-05-13T09:45:10Z</time>
      </trkpt>
      <trkpt lat="44.89259" lon="-0.7113">
        <ele>19.5</ele>
        <time>2021-05-13T09:45:04Z</time>
      </trkpt>
      <trkpt lat="44.89259" lon="-0.71093">
        <ele>19.4</ele>
        <time>2021-05-13T09:44:59Z</time>
      </trkpt>
      <trkpt lat="44.89259" lon="-0.71087">
        <ele>19.4</ele>
        <time>2021-05-13T09:44:58Z</time>
      </trkpt>
      <trkpt lat="44.8926" lon="-0.71073">
        <ele>19.5</ele>
        <time>2021-05-13T09:44:56Z</time>
      </trkpt>
      <trkpt lat="44.89263" lon="-0.71056">
        <ele>19.5</ele>
        <time>2021-05-13T09:44:53Z</time>
      </trkpt>
      <trkpt lat="44.89268" lon="-0.71034">
        <ele>19.5</ele>
        <time>2021-05-13T09:44:48Z</time>
      </trkpt>
      <trkpt lat="44.89269" lon="-0.71029">
        <ele>19.5</ele>
        <time>2021-05-13T09:44:39Z</time>
      </trkpt>
      <trkpt lat="44.89269" lon="-0.71026">
        <ele>19.5</ele>
        <time>2021-05-13T09:44:07Z</time>
      </trkpt>
      <trkpt lat="44.89273" lon="-0.71005">
        <ele>19.4</ele>
        <time>2021-05-13T09:44:00Z</time>
      </trkpt>
      <trkpt lat="44.89276" lon="-0.70985">
        <ele>19.3</ele>
        <time>2021-05-13T09:43:55Z</time>
      </trkpt>
      <trkpt lat="44.89277" lon="-0.70982">
        <ele>19.2</ele>
        <time>2021-05-13T09:43:54Z</time>
      </trkpt>
      <trkpt lat="44.89278" lon="-0.70978">
        <ele>19.2</ele>
        <time>2021-05-13T09:43:52Z</time>
      </trkpt>
      <trkpt lat="44.89278" lon="-0.70976">
        <ele>19.2</ele>
        <time>2021-05-13T09:43:50Z</time>
      </trkpt>
      <trkpt lat="44.8928" lon="-0.70963">
        <ele>19.1</ele>
        <time>2021-05-13T09:43:46Z</time>
      </trkpt>
      <trkpt lat="44.89289" lon="-0.70916">
        <ele>18.8</ele>
        <time>2021-05-13T09:43:38Z</time>
      </trkpt>
      <trkpt lat="44.89296" lon="-0.70881">
        <ele>18.6</ele>
        <time>2021-05-13T09:43:32Z</time>
      </trkpt>
      <trkpt lat="44.89303" lon="-0.70842">
        <ele>18.4</ele>
        <time>2021-05-13T09:43:26Z</time>
      </trkpt>
      <trkpt lat="44.89311" lon="-0.70791">
        <ele>18.3</ele>
        <time>2021-05-13T09:43:19Z</time>
      </trkpt>
      <trkpt lat="44.89318" lon="-0.70757">
        <ele>18.1</ele>
        <time>2021-05-13T09:43:14Z</time>
      </trkpt>
      <trkpt lat="44.89321" lon="-0.7074">
        <ele>18</ele>
        <time>2021-05-13T09:43:10Z</time>
      </trkpt>
      <trkpt lat="44.8932" lon="-0.70734">
        <ele>18</ele>
        <time>2021-05-13T09:43:08Z</time>
      </trkpt>
      <trkpt lat="44.8932" lon="-0.70729">
        <ele>17.9</ele>
        <time>2021-05-13T09:43:06Z</time>
      </trkpt>
      <trkpt lat="44.89324" lon="-0.70697">
        <ele>17.6</ele>
        <time>2021-05-13T09:42:59Z</time>
      </trkpt>
      <trkpt lat="44.89327" lon="-0.70655">
        <ele>17.5</ele>
        <time>2021-05-13T09:42:52Z</time>
      </trkpt>
      <trkpt lat="44.89327" lon="-0.70648">
        <ele>17.4</ele>
        <time>2021-05-13T09:42:51Z</time>
      </trkpt>
      <trkpt lat="44.89329" lon="-0.70612">
        <ele>17.3</ele>
        <time>2021-05-13T09:42:46Z</time>
      </trkpt>
      <trkpt lat="44.89332" lon="-0.70574">
        <ele>17.3</ele>
        <time>2021-05-13T09:42:41Z</time>
      </trkpt>
      <trkpt lat="44.89332" lon="-0.7054">
        <ele>17.3</ele>
        <time>2021-05-13T09:42:36Z</time>
      </trkpt>
      <trkpt lat="44.89333" lon="-0.70491">
        <ele>17.1</ele>
        <time>2021-05-13T09:42:30Z</time>
      </trkpt>
      <trkpt lat="44.89334" lon="-0.70442">
        <ele>16.8</ele>
        <time>2021-05-13T09:42:24Z</time>
      </trkpt>
      <trkpt lat="44.89331" lon="-0.70383">
        <ele>16.5</ele>
        <time>2021-05-13T09:42:17Z</time>
      </trkpt>
      <trkpt lat="44.89328" lon="-0.70348">
        <ele>16.4</ele>
        <time>2021-05-13T09:42:13Z</time>
      </trkpt>
      <trkpt lat="44.89326" lon="-0.70324">
        <ele>16.4</ele>
        <time>2021-05-13T09:42:10Z</time>
      </trkpt>
      <trkpt lat="44.89325" lon="-0.70316">
        <ele>16.4</ele>
        <time>2021-05-13T09:42:09Z</time>
      </trkpt>
      <trkpt lat="44.89321" lon="-0.7029">
        <ele>16.3</ele>
        <time>2021-05-13T09:42:06Z</time>
      </trkpt>
      <trkpt lat="44.89316" lon="-0.70265">
        <ele>16.2</ele>
        <time>2021-05-13T09:42:03Z</time>
      </trkpt>
      <trkpt lat="44.89313" lon="-0.70248">
        <ele>16.1</ele>
        <time>2021-05-13T09:42:01Z</time>
      </trkpt>
      <trkpt lat="44.89307" lon="-0.70224">
        <ele>16.1</ele>
        <time>2021-05-13T09:41:58Z</time>
      </trkpt>
      <trkpt lat="44.89302" lon="-0.70182">
        <ele>16</ele>
        <time>2021-05-13T09:41:53Z</time>
      </trkpt>
      <trkpt lat="44.893" lon="-0.70175">
        <ele>15.9</ele>
        <time>2021-05-13T09:41:52Z</time>
      </trkpt>
      <trkpt lat="44.89294" lon="-0.70152">
        <ele>15.8</ele>
        <time>2021-05-13T09:41:49Z</time>
      </trkpt>
      <trkpt lat="44.89282" lon="-0.70101">
        <ele>15.7</ele>
        <time>2021-05-13T09:41:43Z</time>
      </trkpt>
      <trkpt lat="44.89273" lon="-0.70049">
        <ele>15.7</ele>
        <time>2021-05-13T09:41:37Z</time>
      </trkpt>
      <trkpt lat="44.89263" lon="-0.70002">
        <ele>15.7</ele>
        <time>2021-05-13T09:41:32Z</time>
      </trkpt>
      <trkpt lat="44.89256" lon="-0.69977">
        <ele>15.7</ele>
        <time>2021-05-13T09:41:29Z</time>
      </trkpt>
      <trkpt lat="44.89251" lon="-0.69961">
        <ele>15.7</ele>
        <time>2021-05-13T09:41:27Z</time>
      </trkpt>
      <trkpt lat="44.89245" lon="-0.69935">
        <ele>15.6</ele>
        <time>2021-05-13T09:41:24Z</time>
      </trkpt>
      <trkpt lat="44.89243" lon="-0.69926">
        <ele>15.7</ele>
        <time>2021-05-13T09:41:23Z</time>
      </trkpt>
      <trkpt lat="44.8923" lon="-0.69872">
        <ele>15.7</ele>
        <time>2021-05-13T09:41:18Z</time>
      </trkpt>
      <trkpt lat="44.89227" lon="-0.69862">
        <ele>15.7</ele>
        <time>2021-05-13T09:41:17Z</time>
      </trkpt>
      <trkpt lat="44.89219" lon="-0.69828">
        <ele>15.8</ele>
        <time>2021-05-13T09:41:13Z</time>
      </trkpt>
      <trkpt lat="44.89214" lon="-0.69803">
        <ele>15.8</ele>
        <time>2021-05-13T09:41:10Z</time>
      </trkpt>
      <trkpt lat="44.89212" lon="-0.69795">
        <ele>15.8</ele>
        <time>2021-05-13T09:41:09Z</time>
      </trkpt>
      <trkpt lat="44.89201" lon="-0.6975">
        <ele>15.8</ele>
        <time>2021-05-13T09:41:04Z</time>
      </trkpt>
      <trkpt lat="44.89196" lon="-0.69733">
        <ele>15.8</ele>
        <time>2021-05-13T09:41:02Z</time>
      </trkpt>
      <trkpt lat="44.89194" lon="-0.69725">
        <ele>15.8</ele>
        <time>2021-05-13T09:41:01Z</time>
      </trkpt>
      <trkpt lat="44.89185" lon="-0.6968">
        <ele>15.9</ele>
        <time>2021-05-13T09:40:56Z</time>
      </trkpt>
      <trkpt lat="44.89181" lon="-0.69663">
        <ele>15.9</ele>
        <time>2021-05-13T09:40:54Z</time>
      </trkpt>
      <trkpt lat="44.89174" lon="-0.69639">
        <ele>15.9</ele>
        <time>2021-05-13T09:40:51Z</time>
      </trkpt>
      <trkpt lat="44.89163" lon="-0.69588">
        <ele>16.1</ele>
        <time>2021-05-13T09:40:45Z</time>
      </trkpt>
      <trkpt lat="44.89156" lon="-0.69555">
        <ele>16.2</ele>
        <time>2021-05-13T09:40:41Z</time>
      </trkpt>
      <trkpt lat="44.89152" lon="-0.69543">
        <ele>16.2</ele>
        <time>2021-05-13T09:40:39Z</time>
      </trkpt>
      <trkpt lat="44.89147" lon="-0.69528">
        <ele>16.2</ele>
        <time>2021-05-13T09:40:37Z</time>
      </trkpt>
      <trkpt lat="44.8914" lon="-0.69494">
        <ele>16.3</ele>
        <time>2021-05-13T09:40:33Z</time>
      </trkpt>
      <trkpt lat="44.8913" lon="-0.69449">
        <ele>16.4</ele>
        <time>2021-05-13T09:40:27Z</time>
      </trkpt>
      <trkpt lat="44.89126" lon="-0.69434">
        <ele>16.4</ele>
        <time>2021-05-13T09:40:25Z</time>
      </trkpt>
      <trkpt lat="44.8912" lon="-0.69411">
        <ele>16.3</ele>
        <time>2021-05-13T09:40:22Z</time>
      </trkpt>
      <trkpt lat="44.89118" lon="-0.69396">
        <ele>16.4</ele>
        <time>2021-05-13T09:40:20Z</time>
      </trkpt>
      <trkpt lat="44.89114" lon="-0.69381">
        <ele>16.4</ele>
        <time>2021-05-13T09:40:18Z</time>
      </trkpt>
      <trkpt lat="44.89101" lon="-0.69327">
        <ele>16.5</ele>
        <time>2021-05-13T09:40:12Z</time>
      </trkpt>
      <trkpt lat="44.89086" lon="-0.69261">
        <ele>16.5</ele>
        <time>2021-05-13T09:40:05Z</time>
      </trkpt>
      <trkpt lat="44.89072" lon="-0.69194">
        <ele>16.5</ele>
        <time>2021-05-13T09:39:58Z</time>
      </trkpt>
      <trkpt lat="44.89071" lon="-0.69185">
        <ele>16.5</ele>
        <time>2021-05-13T09:39:57Z</time>
      </trkpt>
      <trkpt lat="44.89065" lon="-0.69148">
        <ele>16.5</ele>
        <time>2021-05-13T09:39:53Z</time>
      </trkpt>
      <trkpt lat="44.89059" lon="-0.69124">
        <ele>16.4</ele>
        <time>2021-05-13T09:39:50Z</time>
      </trkpt>
      <trkpt lat="44.89053" lon="-0.69107">
        <ele>16.4</ele>
        <time>2021-05-13T09:39:48Z</time>
      </trkpt>
      <trkpt lat="44.89049" lon="-0.69089">
        <ele>16.4</ele>
        <time>2021-05-13T09:39:46Z</time>
      </trkpt>
      <trkpt lat="44.89045" lon="-0.69071">
        <ele>16.3</ele>
        <time>2021-05-13T09:39:44Z</time>
      </trkpt>
      <trkpt lat="44.89038" lon="-0.69037">
        <ele>16.4</ele>
        <time>2021-05-13T09:39:40Z</time>
      </trkpt>
      <trkpt lat="44.89027" lon="-0.68995">
        <ele>16.4</ele>
        <time>2021-05-13T09:39:35Z</time>
      </trkpt>
      <trkpt lat="44.8902" lon="-0.68971">
        <ele>16.4</ele>
        <time>2021-05-13T09:39:32Z</time>
      </trkpt>
      <trkpt lat="44.89017" lon="-0.68954">
        <ele>16.4</ele>
        <time>2021-05-13T09:39:30Z</time>
      </trkpt>
      <trkpt lat="44.89008" lon="-0.68926">
        <ele>16.3</ele>
        <time>2021-05-13T09:39:26Z</time>
      </trkpt>
      <trkpt lat="44.89001" lon="-0.68894">
        <ele>16.3</ele>
        <time>2021-05-13T09:39:22Z</time>
      </trkpt>
      <trkpt lat="44.88999" lon="-0.68886">
        <ele>16.3</ele>
        <time>2021-05-13T09:39:21Z</time>
      </trkpt>
      <trkpt lat="44.88985" lon="-0.68826">
        <ele>16.3</ele>
        <time>2021-05-13T09:39:14Z</time>
      </trkpt>
      <trkpt lat="44.88979" lon="-0.68801">
        <ele>16.3</ele>
        <time>2021-05-13T09:39:11Z</time>
      </trkpt>
      <trkpt lat="44.88977" lon="-0.68786">
        <ele>16.2</ele>
        <time>2021-05-13T09:39:09Z</time>
      </trkpt>
      <trkpt lat="44.88973" lon="-0.68763">
        <ele>16.1</ele>
        <time>2021-05-13T09:39:06Z</time>
      </trkpt>
      <trkpt lat="44.88969" lon="-0.68737">
        <ele>16</ele>
        <time>2021-05-13T09:39:03Z</time>
      </trkpt>
      <trkpt lat="44.88962" lon="-0.68688">
        <ele>15.9</ele>
        <time>2021-05-13T09:38:57Z</time>
      </trkpt>
      <trkpt lat="44.88952" lon="-0.68609">
        <ele>15.8</ele>
        <time>2021-05-13T09:38:48Z</time>
      </trkpt>
      <trkpt lat="44.88946" lon="-0.68553">
        <ele>16</ele>
        <time>2021-05-13T09:38:42Z</time>
      </trkpt>
      <trkpt lat="44.88944" lon="-0.68538">
        <ele>16</ele>
        <time>2021-05-13T09:38:40Z</time>
      </trkpt>
      <trkpt lat="44.88943" lon="-0.68522">
        <ele>16</ele>
        <time>2021-05-13T09:38:38Z</time>
      </trkpt>
      <trkpt lat="44.88936" lon="-0.68452">
        <ele>16.1</ele>
        <time>2021-05-13T09:38:30Z</time>
      </trkpt>
      <trkpt lat="44.88936" lon="-0.68444">
        <ele>16.1</ele>
        <time>2021-05-13T09:38:29Z</time>
      </trkpt>
      <trkpt lat="44.88932" lon="-0.68399">
        <ele>16.1</ele>
        <time>2021-05-13T09:38:24Z</time>
      </trkpt>
      <trkpt lat="44.88927" lon="-0.68344">
        <ele>16.2</ele>
        <time>2021-05-13T09:38:18Z</time>
      </trkpt>
      <trkpt lat="44.88923" lon="-0.68299">
        <ele>16.2</ele>
        <time>2021-05-13T09:38:13Z</time>
      </trkpt>
      <trkpt lat="44.88923" lon="-0.68291">
        <ele>16.2</ele>
        <time>2021-05-13T09:38:12Z</time>
      </trkpt>
      <trkpt lat="44.88922" lon="-0.68257">
        <ele>16.2</ele>
        <time>2021-05-13T09:38:08Z</time>
      </trkpt>
      <trkpt lat="44.8892" lon="-0.68211">
        <ele>16.1</ele>
        <time>2021-05-13T09:38:03Z</time>
      </trkpt>
      <trkpt lat="44.8892" lon="-0.68192">
        <ele>16</ele>
        <time>2021-05-13T09:38:01Z</time>
      </trkpt>
      <trkpt lat="44.88919" lon="-0.68174">
        <ele>16</ele>
        <time>2021-05-13T09:37:59Z</time>
      </trkpt>
      <trkpt lat="44.88918" lon="-0.68121">
        <ele>16.1</ele>
        <time>2021-05-13T09:37:53Z</time>
      </trkpt>
      <trkpt lat="44.88918" lon="-0.68076">
        <ele>16.1</ele>
        <time>2021-05-13T09:37:48Z</time>
      </trkpt>
      <trkpt lat="44.88919" lon="-0.68068">
        <ele>16.1</ele>
        <time>2021-05-13T09:37:47Z</time>
      </trkpt>
      <trkpt lat="44.88918" lon="-0.68046">
        <ele>16.1</ele>
        <time>2021-05-13T09:37:44Z</time>
      </trkpt>
      <trkpt lat="44.88917" lon="-0.6803">
        <ele>16.1</ele>
        <time>2021-05-13T09:37:42Z</time>
      </trkpt>
      <trkpt lat="44.88918" lon="-0.68002">
        <ele>16.2</ele>
        <time>2021-05-13T09:37:39Z</time>
      </trkpt>
      <trkpt lat="44.88918" lon="-0.67993">
        <ele>16.2</ele>
        <time>2021-05-13T09:37:38Z</time>
      </trkpt>
      <trkpt lat="44.88917" lon="-0.67968">
        <ele>16.2</ele>
        <time>2021-05-13T09:37:35Z</time>
      </trkpt>
      <trkpt lat="44.88917" lon="-0.67933">
        <ele>16.1</ele>
        <time>2021-05-13T09:37:30Z</time>
      </trkpt>
      <trkpt lat="44.88919" lon="-0.67862">
        <ele>15.9</ele>
        <time>2021-05-13T09:37:22Z</time>
      </trkpt>
      <trkpt lat="44.88919" lon="-0.67819">
        <ele>15.8</ele>
        <time>2021-05-13T09:37:17Z</time>
      </trkpt>
      <trkpt lat="44.88921" lon="-0.67801">
        <ele>15.8</ele>
        <time>2021-05-13T09:37:15Z</time>
      </trkpt>
      <trkpt lat="44.88924" lon="-0.67767">
        <ele>15.8</ele>
        <time>2021-05-13T09:37:11Z</time>
      </trkpt>
      <trkpt lat="44.88924" lon="-0.67726">
        <ele>15.7</ele>
        <time>2021-05-13T09:37:06Z</time>
      </trkpt>
      <trkpt lat="44.88925" lon="-0.67697">
        <ele>15.6</ele>
        <time>2021-05-13T09:37:03Z</time>
      </trkpt>
      <trkpt lat="44.88925" lon="-0.67687">
        <ele>15.5</ele>
        <time>2021-05-13T09:37:02Z</time>
      </trkpt>
      <trkpt lat="44.88925" lon="-0.67679">
        <ele>15.5</ele>
        <time>2021-05-13T09:37:01Z</time>
      </trkpt>
      <trkpt lat="44.88927" lon="-0.67666">
        <ele>15.4</ele>
        <time>2021-05-13T09:36:59Z</time>
      </trkpt>
      <trkpt lat="44.88928" lon="-0.67659">
        <ele>15.4</ele>
        <time>2021-05-13T09:36:58Z</time>
      </trkpt>
      <trkpt lat="44.88931" lon="-0.67627">
        <ele>15.2</ele>
        <time>2021-05-13T09:36:53Z</time>
      </trkpt>
      <trkpt lat="44.88933" lon="-0.67589">
        <ele>15</ele>
        <time>2021-05-13T09:36:48Z</time>
      </trkpt>
      <trkpt lat="44.88934" lon="-0.6755">
        <ele>14.9</ele>
        <time>2021-05-13T09:36:43Z</time>
      </trkpt>
      <trkpt lat="44.88934" lon="-0.67542">
        <ele>14.9</ele>
        <time>2021-05-13T09:36:42Z</time>
      </trkpt>
      <trkpt lat="44.88935" lon="-0.67526">
        <ele>14.9</ele>
        <time>2021-05-13T09:36:40Z</time>
      </trkpt>
      <trkpt lat="44.88936" lon="-0.67504">
        <ele>14.9</ele>
        <time>2021-05-13T09:36:37Z</time>
      </trkpt>
      <trkpt lat="44.88936" lon="-0.67496">
        <ele>14.9</ele>
        <time>2021-05-13T09:36:36Z</time>
      </trkpt>
      <trkpt lat="44.88936" lon="-0.67472">
        <ele>14.9</ele>
        <time>2021-05-13T09:36:33Z</time>
      </trkpt>
      <trkpt lat="44.88938" lon="-0.67457">
        <ele>15</ele>
        <time>2021-05-13T09:36:31Z</time>
      </trkpt>
      <trkpt lat="44.88939" lon="-0.67443">
        <ele>15.1</ele>
        <time>2021-05-13T09:36:29Z</time>
      </trkpt>
      <trkpt lat="44.88941" lon="-0.67417">
        <ele>15.3</ele>
        <time>2021-05-13T09:36:24Z</time>
      </trkpt>
      <trkpt lat="44.88941" lon="-0.67412">
        <ele>15.3</ele>
        <time>2021-05-13T09:36:22Z</time>
      </trkpt>
      <trkpt lat="44.88942" lon="-0.6741">
        <ele>15.2</ele>
        <time>2021-05-13T09:36:18Z</time>
      </trkpt>
      <trkpt lat="44.88942" lon="-0.67404">
        <ele>15.1</ele>
        <time>2021-05-13T09:36:14Z</time>
      </trkpt>
      <trkpt lat="44.88942" lon="-0.67377">
        <ele>14.8</ele>
        <time>2021-05-13T09:36:09Z</time>
      </trkpt>
      <trkpt lat="44.88942" lon="-0.67362">
        <ele>14.7</ele>
        <time>2021-05-13T09:36:07Z</time>
      </trkpt>
      <trkpt lat="44.88944" lon="-0.67322">
        <ele>14.5</ele>
        <time>2021-05-13T09:36:02Z</time>
      </trkpt>
      <trkpt lat="44.88945" lon="-0.67314">
        <ele>14.5</ele>
        <time>2021-05-13T09:36:01Z</time>
      </trkpt>
      <trkpt lat="44.88944" lon="-0.67296">
        <ele>14.4</ele>
        <time>2021-05-13T09:35:59Z</time>
      </trkpt>
      <trkpt lat="44.88945" lon="-0.67279">
        <ele>14.4</ele>
        <time>2021-05-13T09:35:57Z</time>
      </trkpt>
      <trkpt lat="44.88948" lon="-0.67219">
        <ele>14.4</ele>
        <time>2021-05-13T09:35:50Z</time>
      </trkpt>
      <trkpt lat="44.8895" lon="-0.67158">
        <ele>14.3</ele>
        <time>2021-05-13T09:35:43Z</time>
      </trkpt>
      <trkpt lat="44.88952" lon="-0.67111">
        <ele>14.2</ele>
        <time>2021-05-13T09:35:38Z</time>
      </trkpt>
      <trkpt lat="44.88953" lon="-0.67088">
        <ele>14.2</ele>
        <time>2021-05-13T09:35:35Z</time>
      </trkpt>
      <trkpt lat="44.88954" lon="-0.6708">
        <ele>14.2</ele>
        <time>2021-05-13T09:35:34Z</time>
      </trkpt>
      <trkpt lat="44.88957" lon="-0.67011">
        <ele>14</ele>
        <time>2021-05-13T09:35:26Z</time>
      </trkpt>
      <trkpt lat="44.88955" lon="-0.66969">
        <ele>13.9</ele>
        <time>2021-05-13T09:35:22Z</time>
      </trkpt>
      <trkpt lat="44.88953" lon="-0.66957">
        <ele>14</ele>
        <time>2021-05-13T09:35:21Z</time>
      </trkpt>
      <trkpt lat="44.88954" lon="-0.66948">
        <ele>14</ele>
        <time>2021-05-13T09:35:20Z</time>
      </trkpt>
      <trkpt lat="44.88957" lon="-0.66933">
        <ele>14</ele>
        <time>2021-05-13T09:35:18Z</time>
      </trkpt>
      <trkpt lat="44.88959" lon="-0.66927">
        <ele>14</ele>
        <time>2021-05-13T09:35:17Z</time>
      </trkpt>
      <trkpt lat="44.88961" lon="-0.6691">
        <ele>14</ele>
        <time>2021-05-13T09:35:14Z</time>
      </trkpt>
      <trkpt lat="44.88961" lon="-0.66904">
        <ele>14</ele>
        <time>2021-05-13T09:35:13Z</time>
      </trkpt>
      <trkpt lat="44.88962" lon="-0.66862">
        <ele>13.8</ele>
        <time>2021-05-13T09:35:07Z</time>
      </trkpt>
      <trkpt lat="44.88965" lon="-0.66806">
        <ele>13.9</ele>
        <time>2021-05-13T09:35:00Z</time>
      </trkpt>
      <trkpt lat="44.88969" lon="-0.66727">
        <ele>13.8</ele>
        <time>2021-05-13T09:34:50Z</time>
      </trkpt>
      <trkpt lat="44.88972" lon="-0.66666">
        <ele>13.7</ele>
        <time>2021-05-13T09:34:42Z</time>
      </trkpt>
      <trkpt lat="44.88975" lon="-0.66611">
        <ele>13.8</ele>
        <time>2021-05-13T09:34:35Z</time>
      </trkpt>
      <trkpt lat="44.88977" lon="-0.66557">
        <ele>14</ele>
        <time>2021-05-13T09:34:28Z</time>
      </trkpt>
      <trkpt lat="44.88979" lon="-0.66503">
        <ele>14.3</ele>
        <time>2021-05-13T09:34:21Z</time>
      </trkpt>
      <trkpt lat="44.88982" lon="-0.6645">
        <ele>14.5</ele>
        <time>2021-05-13T09:34:14Z</time>
      </trkpt>
      <trkpt lat="44.88982" lon="-0.66435">
        <ele>14.6</ele>
        <time>2021-05-13T09:34:12Z</time>
      </trkpt>
      <trkpt lat="44.88979" lon="-0.66422">
        <ele>14.6</ele>
        <time>2021-05-13T09:34:10Z</time>
      </trkpt>
      <trkpt lat="44.88976" lon="-0.66408">
        <ele>14.7</ele>
        <time>2021-05-13T09:34:08Z</time>
      </trkpt>
      <trkpt lat="44.88969" lon="-0.66373">
        <ele>15</ele>
        <time>2021-05-13T09:34:02Z</time>
      </trkpt>
      <trkpt lat="44.88969" lon="-0.66361">
        <ele>15.2</ele>
        <time>2021-05-13T09:33:59Z</time>
      </trkpt>
      <trkpt lat="44.88981" lon="-0.66349">
        <ele>15.2</ele>
        <time>2021-05-13T09:33:54Z</time>
      </trkpt>
      <trkpt lat="44.88982" lon="-0.66346">
        <ele>15.2</ele>
        <time>2021-05-13T09:33:35Z</time>
      </trkpt>
      <trkpt lat="44.88986" lon="-0.66342">
        <ele>15.2</ele>
        <time>2021-05-13T09:33:32Z</time>
      </trkpt>
      <trkpt lat="44.88989" lon="-0.66339">
        <ele>15.1</ele>
        <time>2021-05-13T09:33:30Z</time>
      </trkpt>
      <trkpt lat="44.88993" lon="-0.66331">
        <ele>15</ele>
        <time>2021-05-13T09:33:28Z</time>
      </trkpt>
      <trkpt lat="44.88993" lon="-0.66315">
        <ele>14.8</ele>
        <time>2021-05-13T09:33:25Z</time>
      </trkpt>
      <trkpt lat="44.88992" lon="-0.663">
        <ele>14.7</ele>
        <time>2021-05-13T09:33:23Z</time>
      </trkpt>
      <trkpt lat="44.88994" lon="-0.66246">
        <ele>14.6</ele>
        <time>2021-05-13T09:33:16Z</time>
      </trkpt>
      <trkpt lat="44.88996" lon="-0.66198">
        <ele>14.6</ele>
        <time>2021-05-13T09:33:10Z</time>
      </trkpt>
      <trkpt lat="44.89" lon="-0.66125">
        <ele>14.6</ele>
        <time>2021-05-13T09:33:01Z</time>
      </trkpt>
      <trkpt lat="44.88999" lon="-0.66061">
        <ele>14.6</ele>
        <time>2021-05-13T09:32:53Z</time>
      </trkpt>
      <trkpt lat="44.88995" lon="-0.66004">
        <ele>14.6</ele>
        <time>2021-05-13T09:32:46Z</time>
      </trkpt>
      <trkpt lat="44.88987" lon="-0.65946">
        <ele>14.5</ele>
        <time>2021-05-13T09:32:39Z</time>
      </trkpt>
      <trkpt lat="44.88985" lon="-0.65931">
        <ele>14.5</ele>
        <time>2021-05-13T09:32:37Z</time>
      </trkpt>
      <trkpt lat="44.88982" lon="-0.65908">
        <ele>14.4</ele>
        <time>2021-05-13T09:32:34Z</time>
      </trkpt>
      <trkpt lat="44.88981" lon="-0.659">
        <ele>14.4</ele>
        <time>2021-05-13T09:32:33Z</time>
      </trkpt>
      <trkpt lat="44.88974" lon="-0.65879">
        <ele>14.4</ele>
        <time>2021-05-13T09:32:30Z</time>
      </trkpt>
      <trkpt lat="44.88972" lon="-0.65872">
        <ele>14.4</ele>
        <time>2021-05-13T09:32:29Z</time>
      </trkpt>
      <trkpt lat="44.88963" lon="-0.65828">
        <ele>14.3</ele>
        <time>2021-05-13T09:32:23Z</time>
      </trkpt>
      <trkpt lat="44.88956" lon="-0.65795">
        <ele>14</ele>
        <time>2021-05-13T09:32:18Z</time>
      </trkpt>
      <trkpt lat="44.88954" lon="-0.65789">
        <ele>14</ele>
        <time>2021-05-13T09:32:17Z</time>
      </trkpt>
      <trkpt lat="44.8895" lon="-0.65778">
        <ele>14</ele>
        <time>2021-05-13T09:32:15Z</time>
      </trkpt>
      <trkpt lat="44.88947" lon="-0.6576">
        <ele>13.9</ele>
        <time>2021-05-13T09:32:12Z</time>
      </trkpt>
      <trkpt lat="44.8894" lon="-0.65736">
        <ele>14</ele>
        <time>2021-05-13T09:32:07Z</time>
      </trkpt>
      <trkpt lat="44.8894" lon="-0.65732">
        <ele>14</ele>
        <time>2021-05-13T09:32:06Z</time>
      </trkpt>
      <trkpt lat="44.88941" lon="-0.65729">
        <ele>14</ele>
        <time>2021-05-13T09:32:05Z</time>
      </trkpt>
      <trkpt lat="44.88946" lon="-0.65723">
        <ele>14</ele>
        <time>2021-05-13T09:32:03Z</time>
      </trkpt>
      <trkpt lat="44.88945" lon="-0.65719">
        <ele>14</ele>
        <time>2021-05-13T09:32:02Z</time>
      </trkpt>
      <trkpt lat="44.88935" lon="-0.65697">
        <ele>14</ele>
        <time>2021-05-13T09:31:58Z</time>
      </trkpt>
      <trkpt lat="44.88933" lon="-0.65691">
        <ele>13.9</ele>
        <time>2021-05-13T09:31:57Z</time>
      </trkpt>
      <trkpt lat="44.88926" lon="-0.65665">
        <ele>13.9</ele>
        <time>2021-05-13T09:31:53Z</time>
      </trkpt>
      <trkpt lat="44.88925" lon="-0.65659">
        <ele>13.9</ele>
        <time>2021-05-13T09:31:52Z</time>
      </trkpt>
      <trkpt lat="44.88915" lon="-0.65596">
        <ele>13.7</ele>
        <time>2021-05-13T09:31:43Z</time>
      </trkpt>
      <trkpt lat="44.8891" lon="-0.65528">
        <ele>13.4</ele>
        <time>2021-05-13T09:31:34Z</time>
      </trkpt>
      <trkpt lat="44.88908" lon="-0.65466">
        <ele>13.3</ele>
        <time>2021-05-13T09:31:26Z</time>
      </trkpt>
      <trkpt lat="44.8891" lon="-0.65414">
        <ele>13.2</ele>
        <time>2021-05-13T09:31:19Z</time>
      </trkpt>
      <trkpt lat="44.88915" lon="-0.65363">
        <ele>13</ele>
        <time>2021-05-13T09:31:12Z</time>
      </trkpt>
      <trkpt lat="44.88922" lon="-0.65317">
        <ele>12.7</ele>
        <time>2021-05-13T09:31:06Z</time>
      </trkpt>
      <trkpt lat="44.88931" lon="-0.65276">
        <ele>12.4</ele>
        <time>2021-05-13T09:31:00Z</time>
      </trkpt>
      <trkpt lat="44.8894" lon="-0.65239">
        <ele>12</ele>
        <time>2021-05-13T09:30:54Z</time>
      </trkpt>
      <trkpt lat="44.88947" lon="-0.65215">
        <ele>11.7</ele>
        <time>2021-05-13T09:30:50Z</time>
      </trkpt>
      <trkpt lat="44.88949" lon="-0.65209">
        <ele>11.6</ele>
        <time>2021-05-13T09:30:49Z</time>
      </trkpt>
      <trkpt lat="44.88967" lon="-0.65155">
        <ele>11.2</ele>
        <time>2021-05-13T09:30:40Z</time>
      </trkpt>
      <trkpt lat="44.88971" lon="-0.65143">
        <ele>11.1</ele>
        <time>2021-05-13T09:30:38Z</time>
      </trkpt>
      <trkpt lat="44.8898" lon="-0.65119">
        <ele>11.1</ele>
        <time>2021-05-13T09:30:34Z</time>
      </trkpt>
      <trkpt lat="44.88981" lon="-0.65112">
        <ele>11.2</ele>
        <time>2021-05-13T09:30:33Z</time>
      </trkpt>
      <trkpt lat="44.88982" lon="-0.65078">
        <ele>11.3</ele>
        <time>2021-05-13T09:30:28Z</time>
      </trkpt>
      <trkpt lat="44.88986" lon="-0.65065">
        <ele>11.3</ele>
        <time>2021-05-13T09:30:25Z</time>
      </trkpt>
      <trkpt lat="44.88987" lon="-0.65063">
        <ele>11.2</ele>
        <time>2021-05-13T09:30:24Z</time>
      </trkpt>
      <trkpt lat="44.88989" lon="-0.65062">
        <ele>11.2</ele>
        <time>2021-05-13T09:30:13Z</time>
      </trkpt>
      <trkpt lat="44.8899" lon="-0.65062">
        <ele>11.2</ele>
        <time>2021-05-13T09:30:08Z</time>
      </trkpt>
      <trkpt lat="44.88999" lon="-0.65059">
        <ele>11</ele>
        <time>2021-05-13T09:30:04Z</time>
      </trkpt>
      <trkpt lat="44.8901" lon="-0.65029">
        <ele>10.7</ele>
        <time>2021-05-13T09:29:58Z</time>
      </trkpt>
      <trkpt lat="44.89026" lon="-0.64974">
        <ele>10.8</ele>
        <time>2021-05-13T09:29:50Z</time>
      </trkpt>
      <trkpt lat="44.89038" lon="-0.64921">
        <ele>10.7</ele>
        <time>2021-05-13T09:29:43Z</time>
      </trkpt>
      <trkpt lat="44.89048" lon="-0.64869">
        <ele>10.8</ele>
        <time>2021-05-13T09:29:36Z</time>
      </trkpt>
      <trkpt lat="44.89049" lon="-0.64862">
        <ele>10.8</ele>
        <time>2021-05-13T09:29:35Z</time>
      </trkpt>
      <trkpt lat="44.89051" lon="-0.64846">
        <ele>10.8</ele>
        <time>2021-05-13T09:29:32Z</time>
      </trkpt>
      <trkpt lat="44.89055" lon="-0.64824">
        <ele>10.8</ele>
        <time>2021-05-13T09:29:28Z</time>
      </trkpt>
      <trkpt lat="44.89065" lon="-0.64758">
        <ele>10.7</ele>
        <time>2021-05-13T09:29:20Z</time>
      </trkpt>
      <trkpt lat="44.89066" lon="-0.64721">
        <ele>10.7</ele>
        <time>2021-05-13T09:29:15Z</time>
      </trkpt>
      <trkpt lat="44.89066" lon="-0.64714">
        <ele>10.7</ele>
        <time>2021-05-13T09:29:14Z</time>
      </trkpt>
      <trkpt lat="44.8907" lon="-0.6465">
        <ele>10.5</ele>
        <time>2021-05-13T09:29:06Z</time>
      </trkpt>
      <trkpt lat="44.89073" lon="-0.64592">
        <ele>10.4</ele>
        <time>2021-05-13T09:28:59Z</time>
      </trkpt>
      <trkpt lat="44.89074" lon="-0.64554">
        <ele>10.3</ele>
        <time>2021-05-13T09:28:54Z</time>
      </trkpt>
      <trkpt lat="44.89075" lon="-0.64494">
        <ele>10.2</ele>
        <time>2021-05-13T09:28:46Z</time>
      </trkpt>
      <trkpt lat="44.89076" lon="-0.64479">
        <ele>10.1</ele>
        <time>2021-05-13T09:28:44Z</time>
      </trkpt>
      <trkpt lat="44.89076" lon="-0.64463">
        <ele>10</ele>
        <time>2021-05-13T09:28:42Z</time>
      </trkpt>
      <trkpt lat="44.89076" lon="-0.64455">
        <ele>10</ele>
        <time>2021-05-13T09:28:41Z</time>
      </trkpt>
      <trkpt lat="44.89078" lon="-0.64413">
        <ele>9.9</ele>
        <time>2021-05-13T09:28:35Z</time>
      </trkpt>
      <trkpt lat="44.89081" lon="-0.64355">
        <ele>9.6</ele>
        <time>2021-05-13T09:28:27Z</time>
      </trkpt>
      <trkpt lat="44.89081" lon="-0.64317">
        <ele>9.5</ele>
        <time>2021-05-13T09:28:22Z</time>
      </trkpt>
      <trkpt lat="44.89081" lon="-0.64289">
        <ele>9.6</ele>
        <time>2021-05-13T09:28:18Z</time>
      </trkpt>
      <trkpt lat="44.89082" lon="-0.64285">
        <ele>9.6</ele>
        <time>2021-05-13T09:28:17Z</time>
      </trkpt>
      <trkpt lat="44.89092" lon="-0.64278">
        <ele>9.2</ele>
        <time>2021-05-13T09:28:13Z</time>
      </trkpt>
      <trkpt lat="44.89121" lon="-0.64264">
        <ele>8.3</ele>
        <time>2021-05-13T09:28:06Z</time>
      </trkpt>
      <trkpt lat="44.89126" lon="-0.64262">
        <ele>8.2</ele>
        <time>2021-05-13T09:28:05Z</time>
      </trkpt>
      <trkpt lat="44.89135" lon="-0.64257">
        <ele>8.1</ele>
        <time>2021-05-13T09:28:03Z</time>
      </trkpt>
      <trkpt lat="44.89147" lon="-0.64246">
        <ele>7.9</ele>
        <time>2021-05-13T09:28:00Z</time>
      </trkpt>
      <trkpt lat="44.89188" lon="-0.64212">
        <ele>7.4</ele>
        <time>2021-05-13T09:27:51Z</time>
      </trkpt>
      <trkpt lat="44.89211" lon="-0.64194">
        <ele>7.2</ele>
        <time>2021-05-13T09:27:46Z</time>
      </trkpt>
      <trkpt lat="44.89219" lon="-0.64182">
        <ele>7.1</ele>
        <time>2021-05-13T09:27:44Z</time>
      </trkpt>
      <trkpt lat="44.89222" lon="-0.64175">
        <ele>7</ele>
        <time>2021-05-13T09:27:43Z</time>
      </trkpt>
      <trkpt lat="44.89223" lon="-0.64168">
        <ele>7</ele>
        <time>2021-05-13T09:27:42Z</time>
      </trkpt>
      <trkpt lat="44.89224" lon="-0.64152">
        <ele>6.9</ele>
        <time>2021-05-13T09:27:40Z</time>
      </trkpt>
      <trkpt lat="44.89224" lon="-0.64136">
        <ele>6.9</ele>
        <time>2021-05-13T09:27:38Z</time>
      </trkpt>
      <trkpt lat="44.89221" lon="-0.64121">
        <ele>6.8</ele>
        <time>2021-05-13T09:27:36Z</time>
      </trkpt>
      <trkpt lat="44.89211" lon="-0.64092">
        <ele>6.8</ele>
        <time>2021-05-13T09:27:32Z</time>
      </trkpt>
      <trkpt lat="44.89192" lon="-0.64042">
        <ele>6.7</ele>
        <time>2021-05-13T09:27:25Z</time>
      </trkpt>
      <trkpt lat="44.89183" lon="-0.64012">
        <ele>6.8</ele>
        <time>2021-05-13T09:27:21Z</time>
      </trkpt>
      <trkpt lat="44.89181" lon="-0.63997">
        <ele>6.8</ele>
        <time>2021-05-13T09:27:19Z</time>
      </trkpt>
      <trkpt lat="44.89172" lon="-0.63932">
        <ele>6.7</ele>
        <time>2021-05-13T09:27:11Z</time>
      </trkpt>
      <trkpt lat="44.89168" lon="-0.6391">
        <ele>6.7</ele>
        <time>2021-05-13T09:27:08Z</time>
      </trkpt>
      <trkpt lat="44.89164" lon="-0.63887">
        <ele>6.8</ele>
        <time>2021-05-13T09:27:05Z</time>
      </trkpt>
      <trkpt lat="44.89158" lon="-0.63838">
        <ele>6.8</ele>
        <time>2021-05-13T09:26:58Z</time>
      </trkpt>
      <trkpt lat="44.89155" lon="-0.63818">
        <ele>6.7</ele>
        <time>2021-05-13T09:26:55Z</time>
      </trkpt>
      <trkpt lat="44.89153" lon="-0.63811">
        <ele>6.6</ele>
        <time>2021-05-13T09:26:54Z</time>
      </trkpt>
      <trkpt lat="44.8915" lon="-0.63805">
        <ele>6.7</ele>
        <time>2021-05-13T09:26:53Z</time>
      </trkpt>
      <trkpt lat="44.89124" lon="-0.63797">
        <ele>7</ele>
        <time>2021-05-13T09:26:48Z</time>
      </trkpt>
      <trkpt lat="44.89104" lon="-0.63789">
        <ele>7.2</ele>
        <time>2021-05-13T09:26:44Z</time>
      </trkpt>
      <trkpt lat="44.89096" lon="-0.63783">
        <ele>7.3</ele>
        <time>2021-05-13T09:26:42Z</time>
      </trkpt>
      <trkpt lat="44.89092" lon="-0.63781">
        <ele>7.4</ele>
        <time>2021-05-13T09:26:41Z</time>
      </trkpt>
      <trkpt lat="44.89067" lon="-0.63773">
        <ele>7.7</ele>
        <time>2021-05-13T09:26:35Z</time>
      </trkpt>
      <trkpt lat="44.89042" lon="-0.63767">
        <ele>8.1</ele>
        <time>2021-05-13T09:26:29Z</time>
      </trkpt>
      <trkpt lat="44.89029" lon="-0.63765">
        <ele>7.8</ele>
        <time>2021-05-13T09:26:24Z</time>
      </trkpt>
      <trkpt lat="44.89027" lon="-0.63764">
        <ele>7.8</ele>
        <time>2021-05-13T09:25:51Z</time>
      </trkpt>
      <trkpt lat="44.89027" lon="-0.63763">
        <ele>7.8</ele>
        <time>2021-05-13T09:25:38Z</time>
      </trkpt>
      <trkpt lat="44.89027" lon="-0.63762">
        <ele>7.8</ele>
        <time>2021-05-13T09:25:37Z</time>
      </trkpt>
      <trkpt lat="44.89025" lon="-0.63757">
        <ele>7.7</ele>
        <time>2021-05-13T09:25:35Z</time>
      </trkpt>
      <trkpt lat="44.89018" lon="-0.63744">
        <ele>7.6</ele>
        <time>2021-05-13T09:25:31Z</time>
      </trkpt>
      <trkpt lat="44.89017" lon="-0.63741">
        <ele>7.6</ele>
        <time>2021-05-13T09:25:30Z</time>
      </trkpt>
      <trkpt lat="44.89026" lon="-0.63732">
        <ele>7.5</ele>
        <time>2021-05-13T09:25:25Z</time>
      </trkpt>
      <trkpt lat="44.89038" lon="-0.63729">
        <ele>7.5</ele>
        <time>2021-05-13T09:25:20Z</time>
      </trkpt>
      <trkpt lat="44.8904" lon="-0.63728">
        <ele>7.5</ele>
        <time>2021-05-13T09:25:19Z</time>
      </trkpt>
      <trkpt lat="44.89043" lon="-0.63724">
        <ele>7.5</ele>
        <time>2021-05-13T09:25:17Z</time>
      </trkpt>
      <trkpt lat="44.89043" lon="-0.6372">
        <ele>7.6</ele>
        <time>2021-05-13T09:25:16Z</time>
      </trkpt>
      <trkpt lat="44.89039" lon="-0.63683">
        <ele>7.6</ele>
        <time>2021-05-13T09:25:10Z</time>
      </trkpt>
      <trkpt lat="44.89032" lon="-0.63603">
        <ele>7.9</ele>
        <time>2021-05-13T09:25:00Z</time>
      </trkpt>
      <trkpt lat="44.8903" lon="-0.63579">
        <ele>8</ele>
        <time>2021-05-13T09:24:57Z</time>
      </trkpt>
      <trkpt lat="44.89028" lon="-0.63563">
        <ele>8</ele>
        <time>2021-05-13T09:24:55Z</time>
      </trkpt>
      <trkpt lat="44.89026" lon="-0.63548">
        <ele>8</ele>
        <time>2021-05-13T09:24:53Z</time>
      </trkpt>
      <trkpt lat="44.89023" lon="-0.63517">
        <ele>8.1</ele>
        <time>2021-05-13T09:24:49Z</time>
      </trkpt>
      <trkpt lat="44.89017" lon="-0.63444">
        <ele>8.3</ele>
        <time>2021-05-13T09:24:40Z</time>
      </trkpt>
      <trkpt lat="44.89011" lon="-0.63395">
        <ele>8.3</ele>
        <time>2021-05-13T09:24:34Z</time>
      </trkpt>
      <trkpt lat="44.89006" lon="-0.6334">
        <ele>8.4</ele>
        <time>2021-05-13T09:24:27Z</time>
      </trkpt>
      <trkpt lat="44.89004" lon="-0.63313">
        <ele>8.4</ele>
        <time>2021-05-13T09:24:23Z</time>
      </trkpt>
      <trkpt lat="44.89005" lon="-0.63297">
        <ele>8.3</ele>
        <time>2021-05-13T09:24:19Z</time>
      </trkpt>
      <trkpt lat="44.89004" lon="-0.63278">
        <ele>8.2</ele>
        <time>2021-05-13T09:24:15Z</time>
      </trkpt>
      <trkpt lat="44.88999" lon="-0.63221">
        <ele>8.1</ele>
        <time>2021-05-13T09:24:08Z</time>
      </trkpt>
      <trkpt lat="44.88998" lon="-0.63194">
        <ele>8</ele>
        <time>2021-05-13T09:24:05Z</time>
      </trkpt>
      <trkpt lat="44.88996" lon="-0.63168">
        <ele>8</ele>
        <time>2021-05-13T09:24:02Z</time>
      </trkpt>
      <trkpt lat="44.8899" lon="-0.63118">
        <ele>8</ele>
        <time>2021-05-13T09:23:56Z</time>
      </trkpt>
      <trkpt lat="44.88984" lon="-0.63079">
        <ele>8.1</ele>
        <time>2021-05-13T09:23:51Z</time>
      </trkpt>
      <trkpt lat="44.88978" lon="-0.63006">
        <ele>8</ele>
        <time>2021-05-13T09:23:42Z</time>
      </trkpt>
      <trkpt lat="44.88971" lon="-0.62941">
        <ele>8</ele>
        <time>2021-05-13T09:23:34Z</time>
      </trkpt>
      <trkpt lat="44.88966" lon="-0.62895">
        <ele>8.1</ele>
        <time>2021-05-13T09:23:28Z</time>
      </trkpt>
      <trkpt lat="44.88962" lon="-0.62846">
        <ele>8.1</ele>
        <time>2021-05-13T09:23:22Z</time>
      </trkpt>
      <trkpt lat="44.88954" lon="-0.62775">
        <ele>8.1</ele>
        <time>2021-05-13T09:23:13Z</time>
      </trkpt>
      <trkpt lat="44.88952" lon="-0.62752">
        <ele>8.1</ele>
        <time>2021-05-13T09:23:10Z</time>
      </trkpt>
      <trkpt lat="44.88948" lon="-0.6272">
        <ele>8.2</ele>
        <time>2021-05-13T09:23:06Z</time>
      </trkpt>
      <trkpt lat="44.88942" lon="-0.62661">
        <ele>8.4</ele>
        <time>2021-05-13T09:22:59Z</time>
      </trkpt>
      <trkpt lat="44.8894" lon="-0.62638">
        <ele>8.4</ele>
        <time>2021-05-13T09:22:56Z</time>
      </trkpt>
      <trkpt lat="44.88935" lon="-0.62624">
        <ele>8.4</ele>
        <time>2021-05-13T09:22:54Z</time>
      </trkpt>
      <trkpt lat="44.88933" lon="-0.62609">
        <ele>8.4</ele>
        <time>2021-05-13T09:22:52Z</time>
      </trkpt>
      <trkpt lat="44.8893" lon="-0.62581">
        <ele>8.3</ele>
        <time>2021-05-13T09:22:48Z</time>
      </trkpt>
      <trkpt lat="44.88927" lon="-0.62562">
        <ele>8.3</ele>
        <time>2021-05-13T09:22:45Z</time>
      </trkpt>
      <trkpt lat="44.88922" lon="-0.62517">
        <ele>8.2</ele>
        <time>2021-05-13T09:22:39Z</time>
      </trkpt>
      <trkpt lat="44.88919" lon="-0.62463">
        <ele>8.1</ele>
        <time>2021-05-13T09:22:32Z</time>
      </trkpt>
      <trkpt lat="44.88917" lon="-0.62436">
        <ele>8.1</ele>
        <time>2021-05-13T09:22:29Z</time>
      </trkpt>
      <trkpt lat="44.88914" lon="-0.62418">
        <ele>8.1</ele>
        <time>2021-05-13T09:22:27Z</time>
      </trkpt>
      <trkpt lat="44.88911" lon="-0.62372">
        <ele>8</ele>
        <time>2021-05-13T09:22:22Z</time>
      </trkpt>
      <trkpt lat="44.88912" lon="-0.62314">
        <ele>7.9</ele>
        <time>2021-05-13T09:22:15Z</time>
      </trkpt>
      <trkpt lat="44.88914" lon="-0.62293">
        <ele>7.9</ele>
        <time>2021-05-13T09:22:12Z</time>
      </trkpt>
      <trkpt lat="44.88916" lon="-0.6228">
        <ele>7.9</ele>
        <time>2021-05-13T09:22:10Z</time>
      </trkpt>
      <trkpt lat="44.88928" lon="-0.62232">
        <ele>8</ele>
        <time>2021-05-13T09:22:04Z</time>
      </trkpt>
      <trkpt lat="44.8895" lon="-0.62172">
        <ele>8.2</ele>
        <time>2021-05-13T09:21:56Z</time>
      </trkpt>
      <trkpt lat="44.88975" lon="-0.62118">
        <ele>8.3</ele>
        <time>2021-05-13T09:21:48Z</time>
      </trkpt>
      <trkpt lat="44.88994" lon="-0.62081">
        <ele>8.1</ele>
        <time>2021-05-13T09:21:42Z</time>
      </trkpt>
      <trkpt lat="44.88999" lon="-0.6207">
        <ele>8</ele>
        <time>2021-05-13T09:21:40Z</time>
      </trkpt>
      <trkpt lat="44.89009" lon="-0.62048">
        <ele>7.7</ele>
        <time>2021-05-13T09:21:36Z</time>
      </trkpt>
      <trkpt lat="44.89033" lon="-0.62002">
        <ele>6.8</ele>
        <time>2021-05-13T09:21:28Z</time>
      </trkpt>
      <trkpt lat="44.89047" lon="-0.61971">
        <ele>6.2</ele>
        <time>2021-05-13T09:21:23Z</time>
      </trkpt>
      <trkpt lat="44.8905" lon="-0.61965">
        <ele>6.1</ele>
        <time>2021-05-13T09:21:22Z</time>
      </trkpt>
      <trkpt lat="44.89066" lon="-0.61913">
        <ele>5.3</ele>
        <time>2021-05-13T09:21:14Z</time>
      </trkpt>
      <trkpt lat="44.89079" lon="-0.61868">
        <ele>4.6</ele>
        <time>2021-05-13T09:21:07Z</time>
      </trkpt>
      <trkpt lat="44.89092" lon="-0.61823">
        <ele>4.1</ele>
        <time>2021-05-13T09:21:00Z</time>
      </trkpt>
      <trkpt lat="44.89094" lon="-0.61817">
        <ele>4</ele>
        <time>2021-05-13T09:20:59Z</time>
      </trkpt>
      <trkpt lat="44.89106" lon="-0.61793">
        <ele>3.8</ele>
        <time>2021-05-13T09:20:55Z</time>
      </trkpt>
      <trkpt lat="44.89128" lon="-0.61753">
        <ele>3.6</ele>
        <time>2021-05-13T09:20:49Z</time>
      </trkpt>
      <trkpt lat="44.89137" lon="-0.6174">
        <ele>3.6</ele>
        <time>2021-05-13T09:20:47Z</time>
      </trkpt>
      <trkpt lat="44.89148" lon="-0.61731">
        <ele>3.6</ele>
        <time>2021-05-13T09:20:45Z</time>
      </trkpt>
      <trkpt lat="44.89186" lon="-0.61711">
        <ele>3.9</ele>
        <time>2021-05-13T09:20:39Z</time>
      </trkpt>
      <trkpt lat="44.89197" lon="-0.61705">
        <ele>4</ele>
        <time>2021-05-13T09:20:37Z</time>
      </trkpt>
      <trkpt lat="44.89206" lon="-0.61697">
        <ele>4</ele>
        <time>2021-05-13T09:20:35Z</time>
      </trkpt>
      <trkpt lat="44.89211" lon="-0.61685">
        <ele>4.1</ele>
        <time>2021-05-13T09:20:33Z</time>
      </trkpt>
      <trkpt lat="44.89214" lon="-0.61674">
        <ele>4.1</ele>
        <time>2021-05-13T09:20:31Z</time>
      </trkpt>
      <trkpt lat="44.89215" lon="-0.61664">
        <ele>4</ele>
        <time>2021-05-13T09:20:29Z</time>
      </trkpt>
      <trkpt lat="44.89216" lon="-0.61661">
        <ele>4</ele>
        <time>2021-05-13T09:20:28Z</time>
      </trkpt>
      <trkpt lat="44.89224" lon="-0.61652">
        <ele>3.8</ele>
        <time>2021-05-13T09:20:25Z</time>
      </trkpt>
      <trkpt lat="44.89223" lon="-0.61642">
        <ele>3.8</ele>
        <time>2021-05-13T09:20:23Z</time>
      </trkpt>
      <trkpt lat="44.89219" lon="-0.61637">
        <ele>3.8</ele>
        <time>2021-05-13T09:20:22Z</time>
      </trkpt>
      <trkpt lat="44.89206" lon="-0.61623">
        <ele>3.7</ele>
        <time>2021-05-13T09:20:19Z</time>
      </trkpt>
      <trkpt lat="44.89202" lon="-0.61618">
        <ele>3.7</ele>
        <time>2021-05-13T09:20:18Z</time>
      </trkpt>
      <trkpt lat="44.89198" lon="-0.61611">
        <ele>3.7</ele>
        <time>2021-05-13T09:20:17Z</time>
      </trkpt>
      <trkpt lat="44.89194" lon="-0.61593">
        <ele>3.7</ele>
        <time>2021-05-13T09:20:15Z</time>
      </trkpt>
      <trkpt lat="44.89197" lon="-0.61521">
        <ele>3.5</ele>
        <time>2021-05-13T09:20:08Z</time>
      </trkpt>
      <trkpt lat="44.89202" lon="-0.61466">
        <ele>3.4</ele>
        <time>2021-05-13T09:20:03Z</time>
      </trkpt>
      <trkpt lat="44.89202" lon="-0.61455">
        <ele>3.4</ele>
        <time>2021-05-13T09:20:02Z</time>
      </trkpt>
      <trkpt lat="44.89204" lon="-0.61415">
        <ele>3.5</ele>
        <time>2021-05-13T09:19:58Z</time>
      </trkpt>
      <trkpt lat="44.89204" lon="-0.61406">
        <ele>3.5</ele>
        <time>2021-05-13T09:19:57Z</time>
      </trkpt>
      <trkpt lat="44.89199" lon="-0.6136">
        <ele>3.8</ele>
        <time>2021-05-13T09:19:52Z</time>
      </trkpt>
      <trkpt lat="44.89184" lon="-0.61304">
        <ele>4.2</ele>
        <time>2021-05-13T09:19:46Z</time>
      </trkpt>
      <trkpt lat="44.89159" lon="-0.61248">
        <ele>4.4</ele>
        <time>2021-05-13T09:19:39Z</time>
      </trkpt>
      <trkpt lat="44.89138" lon="-0.61214">
        <ele>4.5</ele>
        <time>2021-05-13T09:19:34Z</time>
      </trkpt>
      <trkpt lat="44.89104" lon="-0.61172">
        <ele>4.8</ele>
        <time>2021-05-13T09:19:27Z</time>
      </trkpt>
      <trkpt lat="44.8909" lon="-0.61157">
        <ele>5</ele>
        <time>2021-05-13T09:19:24Z</time>
      </trkpt>
      <trkpt lat="44.89085" lon="-0.61154">
        <ele>5.1</ele>
        <time>2021-05-13T09:19:23Z</time>
      </trkpt>
      <trkpt lat="44.89067" lon="-0.6114">
        <ele>5.3</ele>
        <time>2021-05-13T09:19:19Z</time>
      </trkpt>
      <trkpt lat="44.89064" lon="-0.61127">
        <ele>5.3</ele>
        <time>2021-05-13T09:19:17Z</time>
      </trkpt>
      <trkpt lat="44.89062" lon="-0.61104">
        <ele>5.3</ele>
        <time>2021-05-13T09:19:13Z</time>
      </trkpt>
      <trkpt lat="44.8906" lon="-0.61099">
        <ele>5.3</ele>
        <time>2021-05-13T09:19:12Z</time>
      </trkpt>
      <trkpt lat="44.89049" lon="-0.6109">
        <ele>5.3</ele>
        <time>2021-05-13T09:19:09Z</time>
      </trkpt>
      <trkpt lat="44.89037" lon="-0.61084">
        <ele>5.2</ele>
        <time>2021-05-13T09:19:06Z</time>
      </trkpt>
      <trkpt lat="44.89029" lon="-0.6108">
        <ele>5</ele>
        <time>2021-05-13T09:19:04Z</time>
      </trkpt>
      <trkpt lat="44.8902" lon="-0.61077">
        <ele>4.8</ele>
        <time>2021-05-13T09:19:02Z</time>
      </trkpt>
      <trkpt lat="44.89017" lon="-0.61073">
        <ele>4.6</ele>
        <time>2021-05-13T09:19:01Z</time>
      </trkpt>
      <trkpt lat="44.89015" lon="-0.61066">
        <ele>4.4</ele>
        <time>2021-05-13T09:19:00Z</time>
      </trkpt>
      <trkpt lat="44.89013" lon="-0.61034">
        <ele>3.8</ele>
        <time>2021-05-13T09:18:56Z</time>
      </trkpt>
      <trkpt lat="44.89008" lon="-0.60985">
        <ele>3.6</ele>
        <time>2021-05-13T09:18:50Z</time>
      </trkpt>
      <trkpt lat="44.89002" lon="-0.60919">
        <ele>3.5</ele>
        <time>2021-05-13T09:18:42Z</time>
      </trkpt>
      <trkpt lat="44.88999" lon="-0.60877">
        <ele>3.5</ele>
        <time>2021-05-13T09:18:37Z</time>
      </trkpt>
      <trkpt lat="44.88998" lon="-0.60869">
        <ele>3.5</ele>
        <time>2021-05-13T09:18:36Z</time>
      </trkpt>
      <trkpt lat="44.88995" lon="-0.60821">
        <ele>3.5</ele>
        <time>2021-05-13T09:18:30Z</time>
      </trkpt>
      <trkpt lat="44.88991" lon="-0.60755">
        <ele>3.6</ele>
        <time>2021-05-13T09:18:22Z</time>
      </trkpt>
      <trkpt lat="44.88986" lon="-0.60697">
        <ele>3.7</ele>
        <time>2021-05-13T09:18:15Z</time>
      </trkpt>
      <trkpt lat="44.88981" lon="-0.60635">
        <ele>3.9</ele>
        <time>2021-05-13T09:18:07Z</time>
      </trkpt>
      <trkpt lat="44.88979" lon="-0.60579">
        <ele>4</ele>
        <time>2021-05-13T09:18:00Z</time>
      </trkpt>
      <trkpt lat="44.88976" lon="-0.60514">
        <ele>4.1</ele>
        <time>2021-05-13T09:17:52Z</time>
      </trkpt>
      <trkpt lat="44.88972" lon="-0.60466">
        <ele>4.1</ele>
        <time>2021-05-13T09:17:46Z</time>
      </trkpt>
      <trkpt lat="44.88968" lon="-0.60394">
        <ele>4.1</ele>
        <time>2021-05-13T09:17:37Z</time>
      </trkpt>
      <trkpt lat="44.88966" lon="-0.60332">
        <ele>4.3</ele>
        <time>2021-05-13T09:17:29Z</time>
      </trkpt>
      <trkpt lat="44.88967" lon="-0.6031">
        <ele>4.4</ele>
        <time>2021-05-13T09:17:26Z</time>
      </trkpt>
      <trkpt lat="44.88969" lon="-0.60288">
        <ele>4.5</ele>
        <time>2021-05-13T09:17:23Z</time>
      </trkpt>
      <trkpt lat="44.88972" lon="-0.60273">
        <ele>4.5</ele>
        <time>2021-05-13T09:17:21Z</time>
      </trkpt>
      <trkpt lat="44.88981" lon="-0.60236">
        <ele>4.2</ele>
        <time>2021-05-13T09:17:16Z</time>
      </trkpt>
      <trkpt lat="44.8899" lon="-0.60207">
        <ele>3.9</ele>
        <time>2021-05-13T09:17:12Z</time>
      </trkpt>
      <trkpt lat="44.88994" lon="-0.602">
        <ele>3.8</ele>
        <time>2021-05-13T09:17:11Z</time>
      </trkpt>
      <trkpt lat="44.89001" lon="-0.60186">
        <ele>3.6</ele>
        <time>2021-05-13T09:17:09Z</time>
      </trkpt>
      <trkpt lat="44.89015" lon="-0.60169">
        <ele>3.4</ele>
        <time>2021-05-13T09:17:06Z</time>
      </trkpt>
      <trkpt lat="44.89019" lon="-0.60164">
        <ele>3.4</ele>
        <time>2021-05-13T09:17:05Z</time>
      </trkpt>
      <trkpt lat="44.89026" lon="-0.60155">
        <ele>3.4</ele>
        <time>2021-05-13T09:17:03Z</time>
      </trkpt>
      <trkpt lat="44.89033" lon="-0.60146">
        <ele>3.5</ele>
        <time>2021-05-13T09:17:01Z</time>
      </trkpt>
      <trkpt lat="44.89047" lon="-0.60127">
        <ele>3.8</ele>
        <time>2021-05-13T09:16:56Z</time>
      </trkpt>
      <trkpt lat="44.89051" lon="-0.6011">
        <ele>3.8</ele>
        <time>2021-05-13T09:16:52Z</time>
      </trkpt>
      <trkpt lat="44.89055" lon="-0.601">
        <ele>3.8</ele>
        <time>2021-05-13T09:16:49Z</time>
      </trkpt>
      <trkpt lat="44.89056" lon="-0.60097">
        <ele>3.8</ele>
        <time>2021-05-13T09:16:48Z</time>
      </trkpt>
      <trkpt lat="44.89057" lon="-0.60092">
        <ele>3.8</ele>
        <time>2021-05-13T09:16:46Z</time>
      </trkpt>
      <trkpt lat="44.89059" lon="-0.60086">
        <ele>3.8</ele>
        <time>2021-05-13T09:16:44Z</time>
      </trkpt>
      <trkpt lat="44.89063" lon="-0.60056">
        <ele>3.9</ele>
        <time>2021-05-13T09:16:39Z</time>
      </trkpt>
      <trkpt lat="44.89064" lon="-0.60036">
        <ele>4</ele>
        <time>2021-05-13T09:16:36Z</time>
      </trkpt>
      <trkpt lat="44.89063" lon="-0.60022">
        <ele>4.2</ele>
        <time>2021-05-13T09:16:34Z</time>
      </trkpt>
      <trkpt lat="44.89056" lon="-0.59975">
        <ele>4.3</ele>
        <time>2021-05-13T09:16:28Z</time>
      </trkpt>
      <trkpt lat="44.89051" lon="-0.5995">
        <ele>4.2</ele>
        <time>2021-05-13T09:16:25Z</time>
      </trkpt>
      <trkpt lat="44.89046" lon="-0.59936">
        <ele>4.2</ele>
        <time>2021-05-13T09:16:23Z</time>
      </trkpt>
      <trkpt lat="44.89039" lon="-0.59922">
        <ele>4.1</ele>
        <time>2021-05-13T09:16:21Z</time>
      </trkpt>
      <trkpt lat="44.89032" lon="-0.59909">
        <ele>4.1</ele>
        <time>2021-05-13T09:16:19Z</time>
      </trkpt>
      <trkpt lat="44.89028" lon="-0.59904">
        <ele>4</ele>
        <time>2021-05-13T09:16:18Z</time>
      </trkpt>
      <trkpt lat="44.88999" lon="-0.59865">
        <ele>4.1</ele>
        <time>2021-05-13T09:16:11Z</time>
      </trkpt>
      <trkpt lat="44.88974" lon="-0.59834">
        <ele>4</ele>
        <time>2021-05-13T09:16:05Z</time>
      </trkpt>
      <trkpt lat="44.88951" lon="-0.59798">
        <ele>3.4</ele>
        <time>2021-05-13T09:15:59Z</time>
      </trkpt>
      <trkpt lat="44.88936" lon="-0.59754">
        <ele>2.7</ele>
        <time>2021-05-13T09:15:53Z</time>
      </trkpt>
      <trkpt lat="44.88927" lon="-0.59713">
        <ele>2.4</ele>
        <time>2021-05-13T09:15:48Z</time>
      </trkpt>
      <trkpt lat="44.88926" lon="-0.59707">
        <ele>2.4</ele>
        <time>2021-05-13T09:15:47Z</time>
      </trkpt>
      <trkpt lat="44.88923" lon="-0.59678">
        <ele>2.2</ele>
        <time>2021-05-13T09:15:43Z</time>
      </trkpt>
      <trkpt lat="44.8892" lon="-0.59622">
        <ele>2.1</ele>
        <time>2021-05-13T09:15:36Z</time>
      </trkpt>
      <trkpt lat="44.88917" lon="-0.59566">
        <ele>2.1</ele>
        <time>2021-05-13T09:15:29Z</time>
      </trkpt>
      <trkpt lat="44.88913" lon="-0.5952">
        <ele>2.1</ele>
        <time>2021-05-13T09:15:23Z</time>
      </trkpt>
      <trkpt lat="44.8891" lon="-0.59466">
        <ele>2.2</ele>
        <time>2021-05-13T09:15:15Z</time>
      </trkpt>
      <trkpt lat="44.88909" lon="-0.5946">
        <ele>2.2</ele>
        <time>2021-05-13T09:15:14Z</time>
      </trkpt>
      <trkpt lat="44.88908" lon="-0.59431">
        <ele>2.1</ele>
        <time>2021-05-13T09:15:09Z</time>
      </trkpt>
      <trkpt lat="44.88907" lon="-0.5941">
        <ele>2.1</ele>
        <time>2021-05-13T09:15:05Z</time>
      </trkpt>
      <trkpt lat="44.88905" lon="-0.59386">
        <ele>2.1</ele>
        <time>2021-05-13T09:15:00Z</time>
      </trkpt>
      <trkpt lat="44.88904" lon="-0.5938">
        <ele>2.1</ele>
        <time>2021-05-13T09:14:58Z</time>
      </trkpt>
      <trkpt lat="44.88905" lon="-0.59377">
        <ele>2.1</ele>
        <time>2021-05-13T09:14:55Z</time>
      </trkpt>
      <trkpt lat="44.88903" lon="-0.59374">
        <ele>2.1</ele>
        <time>2021-05-13T09:12:28Z</time>
      </trkpt>
      <trkpt lat="44.88902" lon="-0.59371">
        <ele>2.1</ele>
        <time>2021-05-13T09:12:27Z</time>
      </trkpt>
      <trkpt lat="44.88899" lon="-0.59334">
        <ele>2.4</ele>
        <time>2021-05-13T09:12:20Z</time>
      </trkpt>
      <trkpt lat="44.88896" lon="-0.59299">
        <ele>3</ele>
        <time>2021-05-13T09:12:15Z</time>
      </trkpt>
      <trkpt lat="44.88891" lon="-0.5924">
        <ele>4</ele>
        <time>2021-05-13T09:12:08Z</time>
      </trkpt>
      <trkpt lat="44.88892" lon="-0.59218">
        <ele>4.1</ele>
        <time>2021-05-13T09:12:05Z</time>
      </trkpt>
      <trkpt lat="44.88894" lon="-0.59211">
        <ele>4.1</ele>
        <time>2021-05-13T09:12:04Z</time>
      </trkpt>
      <trkpt lat="44.88908" lon="-0.59159">
        <ele>4</ele>
        <time>2021-05-13T09:11:57Z</time>
      </trkpt>
      <trkpt lat="44.8891" lon="-0.59152">
        <ele>3.9</ele>
        <time>2021-05-13T09:11:56Z</time>
      </trkpt>
      <trkpt lat="44.88916" lon="-0.5914">
        <ele>3.7</ele>
        <time>2021-05-13T09:11:54Z</time>
      </trkpt>
      <trkpt lat="44.88923" lon="-0.5913">
        <ele>3.5</ele>
        <time>2021-05-13T09:11:52Z</time>
      </trkpt>
      <trkpt lat="44.88927" lon="-0.59124">
        <ele>3.3</ele>
        <time>2021-05-13T09:11:51Z</time>
      </trkpt>
      <trkpt lat="44.88946" lon="-0.59109">
        <ele>2.8</ele>
        <time>2021-05-13T09:11:47Z</time>
      </trkpt>
      <trkpt lat="44.88987" lon="-0.59088">
        <ele>2.5</ele>
        <time>2021-05-13T09:11:39Z</time>
      </trkpt>
      <trkpt lat="44.89028" lon="-0.59066">
        <ele>2.2</ele>
        <time>2021-05-13T09:11:31Z</time>
      </trkpt>
      <trkpt lat="44.89064" lon="-0.59048">
        <ele>2.2</ele>
        <time>2021-05-13T09:11:24Z</time>
      </trkpt>
      <trkpt lat="44.89105" lon="-0.59027">
        <ele>2.8</ele>
        <time>2021-05-13T09:11:16Z</time>
      </trkpt>
      <trkpt lat="44.89114" lon="-0.59022">
        <ele>3</ele>
        <time>2021-05-13T09:11:14Z</time>
      </trkpt>
      <trkpt lat="44.89117" lon="-0.59017">
        <ele>3.1</ele>
        <time>2021-05-13T09:11:13Z</time>
      </trkpt>
      <trkpt lat="44.89119" lon="-0.59012">
        <ele>3.3</ele>
        <time>2021-05-13T09:11:12Z</time>
      </trkpt>
      <trkpt lat="44.89112" lon="-0.58996">
        <ele>3.6</ele>
        <time>2021-05-13T09:11:08Z</time>
      </trkpt>
      <trkpt lat="44.891" lon="-0.58973">
        <ele>4</ele>
        <time>2021-05-13T09:11:02Z</time>
      </trkpt>
      <trkpt lat="44.89097" lon="-0.58962">
        <ele>4.1</ele>
        <time>2021-05-13T09:11:00Z</time>
      </trkpt>
      <trkpt lat="44.89099" lon="-0.5895">
        <ele>4.3</ele>
        <time>2021-05-13T09:10:58Z</time>
      </trkpt>
      <trkpt lat="44.891" lon="-0.5894">
        <ele>4.3</ele>
        <time>2021-05-13T09:10:56Z</time>
      </trkpt>
      <trkpt lat="44.891" lon="-0.58937">
        <ele>4.3</ele>
        <time>2021-05-13T09:10:55Z</time>
      </trkpt>
      <trkpt lat="44.89099" lon="-0.58934">
        <ele>4.3</ele>
        <time>2021-05-13T09:10:53Z</time>
      </trkpt>
      <trkpt lat="44.89095" lon="-0.58933">
        <ele>4.3</ele>
        <time>2021-05-13T09:10:51Z</time>
      </trkpt>
      <trkpt lat="44.8908" lon="-0.58926">
        <ele>4.2</ele>
        <time>2021-05-13T09:10:47Z</time>
      </trkpt>
      <trkpt lat="44.89045" lon="-0.58904">
        <ele>4.2</ele>
        <time>2021-05-13T09:10:40Z</time>
      </trkpt>
      <trkpt lat="44.89002" lon="-0.5888">
        <ele>4.5</ele>
        <time>2021-05-13T09:10:32Z</time>
      </trkpt>
      <trkpt lat="44.88992" lon="-0.58875">
        <ele>4.5</ele>
        <time>2021-05-13T09:10:30Z</time>
      </trkpt>
      <trkpt lat="44.88972" lon="-0.58861">
        <ele>4.6</ele>
        <time>2021-05-13T09:10:26Z</time>
      </trkpt>
      <trkpt lat="44.88957" lon="-0.58848">
        <ele>4.6</ele>
        <time>2021-05-13T09:10:23Z</time>
      </trkpt>
      <trkpt lat="44.88951" lon="-0.58846">
        <ele>4.7</ele>
        <time>2021-05-13T09:10:22Z</time>
      </trkpt>
      <trkpt lat="44.88946" lon="-0.58845">
        <ele>4.7</ele>
        <time>2021-05-13T09:10:21Z</time>
      </trkpt>
      <trkpt lat="44.88934" lon="-0.58847">
        <ele>4.8</ele>
        <time>2021-05-13T09:10:19Z</time>
      </trkpt>
      <trkpt lat="44.88929" lon="-0.58846">
        <ele>4.8</ele>
        <time>2021-05-13T09:10:18Z</time>
      </trkpt>
      <trkpt lat="44.88924" lon="-0.58845">
        <ele>4.8</ele>
        <time>2021-05-13T09:10:17Z</time>
      </trkpt>
      <trkpt lat="44.88898" lon="-0.58835">
        <ele>4.7</ele>
        <time>2021-05-13T09:10:12Z</time>
      </trkpt>
      <trkpt lat="44.88889" lon="-0.58826">
        <ele>4.7</ele>
        <time>2021-05-13T09:10:10Z</time>
      </trkpt>
      <trkpt lat="44.88882" lon="-0.58806">
        <ele>4.8</ele>
        <time>2021-05-13T09:10:07Z</time>
      </trkpt>
      <trkpt lat="44.88869" lon="-0.58767">
        <ele>4.8</ele>
        <time>2021-05-13T09:10:01Z</time>
      </trkpt>
      <trkpt lat="44.88866" lon="-0.5876">
        <ele>4.8</ele>
        <time>2021-05-13T09:10:00Z</time>
      </trkpt>
      <trkpt lat="44.88861" lon="-0.58723">
        <ele>4.8</ele>
        <time>2021-05-13T09:09:55Z</time>
      </trkpt>
      <trkpt lat="44.88855" lon="-0.58695">
        <ele>4.7</ele>
        <time>2021-05-13T09:09:51Z</time>
      </trkpt>
      <trkpt lat="44.88854" lon="-0.58689">
        <ele>4.8</ele>
        <time>2021-05-13T09:09:50Z</time>
      </trkpt>
      <trkpt lat="44.88854" lon="-0.58683">
        <ele>4.9</ele>
        <time>2021-05-13T09:09:49Z</time>
      </trkpt>
      <trkpt lat="44.88857" lon="-0.58667">
        <ele>5</ele>
        <time>2021-05-13T09:09:46Z</time>
      </trkpt>
      <trkpt lat="44.88859" lon="-0.58652">
        <ele>5</ele>
        <time>2021-05-13T09:09:43Z</time>
      </trkpt>
      <trkpt lat="44.8886" lon="-0.58645">
        <ele>4.9</ele>
        <time>2021-05-13T09:09:42Z</time>
      </trkpt>
      <trkpt lat="44.8886" lon="-0.58638">
        <ele>4.8</ele>
        <time>2021-05-13T09:09:41Z</time>
      </trkpt>
      <trkpt lat="44.88861" lon="-0.58622">
        <ele>4.2</ele>
        <time>2021-05-13T09:09:39Z</time>
      </trkpt>
      <trkpt lat="44.88856" lon="-0.58607">
        <ele>3.5</ele>
        <time>2021-05-13T09:09:37Z</time>
      </trkpt>
      <trkpt lat="44.88847" lon="-0.58596">
        <ele>2.8</ele>
        <time>2021-05-13T09:09:35Z</time>
      </trkpt>
      <trkpt lat="44.88842" lon="-0.58591">
        <ele>2.4</ele>
        <time>2021-05-13T09:09:34Z</time>
      </trkpt>
      <trkpt lat="44.88831" lon="-0.58591">
        <ele>2.3</ele>
        <time>2021-05-13T09:09:32Z</time>
      </trkpt>
      <trkpt lat="44.88812" lon="-0.58586">
        <ele>2.4</ele>
        <time>2021-05-13T09:09:27Z</time>
      </trkpt>
      <trkpt lat="44.88804" lon="-0.58586">
        <ele>2.6</ele>
        <time>2021-05-13T09:09:25Z</time>
      </trkpt>
      <trkpt lat="44.88801" lon="-0.58589">
        <ele>2.8</ele>
        <time>2021-05-13T09:09:24Z</time>
      </trkpt>
      <trkpt lat="44.88799" lon="-0.58593">
        <ele>2.9</ele>
        <time>2021-05-13T09:09:23Z</time>
      </trkpt>
      <trkpt lat="44.88797" lon="-0.58615">
        <ele>3.5</ele>
        <time>2021-05-13T09:09:19Z</time>
      </trkpt>
      <trkpt lat="44.88797" lon="-0.5864">
        <ele>4</ele>
        <time>2021-05-13T09:09:15Z</time>
      </trkpt>
      <trkpt lat="44.88796" lon="-0.58647">
        <ele>4.1</ele>
        <time>2021-05-13T09:09:14Z</time>
      </trkpt>
      <trkpt lat="44.88795" lon="-0.58654">
        <ele>4.2</ele>
        <time>2021-05-13T09:09:13Z</time>
      </trkpt>
      <trkpt lat="44.88789" lon="-0.58666">
        <ele>4.3</ele>
        <time>2021-05-13T09:09:11Z</time>
      </trkpt>
      <trkpt lat="44.88785" lon="-0.58671">
        <ele>4.4</ele>
        <time>2021-05-13T09:09:10Z</time>
      </trkpt>
      <trkpt lat="44.88782" lon="-0.58675">
        <ele>4.4</ele>
        <time>2021-05-13T09:09:09Z</time>
      </trkpt>
      <trkpt lat="44.88774" lon="-0.58677">
        <ele>4.5</ele>
        <time>2021-05-13T09:09:07Z</time>
      </trkpt>
      <trkpt lat="44.88752" lon="-0.58667">
        <ele>4.5</ele>
        <time>2021-05-13T09:09:02Z</time>
      </trkpt>
      <trkpt lat="44.88713" lon="-0.58644">
        <ele>4.4</ele>
        <time>2021-05-13T09:08:55Z</time>
      </trkpt>
      <trkpt lat="44.88686" lon="-0.5863">
        <ele>4.3</ele>
        <time>2021-05-13T09:08:50Z</time>
      </trkpt>
      <trkpt lat="44.8868" lon="-0.58627">
        <ele>4.3</ele>
        <time>2021-05-13T09:08:49Z</time>
      </trkpt>
      <trkpt lat="44.88669" lon="-0.58623">
        <ele>4.3</ele>
        <time>2021-05-13T09:08:47Z</time>
      </trkpt>
      <trkpt lat="44.88665" lon="-0.58621">
        <ele>4.3</ele>
        <time>2021-05-13T09:08:46Z</time>
      </trkpt>
      <trkpt lat="44.88653" lon="-0.58615">
        <ele>4.2</ele>
        <time>2021-05-13T09:08:43Z</time>
      </trkpt>
      <trkpt lat="44.88645" lon="-0.58611">
        <ele>4.2</ele>
        <time>2021-05-13T09:08:41Z</time>
      </trkpt>
      <trkpt lat="44.88617" lon="-0.58598">
        <ele>4.1</ele>
        <time>2021-05-13T09:08:35Z</time>
      </trkpt>
      <trkpt lat="44.88607" lon="-0.58593">
        <ele>4.1</ele>
        <time>2021-05-13T09:08:33Z</time>
      </trkpt>
      <trkpt lat="44.88594" lon="-0.58585">
        <ele>4</ele>
        <time>2021-05-13T09:08:30Z</time>
      </trkpt>
      <trkpt lat="44.88579" lon="-0.58573">
        <ele>3.8</ele>
        <time>2021-05-13T09:08:26Z</time>
      </trkpt>
      <trkpt lat="44.88569" lon="-0.58554">
        <ele>3.6</ele>
        <time>2021-05-13T09:08:22Z</time>
      </trkpt>
      <trkpt lat="44.88567" lon="-0.58548">
        <ele>3.6</ele>
        <time>2021-05-13T09:08:20Z</time>
      </trkpt>
      <trkpt lat="44.88565" lon="-0.58544">
        <ele>3.6</ele>
        <time>2021-05-13T09:08:18Z</time>
      </trkpt>
      <trkpt lat="44.88555" lon="-0.58539">
        <ele>3.5</ele>
        <time>2021-05-13T09:08:14Z</time>
      </trkpt>
      <trkpt lat="44.88546" lon="-0.58539">
        <ele>3.4</ele>
        <time>2021-05-13T09:08:12Z</time>
      </trkpt>
      <trkpt lat="44.88534" lon="-0.58536">
        <ele>3.4</ele>
        <time>2021-05-13T09:08:10Z</time>
      </trkpt>
      <trkpt lat="44.88521" lon="-0.58536">
        <ele>3.5</ele>
        <time>2021-05-13T09:08:08Z</time>
      </trkpt>
      <trkpt lat="44.88515" lon="-0.58538">
        <ele>3.5</ele>
        <time>2021-05-13T09:08:07Z</time>
      </trkpt>
      <trkpt lat="44.8851" lon="-0.58542">
        <ele>3.6</ele>
        <time>2021-05-13T09:08:06Z</time>
      </trkpt>
      <trkpt lat="44.88499" lon="-0.58554">
        <ele>3.7</ele>
        <time>2021-05-13T09:08:03Z</time>
      </trkpt>
      <trkpt lat="44.8849" lon="-0.58559">
        <ele>3.7</ele>
        <time>2021-05-13T09:08:01Z</time>
      </trkpt>
      <trkpt lat="44.88454" lon="-0.58546">
        <ele>3.6</ele>
        <time>2021-05-13T09:07:54Z</time>
      </trkpt>
      <trkpt lat="44.88418" lon="-0.58527">
        <ele>3.6</ele>
        <time>2021-05-13T09:07:48Z</time>
      </trkpt>
      <trkpt lat="44.88388" lon="-0.58509">
        <ele>3.5</ele>
        <time>2021-05-13T09:07:43Z</time>
      </trkpt>
      <trkpt lat="44.88357" lon="-0.58491">
        <ele>3.4</ele>
        <time>2021-05-13T09:07:38Z</time>
      </trkpt>
      <trkpt lat="44.8832" lon="-0.58473">
        <ele>3.3</ele>
        <time>2021-05-13T09:07:32Z</time>
      </trkpt>
      <trkpt lat="44.88281" lon="-0.58456">
        <ele>3.3</ele>
        <time>2021-05-13T09:07:26Z</time>
      </trkpt>
      <trkpt lat="44.88242" lon="-0.5844">
        <ele>3.4</ele>
        <time>2021-05-13T09:07:20Z</time>
      </trkpt>
      <trkpt lat="44.88204" lon="-0.58425">
        <ele>3.3</ele>
        <time>2021-05-13T09:07:14Z</time>
      </trkpt>
      <trkpt lat="44.88167" lon="-0.58412">
        <ele>3.3</ele>
        <time>2021-05-13T09:07:08Z</time>
      </trkpt>
      <trkpt lat="44.88124" lon="-0.58394">
        <ele>3.2</ele>
        <time>2021-05-13T09:07:01Z</time>
      </trkpt>
      <trkpt lat="44.88083" lon="-0.58375">
        <ele>3.2</ele>
        <time>2021-05-13T09:06:54Z</time>
      </trkpt>
      <trkpt lat="44.88044" lon="-0.58352">
        <ele>3.2</ele>
        <time>2021-05-13T09:06:47Z</time>
      </trkpt>
      <trkpt lat="44.88018" lon="-0.58335">
        <ele>3.2</ele>
        <time>2021-05-13T09:06:42Z</time>
      </trkpt>
      <trkpt lat="44.87981" lon="-0.58307">
        <ele>3.3</ele>
        <time>2021-05-13T09:06:35Z</time>
      </trkpt>
      <trkpt lat="44.87948" lon="-0.58277">
        <ele>3.4</ele>
        <time>2021-05-13T09:06:28Z</time>
      </trkpt>
      <trkpt lat="44.87944" lon="-0.58273">
        <ele>3.5</ele>
        <time>2021-05-13T09:06:27Z</time>
      </trkpt>
      <trkpt lat="44.87924" lon="-0.58252">
        <ele>3.4</ele>
        <time>2021-05-13T09:06:22Z</time>
      </trkpt>
      <trkpt lat="44.87906" lon="-0.58234">
        <ele>3.3</ele>
        <time>2021-05-13T09:06:18Z</time>
      </trkpt>
      <trkpt lat="44.87902" lon="-0.58228">
        <ele>3.3</ele>
        <time>2021-05-13T09:06:17Z</time>
      </trkpt>
      <trkpt lat="44.87899" lon="-0.58222">
        <ele>3.3</ele>
        <time>2021-05-13T09:06:16Z</time>
      </trkpt>
      <trkpt lat="44.87882" lon="-0.58203">
        <ele>3.2</ele>
        <time>2021-05-13T09:06:12Z</time>
      </trkpt>
      <trkpt lat="44.8786" lon="-0.58177">
        <ele>3.1</ele>
        <time>2021-05-13T09:06:07Z</time>
      </trkpt>
      <trkpt lat="44.87856" lon="-0.58172">
        <ele>3.1</ele>
        <time>2021-05-13T09:06:06Z</time>
      </trkpt>
      <trkpt lat="44.87848" lon="-0.58161">
        <ele>3.1</ele>
        <time>2021-05-13T09:06:04Z</time>
      </trkpt>
      <trkpt lat="44.87836" lon="-0.58141">
        <ele>3.1</ele>
        <time>2021-05-13T09:06:01Z</time>
      </trkpt>
      <trkpt lat="44.8781" lon="-0.58106">
        <ele>3.3</ele>
        <time>2021-05-13T09:05:55Z</time>
      </trkpt>
      <trkpt lat="44.87792" lon="-0.58078">
        <ele>3.4</ele>
        <time>2021-05-13T09:05:50Z</time>
      </trkpt>
      <trkpt lat="44.87775" lon="-0.58048">
        <ele>3.5</ele>
        <time>2021-05-13T09:05:45Z</time>
      </trkpt>
      <trkpt lat="44.87759" lon="-0.58014">
        <ele>3.7</ele>
        <time>2021-05-13T09:05:40Z</time>
      </trkpt>
      <trkpt lat="44.87754" lon="-0.58001">
        <ele>3.7</ele>
        <time>2021-05-13T09:05:38Z</time>
      </trkpt>
      <trkpt lat="44.87749" lon="-0.57986">
        <ele>3.7</ele>
        <time>2021-05-13T09:05:36Z</time>
      </trkpt>
      <trkpt lat="44.87746" lon="-0.57979">
        <ele>3.8</ele>
        <time>2021-05-13T09:05:35Z</time>
      </trkpt>
      <trkpt lat="44.87742" lon="-0.57965">
        <ele>3.9</ele>
        <time>2021-05-13T09:05:33Z</time>
      </trkpt>
      <trkpt lat="44.87743" lon="-0.57953">
        <ele>4</ele>
        <time>2021-05-13T09:05:31Z</time>
      </trkpt>
      <trkpt lat="44.87744" lon="-0.57947">
        <ele>4</ele>
        <time>2021-05-13T09:05:30Z</time>
      </trkpt>
      <trkpt lat="44.87743" lon="-0.57941">
        <ele>4.1</ele>
        <time>2021-05-13T09:05:29Z</time>
      </trkpt>
      <trkpt lat="44.87735" lon="-0.57929">
        <ele>4.1</ele>
        <time>2021-05-13T09:05:26Z</time>
      </trkpt>
      <trkpt lat="44.87733" lon="-0.57924">
        <ele>4.1</ele>
        <time>2021-05-13T09:05:25Z</time>
      </trkpt>
      <trkpt lat="44.8773" lon="-0.57905">
        <ele>4.1</ele>
        <time>2021-05-13T09:05:22Z</time>
      </trkpt>
      <trkpt lat="44.87727" lon="-0.57867">
        <ele>4.2</ele>
        <time>2021-05-13T09:05:17Z</time>
      </trkpt>
      <trkpt lat="44.87725" lon="-0.57821">
        <ele>4.3</ele>
        <time>2021-05-13T09:05:11Z</time>
      </trkpt>
      <trkpt lat="44.87725" lon="-0.57814">
        <ele>4.3</ele>
        <time>2021-05-13T09:05:10Z</time>
      </trkpt>
      <trkpt lat="44.87727" lon="-0.57797">
        <ele>4.3</ele>
        <time>2021-05-13T09:05:08Z</time>
      </trkpt>
      <trkpt lat="44.87727" lon="-0.57789">
        <ele>4.3</ele>
        <time>2021-05-13T09:05:07Z</time>
      </trkpt>
      <trkpt lat="44.87726" lon="-0.57775">
        <ele>4.3</ele>
        <time>2021-05-13T09:05:05Z</time>
      </trkpt>
      <trkpt lat="44.87727" lon="-0.57762">
        <ele>4.3</ele>
        <time>2021-05-13T09:05:03Z</time>
      </trkpt>
      <trkpt lat="44.87729" lon="-0.5775">
        <ele>4.3</ele>
        <time>2021-05-13T09:05:01Z</time>
      </trkpt>
      <trkpt lat="44.87731" lon="-0.57744">
        <ele>4.3</ele>
        <time>2021-05-13T09:05:00Z</time>
      </trkpt>
      <trkpt lat="44.87733" lon="-0.57739">
        <ele>4.3</ele>
        <time>2021-05-13T09:04:59Z</time>
      </trkpt>
      <trkpt lat="44.87737" lon="-0.57715">
        <ele>4.2</ele>
        <time>2021-05-13T09:04:55Z</time>
      </trkpt>
      <trkpt lat="44.87738" lon="-0.57709">
        <ele>4.2</ele>
        <time>2021-05-13T09:04:54Z</time>
      </trkpt>
      <trkpt lat="44.87741" lon="-0.57698">
        <ele>4.1</ele>
        <time>2021-05-13T09:04:52Z</time>
      </trkpt>
      <trkpt lat="44.87745" lon="-0.57686">
        <ele>4.1</ele>
        <time>2021-05-13T09:04:50Z</time>
      </trkpt>
      <trkpt lat="44.87756" lon="-0.57653">
        <ele>4.2</ele>
        <time>2021-05-13T09:04:45Z</time>
      </trkpt>
      <trkpt lat="44.87758" lon="-0.57647">
        <ele>4.2</ele>
        <time>2021-05-13T09:04:44Z</time>
      </trkpt>
      <trkpt lat="44.87759" lon="-0.57637">
        <ele>4.3</ele>
        <time>2021-05-13T09:04:42Z</time>
      </trkpt>
      <trkpt lat="44.87756" lon="-0.57626">
        <ele>4.3</ele>
        <time>2021-05-13T09:04:39Z</time>
      </trkpt>
      <trkpt lat="44.87766" lon="-0.57603">
        <ele>4.1</ele>
        <time>2021-05-13T09:04:33Z</time>
      </trkpt>
      <trkpt lat="44.87782" lon="-0.57571">
        <ele>4.1</ele>
        <time>2021-05-13T09:04:27Z</time>
      </trkpt>
      <trkpt lat="44.87806" lon="-0.57513">
        <ele>4.1</ele>
        <time>2021-05-13T09:04:18Z</time>
      </trkpt>
      <trkpt lat="44.87828" lon="-0.57461">
        <ele>4.1</ele>
        <time>2021-05-13T09:04:10Z</time>
      </trkpt>
      <trkpt lat="44.87836" lon="-0.57442">
        <ele>4</ele>
        <time>2021-05-13T09:04:07Z</time>
      </trkpt>
      <trkpt lat="44.87847" lon="-0.57424">
        <ele>4</ele>
        <time>2021-05-13T09:04:04Z</time>
      </trkpt>
      <trkpt lat="44.87872" lon="-0.57394">
        <ele>4</ele>
        <time>2021-05-13T09:03:58Z</time>
      </trkpt>
      <trkpt lat="44.87876" lon="-0.57389">
        <ele>4</ele>
        <time>2021-05-13T09:03:57Z</time>
      </trkpt>
      <trkpt lat="44.87884" lon="-0.57382">
        <ele>4</ele>
        <time>2021-05-13T09:03:55Z</time>
      </trkpt>
      <trkpt lat="44.87891" lon="-0.57376">
        <ele>3.9</ele>
        <time>2021-05-13T09:03:53Z</time>
      </trkpt>
      <trkpt lat="44.87898" lon="-0.57366">
        <ele>4</ele>
        <time>2021-05-13T09:03:50Z</time>
      </trkpt>
      <trkpt lat="44.87909" lon="-0.57367">
        <ele>4</ele>
        <time>2021-05-13T09:03:47Z</time>
      </trkpt>
      <trkpt lat="44.87914" lon="-0.5736">
        <ele>4</ele>
        <time>2021-05-13T09:03:45Z</time>
      </trkpt>
      <trkpt lat="44.87915" lon="-0.57354">
        <ele>4</ele>
        <time>2021-05-13T09:03:44Z</time>
      </trkpt>
      <trkpt lat="44.87914" lon="-0.57348">
        <ele>4</ele>
        <time>2021-05-13T09:03:43Z</time>
      </trkpt>
      <trkpt lat="44.87905" lon="-0.57335">
        <ele>4</ele>
        <time>2021-05-13T09:03:40Z</time>
      </trkpt>
      <trkpt lat="44.87893" lon="-0.57307">
        <ele>4</ele>
        <time>2021-05-13T09:03:35Z</time>
      </trkpt>
      <trkpt lat="44.87881" lon="-0.57273">
        <ele>3.9</ele>
        <time>2021-05-13T09:03:30Z</time>
      </trkpt>
      <trkpt lat="44.87857" lon="-0.57212">
        <ele>3.8</ele>
        <time>2021-05-13T09:03:22Z</time>
      </trkpt>
      <trkpt lat="44.87851" lon="-0.57198">
        <ele>3.8</ele>
        <time>2021-05-13T09:03:20Z</time>
      </trkpt>
      <trkpt lat="44.87843" lon="-0.57175">
        <ele>3.8</ele>
        <time>2021-05-13T09:03:17Z</time>
      </trkpt>
      <trkpt lat="44.87825" lon="-0.57131">
        <ele>4</ele>
        <time>2021-05-13T09:03:11Z</time>
      </trkpt>
      <trkpt lat="44.87817" lon="-0.57112">
        <ele>3.9</ele>
        <time>2021-05-13T09:03:08Z</time>
      </trkpt>
      <trkpt lat="44.87814" lon="-0.57107">
        <ele>3.9</ele>
        <time>2021-05-13T09:03:07Z</time>
      </trkpt>
      <trkpt lat="44.878" lon="-0.57085">
        <ele>3.9</ele>
        <time>2021-05-13T09:03:01Z</time>
      </trkpt>
      <trkpt lat="44.87796" lon="-0.57079">
        <ele>3.9</ele>
        <time>2021-05-13T09:02:57Z</time>
      </trkpt>
      <trkpt lat="44.87795" lon="-0.57079">
        <ele>3.9</ele>
        <time>2021-05-13T09:02:52Z</time>
      </trkpt>
      <trkpt lat="44.87792" lon="-0.57069">
        <ele>4</ele>
        <time>2021-05-13T09:02:48Z</time>
      </trkpt>
      <trkpt lat="44.87779" lon="-0.57045">
        <ele>4</ele>
        <time>2021-05-13T09:02:43Z</time>
      </trkpt>
      <trkpt lat="44.87758" lon="-0.57">
        <ele>4.3</ele>
        <time>2021-05-13T09:02:36Z</time>
      </trkpt>
      <trkpt lat="44.87738" lon="-0.56962">
        <ele>4.4</ele>
        <time>2021-05-13T09:02:30Z</time>
      </trkpt>
      <trkpt lat="44.87733" lon="-0.56949">
        <ele>4.5</ele>
        <time>2021-05-13T09:02:28Z</time>
      </trkpt>
      <trkpt lat="44.87734" lon="-0.56934">
        <ele>4.5</ele>
        <time>2021-05-13T09:02:26Z</time>
      </trkpt>
      <trkpt lat="44.87734" lon="-0.56919">
        <ele>4.6</ele>
        <time>2021-05-13T09:02:24Z</time>
      </trkpt>
      <trkpt lat="44.87732" lon="-0.56912">
        <ele>4.6</ele>
        <time>2021-05-13T09:02:23Z</time>
      </trkpt>
      <trkpt lat="44.8773" lon="-0.56905">
        <ele>4.6</ele>
        <time>2021-05-13T09:02:22Z</time>
      </trkpt>
      <trkpt lat="44.87721" lon="-0.56896">
        <ele>4.5</ele>
        <time>2021-05-13T09:02:20Z</time>
      </trkpt>
      <trkpt lat="44.87711" lon="-0.56894">
        <ele>4.5</ele>
        <time>2021-05-13T09:02:18Z</time>
      </trkpt>
      <trkpt lat="44.87705" lon="-0.56896">
        <ele>4.5</ele>
        <time>2021-05-13T09:02:17Z</time>
      </trkpt>
      <trkpt lat="44.87701" lon="-0.56901">
        <ele>4.4</ele>
        <time>2021-05-13T09:02:16Z</time>
      </trkpt>
      <trkpt lat="44.87691" lon="-0.5692">
        <ele>4.3</ele>
        <time>2021-05-13T09:02:13Z</time>
      </trkpt>
      <trkpt lat="44.87683" lon="-0.56929">
        <ele>4.1</ele>
        <time>2021-05-13T09:02:11Z</time>
      </trkpt>
      <trkpt lat="44.87673" lon="-0.56934">
        <ele>4</ele>
        <time>2021-05-13T09:02:09Z</time>
      </trkpt>
      <trkpt lat="44.8765" lon="-0.5694">
        <ele>3.9</ele>
        <time>2021-05-13T09:02:05Z</time>
      </trkpt>
      <trkpt lat="44.87644" lon="-0.56941">
        <ele>3.9</ele>
        <time>2021-05-13T09:02:04Z</time>
      </trkpt>
      <trkpt lat="44.87638" lon="-0.56941">
        <ele>3.8</ele>
        <time>2021-05-13T09:02:03Z</time>
      </trkpt>
      <trkpt lat="44.8761" lon="-0.56936">
        <ele>3.7</ele>
        <time>2021-05-13T09:01:58Z</time>
      </trkpt>
      <trkpt lat="44.87604" lon="-0.56933">
        <ele>3.7</ele>
        <time>2021-05-13T09:01:57Z</time>
      </trkpt>
      <trkpt lat="44.87579" lon="-0.56915">
        <ele>3.6</ele>
        <time>2021-05-13T09:01:52Z</time>
      </trkpt>
      <trkpt lat="44.87545" lon="-0.56885">
        <ele>3.6</ele>
        <time>2021-05-13T09:01:45Z</time>
      </trkpt>
      <trkpt lat="44.87525" lon="-0.56867">
        <ele>3.6</ele>
        <time>2021-05-13T09:01:40Z</time>
      </trkpt>
      <trkpt lat="44.875" lon="-0.56854">
        <ele>3.5</ele>
        <time>2021-05-13T09:01:34Z</time>
      </trkpt>
      <trkpt lat="44.87461" lon="-0.56847">
        <ele>3.4</ele>
        <time>2021-05-13T09:01:27Z</time>
      </trkpt>
      <trkpt lat="44.87405" lon="-0.56848">
        <ele>3.3</ele>
        <time>2021-05-13T09:01:18Z</time>
      </trkpt>
      <trkpt lat="44.87355" lon="-0.56853">
        <ele>3.4</ele>
        <time>2021-05-13T09:01:10Z</time>
      </trkpt>
      <trkpt lat="44.87343" lon="-0.56854">
        <ele>3.4</ele>
        <time>2021-05-13T09:01:08Z</time>
      </trkpt>
      <trkpt lat="44.87324" lon="-0.56853">
        <ele>3.5</ele>
        <time>2021-05-13T09:01:05Z</time>
      </trkpt>
      <trkpt lat="44.87318" lon="-0.56851">
        <ele>3.5</ele>
        <time>2021-05-13T09:01:04Z</time>
      </trkpt>
      <trkpt lat="44.87295" lon="-0.56839">
        <ele>3.6</ele>
        <time>2021-05-13T09:01:00Z</time>
      </trkpt>
      <trkpt lat="44.87279" lon="-0.56824">
        <ele>3.6</ele>
        <time>2021-05-13T09:00:57Z</time>
      </trkpt>
      <trkpt lat="44.87267" lon="-0.56806">
        <ele>3.6</ele>
        <time>2021-05-13T09:00:54Z</time>
      </trkpt>
      <trkpt lat="44.87246" lon="-0.56775">
        <ele>3.7</ele>
        <time>2021-05-13T09:00:49Z</time>
      </trkpt>
      <trkpt lat="44.87221" lon="-0.56749">
        <ele>3.6</ele>
        <time>2021-05-13T09:00:44Z</time>
      </trkpt>
      <trkpt lat="44.87216" lon="-0.56745">
        <ele>3.6</ele>
        <time>2021-05-13T09:00:43Z</time>
      </trkpt>
      <trkpt lat="44.87204" lon="-0.56739">
        <ele>3.6</ele>
        <time>2021-05-13T09:00:41Z</time>
      </trkpt>
      <trkpt lat="44.87193" lon="-0.56735">
        <ele>3.6</ele>
        <time>2021-05-13T09:00:39Z</time>
      </trkpt>
      <trkpt lat="44.87188" lon="-0.56733">
        <ele>3.6</ele>
        <time>2021-05-13T09:00:38Z</time>
      </trkpt>
      <trkpt lat="44.87154" lon="-0.56727">
        <ele>3.6</ele>
        <time>2021-05-13T09:00:32Z</time>
      </trkpt>
      <trkpt lat="44.871" lon="-0.56716">
        <ele>3.6</ele>
        <time>2021-05-13T09:00:22Z</time>
      </trkpt>
      <trkpt lat="44.87084" lon="-0.56712">
        <ele>3.7</ele>
        <time>2021-05-13T09:00:19Z</time>
      </trkpt>
      <trkpt lat="44.87079" lon="-0.5671">
        <ele>3.7</ele>
        <time>2021-05-13T09:00:18Z</time>
      </trkpt>
      <trkpt lat="44.87065" lon="-0.56698">
        <ele>3.8</ele>
        <time>2021-05-13T09:00:15Z</time>
      </trkpt>
      <trkpt lat="44.87058" lon="-0.56689">
        <ele>4</ele>
        <time>2021-05-13T09:00:13Z</time>
      </trkpt>
      <trkpt lat="44.87052" lon="-0.5668">
        <ele>4.1</ele>
        <time>2021-05-13T09:00:11Z</time>
      </trkpt>
      <trkpt lat="44.87051" lon="-0.56675">
        <ele>4.1</ele>
        <time>2021-05-13T09:00:10Z</time>
      </trkpt>
      <trkpt lat="44.87053" lon="-0.56663">
        <ele>4.2</ele>
        <time>2021-05-13T09:00:07Z</time>
      </trkpt>
      <trkpt lat="44.87056" lon="-0.56653">
        <ele>4.2</ele>
        <time>2021-05-13T09:00:05Z</time>
      </trkpt>
      <trkpt lat="44.87056" lon="-0.56647">
        <ele>4.2</ele>
        <time>2021-05-13T09:00:04Z</time>
      </trkpt>
      <trkpt lat="44.87054" lon="-0.56638">
        <ele>4.2</ele>
        <time>2021-05-13T09:00:01Z</time>
      </trkpt>
      <trkpt lat="44.87056" lon="-0.56632">
        <ele>4.2</ele>
        <time>2021-05-13T08:59:56Z</time>
      </trkpt>
      <trkpt lat="44.87059" lon="-0.56616">
        <ele>4.3</ele>
        <time>2021-05-13T08:59:51Z</time>
      </trkpt>
      <trkpt lat="44.87061" lon="-0.56603">
        <ele>4.5</ele>
        <time>2021-05-13T08:59:46Z</time>
      </trkpt>
      <trkpt lat="44.87061" lon="-0.566">
        <ele>4.5</ele>
        <time>2021-05-13T08:59:45Z</time>
      </trkpt>
      <trkpt lat="44.87055" lon="-0.56595">
        <ele>4.6</ele>
        <time>2021-05-13T08:59:42Z</time>
      </trkpt>
      <trkpt lat="44.87037" lon="-0.56585">
        <ele>4.8</ele>
        <time>2021-05-13T08:59:37Z</time>
      </trkpt>
      <trkpt lat="44.87027" lon="-0.56584">
        <ele>5</ele>
        <time>2021-05-13T08:59:33Z</time>
      </trkpt>
      <trkpt lat="44.8702" lon="-0.56584">
        <ele>5</ele>
        <time>2021-05-13T08:59:29Z</time>
      </trkpt>
      <trkpt lat="44.87008" lon="-0.56579">
        <ele>5.1</ele>
        <time>2021-05-13T08:59:25Z</time>
      </trkpt>
      <trkpt lat="44.87005" lon="-0.56582">
        <ele>5.1</ele>
        <time>2021-05-13T08:59:23Z</time>
      </trkpt>
      <trkpt lat="44.87003" lon="-0.56586">
        <ele>5.1</ele>
        <time>2021-05-13T08:59:21Z</time>
      </trkpt>
      <trkpt lat="44.86992" lon="-0.5661">
        <ele>5.1</ele>
        <time>2021-05-13T08:59:15Z</time>
      </trkpt>
      <trkpt lat="44.86989" lon="-0.56614">
        <ele>5.1</ele>
        <time>2021-05-13T08:59:14Z</time>
      </trkpt>
      <trkpt lat="44.86979" lon="-0.56618">
        <ele>5.2</ele>
        <time>2021-05-13T08:59:11Z</time>
      </trkpt>
      <trkpt lat="44.86969" lon="-0.5662">
        <ele>5.1</ele>
        <time>2021-05-13T08:59:06Z</time>
      </trkpt>
      <trkpt lat="44.8696" lon="-0.56631">
        <ele>5</ele>
        <time>2021-05-13T08:59:01Z</time>
      </trkpt>
      <trkpt lat="44.8696" lon="-0.56632">
        <ele>5</ele>
        <time>2021-05-13T08:58:49Z</time>
      </trkpt>
      <trkpt lat="44.86958" lon="-0.56633">
        <ele>5</ele>
        <time>2021-05-13T08:58:34Z</time>
      </trkpt>
      <trkpt lat="44.86957" lon="-0.56632">
        <ele>4.9</ele>
        <time>2021-05-13T08:58:33Z</time>
      </trkpt>
      <trkpt lat="44.8695" lon="-0.56622">
        <ele>4.8</ele>
        <time>2021-05-13T08:58:29Z</time>
      </trkpt>
      <trkpt lat="44.86925" lon="-0.56583">
        <ele>4.6</ele>
        <time>2021-05-13T08:58:21Z</time>
      </trkpt>
      <trkpt lat="44.86898" lon="-0.56544">
        <ele>4.8</ele>
        <time>2021-05-13T08:58:14Z</time>
      </trkpt>
      <trkpt lat="44.86894" lon="-0.56538">
        <ele>4.8</ele>
        <time>2021-05-13T08:58:13Z</time>
      </trkpt>
      <trkpt lat="44.86856" lon="-0.5648">
        <ele>5.1</ele>
        <time>2021-05-13T08:58:04Z</time>
      </trkpt>
      <trkpt lat="44.86819" lon="-0.56423">
        <ele>5.7</ele>
        <time>2021-05-13T08:57:55Z</time>
      </trkpt>
      <trkpt lat="44.8679" lon="-0.56378">
        <ele>6</ele>
        <time>2021-05-13T08:57:48Z</time>
      </trkpt>
      <trkpt lat="44.86769" lon="-0.56347">
        <ele>6</ele>
        <time>2021-05-13T08:57:42Z</time>
      </trkpt>
      <trkpt lat="44.86743" lon="-0.5631">
        <ele>6.2</ele>
        <time>2021-05-13T08:57:35Z</time>
      </trkpt>
      <trkpt lat="44.86739" lon="-0.56305">
        <ele>6.2</ele>
        <time>2021-05-13T08:57:34Z</time>
      </trkpt>
      <trkpt lat="44.86713" lon="-0.56266">
        <ele>6.1</ele>
        <time>2021-05-13T08:57:27Z</time>
      </trkpt>
      <trkpt lat="44.86685" lon="-0.56224">
        <ele>5.9</ele>
        <time>2021-05-13T08:57:20Z</time>
      </trkpt>
      <trkpt lat="44.86655" lon="-0.56178">
        <ele>5.8</ele>
        <time>2021-05-13T08:57:12Z</time>
      </trkpt>
      <trkpt lat="44.86628" lon="-0.56138">
        <ele>5.7</ele>
        <time>2021-05-13T08:57:05Z</time>
      </trkpt>
      <trkpt lat="44.86611" lon="-0.56113">
        <ele>5.9</ele>
        <time>2021-05-13T08:57:00Z</time>
      </trkpt>
      <trkpt lat="44.86605" lon="-0.56102">
        <ele>6</ele>
        <time>2021-05-13T08:56:56Z</time>
      </trkpt>
      <trkpt lat="44.866" lon="-0.56097">
        <ele>6</ele>
        <time>2021-05-13T08:56:51Z</time>
      </trkpt>
      <trkpt lat="44.86596" lon="-0.56091">
        <ele>6</ele>
        <time>2021-05-13T08:56:45Z</time>
      </trkpt>
      <trkpt lat="44.86584" lon="-0.56072">
        <ele>5.9</ele>
        <time>2021-05-13T08:56:40Z</time>
      </trkpt>
      <trkpt lat="44.86551" lon="-0.56025">
        <ele>6</ele>
        <time>2021-05-13T08:56:31Z</time>
      </trkpt>
      <trkpt lat="44.86517" lon="-0.5597">
        <ele>6.1</ele>
        <time>2021-05-13T08:56:22Z</time>
      </trkpt>
      <trkpt lat="44.8648" lon="-0.55915">
        <ele>5.8</ele>
        <time>2021-05-13T08:56:13Z</time>
      </trkpt>
      <trkpt lat="44.86451" lon="-0.55876">
        <ele>5.8</ele>
        <time>2021-05-13T08:56:06Z</time>
      </trkpt>
      <trkpt lat="44.8641" lon="-0.55828">
        <ele>5.5</ele>
        <time>2021-05-13T08:55:57Z</time>
      </trkpt>
      <trkpt lat="44.86375" lon="-0.55785">
        <ele>5.4</ele>
        <time>2021-05-13T08:55:49Z</time>
      </trkpt>
      <trkpt lat="44.86346" lon="-0.55749">
        <ele>5.3</ele>
        <time>2021-05-13T08:55:42Z</time>
      </trkpt>
      <trkpt lat="44.86308" lon="-0.55706">
        <ele>5.3</ele>
        <time>2021-05-13T08:55:33Z</time>
      </trkpt>
      <trkpt lat="44.86279" lon="-0.55669">
        <ele>5.3</ele>
        <time>2021-05-13T08:55:26Z</time>
      </trkpt>
      <trkpt lat="44.86274" lon="-0.55664">
        <ele>5.3</ele>
        <time>2021-05-13T08:55:25Z</time>
      </trkpt>
      <trkpt lat="44.86249" lon="-0.55635">
        <ele>5.5</ele>
        <time>2021-05-13T08:55:19Z</time>
      </trkpt>
      <trkpt lat="44.8624" lon="-0.55625">
        <ele>5.6</ele>
        <time>2021-05-13T08:55:17Z</time>
      </trkpt>
      <trkpt lat="44.86224" lon="-0.55605">
        <ele>5.6</ele>
        <time>2021-05-13T08:55:13Z</time>
      </trkpt>
      <trkpt lat="44.86189" lon="-0.55566">
        <ele>5.8</ele>
        <time>2021-05-13T08:55:05Z</time>
      </trkpt>
      <trkpt lat="44.8617" lon="-0.55542">
        <ele>5.8</ele>
        <time>2021-05-13T08:55:00Z</time>
      </trkpt>
      <trkpt lat="44.86138" lon="-0.55503">
        <ele>5.5</ele>
        <time>2021-05-13T08:54:52Z</time>
      </trkpt>
      <trkpt lat="44.86111" lon="-0.55471">
        <ele>5.4</ele>
        <time>2021-05-13T08:54:45Z</time>
      </trkpt>
      <trkpt lat="44.86077" lon="-0.55432">
        <ele>5.6</ele>
        <time>2021-05-13T08:54:37Z</time>
      </trkpt>
      <trkpt lat="44.86053" lon="-0.55406">
        <ele>5.9</ele>
        <time>2021-05-13T08:54:31Z</time>
      </trkpt>
      <trkpt lat="44.86044" lon="-0.55404">
        <ele>6.1</ele>
        <time>2021-05-13T08:54:28Z</time>
      </trkpt>
      <trkpt lat="44.86038" lon="-0.55418">
        <ele>6.1</ele>
        <time>2021-05-13T08:54:23Z</time>
      </trkpt>
      <trkpt lat="44.86035" lon="-0.55418">
        <ele>6.2</ele>
        <time>2021-05-13T08:54:04Z</time>
      </trkpt>
      <trkpt lat="44.8603" lon="-0.55421">
        <ele>6.3</ele>
        <time>2021-05-13T08:54:01Z</time>
      </trkpt>
      <trkpt lat="44.86026" lon="-0.55423">
        <ele>6.4</ele>
        <time>2021-05-13T08:53:59Z</time>
      </trkpt>
      <trkpt lat="44.86024" lon="-0.55422">
        <ele>6.5</ele>
        <time>2021-05-13T08:53:58Z</time>
      </trkpt>
      <trkpt lat="44.86007" lon="-0.55404">
        <ele>7</ele>
        <time>2021-05-13T08:53:51Z</time>
      </trkpt>
      <trkpt lat="44.86003" lon="-0.554">
        <ele>6.9</ele>
        <time>2021-05-13T08:53:44Z</time>
      </trkpt>
      <trkpt lat="44.86003" lon="-0.55399">
        <ele>6.7</ele>
        <time>2021-05-13T08:53:39Z</time>
      </trkpt>
      <trkpt lat="44.86003" lon="-0.55397">
        <ele>6.7</ele>
        <time>2021-05-13T08:53:38Z</time>
      </trkpt>
      <trkpt lat="44.86005" lon="-0.55393">
        <ele>6.7</ele>
        <time>2021-05-13T08:53:35Z</time>
      </trkpt>
      <trkpt lat="44.86001" lon="-0.5538">
        <ele>6.9</ele>
        <time>2021-05-13T08:53:31Z</time>
      </trkpt>
      <trkpt lat="44.85987" lon="-0.55363">
        <ele>7</ele>
        <time>2021-05-13T08:53:26Z</time>
      </trkpt>
      <trkpt lat="44.85981" lon="-0.55356">
        <ele>7.3</ele>
        <time>2021-05-13T08:53:24Z</time>
      </trkpt>
      <trkpt lat="44.85963" lon="-0.5534">
        <ele>8</ele>
        <time>2021-05-13T08:53:19Z</time>
      </trkpt>
      <trkpt lat="44.85945" lon="-0.55321">
        <ele>8.9</ele>
        <time>2021-05-13T08:53:13Z</time>
      </trkpt>
      <trkpt lat="44.85939" lon="-0.55315">
        <ele>9.2</ele>
        <time>2021-05-13T08:53:08Z</time>
      </trkpt>
      <trkpt lat="44.85939" lon="-0.55316">
        <ele>9.3</ele>
        <time>2021-05-13T08:52:18Z</time>
      </trkpt>
      <trkpt lat="44.85938" lon="-0.55315">
        <ele>9.3</ele>
        <time>2021-05-13T08:52:16Z</time>
      </trkpt>
      <trkpt lat="44.85924" lon="-0.55301">
        <ele>10.1</ele>
        <time>2021-05-13T08:52:11Z</time>
      </trkpt>
      <trkpt lat="44.85916" lon="-0.55293">
        <ele>10.5</ele>
        <time>2021-05-13T08:52:09Z</time>
      </trkpt>
      <trkpt lat="44.85898" lon="-0.55271">
        <ele>11.5</ele>
        <time>2021-05-13T08:52:05Z</time>
      </trkpt>
      <trkpt lat="44.85868" lon="-0.55244">
        <ele>13.2</ele>
        <time>2021-05-13T08:51:58Z</time>
      </trkpt>
      <trkpt lat="44.85854" lon="-0.55232">
        <ele>13.8</ele>
        <time>2021-05-13T08:51:55Z</time>
      </trkpt>
      <trkpt lat="44.85841" lon="-0.55219">
        <ele>14.2</ele>
        <time>2021-05-13T08:51:52Z</time>
      </trkpt>
      <trkpt lat="44.85813" lon="-0.55189">
        <ele>14.5</ele>
        <time>2021-05-13T08:51:45Z</time>
      </trkpt>
      <trkpt lat="44.85787" lon="-0.55161">
        <ele>13.9</ele>
        <time>2021-05-13T08:51:39Z</time>
      </trkpt>
      <trkpt lat="44.85779" lon="-0.55152">
        <ele>13.6</ele>
        <time>2021-05-13T08:51:37Z</time>
      </trkpt>
      <trkpt lat="44.85753" lon="-0.55123">
        <ele>12.5</ele>
        <time>2021-05-13T08:51:31Z</time>
      </trkpt>
      <trkpt lat="44.85719" lon="-0.55084">
        <ele>10.9</ele>
        <time>2021-05-13T08:51:23Z</time>
      </trkpt>
      <trkpt lat="44.85684" lon="-0.55049">
        <ele>9.5</ele>
        <time>2021-05-13T08:51:15Z</time>
      </trkpt>
      <trkpt lat="44.85656" lon="-0.55019">
        <ele>8.1</ele>
        <time>2021-05-13T08:51:08Z</time>
      </trkpt>
      <trkpt lat="44.85629" lon="-0.54992">
        <ele>7</ele>
        <time>2021-05-13T08:51:01Z</time>
      </trkpt>
      <trkpt lat="44.85617" lon="-0.54978">
        <ele>6.8</ele>
        <time>2021-05-13T08:50:58Z</time>
      </trkpt>
      <trkpt lat="44.85613" lon="-0.54973">
        <ele>6.7</ele>
        <time>2021-05-13T08:50:57Z</time>
      </trkpt>
      <trkpt lat="44.85609" lon="-0.5497">
        <ele>6.7</ele>
        <time>2021-05-13T08:50:56Z</time>
      </trkpt>
      <trkpt lat="44.85603" lon="-0.54969">
        <ele>6.6</ele>
        <time>2021-05-13T08:50:54Z</time>
      </trkpt>
      <trkpt lat="44.85601" lon="-0.54976">
        <ele>6.6</ele>
        <time>2021-05-13T08:50:52Z</time>
      </trkpt>
      <trkpt lat="44.85614" lon="-0.54986">
        <ele>6.5</ele>
        <time>2021-05-13T08:50:48Z</time>
      </trkpt>
      <trkpt lat="44.85618" lon="-0.54994">
        <ele>6.5</ele>
        <time>2021-05-13T08:50:46Z</time>
      </trkpt>
      <trkpt lat="44.85618" lon="-0.54999">
        <ele>6.5</ele>
        <time>2021-05-13T08:50:45Z</time>
      </trkpt>
      <trkpt lat="44.85608" lon="-0.55024">
        <ele>6.3</ele>
        <time>2021-05-13T08:50:40Z</time>
      </trkpt>
      <trkpt lat="44.8559" lon="-0.5507">
        <ele>6.1</ele>
        <time>2021-05-13T08:50:33Z</time>
      </trkpt>
      <trkpt lat="44.85573" lon="-0.5511">
        <ele>6</ele>
        <time>2021-05-13T08:50:27Z</time>
      </trkpt>
      <trkpt lat="44.8556" lon="-0.55145">
        <ele>5.9</ele>
        <time>2021-05-13T08:50:22Z</time>
      </trkpt>
      <trkpt lat="44.85541" lon="-0.55187">
        <ele>5.9</ele>
        <time>2021-05-13T08:50:16Z</time>
      </trkpt>
      <trkpt lat="44.85525" lon="-0.55228">
        <ele>5.9</ele>
        <time>2021-05-13T08:50:10Z</time>
      </trkpt>
      <trkpt lat="44.85508" lon="-0.5527">
        <ele>5.8</ele>
        <time>2021-05-13T08:50:04Z</time>
      </trkpt>
      <trkpt lat="44.85494" lon="-0.55305">
        <ele>5.8</ele>
        <time>2021-05-13T08:49:59Z</time>
      </trkpt>
      <trkpt lat="44.85491" lon="-0.55312">
        <ele>5.8</ele>
        <time>2021-05-13T08:49:58Z</time>
      </trkpt>
      <trkpt lat="44.85484" lon="-0.5534">
        <ele>5.7</ele>
        <time>2021-05-13T08:49:54Z</time>
      </trkpt>
      <trkpt lat="44.85484" lon="-0.55353">
        <ele>5.7</ele>
        <time>2021-05-13T08:49:52Z</time>
      </trkpt>
      <trkpt lat="44.85477" lon="-0.55369">
        <ele>5.8</ele>
        <time>2021-05-13T08:49:49Z</time>
      </trkpt>
      <trkpt lat="44.85458" lon="-0.5541">
        <ele>5.8</ele>
        <time>2021-05-13T08:49:43Z</time>
      </trkpt>
      <trkpt lat="44.85451" lon="-0.55425">
        <ele>5.8</ele>
        <time>2021-05-13T08:49:41Z</time>
      </trkpt>
      <trkpt lat="44.85445" lon="-0.55439">
        <ele>5.8</ele>
        <time>2021-05-13T08:49:39Z</time>
      </trkpt>
      <trkpt lat="44.85437" lon="-0.55453">
        <ele>5.7</ele>
        <time>2021-05-13T08:49:37Z</time>
      </trkpt>
      <trkpt lat="44.85411" lon="-0.55513">
        <ele>5.8</ele>
        <time>2021-05-13T08:49:29Z</time>
      </trkpt>
      <trkpt lat="44.85392" lon="-0.55558">
        <ele>6</ele>
        <time>2021-05-13T08:49:23Z</time>
      </trkpt>
      <trkpt lat="44.8537" lon="-0.55606">
        <ele>5.9</ele>
        <time>2021-05-13T08:49:16Z</time>
      </trkpt>
      <trkpt lat="44.85367" lon="-0.55613">
        <ele>5.9</ele>
        <time>2021-05-13T08:49:15Z</time>
      </trkpt>
      <trkpt lat="44.85334" lon="-0.5568">
        <ele>5.8</ele>
        <time>2021-05-13T08:49:06Z</time>
      </trkpt>
      <trkpt lat="44.85311" lon="-0.55736">
        <ele>5.8</ele>
        <time>2021-05-13T08:48:59Z</time>
      </trkpt>
      <trkpt lat="44.85307" lon="-0.55743">
        <ele>5.8</ele>
        <time>2021-05-13T08:48:58Z</time>
      </trkpt>
      <trkpt lat="44.853" lon="-0.55755">
        <ele>5.7</ele>
        <time>2021-05-13T08:48:56Z</time>
      </trkpt>
      <trkpt lat="44.85296" lon="-0.5576">
        <ele>5.7</ele>
        <time>2021-05-13T08:48:55Z</time>
      </trkpt>
      <trkpt lat="44.85293" lon="-0.55765">
        <ele>5.7</ele>
        <time>2021-05-13T08:48:54Z</time>
      </trkpt>
      <trkpt lat="44.85286" lon="-0.5578">
        <ele>5.7</ele>
        <time>2021-05-13T08:48:51Z</time>
      </trkpt>
      <trkpt lat="44.85276" lon="-0.55801">
        <ele>5.7</ele>
        <time>2021-05-13T08:48:47Z</time>
      </trkpt>
      <trkpt lat="44.85256" lon="-0.55839">
        <ele>5.8</ele>
        <time>2021-05-13T08:48:41Z</time>
      </trkpt>
      <trkpt lat="44.85233" lon="-0.55884">
        <ele>5.8</ele>
        <time>2021-05-13T08:48:34Z</time>
      </trkpt>
      <trkpt lat="44.85223" lon="-0.55903">
        <ele>5.8</ele>
        <time>2021-05-13T08:48:31Z</time>
      </trkpt>
      <trkpt lat="44.8522" lon="-0.5591">
        <ele>5.8</ele>
        <time>2021-05-13T08:48:30Z</time>
      </trkpt>
      <trkpt lat="44.85217" lon="-0.55917">
        <ele>5.8</ele>
        <time>2021-05-13T08:48:29Z</time>
      </trkpt>
      <trkpt lat="44.85195" lon="-0.55954">
        <ele>5.7</ele>
        <time>2021-05-13T08:48:23Z</time>
      </trkpt>
      <trkpt lat="44.85171" lon="-0.55993">
        <ele>5.8</ele>
        <time>2021-05-13T08:48:17Z</time>
      </trkpt>
      <trkpt lat="44.85164" lon="-0.56006">
        <ele>5.8</ele>
        <time>2021-05-13T08:48:15Z</time>
      </trkpt>
      <trkpt lat="44.8515" lon="-0.56031">
        <ele>5.9</ele>
        <time>2021-05-13T08:48:11Z</time>
      </trkpt>
      <trkpt lat="44.85134" lon="-0.56053">
        <ele>5.9</ele>
        <time>2021-05-13T08:48:07Z</time>
      </trkpt>
      <trkpt lat="44.8513" lon="-0.56058">
        <ele>5.8</ele>
        <time>2021-05-13T08:48:06Z</time>
      </trkpt>
      <trkpt lat="44.85127" lon="-0.56064">
        <ele>5.8</ele>
        <time>2021-05-13T08:48:05Z</time>
      </trkpt>
      <trkpt lat="44.85107" lon="-0.56093">
        <ele>5.7</ele>
        <time>2021-05-13T08:48:00Z</time>
      </trkpt>
      <trkpt lat="44.8508" lon="-0.56128">
        <ele>5.7</ele>
        <time>2021-05-13T08:47:54Z</time>
      </trkpt>
      <trkpt lat="44.85076" lon="-0.56133">
        <ele>5.7</ele>
        <time>2021-05-13T08:47:53Z</time>
      </trkpt>
      <trkpt lat="44.85056" lon="-0.56162">
        <ele>5.8</ele>
        <time>2021-05-13T08:47:48Z</time>
      </trkpt>
      <trkpt lat="44.85041" lon="-0.56184">
        <ele>5.9</ele>
        <time>2021-05-13T08:47:44Z</time>
      </trkpt>
      <trkpt lat="44.85035" lon="-0.56194">
        <ele>5.9</ele>
        <time>2021-05-13T08:47:42Z</time>
      </trkpt>
      <trkpt lat="44.85009" lon="-0.56227">
        <ele>5.8</ele>
        <time>2021-05-13T08:47:35Z</time>
      </trkpt>
      <trkpt lat="44.84985" lon="-0.56258">
        <ele>5.6</ele>
        <time>2021-05-13T08:47:29Z</time>
      </trkpt>
      <trkpt lat="44.8497" lon="-0.56275">
        <ele>5.6</ele>
        <time>2021-05-13T08:47:25Z</time>
      </trkpt>
      <trkpt lat="44.84965" lon="-0.56277">
        <ele>5.5</ele>
        <time>2021-05-13T08:47:23Z</time>
      </trkpt>
      <trkpt lat="44.84962" lon="-0.56274">
        <ele>5.5</ele>
        <time>2021-05-13T08:47:22Z</time>
      </trkpt>
      <trkpt lat="44.84948" lon="-0.56251">
        <ele>5.4</ele>
        <time>2021-05-13T08:47:17Z</time>
      </trkpt>
      <trkpt lat="44.84942" lon="-0.56242">
        <ele>5.4</ele>
        <time>2021-05-13T08:47:15Z</time>
      </trkpt>
      <trkpt lat="44.84938" lon="-0.56235">
        <ele>5.4</ele>
        <time>2021-05-13T08:47:13Z</time>
      </trkpt>
      <trkpt lat="44.84934" lon="-0.56232">
        <ele>5.4</ele>
        <time>2021-05-13T08:47:11Z</time>
      </trkpt>
      <trkpt lat="44.84932" lon="-0.56234">
        <ele>5.4</ele>
        <time>2021-05-13T08:47:10Z</time>
      </trkpt>
      <trkpt lat="44.8492" lon="-0.56252">
        <ele>5.4</ele>
        <time>2021-05-13T08:47:05Z</time>
      </trkpt>
      <trkpt lat="44.84901" lon="-0.56274">
        <ele>5.4</ele>
        <time>2021-05-13T08:46:59Z</time>
      </trkpt>
      <trkpt lat="44.84887" lon="-0.56293">
        <ele>5.4</ele>
        <time>2021-05-13T08:46:55Z</time>
      </trkpt>
      <trkpt lat="44.84869" lon="-0.56315">
        <ele>5.4</ele>
        <time>2021-05-13T08:46:51Z</time>
      </trkpt>
      <trkpt lat="44.84865" lon="-0.5632">
        <ele>5.4</ele>
        <time>2021-05-13T08:46:50Z</time>
      </trkpt>
      <trkpt lat="44.84862" lon="-0.56326">
        <ele>5.4</ele>
        <time>2021-05-13T08:46:49Z</time>
      </trkpt>
      <trkpt lat="44.84847" lon="-0.56345">
        <ele>5.4</ele>
        <time>2021-05-13T08:46:45Z</time>
      </trkpt>
      <trkpt lat="44.84816" lon="-0.56388">
        <ele>5.5</ele>
        <time>2021-05-13T08:46:38Z</time>
      </trkpt>
      <trkpt lat="44.84797" lon="-0.56408">
        <ele>5.6</ele>
        <time>2021-05-13T08:46:34Z</time>
      </trkpt>
      <trkpt lat="44.84788" lon="-0.56418">
        <ele>5.5</ele>
        <time>2021-05-13T08:46:32Z</time>
      </trkpt>
      <trkpt lat="44.84774" lon="-0.56433">
        <ele>5.5</ele>
        <time>2021-05-13T08:46:29Z</time>
      </trkpt>
      <trkpt lat="44.84763" lon="-0.56441">
        <ele>5.5</ele>
        <time>2021-05-13T08:46:27Z</time>
      </trkpt>
      <trkpt lat="44.84747" lon="-0.56452">
        <ele>5.5</ele>
        <time>2021-05-13T08:46:24Z</time>
      </trkpt>
      <trkpt lat="44.84742" lon="-0.56455">
        <ele>5.5</ele>
        <time>2021-05-13T08:46:23Z</time>
      </trkpt>
      <trkpt lat="44.84736" lon="-0.56458">
        <ele>5.5</ele>
        <time>2021-05-13T08:46:22Z</time>
      </trkpt>
      <trkpt lat="44.84718" lon="-0.56464">
        <ele>5.6</ele>
        <time>2021-05-13T08:46:19Z</time>
      </trkpt>
      <trkpt lat="44.84713" lon="-0.56466">
        <ele>5.6</ele>
        <time>2021-05-13T08:46:18Z</time>
      </trkpt>
      <trkpt lat="44.84698" lon="-0.56475">
        <ele>5.6</ele>
        <time>2021-05-13T08:46:15Z</time>
      </trkpt>
      <trkpt lat="44.84691" lon="-0.56477">
        <ele>5.6</ele>
        <time>2021-05-13T08:46:14Z</time>
      </trkpt>
      <trkpt lat="44.84675" lon="-0.56486">
        <ele>5.6</ele>
        <time>2021-05-13T08:46:11Z</time>
      </trkpt>
      <trkpt lat="44.84665" lon="-0.56491">
        <ele>5.6</ele>
        <time>2021-05-13T08:46:09Z</time>
      </trkpt>
      <trkpt lat="44.84655" lon="-0.56494">
        <ele>5.6</ele>
        <time>2021-05-13T08:46:07Z</time>
      </trkpt>
      <trkpt lat="44.8464" lon="-0.56498">
        <ele>5.5</ele>
        <time>2021-05-13T08:46:04Z</time>
      </trkpt>
      <trkpt lat="44.84631" lon="-0.56501">
        <ele>5.5</ele>
        <time>2021-05-13T08:46:02Z</time>
      </trkpt>
      <trkpt lat="44.84621" lon="-0.56502">
        <ele>5.5</ele>
        <time>2021-05-13T08:46:00Z</time>
      </trkpt>
      <trkpt lat="44.84589" lon="-0.56497">
        <ele>5.5</ele>
        <time>2021-05-13T08:45:55Z</time>
      </trkpt>
      <trkpt lat="44.84561" lon="-0.56489">
        <ele>5.4</ele>
        <time>2021-05-13T08:45:51Z</time>
      </trkpt>
      <trkpt lat="44.84555" lon="-0.56487">
        <ele>5.3</ele>
        <time>2021-05-13T08:45:50Z</time>
      </trkpt>
      <trkpt lat="44.84528" lon="-0.56481">
        <ele>5.3</ele>
        <time>2021-05-13T08:45:45Z</time>
      </trkpt>
      <trkpt lat="44.84518" lon="-0.56478">
        <ele>5.3</ele>
        <time>2021-05-13T08:45:43Z</time>
      </trkpt>
      <trkpt lat="44.84507" lon="-0.56476">
        <ele>5.3</ele>
        <time>2021-05-13T08:45:41Z</time>
      </trkpt>
      <trkpt lat="44.84502" lon="-0.56475">
        <ele>5.3</ele>
        <time>2021-05-13T08:45:40Z</time>
      </trkpt>
      <trkpt lat="44.84486" lon="-0.56471">
        <ele>5.3</ele>
        <time>2021-05-13T08:45:37Z</time>
      </trkpt>
      <trkpt lat="44.84469" lon="-0.56467">
        <ele>5.3</ele>
        <time>2021-05-13T08:45:34Z</time>
      </trkpt>
      <trkpt lat="44.84465" lon="-0.56466">
        <ele>5.3</ele>
        <time>2021-05-13T08:45:33Z</time>
      </trkpt>
      <trkpt lat="44.84446" lon="-0.56463">
        <ele>5.3</ele>
        <time>2021-05-13T08:45:29Z</time>
      </trkpt>
      <trkpt lat="44.84441" lon="-0.56463">
        <ele>5.3</ele>
        <time>2021-05-13T08:45:28Z</time>
      </trkpt>
      <trkpt lat="44.8442" lon="-0.56458">
        <ele>5.2</ele>
        <time>2021-05-13T08:45:24Z</time>
      </trkpt>
      <trkpt lat="44.84398" lon="-0.56453">
        <ele>5.2</ele>
        <time>2021-05-13T08:45:20Z</time>
      </trkpt>
      <trkpt lat="44.84376" lon="-0.56447">
        <ele>5.2</ele>
        <time>2021-05-13T08:45:15Z</time>
      </trkpt>
      <trkpt lat="44.84362" lon="-0.56441">
        <ele>5.2</ele>
        <time>2021-05-13T08:45:11Z</time>
      </trkpt>
      <trkpt lat="44.84349" lon="-0.56439">
        <ele>5.3</ele>
        <time>2021-05-13T08:45:07Z</time>
      </trkpt>
      <trkpt lat="44.84329" lon="-0.56428">
        <ele>5.3</ele>
        <time>2021-05-13T08:45:02Z</time>
      </trkpt>
      <trkpt lat="44.84315" lon="-0.56419">
        <ele>5.3</ele>
        <time>2021-05-13T08:44:59Z</time>
      </trkpt>
      <trkpt lat="44.84311" lon="-0.56416">
        <ele>5.4</ele>
        <time>2021-05-13T08:44:58Z</time>
      </trkpt>
      <trkpt lat="44.8428" lon="-0.56394">
        <ele>5.4</ele>
        <time>2021-05-13T08:44:51Z</time>
      </trkpt>
      <trkpt lat="44.84259" lon="-0.56379">
        <ele>5.5</ele>
        <time>2021-05-13T08:44:46Z</time>
      </trkpt>
      <trkpt lat="44.84256" lon="-0.56376">
        <ele>5.5</ele>
        <time>2021-05-13T08:44:45Z</time>
      </trkpt>
      <trkpt lat="44.84241" lon="-0.56362">
        <ele>5.5</ele>
        <time>2021-05-13T08:44:41Z</time>
      </trkpt>
      <trkpt lat="44.84226" lon="-0.56345">
        <ele>5.5</ele>
        <time>2021-05-13T08:44:37Z</time>
      </trkpt>
      <trkpt lat="44.84201" lon="-0.56315">
        <ele>5.6</ele>
        <time>2021-05-13T08:44:30Z</time>
      </trkpt>
      <trkpt lat="44.84194" lon="-0.56307">
        <ele>5.6</ele>
        <time>2021-05-13T08:44:28Z</time>
      </trkpt>
      <trkpt lat="44.84185" lon="-0.56297">
        <ele>5.6</ele>
        <time>2021-05-13T08:44:25Z</time>
      </trkpt>
      <trkpt lat="44.84174" lon="-0.56283">
        <ele>5.6</ele>
        <time>2021-05-13T08:44:20Z</time>
      </trkpt>
      <trkpt lat="44.84159" lon="-0.56292">
        <ele>4.7</ele>
        <time>2021-05-13T08:34:16Z</time>
      </trkpt>
      <trkpt lat="44.84156" lon="-0.56289">
        <ele>4.7</ele>
        <time>2021-05-13T08:34:13Z</time>
      </trkpt>
      <trkpt lat="44.84147" lon="-0.56277">
        <ele>4.8</ele>
        <time>2021-05-13T08:34:08Z</time>
      </trkpt>
      <trkpt lat="44.84147" lon="-0.56258">
        <ele>5</ele>
        <time>2021-05-13T08:34:04Z</time>
      </trkpt>
      <trkpt lat="44.84145" lon="-0.56247">
        <ele>5</ele>
        <time>2021-05-13T08:34:02Z</time>
      </trkpt>
      <trkpt lat="44.84135" lon="-0.56233">
        <ele>5.2</ele>
        <time>2021-05-13T08:33:59Z</time>
      </trkpt>
      <trkpt lat="44.84128" lon="-0.56225">
        <ele>5.5</ele>
        <time>2021-05-13T08:33:57Z</time>
      </trkpt>
      <trkpt lat="44.84121" lon="-0.56212">
        <ele>5.8</ele>
        <time>2021-05-13T08:33:54Z</time>
      </trkpt>
      <trkpt lat="44.84118" lon="-0.56208">
        <ele>5.9</ele>
        <time>2021-05-13T08:33:53Z</time>
      </trkpt>
      <trkpt lat="44.84109" lon="-0.562">
        <ele>6.1</ele>
        <time>2021-05-13T08:33:50Z</time>
      </trkpt>
      <trkpt lat="44.84098" lon="-0.56201">
        <ele>6.1</ele>
        <time>2021-05-13T08:33:46Z</time>
      </trkpt>
      <trkpt lat="44.84089" lon="-0.56186">
        <ele>6.1</ele>
        <time>2021-05-13T08:33:42Z</time>
      </trkpt>
      <trkpt lat="44.84083" lon="-0.56177">
        <ele>6.1</ele>
        <time>2021-05-13T08:33:40Z</time>
      </trkpt>
      <trkpt lat="44.84073" lon="-0.56163">
        <ele>5.9</ele>
        <time>2021-05-13T08:33:37Z</time>
      </trkpt>
      <trkpt lat="44.84042" lon="-0.56126">
        <ele>5.1</ele>
        <time>2021-05-13T08:33:30Z</time>
      </trkpt>
      <trkpt lat="44.84011" lon="-0.56091">
        <ele>4.5</ele>
        <time>2021-05-13T08:33:24Z</time>
      </trkpt>
      <trkpt lat="44.83991" lon="-0.5607">
        <ele>4.3</ele>
        <time>2021-05-13T08:33:20Z</time>
      </trkpt>
      <trkpt lat="44.83987" lon="-0.56064">
        <ele>4.3</ele>
        <time>2021-05-13T08:33:19Z</time>
      </trkpt>
      <trkpt lat="44.83979" lon="-0.56051">
        <ele>4.2</ele>
        <time>2021-05-13T08:33:17Z</time>
      </trkpt>
      <trkpt lat="44.83956" lon="-0.56023">
        <ele>4.4</ele>
        <time>2021-05-13T08:33:12Z</time>
      </trkpt>
      <trkpt lat="44.83921" lon="-0.55983">
        <ele>5.1</ele>
        <time>2021-05-13T08:33:05Z</time>
      </trkpt>
      <trkpt lat="44.83887" lon="-0.55941">
        <ele>5.7</ele>
        <time>2021-05-13T08:32:58Z</time>
      </trkpt>
      <trkpt lat="44.83877" lon="-0.55931">
        <ele>5.8</ele>
        <time>2021-05-13T08:32:56Z</time>
      </trkpt>
      <trkpt lat="44.83866" lon="-0.55926">
        <ele>5.9</ele>
        <time>2021-05-13T08:32:54Z</time>
      </trkpt>
      <trkpt lat="44.83861" lon="-0.55923">
        <ele>5.9</ele>
        <time>2021-05-13T08:32:53Z</time>
      </trkpt>
      <trkpt lat="44.83857" lon="-0.55919">
        <ele>5.9</ele>
        <time>2021-05-13T08:32:52Z</time>
      </trkpt>
      <trkpt lat="44.83855" lon="-0.55913">
        <ele>6</ele>
        <time>2021-05-13T08:32:51Z</time>
      </trkpt>
      <trkpt lat="44.83857" lon="-0.559">
        <ele>6</ele>
        <time>2021-05-13T08:32:49Z</time>
      </trkpt>
      <trkpt lat="44.83858" lon="-0.55888">
        <ele>6</ele>
        <time>2021-05-13T08:32:47Z</time>
      </trkpt>
      <trkpt lat="44.83854" lon="-0.5588">
        <ele>6</ele>
        <time>2021-05-13T08:32:45Z</time>
      </trkpt>
      <trkpt lat="44.83844" lon="-0.55862">
        <ele>5.8</ele>
        <time>2021-05-13T08:32:40Z</time>
      </trkpt>
      <trkpt lat="44.83822" lon="-0.55829">
        <ele>5.6</ele>
        <time>2021-05-13T08:32:33Z</time>
      </trkpt>
      <trkpt lat="44.83819" lon="-0.55825">
        <ele>5.6</ele>
        <time>2021-05-13T08:32:32Z</time>
      </trkpt>
      <trkpt lat="44.83808" lon="-0.55818">
        <ele>5.4</ele>
        <time>2021-05-13T08:32:29Z</time>
      </trkpt>
      <trkpt lat="44.83803" lon="-0.55819">
        <ele>5.4</ele>
        <time>2021-05-13T08:32:27Z</time>
      </trkpt>
      <trkpt lat="44.83802" lon="-0.55818">
        <ele>5.3</ele>
        <time>2021-05-13T08:32:26Z</time>
      </trkpt>
      <trkpt lat="44.83794" lon="-0.55804">
        <ele>5.3</ele>
        <time>2021-05-13T08:32:22Z</time>
      </trkpt>
      <trkpt lat="44.83774" lon="-0.55771">
        <ele>5.3</ele>
        <time>2021-05-13T08:32:16Z</time>
      </trkpt>
      <trkpt lat="44.83747" lon="-0.55728">
        <ele>5.3</ele>
        <time>2021-05-13T08:32:09Z</time>
      </trkpt>
      <trkpt lat="44.83722" lon="-0.55689">
        <ele>5.3</ele>
        <time>2021-05-13T08:32:03Z</time>
      </trkpt>
      <trkpt lat="44.83694" lon="-0.55644">
        <ele>5.3</ele>
        <time>2021-05-13T08:31:56Z</time>
      </trkpt>
      <trkpt lat="44.83667" lon="-0.55601">
        <ele>5.3</ele>
        <time>2021-05-13T08:31:49Z</time>
      </trkpt>
      <trkpt lat="44.83653" lon="-0.55577">
        <ele>5.3</ele>
        <time>2021-05-13T08:31:45Z</time>
      </trkpt>
      <trkpt lat="44.8363" lon="-0.5554">
        <ele>5.3</ele>
        <time>2021-05-13T08:31:39Z</time>
      </trkpt>
      <trkpt lat="44.83627" lon="-0.55535">
        <ele>5.3</ele>
        <time>2021-05-13T08:31:38Z</time>
      </trkpt>
      <trkpt lat="44.83609" lon="-0.55506">
        <ele>5.3</ele>
        <time>2021-05-13T08:31:33Z</time>
      </trkpt>
      <trkpt lat="44.83586" lon="-0.55468">
        <ele>5.3</ele>
        <time>2021-05-13T08:31:27Z</time>
      </trkpt>
      <trkpt lat="44.83568" lon="-0.55439">
        <ele>5.3</ele>
        <time>2021-05-13T08:31:22Z</time>
      </trkpt>
      <trkpt lat="44.83549" lon="-0.55408">
        <ele>5.3</ele>
        <time>2021-05-13T08:31:16Z</time>
      </trkpt>
      <trkpt lat="44.83527" lon="-0.55373">
        <ele>5.4</ele>
        <time>2021-05-13T08:31:10Z</time>
      </trkpt>
      <trkpt lat="44.83502" lon="-0.55331">
        <ele>5.4</ele>
        <time>2021-05-13T08:31:04Z</time>
      </trkpt>
      <trkpt lat="44.83485" lon="-0.55303">
        <ele>5.4</ele>
        <time>2021-05-13T08:31:00Z</time>
      </trkpt>
      <trkpt lat="44.83472" lon="-0.55283">
        <ele>5.3</ele>
        <time>2021-05-13T08:30:56Z</time>
      </trkpt>
      <trkpt lat="44.83471" lon="-0.55275">
        <ele>5.3</ele>
        <time>2021-05-13T08:30:54Z</time>
      </trkpt>
      <trkpt lat="44.83466" lon="-0.55263">
        <ele>5.4</ele>
        <time>2021-05-13T08:30:50Z</time>
      </trkpt>
      <trkpt lat="44.8346" lon="-0.55251">
        <ele>5.4</ele>
        <time>2021-05-13T08:30:47Z</time>
      </trkpt>
      <trkpt lat="44.83456" lon="-0.55242">
        <ele>5.5</ele>
        <time>2021-05-13T08:30:45Z</time>
      </trkpt>
      <trkpt lat="44.83452" lon="-0.55233">
        <ele>5.5</ele>
        <time>2021-05-13T08:30:43Z</time>
      </trkpt>
      <trkpt lat="44.83451" lon="-0.55228">
        <ele>5.5</ele>
        <time>2021-05-13T08:30:42Z</time>
      </trkpt>
      <trkpt lat="44.83454" lon="-0.55218">
        <ele>5.5</ele>
        <time>2021-05-13T08:30:40Z</time>
      </trkpt>
      <trkpt lat="44.83451" lon="-0.5521">
        <ele>5.5</ele>
        <time>2021-05-13T08:30:38Z</time>
      </trkpt>
      <trkpt lat="44.83437" lon="-0.55182">
        <ele>5.5</ele>
        <time>2021-05-13T08:30:32Z</time>
      </trkpt>
      <trkpt lat="44.83418" lon="-0.55147">
        <ele>5.5</ele>
        <time>2021-05-13T08:30:26Z</time>
      </trkpt>
      <trkpt lat="44.83403" lon="-0.55114">
        <ele>5.5</ele>
        <time>2021-05-13T08:30:21Z</time>
      </trkpt>
      <trkpt lat="44.8339" lon="-0.5507">
        <ele>5.4</ele>
        <time>2021-05-13T08:30:15Z</time>
      </trkpt>
      <trkpt lat="44.83386" lon="-0.55063">
        <ele>5.4</ele>
        <time>2021-05-13T08:30:14Z</time>
      </trkpt>
      <trkpt lat="44.8337" lon="-0.55041">
        <ele>5.4</ele>
        <time>2021-05-13T08:30:11Z</time>
      </trkpt>
      <trkpt lat="44.83367" lon="-0.55037">
        <ele>5.4</ele>
        <time>2021-05-13T08:30:10Z</time>
      </trkpt>
      <trkpt lat="44.83363" lon="-0.55032">
        <ele>5.5</ele>
        <time>2021-05-13T08:30:08Z</time>
      </trkpt>
      <trkpt lat="44.83362" lon="-0.55032">
        <ele>5.5</ele>
        <time>2021-05-13T08:30:07Z</time>
      </trkpt>
      <trkpt lat="44.83357" lon="-0.55026">
        <ele>5.5</ele>
        <time>2021-05-13T08:30:05Z</time>
      </trkpt>
      <trkpt lat="44.83338" lon="-0.54986">
        <ele>5.5</ele>
        <time>2021-05-13T08:29:59Z</time>
      </trkpt>
      <trkpt lat="44.83333" lon="-0.54971">
        <ele>5.5</ele>
        <time>2021-05-13T08:29:57Z</time>
      </trkpt>
      <trkpt lat="44.83321" lon="-0.54942">
        <ele>5.5</ele>
        <time>2021-05-13T08:29:53Z</time>
      </trkpt>
      <trkpt lat="44.83314" lon="-0.5493">
        <ele>5.5</ele>
        <time>2021-05-13T08:29:51Z</time>
      </trkpt>
      <trkpt lat="44.83304" lon="-0.54913">
        <ele>5.5</ele>
        <time>2021-05-13T08:29:48Z</time>
      </trkpt>
      <trkpt lat="44.83279" lon="-0.54867">
        <ele>5.6</ele>
        <time>2021-05-13T08:29:41Z</time>
      </trkpt>
      <trkpt lat="44.83268" lon="-0.54846">
        <ele>5.6</ele>
        <time>2021-05-13T08:29:38Z</time>
      </trkpt>
      <trkpt lat="44.83261" lon="-0.54832">
        <ele>5.7</ele>
        <time>2021-05-13T08:29:36Z</time>
      </trkpt>
      <trkpt lat="44.83237" lon="-0.54784">
        <ele>5.7</ele>
        <time>2021-05-13T08:29:29Z</time>
      </trkpt>
      <trkpt lat="44.83212" lon="-0.54735">
        <ele>5.7</ele>
        <time>2021-05-13T08:29:22Z</time>
      </trkpt>
      <trkpt lat="44.83181" lon="-0.54677">
        <ele>5.7</ele>
        <time>2021-05-13T08:29:13Z</time>
      </trkpt>
      <trkpt lat="44.83149" lon="-0.54619">
        <ele>5.9</ele>
        <time>2021-05-13T08:29:05Z</time>
      </trkpt>
      <trkpt lat="44.83135" lon="-0.54596">
        <ele>6</ele>
        <time>2021-05-13T08:29:02Z</time>
      </trkpt>
      <trkpt lat="44.83127" lon="-0.54578">
        <ele>6</ele>
        <time>2021-05-13T08:29:00Z</time>
      </trkpt>
      <trkpt lat="44.83108" lon="-0.54539">
        <ele>6</ele>
        <time>2021-05-13T08:28:54Z</time>
      </trkpt>
      <trkpt lat="44.83091" lon="-0.54507">
        <ele>6</ele>
        <time>2021-05-13T08:28:49Z</time>
      </trkpt>
      <trkpt lat="44.83088" lon="-0.545">
        <ele>6</ele>
        <time>2021-05-13T08:28:48Z</time>
      </trkpt>
      <trkpt lat="44.83071" lon="-0.54467">
        <ele>5.9</ele>
        <time>2021-05-13T08:28:43Z</time>
      </trkpt>
      <trkpt lat="44.83053" lon="-0.54434">
        <ele>5.9</ele>
        <time>2021-05-13T08:28:38Z</time>
      </trkpt>
      <trkpt lat="44.8305" lon="-0.54427">
        <ele>5.9</ele>
        <time>2021-05-13T08:28:37Z</time>
      </trkpt>
      <trkpt lat="44.83019" lon="-0.54366">
        <ele>5.8</ele>
        <time>2021-05-13T08:28:28Z</time>
      </trkpt>
      <trkpt lat="44.82991" lon="-0.54313">
        <ele>5.8</ele>
        <time>2021-05-13T08:28:20Z</time>
      </trkpt>
      <trkpt lat="44.82968" lon="-0.54269">
        <ele>5.8</ele>
        <time>2021-05-13T08:28:13Z</time>
      </trkpt>
      <trkpt lat="44.82933" lon="-0.54202">
        <ele>5.9</ele>
        <time>2021-05-13T08:28:03Z</time>
      </trkpt>
      <trkpt lat="44.82904" lon="-0.5415">
        <ele>5.9</ele>
        <time>2021-05-13T08:27:55Z</time>
      </trkpt>
      <trkpt lat="44.82871" lon="-0.54093">
        <ele>5.9</ele>
        <time>2021-05-13T08:27:46Z</time>
      </trkpt>
      <trkpt lat="44.82837" lon="-0.54036">
        <ele>5.8</ele>
        <time>2021-05-13T08:27:37Z</time>
      </trkpt>
      <trkpt lat="44.82814" lon="-0.53997">
        <ele>5.8</ele>
        <time>2021-05-13T08:27:31Z</time>
      </trkpt>
      <trkpt lat="44.82806" lon="-0.53986">
        <ele>5.7</ele>
        <time>2021-05-13T08:27:29Z</time>
      </trkpt>
      <trkpt lat="44.828" lon="-0.53973">
        <ele>5.7</ele>
        <time>2021-05-13T08:27:27Z</time>
      </trkpt>
      <trkpt lat="44.8277" lon="-0.53923">
        <ele>5.7</ele>
        <time>2021-05-13T08:27:19Z</time>
      </trkpt>
      <trkpt lat="44.8274" lon="-0.53872">
        <ele>5.6</ele>
        <time>2021-05-13T08:27:11Z</time>
      </trkpt>
      <trkpt lat="44.82708" lon="-0.53823">
        <ele>5.7</ele>
        <time>2021-05-13T08:27:03Z</time>
      </trkpt>
      <trkpt lat="44.82685" lon="-0.53791">
        <ele>5.7</ele>
        <time>2021-05-13T08:26:57Z</time>
      </trkpt>
      <trkpt lat="44.82661" lon="-0.53757">
        <ele>5.6</ele>
        <time>2021-05-13T08:26:51Z</time>
      </trkpt>
      <trkpt lat="44.82629" lon="-0.53713">
        <ele>5.7</ele>
        <time>2021-05-13T08:26:43Z</time>
      </trkpt>
      <trkpt lat="44.82601" lon="-0.53674">
        <ele>5.7</ele>
        <time>2021-05-13T08:26:36Z</time>
      </trkpt>
      <trkpt lat="44.82574" lon="-0.53642">
        <ele>5.5</ele>
        <time>2021-05-13T08:26:30Z</time>
      </trkpt>
      <trkpt lat="44.8257" lon="-0.53637">
        <ele>5.5</ele>
        <time>2021-05-13T08:26:29Z</time>
      </trkpt>
      <trkpt lat="44.82561" lon="-0.53629">
        <ele>5.5</ele>
        <time>2021-05-13T08:26:27Z</time>
      </trkpt>
      <trkpt lat="44.82557" lon="-0.53626">
        <ele>5.5</ele>
        <time>2021-05-13T08:26:26Z</time>
      </trkpt>
      <trkpt lat="44.82553" lon="-0.53622">
        <ele>5.5</ele>
        <time>2021-05-13T08:26:25Z</time>
      </trkpt>
      <trkpt lat="44.82551" lon="-0.5361">
        <ele>5.5</ele>
        <time>2021-05-13T08:26:23Z</time>
      </trkpt>
      <trkpt lat="44.82551" lon="-0.53604">
        <ele>5.5</ele>
        <time>2021-05-13T08:26:22Z</time>
      </trkpt>
      <trkpt lat="44.82552" lon="-0.53592">
        <ele>5.4</ele>
        <time>2021-05-13T08:26:20Z</time>
      </trkpt>
      <trkpt lat="44.82558" lon="-0.53578">
        <ele>5.3</ele>
        <time>2021-05-13T08:26:17Z</time>
      </trkpt>
      <trkpt lat="44.82564" lon="-0.53556">
        <ele>5.1</ele>
        <time>2021-05-13T08:26:13Z</time>
      </trkpt>
      <trkpt lat="44.82565" lon="-0.53549">
        <ele>5.1</ele>
        <time>2021-05-13T08:26:12Z</time>
      </trkpt>
      <trkpt lat="44.82566" lon="-0.53542">
        <ele>5.1</ele>
        <time>2021-05-13T08:26:11Z</time>
      </trkpt>
      <trkpt lat="44.82567" lon="-0.53504">
        <ele>4.9</ele>
        <time>2021-05-13T08:26:06Z</time>
      </trkpt>
      <trkpt lat="44.82568" lon="-0.53487">
        <ele>4.9</ele>
        <time>2021-05-13T08:26:04Z</time>
      </trkpt>
      <trkpt lat="44.82573" lon="-0.53456">
        <ele>5</ele>
        <time>2021-05-13T08:26:00Z</time>
      </trkpt>
      <trkpt lat="44.82574" lon="-0.53448">
        <ele>5.1</ele>
        <time>2021-05-13T08:25:59Z</time>
      </trkpt>
      <trkpt lat="44.82573" lon="-0.53433">
        <ele>5.1</ele>
        <time>2021-05-13T08:25:57Z</time>
      </trkpt>
      <trkpt lat="44.82571" lon="-0.53426">
        <ele>5.1</ele>
        <time>2021-05-13T08:25:56Z</time>
      </trkpt>
      <trkpt lat="44.82568" lon="-0.5342">
        <ele>5.1</ele>
        <time>2021-05-13T08:25:55Z</time>
      </trkpt>
      <trkpt lat="44.8256" lon="-0.53409">
        <ele>5.1</ele>
        <time>2021-05-13T08:25:53Z</time>
      </trkpt>
      <trkpt lat="44.82555" lon="-0.53405">
        <ele>5.1</ele>
        <time>2021-05-13T08:25:52Z</time>
      </trkpt>
      <trkpt lat="44.82545" lon="-0.53398">
        <ele>5.2</ele>
        <time>2021-05-13T08:25:50Z</time>
      </trkpt>
      <trkpt lat="44.82531" lon="-0.53383">
        <ele>5.4</ele>
        <time>2021-05-13T08:25:47Z</time>
      </trkpt>
      <trkpt lat="44.82511" lon="-0.53361">
        <ele>5.6</ele>
        <time>2021-05-13T08:25:42Z</time>
      </trkpt>
      <trkpt lat="44.82481" lon="-0.53329">
        <ele>5.6</ele>
        <time>2021-05-13T08:25:34Z</time>
      </trkpt>
      <trkpt lat="44.82457" lon="-0.53305">
        <ele>5.5</ele>
        <time>2021-05-13T08:25:28Z</time>
      </trkpt>
      <trkpt lat="44.82433" lon="-0.53282">
        <ele>5.4</ele>
        <time>2021-05-13T08:25:21Z</time>
      </trkpt>
      <trkpt lat="44.82409" lon="-0.53266">
        <ele>5.5</ele>
        <time>2021-05-13T08:25:15Z</time>
      </trkpt>
      <trkpt lat="44.82395" lon="-0.5326">
        <ele>5.8</ele>
        <time>2021-05-13T08:25:12Z</time>
      </trkpt>
      <trkpt lat="44.82391" lon="-0.5326">
        <ele>5.8</ele>
        <time>2021-05-13T08:25:11Z</time>
      </trkpt>
      <trkpt lat="44.82387" lon="-0.53261">
        <ele>5.8</ele>
        <time>2021-05-13T08:25:10Z</time>
      </trkpt>
      <trkpt lat="44.82378" lon="-0.5326">
        <ele>5.9</ele>
        <time>2021-05-13T08:25:08Z</time>
      </trkpt>
      <trkpt lat="44.82374" lon="-0.53257">
        <ele>5.9</ele>
        <time>2021-05-13T08:25:07Z</time>
      </trkpt>
      <trkpt lat="44.82362" lon="-0.53247">
        <ele>5.8</ele>
        <time>2021-05-13T08:25:04Z</time>
      </trkpt>
      <trkpt lat="44.82356" lon="-0.53246">
        <ele>5.8</ele>
        <time>2021-05-13T08:25:03Z</time>
      </trkpt>
      <trkpt lat="44.82351" lon="-0.53245">
        <ele>5.7</ele>
        <time>2021-05-13T08:25:02Z</time>
      </trkpt>
      <trkpt lat="44.82339" lon="-0.53249">
        <ele>5.7</ele>
        <time>2021-05-13T08:25:00Z</time>
      </trkpt>
      <trkpt lat="44.82323" lon="-0.53259">
        <ele>5.6</ele>
        <time>2021-05-13T08:24:57Z</time>
      </trkpt>
      <trkpt lat="44.82302" lon="-0.53272">
        <ele>5.7</ele>
        <time>2021-05-13T08:24:53Z</time>
      </trkpt>
      <trkpt lat="44.82292" lon="-0.53278">
        <ele>5.7</ele>
        <time>2021-05-13T08:24:51Z</time>
      </trkpt>
      <trkpt lat="44.82267" lon="-0.53297">
        <ele>5.7</ele>
        <time>2021-05-13T08:24:45Z</time>
      </trkpt>
      <trkpt lat="44.82254" lon="-0.53306">
        <ele>5.7</ele>
        <time>2021-05-13T08:24:41Z</time>
      </trkpt>
      <trkpt lat="44.82241" lon="-0.53305">
        <ele>5.7</ele>
        <time>2021-05-13T08:24:37Z</time>
      </trkpt>
      <trkpt lat="44.82213" lon="-0.53286">
        <ele>5.6</ele>
        <time>2021-05-13T08:24:31Z</time>
      </trkpt>
      <trkpt lat="44.82181" lon="-0.53264">
        <ele>5.7</ele>
        <time>2021-05-13T08:24:25Z</time>
      </trkpt>
      <trkpt lat="44.82137" lon="-0.53235">
        <ele>5.8</ele>
        <time>2021-05-13T08:24:17Z</time>
      </trkpt>
      <trkpt lat="44.82086" lon="-0.532">
        <ele>5.9</ele>
        <time>2021-05-13T08:24:08Z</time>
      </trkpt>
      <trkpt lat="44.8204" lon="-0.53172">
        <ele>5.9</ele>
        <time>2021-05-13T08:24:00Z</time>
      </trkpt>
      <trkpt lat="44.82023" lon="-0.53162">
        <ele>5.9</ele>
        <time>2021-05-13T08:23:57Z</time>
      </trkpt>
      <trkpt lat="44.82017" lon="-0.53159">
        <ele>5.9</ele>
        <time>2021-05-13T08:23:56Z</time>
      </trkpt>
      <trkpt lat="44.81972" lon="-0.53129">
        <ele>5.9</ele>
        <time>2021-05-13T08:23:48Z</time>
      </trkpt>
      <trkpt lat="44.81929" lon="-0.53099">
        <ele>6</ele>
        <time>2021-05-13T08:23:40Z</time>
      </trkpt>
      <trkpt lat="44.81884" lon="-0.5307">
        <ele>5.9</ele>
        <time>2021-05-13T08:23:32Z</time>
      </trkpt>
      <trkpt lat="44.81849" lon="-0.53046">
        <ele>5.9</ele>
        <time>2021-05-13T08:23:26Z</time>
      </trkpt>
      <trkpt lat="44.81809" lon="-0.53019">
        <ele>5.9</ele>
        <time>2021-05-13T08:23:19Z</time>
      </trkpt>
      <trkpt lat="44.81775" lon="-0.52995">
        <ele>5.9</ele>
        <time>2021-05-13T08:23:13Z</time>
      </trkpt>
      <trkpt lat="44.81729" lon="-0.52965">
        <ele>5.8</ele>
        <time>2021-05-13T08:23:05Z</time>
      </trkpt>
      <trkpt lat="44.81684" lon="-0.52934">
        <ele>5.8</ele>
        <time>2021-05-13T08:22:57Z</time>
      </trkpt>
      <trkpt lat="44.81644" lon="-0.52907">
        <ele>5.7</ele>
        <time>2021-05-13T08:22:50Z</time>
      </trkpt>
      <trkpt lat="44.8161" lon="-0.52885">
        <ele>5.7</ele>
        <time>2021-05-13T08:22:44Z</time>
      </trkpt>
      <trkpt lat="44.81604" lon="-0.52881">
        <ele>5.8</ele>
        <time>2021-05-13T08:22:43Z</time>
      </trkpt>
      <trkpt lat="44.81588" lon="-0.5287">
        <ele>5.8</ele>
        <time>2021-05-13T08:22:40Z</time>
      </trkpt>
      <trkpt lat="44.81571" lon="-0.5286">
        <ele>5.8</ele>
        <time>2021-05-13T08:22:37Z</time>
      </trkpt>
      <trkpt lat="44.81527" lon="-0.5283">
        <ele>6</ele>
        <time>2021-05-13T08:22:29Z</time>
      </trkpt>
      <trkpt lat="44.81483" lon="-0.528">
        <ele>5.9</ele>
        <time>2021-05-13T08:22:21Z</time>
      </trkpt>
      <trkpt lat="44.81445" lon="-0.52773">
        <ele>6</ele>
        <time>2021-05-13T08:22:14Z</time>
      </trkpt>
      <trkpt lat="44.81434" lon="-0.52767">
        <ele>6</ele>
        <time>2021-05-13T08:22:12Z</time>
      </trkpt>
      <trkpt lat="44.8141" lon="-0.52752">
        <ele>5.9</ele>
        <time>2021-05-13T08:22:08Z</time>
      </trkpt>
      <trkpt lat="44.81367" lon="-0.52722">
        <ele>5.9</ele>
        <time>2021-05-13T08:22:00Z</time>
      </trkpt>
      <trkpt lat="44.81356" lon="-0.52714">
        <ele>5.9</ele>
        <time>2021-05-13T08:21:58Z</time>
      </trkpt>
      <trkpt lat="44.81338" lon="-0.52704">
        <ele>5.9</ele>
        <time>2021-05-13T08:21:55Z</time>
      </trkpt>
      <trkpt lat="44.81327" lon="-0.52695">
        <ele>5.9</ele>
        <time>2021-05-13T08:21:53Z</time>
      </trkpt>
      <trkpt lat="44.81305" lon="-0.5268">
        <ele>5.9</ele>
        <time>2021-05-13T08:21:49Z</time>
      </trkpt>
      <trkpt lat="44.81264" lon="-0.52654">
        <ele>6</ele>
        <time>2021-05-13T08:21:42Z</time>
      </trkpt>
      <trkpt lat="44.8123" lon="-0.52632">
        <ele>6</ele>
        <time>2021-05-13T08:21:36Z</time>
      </trkpt>
      <trkpt lat="44.81213" lon="-0.5262">
        <ele>6</ele>
        <time>2021-05-13T08:21:33Z</time>
      </trkpt>
      <trkpt lat="44.81197" lon="-0.52609">
        <ele>6</ele>
        <time>2021-05-13T08:21:30Z</time>
      </trkpt>
      <trkpt lat="44.81164" lon="-0.52585">
        <ele>6</ele>
        <time>2021-05-13T08:21:24Z</time>
      </trkpt>
      <trkpt lat="44.81127" lon="-0.5256">
        <ele>6.1</ele>
        <time>2021-05-13T08:21:17Z</time>
      </trkpt>
      <trkpt lat="44.81122" lon="-0.52556">
        <ele>6.1</ele>
        <time>2021-05-13T08:21:16Z</time>
      </trkpt>
      <trkpt lat="44.81112" lon="-0.5255">
        <ele>6.1</ele>
        <time>2021-05-13T08:21:14Z</time>
      </trkpt>
      <trkpt lat="44.81096" lon="-0.52539">
        <ele>6.1</ele>
        <time>2021-05-13T08:21:11Z</time>
      </trkpt>
      <trkpt lat="44.8109" lon="-0.52536">
        <ele>6.1</ele>
        <time>2021-05-13T08:21:10Z</time>
      </trkpt>
      <trkpt lat="44.81054" lon="-0.52513">
        <ele>6.2</ele>
        <time>2021-05-13T08:21:04Z</time>
      </trkpt>
      <trkpt lat="44.81041" lon="-0.52504">
        <ele>6.2</ele>
        <time>2021-05-13T08:21:02Z</time>
      </trkpt>
      <trkpt lat="44.81023" lon="-0.52494">
        <ele>6.1</ele>
        <time>2021-05-13T08:20:59Z</time>
      </trkpt>
      <trkpt lat="44.80977" lon="-0.52463">
        <ele>5.7</ele>
        <time>2021-05-13T08:20:51Z</time>
      </trkpt>
      <trkpt lat="44.80941" lon="-0.52442">
        <ele>5.6</ele>
        <time>2021-05-13T08:20:45Z</time>
      </trkpt>
      <trkpt lat="44.80896" lon="-0.52412">
        <ele>5.4</ele>
        <time>2021-05-13T08:20:37Z</time>
      </trkpt>
      <trkpt lat="44.8085" lon="-0.52382">
        <ele>5.5</ele>
        <time>2021-05-13T08:20:29Z</time>
      </trkpt>
      <trkpt lat="44.8081" lon="-0.52357">
        <ele>5.5</ele>
        <time>2021-05-13T08:20:22Z</time>
      </trkpt>
      <trkpt lat="44.80795" lon="-0.52345">
        <ele>5.5</ele>
        <time>2021-05-13T08:20:19Z</time>
      </trkpt>
      <trkpt lat="44.8079" lon="-0.52342">
        <ele>5.5</ele>
        <time>2021-05-13T08:20:18Z</time>
      </trkpt>
      <trkpt lat="44.80757" lon="-0.5232">
        <ele>5.7</ele>
        <time>2021-05-13T08:20:12Z</time>
      </trkpt>
      <trkpt lat="44.80746" lon="-0.52312">
        <ele>5.7</ele>
        <time>2021-05-13T08:20:10Z</time>
      </trkpt>
      <trkpt lat="44.80726" lon="-0.52295">
        <ele>5.8</ele>
        <time>2021-05-13T08:20:06Z</time>
      </trkpt>
      <trkpt lat="44.80685" lon="-0.52274">
        <ele>5.7</ele>
        <time>2021-05-13T08:19:59Z</time>
      </trkpt>
      <trkpt lat="44.80646" lon="-0.52252">
        <ele>5.8</ele>
        <time>2021-05-13T08:19:52Z</time>
      </trkpt>
      <trkpt lat="44.80614" lon="-0.52228">
        <ele>5.8</ele>
        <time>2021-05-13T08:19:46Z</time>
      </trkpt>
      <trkpt lat="44.8057" lon="-0.52195">
        <ele>5.7</ele>
        <time>2021-05-13T08:19:38Z</time>
      </trkpt>
      <trkpt lat="44.80539" lon="-0.52171">
        <ele>5.7</ele>
        <time>2021-05-13T08:19:32Z</time>
      </trkpt>
      <trkpt lat="44.80501" lon="-0.5214">
        <ele>5.8</ele>
        <time>2021-05-13T08:19:25Z</time>
      </trkpt>
      <trkpt lat="44.8047" lon="-0.52115">
        <ele>5.7</ele>
        <time>2021-05-13T08:19:19Z</time>
      </trkpt>
      <trkpt lat="44.80465" lon="-0.52111">
        <ele>5.7</ele>
        <time>2021-05-13T08:19:18Z</time>
      </trkpt>
      <trkpt lat="44.80449" lon="-0.52098">
        <ele>5.7</ele>
        <time>2021-05-13T08:19:15Z</time>
      </trkpt>
      <trkpt lat="44.80444" lon="-0.52095">
        <ele>5.6</ele>
        <time>2021-05-13T08:19:14Z</time>
      </trkpt>
      <trkpt lat="44.80419" lon="-0.52074">
        <ele>5.6</ele>
        <time>2021-05-13T08:19:09Z</time>
      </trkpt>
      <trkpt lat="44.80414" lon="-0.52069">
        <ele>5.6</ele>
        <time>2021-05-13T08:19:08Z</time>
      </trkpt>
      <trkpt lat="44.80388" lon="-0.52049">
        <ele>5.6</ele>
        <time>2021-05-13T08:19:03Z</time>
      </trkpt>
      <trkpt lat="44.80373" lon="-0.52039">
        <ele>5.5</ele>
        <time>2021-05-13T08:19:00Z</time>
      </trkpt>
      <trkpt lat="44.80367" lon="-0.52035">
        <ele>5.5</ele>
        <time>2021-05-13T08:18:59Z</time>
      </trkpt>
      <trkpt lat="44.8035" lon="-0.52023">
        <ele>5.5</ele>
        <time>2021-05-13T08:18:56Z</time>
      </trkpt>
      <trkpt lat="44.80342" lon="-0.52015">
        <ele>5.5</ele>
        <time>2021-05-13T08:18:54Z</time>
      </trkpt>
      <trkpt lat="44.80338" lon="-0.52012">
        <ele>5.5</ele>
        <time>2021-05-13T08:18:53Z</time>
      </trkpt>
      <trkpt lat="44.80325" lon="-0.52004">
        <ele>5.5</ele>
        <time>2021-05-13T08:18:50Z</time>
      </trkpt>
      <trkpt lat="44.80321" lon="-0.52001">
        <ele>5.5</ele>
        <time>2021-05-13T08:18:49Z</time>
      </trkpt>
      <trkpt lat="44.80311" lon="-0.51994">
        <ele>5.5</ele>
        <time>2021-05-13T08:18:47Z</time>
      </trkpt>
      <trkpt lat="44.80293" lon="-0.5198">
        <ele>5.5</ele>
        <time>2021-05-13T08:18:43Z</time>
      </trkpt>
      <trkpt lat="44.80279" lon="-0.51971">
        <ele>5.6</ele>
        <time>2021-05-13T08:18:40Z</time>
      </trkpt>
      <trkpt lat="44.80269" lon="-0.51967">
        <ele>5.6</ele>
        <time>2021-05-13T08:18:38Z</time>
      </trkpt>
      <trkpt lat="44.80264" lon="-0.51964">
        <ele>5.6</ele>
        <time>2021-05-13T08:18:37Z</time>
      </trkpt>
      <trkpt lat="44.80256" lon="-0.51957">
        <ele>5.6</ele>
        <time>2021-05-13T08:18:35Z</time>
      </trkpt>
      <trkpt lat="44.80247" lon="-0.5195">
        <ele>5.5</ele>
        <time>2021-05-13T08:18:33Z</time>
      </trkpt>
      <trkpt lat="44.80215" lon="-0.51929">
        <ele>5.3</ele>
        <time>2021-05-13T08:18:27Z</time>
      </trkpt>
      <trkpt lat="44.80204" lon="-0.51923">
        <ele>5.3</ele>
        <time>2021-05-13T08:18:25Z</time>
      </trkpt>
      <trkpt lat="44.80184" lon="-0.5191">
        <ele>5.4</ele>
        <time>2021-05-13T08:18:21Z</time>
      </trkpt>
      <trkpt lat="44.80159" lon="-0.51894">
        <ele>5.5</ele>
        <time>2021-05-13T08:18:16Z</time>
      </trkpt>
      <trkpt lat="44.8012" lon="-0.51868">
        <ele>5.5</ele>
        <time>2021-05-13T08:18:08Z</time>
      </trkpt>
      <trkpt lat="44.8011" lon="-0.51862">
        <ele>5.6</ele>
        <time>2021-05-13T08:18:06Z</time>
      </trkpt>
      <trkpt lat="44.8008" lon="-0.51844">
        <ele>5.7</ele>
        <time>2021-05-13T08:18:00Z</time>
      </trkpt>
      <trkpt lat="44.80051" lon="-0.51827">
        <ele>5.6</ele>
        <time>2021-05-13T08:17:54Z</time>
      </trkpt>
      <trkpt lat="44.80033" lon="-0.51819">
        <ele>5.6</ele>
        <time>2021-05-13T08:17:50Z</time>
      </trkpt>
      <trkpt lat="44.80017" lon="-0.5181">
        <ele>5.6</ele>
        <time>2021-05-13T08:17:45Z</time>
      </trkpt>
      <trkpt lat="44.79994" lon="-0.51797">
        <ele>5.5</ele>
        <time>2021-05-13T08:17:38Z</time>
      </trkpt>
      <trkpt lat="44.79981" lon="-0.51791">
        <ele>5.4</ele>
        <time>2021-05-13T08:17:33Z</time>
      </trkpt>
      <trkpt lat="44.7998" lon="-0.5179">
        <ele>5.4</ele>
        <time>2021-05-13T08:17:32Z</time>
      </trkpt>
      <trkpt lat="44.79973" lon="-0.51789">
        <ele>5.3</ele>
        <time>2021-05-13T08:17:28Z</time>
      </trkpt>
      <trkpt lat="44.79969" lon="-0.51787">
        <ele>5.3</ele>
        <time>2021-05-13T08:17:24Z</time>
      </trkpt>
      <trkpt lat="44.79963" lon="-0.5178">
        <ele>5.3</ele>
        <time>2021-05-13T08:16:33Z</time>
      </trkpt>
      <trkpt lat="44.79956" lon="-0.51775">
        <ele>5.3</ele>
        <time>2021-05-13T08:16:31Z</time>
      </trkpt>
      <trkpt lat="44.79937" lon="-0.51763">
        <ele>5.4</ele>
        <time>2021-05-13T08:16:26Z</time>
      </trkpt>
      <trkpt lat="44.79915" lon="-0.51751">
        <ele>5.6</ele>
        <time>2021-05-13T08:16:21Z</time>
      </trkpt>
      <trkpt lat="44.79875" lon="-0.51737">
        <ele>5.7</ele>
        <time>2021-05-13T08:16:14Z</time>
      </trkpt>
      <trkpt lat="44.79846" lon="-0.51729">
        <ele>5.6</ele>
        <time>2021-05-13T08:16:09Z</time>
      </trkpt>
      <trkpt lat="44.79815" lon="-0.5172">
        <ele>5.5</ele>
        <time>2021-05-13T08:16:04Z</time>
      </trkpt>
      <trkpt lat="44.79778" lon="-0.51708">
        <ele>5.5</ele>
        <time>2021-05-13T08:15:58Z</time>
      </trkpt>
      <trkpt lat="44.79744" lon="-0.51698">
        <ele>5.6</ele>
        <time>2021-05-13T08:15:52Z</time>
      </trkpt>
      <trkpt lat="44.79714" lon="-0.51688">
        <ele>5.6</ele>
        <time>2021-05-13T08:15:47Z</time>
      </trkpt>
      <trkpt lat="44.79683" lon="-0.51678">
        <ele>5.7</ele>
        <time>2021-05-13T08:15:42Z</time>
      </trkpt>
      <trkpt lat="44.79661" lon="-0.51671">
        <ele>5.8</ele>
        <time>2021-05-13T08:15:38Z</time>
      </trkpt>
      <trkpt lat="44.79632" lon="-0.51662">
        <ele>5.6</ele>
        <time>2021-05-13T08:15:33Z</time>
      </trkpt>
      <trkpt lat="44.79575" lon="-0.51647">
        <ele>5.5</ele>
        <time>2021-05-13T08:15:25Z</time>
      </trkpt>
      <trkpt lat="44.79543" lon="-0.51639">
        <ele>5.6</ele>
        <time>2021-05-13T08:15:20Z</time>
      </trkpt>
      <trkpt lat="44.79531" lon="-0.51637">
        <ele>5.7</ele>
        <time>2021-05-13T08:15:18Z</time>
      </trkpt>
      <trkpt lat="44.79519" lon="-0.51635">
        <ele>5.7</ele>
        <time>2021-05-13T08:15:16Z</time>
      </trkpt>
      <trkpt lat="44.79498" lon="-0.51634">
        <ele>5.7</ele>
        <time>2021-05-13T08:15:12Z</time>
      </trkpt>
      <trkpt lat="44.79486" lon="-0.51632">
        <ele>5.7</ele>
        <time>2021-05-13T08:15:10Z</time>
      </trkpt>
      <trkpt lat="44.79468" lon="-0.5163">
        <ele>5.7</ele>
        <time>2021-05-13T08:15:07Z</time>
      </trkpt>
      <trkpt lat="44.79439" lon="-0.51627">
        <ele>5.7</ele>
        <time>2021-05-13T08:15:02Z</time>
      </trkpt>
      <trkpt lat="44.79402" lon="-0.51625">
        <ele>5.9</ele>
        <time>2021-05-13T08:14:56Z</time>
      </trkpt>
      <trkpt lat="44.79373" lon="-0.51623">
        <ele>5.9</ele>
        <time>2021-05-13T08:14:51Z</time>
      </trkpt>
      <trkpt lat="44.79338" lon="-0.51621">
        <ele>5.9</ele>
        <time>2021-05-13T08:14:45Z</time>
      </trkpt>
      <trkpt lat="44.79306" lon="-0.5162">
        <ele>5.9</ele>
        <time>2021-05-13T08:14:40Z</time>
      </trkpt>
      <trkpt lat="44.79272" lon="-0.51619">
        <ele>5.8</ele>
        <time>2021-05-13T08:14:34Z</time>
      </trkpt>
      <trkpt lat="44.79242" lon="-0.51619">
        <ele>5.7</ele>
        <time>2021-05-13T08:14:29Z</time>
      </trkpt>
      <trkpt lat="44.79206" lon="-0.51621">
        <ele>5.7</ele>
        <time>2021-05-13T08:14:23Z</time>
      </trkpt>
      <trkpt lat="44.79175" lon="-0.51623">
        <ele>5.7</ele>
        <time>2021-05-13T08:14:18Z</time>
      </trkpt>
      <trkpt lat="44.79139" lon="-0.51622">
        <ele>5.7</ele>
        <time>2021-05-13T08:14:13Z</time>
      </trkpt>
      <trkpt lat="44.79133" lon="-0.51622">
        <ele>5.6</ele>
        <time>2021-05-13T08:14:12Z</time>
      </trkpt>
      <trkpt lat="44.79111" lon="-0.51622">
        <ele>5.6</ele>
        <time>2021-05-13T08:14:08Z</time>
      </trkpt>
      <trkpt lat="44.79099" lon="-0.51621">
        <ele>5.5</ele>
        <time>2021-05-13T08:14:06Z</time>
      </trkpt>
      <trkpt lat="44.79082" lon="-0.5162">
        <ele>5.5</ele>
        <time>2021-05-13T08:14:03Z</time>
      </trkpt>
      <trkpt lat="44.79059" lon="-0.5162">
        <ele>5.5</ele>
        <time>2021-05-13T08:13:59Z</time>
      </trkpt>
      <trkpt lat="44.79029" lon="-0.5162">
        <ele>5.6</ele>
        <time>2021-05-13T08:13:54Z</time>
      </trkpt>
      <trkpt lat="44.79" lon="-0.5162">
        <ele>5.6</ele>
        <time>2021-05-13T08:13:49Z</time>
      </trkpt>
      <trkpt lat="44.78975" lon="-0.51619">
        <ele>5.6</ele>
        <time>2021-05-13T08:13:45Z</time>
      </trkpt>
      <trkpt lat="44.78946" lon="-0.51611">
        <ele>5.5</ele>
        <time>2021-05-13T08:13:40Z</time>
      </trkpt>
      <trkpt lat="44.78909" lon="-0.51604">
        <ele>5.5</ele>
        <time>2021-05-13T08:13:34Z</time>
      </trkpt>
      <trkpt lat="44.78867" lon="-0.51601">
        <ele>5.6</ele>
        <time>2021-05-13T08:13:27Z</time>
      </trkpt>
      <trkpt lat="44.7883" lon="-0.51601">
        <ele>5.4</ele>
        <time>2021-05-13T08:13:21Z</time>
      </trkpt>
      <trkpt lat="44.78791" lon="-0.516">
        <ele>5.4</ele>
        <time>2021-05-13T08:13:15Z</time>
      </trkpt>
      <trkpt lat="44.78753" lon="-0.516">
        <ele>5.5</ele>
        <time>2021-05-13T08:13:09Z</time>
      </trkpt>
      <trkpt lat="44.78724" lon="-0.51599">
        <ele>5.5</ele>
        <time>2021-05-13T08:13:04Z</time>
      </trkpt>
      <trkpt lat="44.7869" lon="-0.51597">
        <ele>5.4</ele>
        <time>2021-05-13T08:12:58Z</time>
      </trkpt>
      <trkpt lat="44.7866" lon="-0.51592">
        <ele>5.2</ele>
        <time>2021-05-13T08:12:53Z</time>
      </trkpt>
      <trkpt lat="44.78655" lon="-0.51592">
        <ele>5.2</ele>
        <time>2021-05-13T08:12:52Z</time>
      </trkpt>
      <trkpt lat="44.78644" lon="-0.51591">
        <ele>5.2</ele>
        <time>2021-05-13T08:12:50Z</time>
      </trkpt>
      <trkpt lat="44.78633" lon="-0.51591">
        <ele>5.2</ele>
        <time>2021-05-13T08:12:48Z</time>
      </trkpt>
      <trkpt lat="44.78598" lon="-0.51586">
        <ele>5</ele>
        <time>2021-05-13T08:12:42Z</time>
      </trkpt>
      <trkpt lat="44.78557" lon="-0.51581">
        <ele>5.1</ele>
        <time>2021-05-13T08:12:35Z</time>
      </trkpt>
      <trkpt lat="44.78521" lon="-0.51575">
        <ele>5.1</ele>
        <time>2021-05-13T08:12:29Z</time>
      </trkpt>
      <trkpt lat="44.78481" lon="-0.51568">
        <ele>5.4</ele>
        <time>2021-05-13T08:12:22Z</time>
      </trkpt>
      <trkpt lat="44.78442" lon="-0.51563">
        <ele>5.3</ele>
        <time>2021-05-13T08:12:15Z</time>
      </trkpt>
      <trkpt lat="44.78437" lon="-0.51563">
        <ele>5.4</ele>
        <time>2021-05-13T08:12:14Z</time>
      </trkpt>
      <trkpt lat="44.78426" lon="-0.5156">
        <ele>5.5</ele>
        <time>2021-05-13T08:12:12Z</time>
      </trkpt>
      <trkpt lat="44.78418" lon="-0.51552">
        <ele>5.5</ele>
        <time>2021-05-13T08:12:10Z</time>
      </trkpt>
      <trkpt lat="44.78417" lon="-0.51545">
        <ele>5.5</ele>
        <time>2021-05-13T08:12:09Z</time>
      </trkpt>
      <trkpt lat="44.78416" lon="-0.51538">
        <ele>5.5</ele>
        <time>2021-05-13T08:12:08Z</time>
      </trkpt>
      <trkpt lat="44.78417" lon="-0.51522">
        <ele>5.5</ele>
        <time>2021-05-13T08:12:06Z</time>
      </trkpt>
      <trkpt lat="44.78418" lon="-0.51507">
        <ele>5.5</ele>
        <time>2021-05-13T08:12:04Z</time>
      </trkpt>
      <trkpt lat="44.78417" lon="-0.51464">
        <ele>5.5</ele>
        <time>2021-05-13T08:11:58Z</time>
      </trkpt>
      <trkpt lat="44.78419" lon="-0.51429">
        <ele>5.5</ele>
        <time>2021-05-13T08:11:53Z</time>
      </trkpt>
      <trkpt lat="44.7842" lon="-0.51379">
        <ele>5.4</ele>
        <time>2021-05-13T08:11:46Z</time>
      </trkpt>
      <trkpt lat="44.7842" lon="-0.51332">
        <ele>5.3</ele>
        <time>2021-05-13T08:11:39Z</time>
      </trkpt>
      <trkpt lat="44.78421" lon="-0.51292">
        <ele>5.3</ele>
        <time>2021-05-13T08:11:33Z</time>
      </trkpt>
      <trkpt lat="44.7842" lon="-0.51263">
        <ele>5.3</ele>
        <time>2021-05-13T08:11:28Z</time>
      </trkpt>
      <trkpt lat="44.7842" lon="-0.51257">
        <ele>5.3</ele>
        <time>2021-05-13T08:11:27Z</time>
      </trkpt>
      <trkpt lat="44.78422" lon="-0.51232">
        <ele>5.2</ele>
        <time>2021-05-13T08:11:22Z</time>
      </trkpt>
      <trkpt lat="44.78422" lon="-0.51229">
        <ele>5.2</ele>
        <time>2021-05-13T08:11:21Z</time>
      </trkpt>
      <trkpt lat="44.78424" lon="-0.51218">
        <ele>5.2</ele>
        <time>2021-05-13T08:11:17Z</time>
      </trkpt>
      <trkpt lat="44.78425" lon="-0.51216">
        <ele>5.2</ele>
        <time>2021-05-13T08:11:07Z</time>
      </trkpt>
      <trkpt lat="44.78425" lon="-0.51214">
        <ele>5.2</ele>
        <time>2021-05-13T08:11:02Z</time>
      </trkpt>
      <trkpt lat="44.78425" lon="-0.51213">
        <ele>5.2</ele>
        <time>2021-05-13T08:11:01Z</time>
      </trkpt>
      <trkpt lat="44.78425" lon="-0.51197">
        <ele>5.2</ele>
        <time>2021-05-13T08:10:57Z</time>
      </trkpt>
      <trkpt lat="44.78425" lon="-0.51162">
        <ele>5.1</ele>
        <time>2021-05-13T08:10:51Z</time>
      </trkpt>
      <trkpt lat="44.78424" lon="-0.51134">
        <ele>5.1</ele>
        <time>2021-05-13T08:10:46Z</time>
      </trkpt>
      <trkpt lat="44.78423" lon="-0.51113">
        <ele>5</ele>
        <time>2021-05-13T08:10:41Z</time>
      </trkpt>
      <trkpt lat="44.78425" lon="-0.51108">
        <ele>5</ele>
        <time>2021-05-13T08:10:39Z</time>
      </trkpt>
      <trkpt lat="44.78422" lon="-0.51097">
        <ele>5</ele>
        <time>2021-05-13T08:07:48Z</time>
      </trkpt>
      <trkpt lat="44.78419" lon="-0.51085">
        <ele>5</ele>
        <time>2021-05-13T08:07:46Z</time>
      </trkpt>
      <trkpt lat="44.78417" lon="-0.5106">
        <ele>5</ele>
        <time>2021-05-13T08:07:43Z</time>
      </trkpt>
      <trkpt lat="44.78417" lon="-0.5101">
        <ele>4.9</ele>
        <time>2021-05-13T08:07:37Z</time>
      </trkpt>
      <trkpt lat="44.78419" lon="-0.5094">
        <ele>4.8</ele>
        <time>2021-05-13T08:07:29Z</time>
      </trkpt>
      <trkpt lat="44.7842" lon="-0.50888">
        <ele>4.8</ele>
        <time>2021-05-13T08:07:23Z</time>
      </trkpt>
      <trkpt lat="44.78423" lon="-0.50823">
        <ele>4.8</ele>
        <time>2021-05-13T08:07:16Z</time>
      </trkpt>
      <trkpt lat="44.78424" lon="-0.50771">
        <ele>4.9</ele>
        <time>2021-05-13T08:07:10Z</time>
      </trkpt>
      <trkpt lat="44.78425" lon="-0.50754">
        <ele>4.9</ele>
        <time>2021-05-13T08:07:08Z</time>
      </trkpt>
      <trkpt lat="44.78431" lon="-0.5072">
        <ele>5</ele>
        <time>2021-05-13T08:07:04Z</time>
      </trkpt>
      <trkpt lat="44.78437" lon="-0.50696">
        <ele>5.1</ele>
        <time>2021-05-13T08:07:01Z</time>
      </trkpt>
      <trkpt lat="44.78447" lon="-0.50675">
        <ele>5.2</ele>
        <time>2021-05-13T08:06:58Z</time>
      </trkpt>
      <trkpt lat="44.78459" lon="-0.50649">
        <ele>5.5</ele>
        <time>2021-05-13T08:06:54Z</time>
      </trkpt>
      <trkpt lat="44.78465" lon="-0.50636">
        <ele>5.6</ele>
        <time>2021-05-13T08:06:52Z</time>
      </trkpt>
      <trkpt lat="44.78469" lon="-0.50631">
        <ele>5.6</ele>
        <time>2021-05-13T08:06:51Z</time>
      </trkpt>
      <trkpt lat="44.7848" lon="-0.50623">
        <ele>5.7</ele>
        <time>2021-05-13T08:06:49Z</time>
      </trkpt>
      <trkpt lat="44.78486" lon="-0.50621">
        <ele>5.7</ele>
        <time>2021-05-13T08:06:48Z</time>
      </trkpt>
      <trkpt lat="44.78491" lon="-0.50619">
        <ele>5.7</ele>
        <time>2021-05-13T08:06:47Z</time>
      </trkpt>
      <trkpt lat="44.78501" lon="-0.5061">
        <ele>5.6</ele>
        <time>2021-05-13T08:06:45Z</time>
      </trkpt>
      <trkpt lat="44.78508" lon="-0.50597">
        <ele>5.6</ele>
        <time>2021-05-13T08:06:43Z</time>
      </trkpt>
      <trkpt lat="44.78509" lon="-0.50589">
        <ele>5.5</ele>
        <time>2021-05-13T08:06:42Z</time>
      </trkpt>
      <trkpt lat="44.78509" lon="-0.5058">
        <ele>5.5</ele>
        <time>2021-05-13T08:06:41Z</time>
      </trkpt>
      <trkpt lat="44.78504" lon="-0.50562">
        <ele>5.4</ele>
        <time>2021-05-13T08:06:39Z</time>
      </trkpt>
      <trkpt lat="44.785" lon="-0.50555">
        <ele>5.4</ele>
        <time>2021-05-13T08:06:38Z</time>
      </trkpt>
      <trkpt lat="44.78496" lon="-0.50548">
        <ele>5.4</ele>
        <time>2021-05-13T08:06:37Z</time>
      </trkpt>
      <trkpt lat="44.78491" lon="-0.50534">
        <ele>5.3</ele>
        <time>2021-05-13T08:06:35Z</time>
      </trkpt>
      <trkpt lat="44.7849" lon="-0.5052">
        <ele>5.2</ele>
        <time>2021-05-13T08:06:33Z</time>
      </trkpt>
      <trkpt lat="44.78492" lon="-0.50498">
        <ele>5.1</ele>
        <time>2021-05-13T08:06:30Z</time>
      </trkpt>
      <trkpt lat="44.78493" lon="-0.50491">
        <ele>5.1</ele>
        <time>2021-05-13T08:06:29Z</time>
      </trkpt>
      <trkpt lat="44.7851" lon="-0.50436">
        <ele>4.8</ele>
        <time>2021-05-13T08:06:22Z</time>
      </trkpt>
      <trkpt lat="44.7853" lon="-0.50375">
        <ele>4.6</ele>
        <time>2021-05-13T08:06:14Z</time>
      </trkpt>
      <trkpt lat="44.78547" lon="-0.50323">
        <ele>4.6</ele>
        <time>2021-05-13T08:06:07Z</time>
      </trkpt>
      <trkpt lat="44.7855" lon="-0.50315">
        <ele>4.6</ele>
        <time>2021-05-13T08:06:06Z</time>
      </trkpt>
      <trkpt lat="44.78567" lon="-0.50262">
        <ele>4.6</ele>
        <time>2021-05-13T08:05:59Z</time>
      </trkpt>
      <trkpt lat="44.7858" lon="-0.5022">
        <ele>4.9</ele>
        <time>2021-05-13T08:05:53Z</time>
      </trkpt>
      <trkpt lat="44.78587" lon="-0.50194">
        <ele>5.3</ele>
        <time>2021-05-13T08:05:48Z</time>
      </trkpt>
      <trkpt lat="44.78586" lon="-0.50189">
        <ele>5.4</ele>
        <time>2021-05-13T08:05:47Z</time>
      </trkpt>
      <trkpt lat="44.78582" lon="-0.50183">
        <ele>5.2</ele>
        <time>2021-05-13T08:05:44Z</time>
      </trkpt>
      <trkpt lat="44.78577" lon="-0.50179">
        <ele>5.1</ele>
        <time>2021-05-13T08:05:34Z</time>
      </trkpt>
      <trkpt lat="44.78561" lon="-0.50162">
        <ele>4.7</ele>
        <time>2021-05-13T08:05:29Z</time>
      </trkpt>
      <trkpt lat="44.78554" lon="-0.50154">
        <ele>4.7</ele>
        <time>2021-05-13T08:05:27Z</time>
      </trkpt>
      <trkpt lat="44.78538" lon="-0.50137">
        <ele>4.6</ele>
        <time>2021-05-13T08:05:23Z</time>
      </trkpt>
      <trkpt lat="44.78534" lon="-0.50133">
        <ele>4.6</ele>
        <time>2021-05-13T08:05:22Z</time>
      </trkpt>
      <trkpt lat="44.78502" lon="-0.50095">
        <ele>4.7</ele>
        <time>2021-05-13T08:05:15Z</time>
      </trkpt>
      <trkpt lat="44.78474" lon="-0.50064">
        <ele>4.9</ele>
        <time>2021-05-13T08:05:09Z</time>
      </trkpt>
      <trkpt lat="44.78465" lon="-0.50055">
        <ele>5</ele>
        <time>2021-05-13T08:05:07Z</time>
      </trkpt>
      <trkpt lat="44.78456" lon="-0.50045">
        <ele>5.1</ele>
        <time>2021-05-13T08:05:05Z</time>
      </trkpt>
      <trkpt lat="44.78423" lon="-0.50008">
        <ele>5.3</ele>
        <time>2021-05-13T08:04:58Z</time>
      </trkpt>
      <trkpt lat="44.78393" lon="-0.49975">
        <ele>5.8</ele>
        <time>2021-05-13T08:04:52Z</time>
      </trkpt>
      <trkpt lat="44.78379" lon="-0.49952">
        <ele>6.6</ele>
        <time>2021-05-13T08:04:48Z</time>
      </trkpt>
      <trkpt lat="44.78367" lon="-0.49936">
        <ele>6.6</ele>
        <time>2021-05-13T08:04:43Z</time>
      </trkpt>
      <trkpt lat="44.78353" lon="-0.49911">
        <ele>6.1</ele>
        <time>2021-05-13T08:04:38Z</time>
      </trkpt>
      <trkpt lat="44.78332" lon="-0.49866">
        <ele>5.7</ele>
        <time>2021-05-13T08:04:31Z</time>
      </trkpt>
      <trkpt lat="44.78315" lon="-0.49807">
        <ele>5.5</ele>
        <time>2021-05-13T08:04:23Z</time>
      </trkpt>
      <trkpt lat="44.78312" lon="-0.49792">
        <ele>5.5</ele>
        <time>2021-05-13T08:04:21Z</time>
      </trkpt>
      <trkpt lat="44.78307" lon="-0.49761">
        <ele>5.5</ele>
        <time>2021-05-13T08:04:17Z</time>
      </trkpt>
      <trkpt lat="44.78303" lon="-0.49704">
        <ele>5.7</ele>
        <time>2021-05-13T08:04:10Z</time>
      </trkpt>
      <trkpt lat="44.78309" lon="-0.4965">
        <ele>6.1</ele>
        <time>2021-05-13T08:04:05Z</time>
      </trkpt>
      <trkpt lat="44.78311" lon="-0.49634">
        <ele>6.3</ele>
        <time>2021-05-13T08:04:03Z</time>
      </trkpt>
      <trkpt lat="44.78308" lon="-0.49617">
        <ele>6.6</ele>
        <time>2021-05-13T08:04:00Z</time>
      </trkpt>
      <trkpt lat="44.78307" lon="-0.49608">
        <ele>6.7</ele>
        <time>2021-05-13T08:03:58Z</time>
      </trkpt>
      <trkpt lat="44.78309" lon="-0.49596">
        <ele>6.9</ele>
        <time>2021-05-13T08:03:55Z</time>
      </trkpt>
      <trkpt lat="44.78313" lon="-0.49581">
        <ele>6.8</ele>
        <time>2021-05-13T08:03:50Z</time>
      </trkpt>
      <trkpt lat="44.78315" lon="-0.49571">
        <ele>6.7</ele>
        <time>2021-05-13T08:03:46Z</time>
      </trkpt>
      <trkpt lat="44.78319" lon="-0.49557">
        <ele>6.4</ele>
        <time>2021-05-13T08:03:43Z</time>
      </trkpt>
      <trkpt lat="44.7832" lon="-0.49551">
        <ele>6.4</ele>
        <time>2021-05-13T08:03:42Z</time>
      </trkpt>
      <trkpt lat="44.78328" lon="-0.49502">
        <ele>6.3</ele>
        <time>2021-05-13T08:03:35Z</time>
      </trkpt>
      <trkpt lat="44.78334" lon="-0.49442">
        <ele>6.5</ele>
        <time>2021-05-13T08:03:28Z</time>
      </trkpt>
      <trkpt lat="44.78335" lon="-0.49424">
        <ele>6.6</ele>
        <time>2021-05-13T08:03:26Z</time>
      </trkpt>
      <trkpt lat="44.78331" lon="-0.4937">
        <ele>6.8</ele>
        <time>2021-05-13T08:03:20Z</time>
      </trkpt>
      <trkpt lat="44.78323" lon="-0.49315">
        <ele>7.1</ele>
        <time>2021-05-13T08:03:14Z</time>
      </trkpt>
      <trkpt lat="44.78309" lon="-0.49254">
        <ele>7.5</ele>
        <time>2021-05-13T08:03:07Z</time>
      </trkpt>
      <trkpt lat="44.78293" lon="-0.49185">
        <ele>7.9</ele>
        <time>2021-05-13T08:02:59Z</time>
      </trkpt>
      <trkpt lat="44.78277" lon="-0.49121">
        <ele>8.4</ele>
        <time>2021-05-13T08:02:52Z</time>
      </trkpt>
      <trkpt lat="44.78261" lon="-0.49051">
        <ele>9</ele>
        <time>2021-05-13T08:02:44Z</time>
      </trkpt>
      <trkpt lat="44.78259" lon="-0.49041">
        <ele>9.2</ele>
        <time>2021-05-13T08:02:43Z</time>
      </trkpt>
      <trkpt lat="44.78247" lon="-0.48998">
        <ele>9.6</ele>
        <time>2021-05-13T08:02:38Z</time>
      </trkpt>
      <trkpt lat="44.78241" lon="-0.4897">
        <ele>9.9</ele>
        <time>2021-05-13T08:02:35Z</time>
      </trkpt>
      <trkpt lat="44.78237" lon="-0.48951">
        <ele>10.2</ele>
        <time>2021-05-13T08:02:33Z</time>
      </trkpt>
      <trkpt lat="44.78232" lon="-0.4889">
        <ele>10.8</ele>
        <time>2021-05-13T08:02:27Z</time>
      </trkpt>
      <trkpt lat="44.78229" lon="-0.48862">
        <ele>11.2</ele>
        <time>2021-05-13T08:02:24Z</time>
      </trkpt>
      <trkpt lat="44.78229" lon="-0.48853">
        <ele>11.3</ele>
        <time>2021-05-13T08:02:23Z</time>
      </trkpt>
      <trkpt lat="44.7823" lon="-0.48844">
        <ele>11.4</ele>
        <time>2021-05-13T08:02:22Z</time>
      </trkpt>
      <trkpt lat="44.78231" lon="-0.48829">
        <ele>11.4</ele>
        <time>2021-05-13T08:02:20Z</time>
      </trkpt>
      <trkpt lat="44.78234" lon="-0.48793">
        <ele>11.4</ele>
        <time>2021-05-13T08:02:16Z</time>
      </trkpt>
      <trkpt lat="44.78237" lon="-0.48761">
        <ele>11.5</ele>
        <time>2021-05-13T08:02:13Z</time>
      </trkpt>
      <trkpt lat="44.78237" lon="-0.4874">
        <ele>11.6</ele>
        <time>2021-05-13T08:02:11Z</time>
      </trkpt>
      <trkpt lat="44.78237" lon="-0.4873">
        <ele>11.7</ele>
        <time>2021-05-13T08:02:10Z</time>
      </trkpt>
      <trkpt lat="44.78237" lon="-0.48712">
        <ele>11.8</ele>
        <time>2021-05-13T08:02:08Z</time>
      </trkpt>
      <trkpt lat="44.78239" lon="-0.48695">
        <ele>11.9</ele>
        <time>2021-05-13T08:02:06Z</time>
      </trkpt>
      <trkpt lat="44.7824" lon="-0.48685">
        <ele>11.9</ele>
        <time>2021-05-13T08:02:05Z</time>
      </trkpt>
      <trkpt lat="44.7824" lon="-0.48676">
        <ele>11.9</ele>
        <time>2021-05-13T08:02:04Z</time>
      </trkpt>
      <trkpt lat="44.78241" lon="-0.48666">
        <ele>11.9</ele>
        <time>2021-05-13T08:02:03Z</time>
      </trkpt>
      <trkpt lat="44.78243" lon="-0.48657">
        <ele>11.9</ele>
        <time>2021-05-13T08:02:02Z</time>
      </trkpt>
      <trkpt lat="44.78246" lon="-0.48639">
        <ele>11.8</ele>
        <time>2021-05-13T08:02:00Z</time>
      </trkpt>
      <trkpt lat="44.7825" lon="-0.48622">
        <ele>11.7</ele>
        <time>2021-05-13T08:01:58Z</time>
      </trkpt>
      <trkpt lat="44.78257" lon="-0.48605">
        <ele>11.7</ele>
        <time>2021-05-13T08:01:56Z</time>
      </trkpt>
      <trkpt lat="44.78267" lon="-0.48562">
        <ele>11.5</ele>
        <time>2021-05-13T08:01:51Z</time>
      </trkpt>
      <trkpt lat="44.78269" lon="-0.48546">
        <ele>11.5</ele>
        <time>2021-05-13T08:01:49Z</time>
      </trkpt>
      <trkpt lat="44.78273" lon="-0.4853">
        <ele>11.5</ele>
        <time>2021-05-13T08:01:47Z</time>
      </trkpt>
      <trkpt lat="44.78278" lon="-0.48514">
        <ele>11.4</ele>
        <time>2021-05-13T08:01:45Z</time>
      </trkpt>
      <trkpt lat="44.7828" lon="-0.48501">
        <ele>11.4</ele>
        <time>2021-05-13T08:01:43Z</time>
      </trkpt>
      <trkpt lat="44.78284" lon="-0.48488">
        <ele>11.4</ele>
        <time>2021-05-13T08:01:41Z</time>
      </trkpt>
      <trkpt lat="44.78287" lon="-0.48474">
        <ele>11.4</ele>
        <time>2021-05-13T08:01:39Z</time>
      </trkpt>
      <trkpt lat="44.78294" lon="-0.4846">
        <ele>11.4</ele>
        <time>2021-05-13T08:01:37Z</time>
      </trkpt>
      <trkpt lat="44.78301" lon="-0.48445">
        <ele>11.4</ele>
        <time>2021-05-13T08:01:35Z</time>
      </trkpt>
      <trkpt lat="44.78314" lon="-0.48419">
        <ele>11.3</ele>
        <time>2021-05-13T08:01:31Z</time>
      </trkpt>
      <trkpt lat="44.78317" lon="-0.48413">
        <ele>11.3</ele>
        <time>2021-05-13T08:01:30Z</time>
      </trkpt>
      <trkpt lat="44.78328" lon="-0.48393">
        <ele>11.4</ele>
        <time>2021-05-13T08:01:27Z</time>
      </trkpt>
      <trkpt lat="44.78332" lon="-0.48386">
        <ele>11.4</ele>
        <time>2021-05-13T08:01:26Z</time>
      </trkpt>
      <trkpt lat="44.78335" lon="-0.48379">
        <ele>11.4</ele>
        <time>2021-05-13T08:01:25Z</time>
      </trkpt>
      <trkpt lat="44.78348" lon="-0.48358">
        <ele>11.5</ele>
        <time>2021-05-13T08:01:22Z</time>
      </trkpt>
      <trkpt lat="44.78356" lon="-0.48346">
        <ele>11.6</ele>
        <time>2021-05-13T08:01:20Z</time>
      </trkpt>
      <trkpt lat="44.78359" lon="-0.48341">
        <ele>11.6</ele>
        <time>2021-05-13T08:01:19Z</time>
      </trkpt>
      <trkpt lat="44.78378" lon="-0.48316">
        <ele>11.7</ele>
        <time>2021-05-13T08:01:15Z</time>
      </trkpt>
      <trkpt lat="44.78383" lon="-0.48309">
        <ele>11.7</ele>
        <time>2021-05-13T08:01:14Z</time>
      </trkpt>
      <trkpt lat="44.78396" lon="-0.4829">
        <ele>11.7</ele>
        <time>2021-05-13T08:01:11Z</time>
      </trkpt>
      <trkpt lat="44.78408" lon="-0.48271">
        <ele>11.7</ele>
        <time>2021-05-13T08:01:08Z</time>
      </trkpt>
      <trkpt lat="44.78413" lon="-0.48264">
        <ele>11.7</ele>
        <time>2021-05-13T08:01:07Z</time>
      </trkpt>
      <trkpt lat="44.78425" lon="-0.48245">
        <ele>11.8</ele>
        <time>2021-05-13T08:01:04Z</time>
      </trkpt>
      <trkpt lat="44.78441" lon="-0.48222">
        <ele>11.8</ele>
        <time>2021-05-13T08:01:00Z</time>
      </trkpt>
      <trkpt lat="44.78445" lon="-0.48215">
        <ele>11.8</ele>
        <time>2021-05-13T08:00:59Z</time>
      </trkpt>
      <trkpt lat="44.78462" lon="-0.48188">
        <ele>11.8</ele>
        <time>2021-05-13T08:00:55Z</time>
      </trkpt>
      <trkpt lat="44.78468" lon="-0.48176">
        <ele>11.8</ele>
        <time>2021-05-13T08:00:53Z</time>
      </trkpt>
      <trkpt lat="44.78474" lon="-0.48165">
        <ele>11.8</ele>
        <time>2021-05-13T08:00:51Z</time>
      </trkpt>
      <trkpt lat="44.7848" lon="-0.48154">
        <ele>11.8</ele>
        <time>2021-05-13T08:00:49Z</time>
      </trkpt>
      <trkpt lat="44.78492" lon="-0.48126">
        <ele>11.8</ele>
        <time>2021-05-13T08:00:45Z</time>
      </trkpt>
      <trkpt lat="44.78496" lon="-0.48113">
        <ele>11.7</ele>
        <time>2021-05-13T08:00:43Z</time>
      </trkpt>
      <trkpt lat="44.78501" lon="-0.48095">
        <ele>11.7</ele>
        <time>2021-05-13T08:00:40Z</time>
      </trkpt>
      <trkpt lat="44.78503" lon="-0.48083">
        <ele>11.7</ele>
        <time>2021-05-13T08:00:38Z</time>
      </trkpt>
      <trkpt lat="44.78509" lon="-0.48057">
        <ele>11.8</ele>
        <time>2021-05-13T08:00:34Z</time>
      </trkpt>
      <trkpt lat="44.78511" lon="-0.48049">
        <ele>11.8</ele>
        <time>2021-05-13T08:00:33Z</time>
      </trkpt>
      <trkpt lat="44.78518" lon="-0.4802">
        <ele>11.7</ele>
        <time>2021-05-13T08:00:29Z</time>
      </trkpt>
      <trkpt lat="44.78522" lon="-0.47995">
        <ele>11.7</ele>
        <time>2021-05-13T08:00:26Z</time>
      </trkpt>
      <trkpt lat="44.78525" lon="-0.47987">
        <ele>11.8</ele>
        <time>2021-05-13T08:00:25Z</time>
      </trkpt>
      <trkpt lat="44.78528" lon="-0.47978">
        <ele>11.8</ele>
        <time>2021-05-13T08:00:24Z</time>
      </trkpt>
      <trkpt lat="44.78534" lon="-0.47962">
        <ele>11.8</ele>
        <time>2021-05-13T08:00:22Z</time>
      </trkpt>
      <trkpt lat="44.78538" lon="-0.47953">
        <ele>11.9</ele>
        <time>2021-05-13T08:00:21Z</time>
      </trkpt>
      <trkpt lat="44.78543" lon="-0.47943">
        <ele>11.9</ele>
        <time>2021-05-13T08:00:20Z</time>
      </trkpt>
      <trkpt lat="44.78544" lon="-0.47929">
        <ele>12</ele>
        <time>2021-05-13T08:00:18Z</time>
      </trkpt>
      <trkpt lat="44.78542" lon="-0.47909">
        <ele>12.1</ele>
        <time>2021-05-13T08:00:15Z</time>
      </trkpt>
      <trkpt lat="44.78542" lon="-0.47897">
        <ele>12.2</ele>
        <time>2021-05-13T08:00:13Z</time>
      </trkpt>
      <trkpt lat="44.78545" lon="-0.47883">
        <ele>12.2</ele>
        <time>2021-05-13T08:00:11Z</time>
      </trkpt>
      <trkpt lat="44.78547" lon="-0.47862">
        <ele>12.2</ele>
        <time>2021-05-13T08:00:08Z</time>
      </trkpt>
      <trkpt lat="44.78548" lon="-0.47855">
        <ele>12.3</ele>
        <time>2021-05-13T08:00:07Z</time>
      </trkpt>
      <trkpt lat="44.7855" lon="-0.47842">
        <ele>12.3</ele>
        <time>2021-05-13T08:00:05Z</time>
      </trkpt>
      <trkpt lat="44.78553" lon="-0.47827">
        <ele>12.5</ele>
        <time>2021-05-13T08:00:03Z</time>
      </trkpt>
      <trkpt lat="44.78556" lon="-0.47813">
        <ele>12.6</ele>
        <time>2021-05-13T08:00:01Z</time>
      </trkpt>
      <trkpt lat="44.78559" lon="-0.478">
        <ele>12.8</ele>
        <time>2021-05-13T07:59:59Z</time>
      </trkpt>
      <trkpt lat="44.78561" lon="-0.47793">
        <ele>12.9</ele>
        <time>2021-05-13T07:59:58Z</time>
      </trkpt>
      <trkpt lat="44.78565" lon="-0.47779">
        <ele>12.9</ele>
        <time>2021-05-13T07:59:56Z</time>
      </trkpt>
      <trkpt lat="44.78567" lon="-0.47772">
        <ele>12.9</ele>
        <time>2021-05-13T07:59:55Z</time>
      </trkpt>
      <trkpt lat="44.78571" lon="-0.47757">
        <ele>12.9</ele>
        <time>2021-05-13T07:59:53Z</time>
      </trkpt>
      <trkpt lat="44.78573" lon="-0.47738">
        <ele>13</ele>
        <time>2021-05-13T07:59:50Z</time>
      </trkpt>
      <trkpt lat="44.78579" lon="-0.47709">
        <ele>13.1</ele>
        <time>2021-05-13T07:59:45Z</time>
      </trkpt>
      <trkpt lat="44.78584" lon="-0.4769">
        <ele>13.1</ele>
        <time>2021-05-13T07:59:40Z</time>
      </trkpt>
      <trkpt lat="44.78587" lon="-0.47675">
        <ele>13.2</ele>
        <time>2021-05-13T07:59:37Z</time>
      </trkpt>
      <trkpt lat="44.78589" lon="-0.47669">
        <ele>13.2</ele>
        <time>2021-05-13T07:59:36Z</time>
      </trkpt>
      <trkpt lat="44.78594" lon="-0.47655">
        <ele>13.2</ele>
        <time>2021-05-13T07:59:34Z</time>
      </trkpt>
      <trkpt lat="44.78601" lon="-0.47631">
        <ele>13.1</ele>
        <time>2021-05-13T07:59:31Z</time>
      </trkpt>
      <trkpt lat="44.78606" lon="-0.4761">
        <ele>13.1</ele>
        <time>2021-05-13T07:59:28Z</time>
      </trkpt>
      <trkpt lat="44.78614" lon="-0.47586">
        <ele>13.1</ele>
        <time>2021-05-13T07:59:25Z</time>
      </trkpt>
      <trkpt lat="44.78629" lon="-0.47538">
        <ele>13.1</ele>
        <time>2021-05-13T07:59:19Z</time>
      </trkpt>
      <trkpt lat="44.78649" lon="-0.47476">
        <ele>13.1</ele>
        <time>2021-05-13T07:59:11Z</time>
      </trkpt>
      <trkpt lat="44.78654" lon="-0.47459">
        <ele>13.2</ele>
        <time>2021-05-13T07:59:09Z</time>
      </trkpt>
      <trkpt lat="44.78663" lon="-0.47428">
        <ele>13.2</ele>
        <time>2021-05-13T07:59:05Z</time>
      </trkpt>
      <trkpt lat="44.78672" lon="-0.47396">
        <ele>13.2</ele>
        <time>2021-05-13T07:59:01Z</time>
      </trkpt>
      <trkpt lat="44.78674" lon="-0.47389">
        <ele>13.2</ele>
        <time>2021-05-13T07:59:00Z</time>
      </trkpt>
      <trkpt lat="44.78675" lon="-0.47383">
        <ele>13.2</ele>
        <time>2021-05-13T07:58:59Z</time>
      </trkpt>
      <trkpt lat="44.78684" lon="-0.47352">
        <ele>13.3</ele>
        <time>2021-05-13T07:58:55Z</time>
      </trkpt>
      <trkpt lat="44.78697" lon="-0.4732">
        <ele>13.3</ele>
        <time>2021-05-13T07:58:51Z</time>
      </trkpt>
      <trkpt lat="44.78704" lon="-0.47305">
        <ele>13.4</ele>
        <time>2021-05-13T07:58:49Z</time>
      </trkpt>
      <trkpt lat="44.78707" lon="-0.47297">
        <ele>13.4</ele>
        <time>2021-05-13T07:58:48Z</time>
      </trkpt>
      <trkpt lat="44.78718" lon="-0.47271">
        <ele>13.6</ele>
        <time>2021-05-13T07:58:44Z</time>
      </trkpt>
      <trkpt lat="44.78722" lon="-0.47265">
        <ele>13.6</ele>
        <time>2021-05-13T07:58:43Z</time>
      </trkpt>
      <trkpt lat="44.78733" lon="-0.47246">
        <ele>13.7</ele>
        <time>2021-05-13T07:58:40Z</time>
      </trkpt>
      <trkpt lat="44.7874" lon="-0.47233">
        <ele>13.8</ele>
        <time>2021-05-13T07:58:38Z</time>
      </trkpt>
      <trkpt lat="44.78753" lon="-0.47214">
        <ele>13.9</ele>
        <time>2021-05-13T07:58:35Z</time>
      </trkpt>
      <trkpt lat="44.78795" lon="-0.47167">
        <ele>14.3</ele>
        <time>2021-05-13T07:58:27Z</time>
      </trkpt>
      <trkpt lat="44.78832" lon="-0.47137">
        <ele>14.5</ele>
        <time>2021-05-13T07:58:21Z</time>
      </trkpt>
      <trkpt lat="44.78863" lon="-0.47115">
        <ele>14.9</ele>
        <time>2021-05-13T07:58:16Z</time>
      </trkpt>
      <trkpt lat="44.7888" lon="-0.47104">
        <ele>15</ele>
        <time>2021-05-13T07:58:13Z</time>
      </trkpt>
      <trkpt lat="44.78886" lon="-0.471">
        <ele>15</ele>
        <time>2021-05-13T07:58:12Z</time>
      </trkpt>
      <trkpt lat="44.78891" lon="-0.47096">
        <ele>15</ele>
        <time>2021-05-13T07:58:11Z</time>
      </trkpt>
      <trkpt lat="44.78912" lon="-0.47082">
        <ele>15.1</ele>
        <time>2021-05-13T07:58:07Z</time>
      </trkpt>
      <trkpt lat="44.78934" lon="-0.47068">
        <ele>15.2</ele>
        <time>2021-05-13T07:58:03Z</time>
      </trkpt>
      <trkpt lat="44.78965" lon="-0.47049">
        <ele>15.3</ele>
        <time>2021-05-13T07:57:57Z</time>
      </trkpt>
      <trkpt lat="44.78996" lon="-0.47028">
        <ele>15.4</ele>
        <time>2021-05-13T07:57:51Z</time>
      </trkpt>
      <trkpt lat="44.79042" lon="-0.47001">
        <ele>15.6</ele>
        <time>2021-05-13T07:57:43Z</time>
      </trkpt>
      <trkpt lat="44.79083" lon="-0.46975">
        <ele>15.6</ele>
        <time>2021-05-13T07:57:36Z</time>
      </trkpt>
      <trkpt lat="44.7912" lon="-0.46953">
        <ele>15.5</ele>
        <time>2021-05-13T07:57:29Z</time>
      </trkpt>
      <trkpt lat="44.79152" lon="-0.46935">
        <ele>15.4</ele>
        <time>2021-05-13T07:57:23Z</time>
      </trkpt>
      <trkpt lat="44.7918" lon="-0.46919">
        <ele>15.3</ele>
        <time>2021-05-13T07:57:17Z</time>
      </trkpt>
      <trkpt lat="44.79185" lon="-0.46917">
        <ele>15.3</ele>
        <time>2021-05-13T07:57:16Z</time>
      </trkpt>
      <trkpt lat="44.79204" lon="-0.46905">
        <ele>15.3</ele>
        <time>2021-05-13T07:57:11Z</time>
      </trkpt>
      <trkpt lat="44.79221" lon="-0.46895">
        <ele>15.3</ele>
        <time>2021-05-13T07:57:06Z</time>
      </trkpt>
      <trkpt lat="44.79243" lon="-0.46881">
        <ele>15.4</ele>
        <time>2021-05-13T07:56:59Z</time>
      </trkpt>
      <trkpt lat="44.79255" lon="-0.46874">
        <ele>15.4</ele>
        <time>2021-05-13T07:56:55Z</time>
      </trkpt>
      <trkpt lat="44.79265" lon="-0.46867">
        <ele>15.5</ele>
        <time>2021-05-13T07:56:50Z</time>
      </trkpt>
      <trkpt lat="44.79269" lon="-0.46861">
        <ele>15.5</ele>
        <time>2021-05-13T07:56:47Z</time>
      </trkpt>
      <trkpt lat="44.79273" lon="-0.46857">
        <ele>15.5</ele>
        <time>2021-05-13T07:55:45Z</time>
      </trkpt>
      <trkpt lat="44.79284" lon="-0.46853">
        <ele>15.6</ele>
        <time>2021-05-13T07:55:40Z</time>
      </trkpt>
      <trkpt lat="44.79312" lon="-0.46837">
        <ele>15.8</ele>
        <time>2021-05-13T07:55:34Z</time>
      </trkpt>
      <trkpt lat="44.79332" lon="-0.46825">
        <ele>16</ele>
        <time>2021-05-13T07:55:30Z</time>
      </trkpt>
      <trkpt lat="44.79336" lon="-0.46823">
        <ele>16</ele>
        <time>2021-05-13T07:55:29Z</time>
      </trkpt>
      <trkpt lat="44.79356" lon="-0.46811">
        <ele>16.1</ele>
        <time>2021-05-13T07:55:23Z</time>
      </trkpt>
      <trkpt lat="44.79374" lon="-0.46798">
        <ele>16</ele>
        <time>2021-05-13T07:55:18Z</time>
      </trkpt>
      <trkpt lat="44.79379" lon="-0.46794">
        <ele>16</ele>
        <time>2021-05-13T07:55:17Z</time>
      </trkpt>
      <trkpt lat="44.79404" lon="-0.46774">
        <ele>16.1</ele>
        <time>2021-05-13T07:55:12Z</time>
      </trkpt>
      <trkpt lat="44.79436" lon="-0.46752">
        <ele>16.4</ele>
        <time>2021-05-13T07:55:06Z</time>
      </trkpt>
      <trkpt lat="44.7948" lon="-0.46726">
        <ele>16.6</ele>
        <time>2021-05-13T07:54:58Z</time>
      </trkpt>
      <trkpt lat="44.79515" lon="-0.46705">
        <ele>16.8</ele>
        <time>2021-05-13T07:54:52Z</time>
      </trkpt>
      <trkpt lat="44.79526" lon="-0.46698">
        <ele>16.8</ele>
        <time>2021-05-13T07:54:50Z</time>
      </trkpt>
      <trkpt lat="44.79538" lon="-0.4669">
        <ele>16.9</ele>
        <time>2021-05-13T07:54:48Z</time>
      </trkpt>
      <trkpt lat="44.79562" lon="-0.46674">
        <ele>17.1</ele>
        <time>2021-05-13T07:54:43Z</time>
      </trkpt>
      <trkpt lat="44.7959" lon="-0.46654">
        <ele>17.3</ele>
        <time>2021-05-13T07:54:38Z</time>
      </trkpt>
      <trkpt lat="44.79605" lon="-0.46641">
        <ele>17.4</ele>
        <time>2021-05-13T07:54:35Z</time>
      </trkpt>
      <trkpt lat="44.79628" lon="-0.46621">
        <ele>17.5</ele>
        <time>2021-05-13T07:54:31Z</time>
      </trkpt>
      <trkpt lat="44.79653" lon="-0.46596">
        <ele>17.6</ele>
        <time>2021-05-13T07:54:26Z</time>
      </trkpt>
      <trkpt lat="44.79683" lon="-0.46559">
        <ele>17.8</ele>
        <time>2021-05-13T07:54:20Z</time>
      </trkpt>
      <trkpt lat="44.79708" lon="-0.46517">
        <ele>18</ele>
        <time>2021-05-13T07:54:14Z</time>
      </trkpt>
      <trkpt lat="44.79718" lon="-0.46503">
        <ele>18.1</ele>
        <time>2021-05-13T07:54:12Z</time>
      </trkpt>
      <trkpt lat="44.79726" lon="-0.46491">
        <ele>18.2</ele>
        <time>2021-05-13T07:54:10Z</time>
      </trkpt>
      <trkpt lat="44.79729" lon="-0.46485">
        <ele>18.2</ele>
        <time>2021-05-13T07:54:09Z</time>
      </trkpt>
      <trkpt lat="44.79745" lon="-0.46458">
        <ele>18.4</ele>
        <time>2021-05-13T07:54:05Z</time>
      </trkpt>
      <trkpt lat="44.79754" lon="-0.46446">
        <ele>18.5</ele>
        <time>2021-05-13T07:54:03Z</time>
      </trkpt>
      <trkpt lat="44.79761" lon="-0.46431">
        <ele>18.6</ele>
        <time>2021-05-13T07:54:01Z</time>
      </trkpt>
      <trkpt lat="44.79773" lon="-0.4641">
        <ele>18.7</ele>
        <time>2021-05-13T07:53:58Z</time>
      </trkpt>
      <trkpt lat="44.79776" lon="-0.46403">
        <ele>18.7</ele>
        <time>2021-05-13T07:53:57Z</time>
      </trkpt>
      <trkpt lat="44.79796" lon="-0.46368">
        <ele>18.9</ele>
        <time>2021-05-13T07:53:52Z</time>
      </trkpt>
      <trkpt lat="44.79803" lon="-0.46349">
        <ele>18.9</ele>
        <time>2021-05-13T07:53:49Z</time>
      </trkpt>
      <trkpt lat="44.79813" lon="-0.46327">
        <ele>18.9</ele>
        <time>2021-05-13T07:53:46Z</time>
      </trkpt>
      <trkpt lat="44.79818" lon="-0.46319">
        <ele>18.9</ele>
        <time>2021-05-13T07:53:45Z</time>
      </trkpt>
      <trkpt lat="44.79822" lon="-0.46311">
        <ele>18.8</ele>
        <time>2021-05-13T07:53:44Z</time>
      </trkpt>
      <trkpt lat="44.79836" lon="-0.46277">
        <ele>18.9</ele>
        <time>2021-05-13T07:53:40Z</time>
      </trkpt>
      <trkpt lat="44.79839" lon="-0.4627">
        <ele>18.9</ele>
        <time>2021-05-13T07:53:39Z</time>
      </trkpt>
      <trkpt lat="44.79845" lon="-0.46254">
        <ele>18.9</ele>
        <time>2021-05-13T07:53:37Z</time>
      </trkpt>
      <trkpt lat="44.79855" lon="-0.46228">
        <ele>18.9</ele>
        <time>2021-05-13T07:53:34Z</time>
      </trkpt>
      <trkpt lat="44.7986" lon="-0.4621">
        <ele>18.9</ele>
        <time>2021-05-13T07:53:32Z</time>
      </trkpt>
      <trkpt lat="44.79867" lon="-0.46194">
        <ele>18.9</ele>
        <time>2021-05-13T07:53:30Z</time>
      </trkpt>
      <trkpt lat="44.79869" lon="-0.46186">
        <ele>18.9</ele>
        <time>2021-05-13T07:53:29Z</time>
      </trkpt>
      <trkpt lat="44.79871" lon="-0.4618">
        <ele>18.9</ele>
        <time>2021-05-13T07:53:28Z</time>
      </trkpt>
      <trkpt lat="44.79872" lon="-0.46173">
        <ele>19</ele>
        <time>2021-05-13T07:53:27Z</time>
      </trkpt>
      <trkpt lat="44.79879" lon="-0.4615">
        <ele>19</ele>
        <time>2021-05-13T07:53:24Z</time>
      </trkpt>
      <trkpt lat="44.79883" lon="-0.46134">
        <ele>19</ele>
        <time>2021-05-13T07:53:22Z</time>
      </trkpt>
      <trkpt lat="44.79886" lon="-0.46125">
        <ele>19</ele>
        <time>2021-05-13T07:53:21Z</time>
      </trkpt>
      <trkpt lat="44.79891" lon="-0.46109">
        <ele>19</ele>
        <time>2021-05-13T07:53:19Z</time>
      </trkpt>
      <trkpt lat="44.79898" lon="-0.46093">
        <ele>19</ele>
        <time>2021-05-13T07:53:17Z</time>
      </trkpt>
      <trkpt lat="44.79902" lon="-0.46079">
        <ele>19</ele>
        <time>2021-05-13T07:53:15Z</time>
      </trkpt>
      <trkpt lat="44.79906" lon="-0.46066">
        <ele>19</ele>
        <time>2021-05-13T07:53:13Z</time>
      </trkpt>
      <trkpt lat="44.79908" lon="-0.46058">
        <ele>19</ele>
        <time>2021-05-13T07:53:12Z</time>
      </trkpt>
      <trkpt lat="44.79913" lon="-0.46042">
        <ele>19</ele>
        <time>2021-05-13T07:53:10Z</time>
      </trkpt>
      <trkpt lat="44.79919" lon="-0.46025">
        <ele>19</ele>
        <time>2021-05-13T07:53:08Z</time>
      </trkpt>
      <trkpt lat="44.79922" lon="-0.46006">
        <ele>19</ele>
        <time>2021-05-13T07:53:06Z</time>
      </trkpt>
      <trkpt lat="44.79924" lon="-0.45978">
        <ele>19</ele>
        <time>2021-05-13T07:53:03Z</time>
      </trkpt>
      <trkpt lat="44.79925" lon="-0.45969">
        <ele>19</ele>
        <time>2021-05-13T07:53:02Z</time>
      </trkpt>
      <trkpt lat="44.79926" lon="-0.45961">
        <ele>19</ele>
        <time>2021-05-13T07:53:01Z</time>
      </trkpt>
      <trkpt lat="44.79926" lon="-0.45945">
        <ele>19</ele>
        <time>2021-05-13T07:52:59Z</time>
      </trkpt>
      <trkpt lat="44.79925" lon="-0.45938">
        <ele>19</ele>
        <time>2021-05-13T07:52:58Z</time>
      </trkpt>
      <trkpt lat="44.79925" lon="-0.4593">
        <ele>19</ele>
        <time>2021-05-13T07:52:57Z</time>
      </trkpt>
      <trkpt lat="44.79926" lon="-0.45914">
        <ele>19</ele>
        <time>2021-05-13T07:52:55Z</time>
      </trkpt>
      <trkpt lat="44.79927" lon="-0.45906">
        <ele>19</ele>
        <time>2021-05-13T07:52:54Z</time>
      </trkpt>
      <trkpt lat="44.79929" lon="-0.4587">
        <ele>19.1</ele>
        <time>2021-05-13T07:52:50Z</time>
      </trkpt>
      <trkpt lat="44.7993" lon="-0.45862">
        <ele>19.1</ele>
        <time>2021-05-13T07:52:49Z</time>
      </trkpt>
      <trkpt lat="44.79931" lon="-0.45807">
        <ele>19.2</ele>
        <time>2021-05-13T07:52:43Z</time>
      </trkpt>
      <trkpt lat="44.79935" lon="-0.45751">
        <ele>19.4</ele>
        <time>2021-05-13T07:52:37Z</time>
      </trkpt>
      <trkpt lat="44.79936" lon="-0.45727">
        <ele>19.6</ele>
        <time>2021-05-13T07:52:34Z</time>
      </trkpt>
      <trkpt lat="44.79936" lon="-0.45718">
        <ele>19.7</ele>
        <time>2021-05-13T07:52:33Z</time>
      </trkpt>
      <trkpt lat="44.79937" lon="-0.45709">
        <ele>19.7</ele>
        <time>2021-05-13T07:52:32Z</time>
      </trkpt>
      <trkpt lat="44.79945" lon="-0.45684">
        <ele>19.8</ele>
        <time>2021-05-13T07:52:29Z</time>
      </trkpt>
      <trkpt lat="44.79948" lon="-0.45647">
        <ele>19.9</ele>
        <time>2021-05-13T07:52:25Z</time>
      </trkpt>
      <trkpt lat="44.79953" lon="-0.45619">
        <ele>20</ele>
        <time>2021-05-13T07:52:22Z</time>
      </trkpt>
      <trkpt lat="44.79956" lon="-0.4561">
        <ele>20.1</ele>
        <time>2021-05-13T07:52:21Z</time>
      </trkpt>
      <trkpt lat="44.7996" lon="-0.45601">
        <ele>20.2</ele>
        <time>2021-05-13T07:52:20Z</time>
      </trkpt>
      <trkpt lat="44.79969" lon="-0.45565">
        <ele>20.5</ele>
        <time>2021-05-13T07:52:16Z</time>
      </trkpt>
      <trkpt lat="44.79977" lon="-0.45525">
        <ele>20.7</ele>
        <time>2021-05-13T07:52:11Z</time>
      </trkpt>
      <trkpt lat="44.79981" lon="-0.45509">
        <ele>20.8</ele>
        <time>2021-05-13T07:52:09Z</time>
      </trkpt>
      <trkpt lat="44.79984" lon="-0.45493">
        <ele>20.9</ele>
        <time>2021-05-13T07:52:07Z</time>
      </trkpt>
      <trkpt lat="44.79986" lon="-0.45484">
        <ele>21</ele>
        <time>2021-05-13T07:52:06Z</time>
      </trkpt>
      <trkpt lat="44.79989" lon="-0.45468">
        <ele>21.1</ele>
        <time>2021-05-13T07:52:04Z</time>
      </trkpt>
      <trkpt lat="44.79994" lon="-0.45452">
        <ele>21.2</ele>
        <time>2021-05-13T07:52:02Z</time>
      </trkpt>
      <trkpt lat="44.79999" lon="-0.45431">
        <ele>21.3</ele>
        <time>2021-05-13T07:51:59Z</time>
      </trkpt>
      <trkpt lat="44.80004" lon="-0.45418">
        <ele>21.4</ele>
        <time>2021-05-13T07:51:57Z</time>
      </trkpt>
      <trkpt lat="44.80011" lon="-0.45405">
        <ele>21.4</ele>
        <time>2021-05-13T07:51:55Z</time>
      </trkpt>
      <trkpt lat="44.80015" lon="-0.45398">
        <ele>21.4</ele>
        <time>2021-05-13T07:51:54Z</time>
      </trkpt>
      <trkpt lat="44.80018" lon="-0.4539">
        <ele>21.4</ele>
        <time>2021-05-13T07:51:53Z</time>
      </trkpt>
      <trkpt lat="44.80028" lon="-0.45368">
        <ele>21.5</ele>
        <time>2021-05-13T07:51:50Z</time>
      </trkpt>
      <trkpt lat="44.80035" lon="-0.45354">
        <ele>21.5</ele>
        <time>2021-05-13T07:51:48Z</time>
      </trkpt>
      <trkpt lat="44.80039" lon="-0.45347">
        <ele>21.6</ele>
        <time>2021-05-13T07:51:47Z</time>
      </trkpt>
      <trkpt lat="44.80044" lon="-0.4534">
        <ele>21.6</ele>
        <time>2021-05-13T07:51:46Z</time>
      </trkpt>
      <trkpt lat="44.80052" lon="-0.45326">
        <ele>21.7</ele>
        <time>2021-05-13T07:51:44Z</time>
      </trkpt>
      <trkpt lat="44.80061" lon="-0.45311">
        <ele>21.7</ele>
        <time>2021-05-13T07:51:42Z</time>
      </trkpt>
      <trkpt lat="44.80065" lon="-0.45304">
        <ele>21.7</ele>
        <time>2021-05-13T07:51:41Z</time>
      </trkpt>
      <trkpt lat="44.80078" lon="-0.45284">
        <ele>21.8</ele>
        <time>2021-05-13T07:51:38Z</time>
      </trkpt>
      <trkpt lat="44.80098" lon="-0.4525">
        <ele>22</ele>
        <time>2021-05-13T07:51:33Z</time>
      </trkpt>
      <trkpt lat="44.80101" lon="-0.45244">
        <ele>22.1</ele>
        <time>2021-05-13T07:51:32Z</time>
      </trkpt>
      <trkpt lat="44.80118" lon="-0.45216">
        <ele>22.3</ele>
        <time>2021-05-13T07:51:28Z</time>
      </trkpt>
      <trkpt lat="44.80129" lon="-0.45196">
        <ele>22.3</ele>
        <time>2021-05-13T07:51:25Z</time>
      </trkpt>
      <trkpt lat="44.80137" lon="-0.45182">
        <ele>22.4</ele>
        <time>2021-05-13T07:51:23Z</time>
      </trkpt>
      <trkpt lat="44.8014" lon="-0.45176">
        <ele>22.4</ele>
        <time>2021-05-13T07:51:22Z</time>
      </trkpt>
      <trkpt lat="44.8016" lon="-0.45137">
        <ele>22.5</ele>
        <time>2021-05-13T07:51:16Z</time>
      </trkpt>
      <trkpt lat="44.80168" lon="-0.45123">
        <ele>22.6</ele>
        <time>2021-05-13T07:51:14Z</time>
      </trkpt>
      <trkpt lat="44.80175" lon="-0.45107">
        <ele>22.6</ele>
        <time>2021-05-13T07:51:12Z</time>
      </trkpt>
      <trkpt lat="44.80191" lon="-0.45058">
        <ele>22.8</ele>
        <time>2021-05-13T07:51:06Z</time>
      </trkpt>
      <trkpt lat="44.80199" lon="-0.45024">
        <ele>23</ele>
        <time>2021-05-13T07:51:02Z</time>
      </trkpt>
      <trkpt lat="44.80203" lon="-0.45007">
        <ele>23.1</ele>
        <time>2021-05-13T07:51:00Z</time>
      </trkpt>
      <trkpt lat="44.80206" lon="-0.44989">
        <ele>23.1</ele>
        <time>2021-05-13T07:50:58Z</time>
      </trkpt>
      <trkpt lat="44.80213" lon="-0.44955">
        <ele>23.2</ele>
        <time>2021-05-13T07:50:54Z</time>
      </trkpt>
      <trkpt lat="44.80214" lon="-0.44947">
        <ele>23.2</ele>
        <time>2021-05-13T07:50:53Z</time>
      </trkpt>
      <trkpt lat="44.80216" lon="-0.44939">
        <ele>23.2</ele>
        <time>2021-05-13T07:50:52Z</time>
      </trkpt>
      <trkpt lat="44.80219" lon="-0.44922">
        <ele>23.1</ele>
        <time>2021-05-13T07:50:50Z</time>
      </trkpt>
      <trkpt lat="44.8022" lon="-0.44914">
        <ele>23.1</ele>
        <time>2021-05-13T07:50:49Z</time>
      </trkpt>
      <trkpt lat="44.80221" lon="-0.44905">
        <ele>23.1</ele>
        <time>2021-05-13T07:50:48Z</time>
      </trkpt>
      <trkpt lat="44.80225" lon="-0.44888">
        <ele>23.1</ele>
        <time>2021-05-13T07:50:46Z</time>
      </trkpt>
      <trkpt lat="44.80228" lon="-0.4487">
        <ele>23.1</ele>
        <time>2021-05-13T07:50:44Z</time>
      </trkpt>
      <trkpt lat="44.8023" lon="-0.44853">
        <ele>23.1</ele>
        <time>2021-05-13T07:50:42Z</time>
      </trkpt>
      <trkpt lat="44.80231" lon="-0.44844">
        <ele>23.2</ele>
        <time>2021-05-13T07:50:41Z</time>
      </trkpt>
      <trkpt lat="44.80231" lon="-0.44828">
        <ele>23.2</ele>
        <time>2021-05-13T07:50:39Z</time>
      </trkpt>
      <trkpt lat="44.80229" lon="-0.44813">
        <ele>23.2</ele>
        <time>2021-05-13T07:50:37Z</time>
      </trkpt>
      <trkpt lat="44.80229" lon="-0.44797">
        <ele>23.1</ele>
        <time>2021-05-13T07:50:35Z</time>
      </trkpt>
      <trkpt lat="44.80228" lon="-0.44774">
        <ele>23.1</ele>
        <time>2021-05-13T07:50:32Z</time>
      </trkpt>
      <trkpt lat="44.80228" lon="-0.44759">
        <ele>23.1</ele>
        <time>2021-05-13T07:50:30Z</time>
      </trkpt>
      <trkpt lat="44.80228" lon="-0.44751">
        <ele>23.1</ele>
        <time>2021-05-13T07:50:29Z</time>
      </trkpt>
      <trkpt lat="44.80227" lon="-0.44718">
        <ele>23</ele>
        <time>2021-05-13T07:50:25Z</time>
      </trkpt>
      <trkpt lat="44.80228" lon="-0.44701">
        <ele>23</ele>
        <time>2021-05-13T07:50:23Z</time>
      </trkpt>
      <trkpt lat="44.80228" lon="-0.44676">
        <ele>23</ele>
        <time>2021-05-13T07:50:20Z</time>
      </trkpt>
      <trkpt lat="44.80228" lon="-0.44667">
        <ele>23</ele>
        <time>2021-05-13T07:50:19Z</time>
      </trkpt>
      <trkpt lat="44.80231" lon="-0.44625">
        <ele>22.9</ele>
        <time>2021-05-13T07:50:14Z</time>
      </trkpt>
      <trkpt lat="44.8023" lon="-0.446">
        <ele>23</ele>
        <time>2021-05-13T07:50:11Z</time>
      </trkpt>
      <trkpt lat="44.8023" lon="-0.44591">
        <ele>23</ele>
        <time>2021-05-13T07:50:10Z</time>
      </trkpt>
      <trkpt lat="44.8023" lon="-0.44583">
        <ele>23</ele>
        <time>2021-05-13T07:50:09Z</time>
      </trkpt>
      <trkpt lat="44.80229" lon="-0.44537">
        <ele>23.2</ele>
        <time>2021-05-13T07:50:04Z</time>
      </trkpt>
      <trkpt lat="44.80233" lon="-0.44495">
        <ele>23.3</ele>
        <time>2021-05-13T07:50:00Z</time>
      </trkpt>
      <trkpt lat="44.80237" lon="-0.44476">
        <ele>23.4</ele>
        <time>2021-05-13T07:49:58Z</time>
      </trkpt>
      <trkpt lat="44.8024" lon="-0.44457">
        <ele>23.5</ele>
        <time>2021-05-13T07:49:56Z</time>
      </trkpt>
      <trkpt lat="44.8024" lon="-0.4444">
        <ele>23.6</ele>
        <time>2021-05-13T07:49:54Z</time>
      </trkpt>
      <trkpt lat="44.80237" lon="-0.44419">
        <ele>23.7</ele>
        <time>2021-05-13T07:49:51Z</time>
      </trkpt>
      <trkpt lat="44.80236" lon="-0.44411">
        <ele>23.7</ele>
        <time>2021-05-13T07:49:50Z</time>
      </trkpt>
      <trkpt lat="44.80238" lon="-0.44392">
        <ele>23.7</ele>
        <time>2021-05-13T07:49:48Z</time>
      </trkpt>
      <trkpt lat="44.80238" lon="-0.44366">
        <ele>23.8</ele>
        <time>2021-05-13T07:49:45Z</time>
      </trkpt>
      <trkpt lat="44.80244" lon="-0.44348">
        <ele>23.9</ele>
        <time>2021-05-13T07:49:43Z</time>
      </trkpt>
      <trkpt lat="44.80245" lon="-0.4433">
        <ele>24</ele>
        <time>2021-05-13T07:49:41Z</time>
      </trkpt>
      <trkpt lat="44.80245" lon="-0.44322">
        <ele>24</ele>
        <time>2021-05-13T07:49:40Z</time>
      </trkpt>
      <trkpt lat="44.80245" lon="-0.44314">
        <ele>24</ele>
        <time>2021-05-13T07:49:39Z</time>
      </trkpt>
      <trkpt lat="44.80244" lon="-0.44299">
        <ele>24.1</ele>
        <time>2021-05-13T07:49:37Z</time>
      </trkpt>
      <trkpt lat="44.80244" lon="-0.44277">
        <ele>24.1</ele>
        <time>2021-05-13T07:49:34Z</time>
      </trkpt>
      <trkpt lat="44.80244" lon="-0.4427">
        <ele>24.1</ele>
        <time>2021-05-13T07:49:33Z</time>
      </trkpt>
      <trkpt lat="44.80243" lon="-0.44263">
        <ele>24.1</ele>
        <time>2021-05-13T07:49:32Z</time>
      </trkpt>
      <trkpt lat="44.80244" lon="-0.44249">
        <ele>24.2</ele>
        <time>2021-05-13T07:49:30Z</time>
      </trkpt>
      <trkpt lat="44.80244" lon="-0.44235">
        <ele>24.2</ele>
        <time>2021-05-13T07:49:28Z</time>
      </trkpt>
      <trkpt lat="44.80244" lon="-0.44219">
        <ele>24.3</ele>
        <time>2021-05-13T07:49:26Z</time>
      </trkpt>
      <trkpt lat="44.80245" lon="-0.44188">
        <ele>24.6</ele>
        <time>2021-05-13T07:49:22Z</time>
      </trkpt>
      <trkpt lat="44.80246" lon="-0.44181">
        <ele>24.7</ele>
        <time>2021-05-13T07:49:21Z</time>
      </trkpt>
      <trkpt lat="44.80246" lon="-0.44174">
        <ele>24.7</ele>
        <time>2021-05-13T07:49:20Z</time>
      </trkpt>
      <trkpt lat="44.80247" lon="-0.44152">
        <ele>24.8</ele>
        <time>2021-05-13T07:49:16Z</time>
      </trkpt>
      <trkpt lat="44.80246" lon="-0.44125">
        <ele>24.7</ele>
        <time>2021-05-13T07:49:12Z</time>
      </trkpt>
      <trkpt lat="44.80249" lon="-0.44099">
        <ele>24.8</ele>
        <time>2021-05-13T07:49:09Z</time>
      </trkpt>
      <trkpt lat="44.8025" lon="-0.4409">
        <ele>24.9</ele>
        <time>2021-05-13T07:49:08Z</time>
      </trkpt>
      <trkpt lat="44.80253" lon="-0.44039">
        <ele>25.2</ele>
        <time>2021-05-13T07:49:02Z</time>
      </trkpt>
      <trkpt lat="44.80254" lon="-0.4403">
        <ele>25.3</ele>
        <time>2021-05-13T07:49:01Z</time>
      </trkpt>
      <trkpt lat="44.80253" lon="-0.44013">
        <ele>25.4</ele>
        <time>2021-05-13T07:48:59Z</time>
      </trkpt>
      <trkpt lat="44.80252" lon="-0.43997">
        <ele>25.6</ele>
        <time>2021-05-13T07:48:57Z</time>
      </trkpt>
      <trkpt lat="44.8025" lon="-0.43973">
        <ele>25.8</ele>
        <time>2021-05-13T07:48:54Z</time>
      </trkpt>
      <trkpt lat="44.80249" lon="-0.43965">
        <ele>25.9</ele>
        <time>2021-05-13T07:48:53Z</time>
      </trkpt>
      <trkpt lat="44.80249" lon="-0.43947">
        <ele>26</ele>
        <time>2021-05-13T07:48:51Z</time>
      </trkpt>
      <trkpt lat="44.80245" lon="-0.43923">
        <ele>26.2</ele>
        <time>2021-05-13T07:48:48Z</time>
      </trkpt>
      <trkpt lat="44.8024" lon="-0.43897">
        <ele>26.5</ele>
        <time>2021-05-13T07:48:45Z</time>
      </trkpt>
      <trkpt lat="44.80236" lon="-0.4388">
        <ele>26.7</ele>
        <time>2021-05-13T07:48:43Z</time>
      </trkpt>
      <trkpt lat="44.80234" lon="-0.43872">
        <ele>26.8</ele>
        <time>2021-05-13T07:48:42Z</time>
      </trkpt>
      <trkpt lat="44.80227" lon="-0.43847">
        <ele>27.1</ele>
        <time>2021-05-13T07:48:39Z</time>
      </trkpt>
      <trkpt lat="44.80225" lon="-0.43839">
        <ele>27.1</ele>
        <time>2021-05-13T07:48:38Z</time>
      </trkpt>
      <trkpt lat="44.80211" lon="-0.43796">
        <ele>27.5</ele>
        <time>2021-05-13T07:48:33Z</time>
      </trkpt>
      <trkpt lat="44.80206" lon="-0.43781">
        <ele>27.5</ele>
        <time>2021-05-13T07:48:31Z</time>
      </trkpt>
      <trkpt lat="44.80198" lon="-0.4376">
        <ele>27.6</ele>
        <time>2021-05-13T07:48:28Z</time>
      </trkpt>
      <trkpt lat="44.80195" lon="-0.43753">
        <ele>27.5</ele>
        <time>2021-05-13T07:48:27Z</time>
      </trkpt>
      <trkpt lat="44.8019" lon="-0.4374">
        <ele>27.4</ele>
        <time>2021-05-13T07:48:25Z</time>
      </trkpt>
      <trkpt lat="44.80182" lon="-0.43728">
        <ele>27.3</ele>
        <time>2021-05-13T07:48:23Z</time>
      </trkpt>
      <trkpt lat="44.80178" lon="-0.43722">
        <ele>27.3</ele>
        <time>2021-05-13T07:48:22Z</time>
      </trkpt>
      <trkpt lat="44.80166" lon="-0.43706">
        <ele>27.1</ele>
        <time>2021-05-13T07:48:19Z</time>
      </trkpt>
      <trkpt lat="44.8015" lon="-0.43683">
        <ele>27</ele>
        <time>2021-05-13T07:48:15Z</time>
      </trkpt>
      <trkpt lat="44.80145" lon="-0.43677">
        <ele>27</ele>
        <time>2021-05-13T07:48:14Z</time>
      </trkpt>
      <trkpt lat="44.8011" lon="-0.43635">
        <ele>27.2</ele>
        <time>2021-05-13T07:48:07Z</time>
      </trkpt>
      <trkpt lat="44.801" lon="-0.43624">
        <ele>27.3</ele>
        <time>2021-05-13T07:48:05Z</time>
      </trkpt>
      <trkpt lat="44.80091" lon="-0.43614">
        <ele>27.3</ele>
        <time>2021-05-13T07:48:03Z</time>
      </trkpt>
      <trkpt lat="44.80086" lon="-0.43609">
        <ele>27.3</ele>
        <time>2021-05-13T07:48:02Z</time>
      </trkpt>
      <trkpt lat="44.80057" lon="-0.43581">
        <ele>27.4</ele>
        <time>2021-05-13T07:47:57Z</time>
      </trkpt>
      <trkpt lat="44.80008" lon="-0.43536">
        <ele>27.6</ele>
        <time>2021-05-13T07:47:50Z</time>
      </trkpt>
      <trkpt lat="44.79996" lon="-0.43528">
        <ele>27.6</ele>
        <time>2021-05-13T07:47:48Z</time>
      </trkpt>
      <trkpt lat="44.79992" lon="-0.43524">
        <ele>27.6</ele>
        <time>2021-05-13T07:47:47Z</time>
      </trkpt>
      <trkpt lat="44.79985" lon="-0.43517">
        <ele>27.5</ele>
        <time>2021-05-13T07:47:45Z</time>
      </trkpt>
      <trkpt lat="44.79975" lon="-0.43511">
        <ele>27.5</ele>
        <time>2021-05-13T07:47:43Z</time>
      </trkpt>
      <trkpt lat="44.79952" lon="-0.4349">
        <ele>27.3</ele>
        <time>2021-05-13T07:47:38Z</time>
      </trkpt>
      <trkpt lat="44.79947" lon="-0.43486">
        <ele>27.3</ele>
        <time>2021-05-13T07:47:37Z</time>
      </trkpt>
      <trkpt lat="44.79937" lon="-0.43476">
        <ele>27.3</ele>
        <time>2021-05-13T07:47:35Z</time>
      </trkpt>
      <trkpt lat="44.79932" lon="-0.43472">
        <ele>27.3</ele>
        <time>2021-05-13T07:47:34Z</time>
      </trkpt>
      <trkpt lat="44.79908" lon="-0.43449">
        <ele>27.4</ele>
        <time>2021-05-13T07:47:29Z</time>
      </trkpt>
      <trkpt lat="44.79898" lon="-0.43438">
        <ele>27.4</ele>
        <time>2021-05-13T07:47:27Z</time>
      </trkpt>
      <trkpt lat="44.79892" lon="-0.43429">
        <ele>27.4</ele>
        <time>2021-05-13T07:47:25Z</time>
      </trkpt>
      <trkpt lat="44.79888" lon="-0.43425">
        <ele>27.4</ele>
        <time>2021-05-13T07:47:24Z</time>
      </trkpt>
      <trkpt lat="44.79873" lon="-0.43411">
        <ele>27.5</ele>
        <time>2021-05-13T07:47:21Z</time>
      </trkpt>
      <trkpt lat="44.79861" lon="-0.43392">
        <ele>27.5</ele>
        <time>2021-05-13T07:47:18Z</time>
      </trkpt>
      <trkpt lat="44.79856" lon="-0.43381">
        <ele>27.5</ele>
        <time>2021-05-13T07:47:16Z</time>
      </trkpt>
      <trkpt lat="44.79841" lon="-0.43348">
        <ele>27.6</ele>
        <time>2021-05-13T07:47:11Z</time>
      </trkpt>
      <trkpt lat="44.79832" lon="-0.43325">
        <ele>27.8</ele>
        <time>2021-05-13T07:47:08Z</time>
      </trkpt>
      <trkpt lat="44.7983" lon="-0.43316">
        <ele>27.9</ele>
        <time>2021-05-13T07:47:07Z</time>
      </trkpt>
      <trkpt lat="44.79818" lon="-0.43266">
        <ele>28.4</ele>
        <time>2021-05-13T07:47:01Z</time>
      </trkpt>
      <trkpt lat="44.79808" lon="-0.43235">
        <ele>28.7</ele>
        <time>2021-05-13T07:46:57Z</time>
      </trkpt>
      <trkpt lat="44.79805" lon="-0.43227">
        <ele>28.7</ele>
        <time>2021-05-13T07:46:56Z</time>
      </trkpt>
      <trkpt lat="44.79802" lon="-0.4322">
        <ele>28.8</ele>
        <time>2021-05-13T07:46:55Z</time>
      </trkpt>
      <trkpt lat="44.79798" lon="-0.43205">
        <ele>28.9</ele>
        <time>2021-05-13T07:46:53Z</time>
      </trkpt>
      <trkpt lat="44.79795" lon="-0.43189">
        <ele>28.9</ele>
        <time>2021-05-13T07:46:51Z</time>
      </trkpt>
      <trkpt lat="44.79787" lon="-0.43131">
        <ele>29.2</ele>
        <time>2021-05-13T07:46:44Z</time>
      </trkpt>
      <trkpt lat="44.79781" lon="-0.43088">
        <ele>29.6</ele>
        <time>2021-05-13T07:46:39Z</time>
      </trkpt>
      <trkpt lat="44.79779" lon="-0.43079">
        <ele>29.6</ele>
        <time>2021-05-13T07:46:38Z</time>
      </trkpt>
      <trkpt lat="44.79777" lon="-0.4307">
        <ele>29.7</ele>
        <time>2021-05-13T07:46:37Z</time>
      </trkpt>
      <trkpt lat="44.79773" lon="-0.43035">
        <ele>30</ele>
        <time>2021-05-13T07:46:33Z</time>
      </trkpt>
      <trkpt lat="44.79772" lon="-0.43026">
        <ele>30.1</ele>
        <time>2021-05-13T07:46:32Z</time>
      </trkpt>
      <trkpt lat="44.79763" lon="-0.42985">
        <ele>30.5</ele>
        <time>2021-05-13T07:46:27Z</time>
      </trkpt>
      <trkpt lat="44.79759" lon="-0.42969">
        <ele>30.6</ele>
        <time>2021-05-13T07:46:25Z</time>
      </trkpt>
      <trkpt lat="44.79753" lon="-0.42947">
        <ele>30.7</ele>
        <time>2021-05-13T07:46:22Z</time>
      </trkpt>
      <trkpt lat="44.79748" lon="-0.42931">
        <ele>30.9</ele>
        <time>2021-05-13T07:46:20Z</time>
      </trkpt>
      <trkpt lat="44.79746" lon="-0.42914">
        <ele>30.9</ele>
        <time>2021-05-13T07:46:18Z</time>
      </trkpt>
      <trkpt lat="44.79742" lon="-0.42898">
        <ele>30.9</ele>
        <time>2021-05-13T07:46:16Z</time>
      </trkpt>
      <trkpt lat="44.79735" lon="-0.42864">
        <ele>31</ele>
        <time>2021-05-13T07:46:12Z</time>
      </trkpt>
      <trkpt lat="44.79728" lon="-0.42822">
        <ele>31.2</ele>
        <time>2021-05-13T07:46:07Z</time>
      </trkpt>
      <trkpt lat="44.79726" lon="-0.42814">
        <ele>31.2</ele>
        <time>2021-05-13T07:46:06Z</time>
      </trkpt>
      <trkpt lat="44.79721" lon="-0.42799">
        <ele>31.3</ele>
        <time>2021-05-13T07:46:04Z</time>
      </trkpt>
      <trkpt lat="44.79718" lon="-0.42786">
        <ele>31.4</ele>
        <time>2021-05-13T07:46:02Z</time>
      </trkpt>
      <trkpt lat="44.79712" lon="-0.42763">
        <ele>31.3</ele>
        <time>2021-05-13T07:45:57Z</time>
      </trkpt>
      <trkpt lat="44.79702" lon="-0.42738">
        <ele>30.8</ele>
        <time>2021-05-13T07:45:52Z</time>
      </trkpt>
      <trkpt lat="44.79692" lon="-0.42715">
        <ele>30.6</ele>
        <time>2021-05-13T07:45:48Z</time>
      </trkpt>
      <trkpt lat="44.79689" lon="-0.42708">
        <ele>30.6</ele>
        <time>2021-05-13T07:45:47Z</time>
      </trkpt>
      <trkpt lat="44.79663" lon="-0.42659">
        <ele>30.3</ele>
        <time>2021-05-13T07:45:40Z</time>
      </trkpt>
      <trkpt lat="44.79655" lon="-0.42642">
        <ele>30.4</ele>
        <time>2021-05-13T07:45:38Z</time>
      </trkpt>
      <trkpt lat="44.79636" lon="-0.42614">
        <ele>30.4</ele>
        <time>2021-05-13T07:45:34Z</time>
      </trkpt>
      <trkpt lat="44.79613" lon="-0.42584">
        <ele>30.6</ele>
        <time>2021-05-13T07:45:29Z</time>
      </trkpt>
      <trkpt lat="44.79601" lon="-0.42573">
        <ele>30.8</ele>
        <time>2021-05-13T07:45:27Z</time>
      </trkpt>
      <trkpt lat="44.79595" lon="-0.42569">
        <ele>30.8</ele>
        <time>2021-05-13T07:45:26Z</time>
      </trkpt>
      <trkpt lat="44.79586" lon="-0.42561">
        <ele>30.9</ele>
        <time>2021-05-13T07:45:24Z</time>
      </trkpt>
      <trkpt lat="44.79577" lon="-0.42553">
        <ele>31</ele>
        <time>2021-05-13T07:45:22Z</time>
      </trkpt>
      <trkpt lat="44.79572" lon="-0.42548">
        <ele>31</ele>
        <time>2021-05-13T07:45:21Z</time>
      </trkpt>
      <trkpt lat="44.7956" lon="-0.4254">
        <ele>31</ele>
        <time>2021-05-13T07:45:19Z</time>
      </trkpt>
      <trkpt lat="44.79547" lon="-0.42531">
        <ele>31.1</ele>
        <time>2021-05-13T07:45:17Z</time>
      </trkpt>
      <trkpt lat="44.79529" lon="-0.4252">
        <ele>31.2</ele>
        <time>2021-05-13T07:45:14Z</time>
      </trkpt>
      <trkpt lat="44.79506" lon="-0.42507">
        <ele>31.2</ele>
        <time>2021-05-13T07:45:10Z</time>
      </trkpt>
      <trkpt lat="44.79476" lon="-0.42489">
        <ele>31.4</ele>
        <time>2021-05-13T07:45:05Z</time>
      </trkpt>
      <trkpt lat="44.79444" lon="-0.42471">
        <ele>31.8</ele>
        <time>2021-05-13T07:45:00Z</time>
      </trkpt>
      <trkpt lat="44.79406" lon="-0.42449">
        <ele>32.4</ele>
        <time>2021-05-13T07:44:54Z</time>
      </trkpt>
      <trkpt lat="44.79384" lon="-0.42438">
        <ele>32.7</ele>
        <time>2021-05-13T07:44:50Z</time>
      </trkpt>
      <trkpt lat="44.79364" lon="-0.42428">
        <ele>33</ele>
        <time>2021-05-13T07:44:46Z</time>
      </trkpt>
      <trkpt lat="44.79329" lon="-0.4241">
        <ele>33.4</ele>
        <time>2021-05-13T07:44:40Z</time>
      </trkpt>
      <trkpt lat="44.79301" lon="-0.42394">
        <ele>33.8</ele>
        <time>2021-05-13T07:44:35Z</time>
      </trkpt>
      <trkpt lat="44.79264" lon="-0.42374">
        <ele>34.5</ele>
        <time>2021-05-13T07:44:29Z</time>
      </trkpt>
      <trkpt lat="44.79247" lon="-0.42363">
        <ele>34.8</ele>
        <time>2021-05-13T07:44:26Z</time>
      </trkpt>
      <trkpt lat="44.79237" lon="-0.42355">
        <ele>35.1</ele>
        <time>2021-05-13T07:44:24Z</time>
      </trkpt>
      <trkpt lat="44.79217" lon="-0.42318">
        <ele>35.7</ele>
        <time>2021-05-13T07:44:19Z</time>
      </trkpt>
      <trkpt lat="44.79206" lon="-0.42307">
        <ele>36</ele>
        <time>2021-05-13T07:44:17Z</time>
      </trkpt>
      <trkpt lat="44.79195" lon="-0.42297">
        <ele>36.3</ele>
        <time>2021-05-13T07:44:15Z</time>
      </trkpt>
      <trkpt lat="44.79182" lon="-0.42282">
        <ele>36.5</ele>
        <time>2021-05-13T07:44:12Z</time>
      </trkpt>
      <trkpt lat="44.79172" lon="-0.42269">
        <ele>36.7</ele>
        <time>2021-05-13T07:44:10Z</time>
      </trkpt>
      <trkpt lat="44.79164" lon="-0.42258">
        <ele>36.8</ele>
        <time>2021-05-13T07:44:08Z</time>
      </trkpt>
      <trkpt lat="44.7915" lon="-0.42241">
        <ele>37</ele>
        <time>2021-05-13T07:44:05Z</time>
      </trkpt>
      <trkpt lat="44.79137" lon="-0.42221">
        <ele>37.2</ele>
        <time>2021-05-13T07:44:02Z</time>
      </trkpt>
      <trkpt lat="44.79116" lon="-0.42175">
        <ele>37.7</ele>
        <time>2021-05-13T07:43:56Z</time>
      </trkpt>
      <trkpt lat="44.79109" lon="-0.42159">
        <ele>37.9</ele>
        <time>2021-05-13T07:43:54Z</time>
      </trkpt>
      <trkpt lat="44.79101" lon="-0.42144">
        <ele>38.1</ele>
        <time>2021-05-13T07:43:52Z</time>
      </trkpt>
      <trkpt lat="44.79096" lon="-0.42138">
        <ele>38.1</ele>
        <time>2021-05-13T07:43:51Z</time>
      </trkpt>
      <trkpt lat="44.79083" lon="-0.42118">
        <ele>38.4</ele>
        <time>2021-05-13T07:43:48Z</time>
      </trkpt>
      <trkpt lat="44.79076" lon="-0.42104">
        <ele>38.5</ele>
        <time>2021-05-13T07:43:45Z</time>
      </trkpt>
      <trkpt lat="44.79074" lon="-0.42099">
        <ele>38.6</ele>
        <time>2021-05-13T07:43:44Z</time>
      </trkpt>
      <trkpt lat="44.79067" lon="-0.42089">
        <ele>38.7</ele>
        <time>2021-05-13T07:43:42Z</time>
      </trkpt>
      <trkpt lat="44.79063" lon="-0.42083">
        <ele>38.8</ele>
        <time>2021-05-13T07:43:41Z</time>
      </trkpt>
      <trkpt lat="44.79061" lon="-0.42076">
        <ele>38.8</ele>
        <time>2021-05-13T07:43:40Z</time>
      </trkpt>
      <trkpt lat="44.79053" lon="-0.42055">
        <ele>38.9</ele>
        <time>2021-05-13T07:43:37Z</time>
      </trkpt>
      <trkpt lat="44.79046" lon="-0.42033">
        <ele>39</ele>
        <time>2021-05-13T07:43:34Z</time>
      </trkpt>
      <trkpt lat="44.79042" lon="-0.42026">
        <ele>39.1</ele>
        <time>2021-05-13T07:43:33Z</time>
      </trkpt>
      <trkpt lat="44.79013" lon="-0.41974">
        <ele>39.4</ele>
        <time>2021-05-13T07:43:26Z</time>
      </trkpt>
      <trkpt lat="44.79005" lon="-0.41939">
        <ele>39.8</ele>
        <time>2021-05-13T07:43:22Z</time>
      </trkpt>
      <trkpt lat="44.78995" lon="-0.41928">
        <ele>39.9</ele>
        <time>2021-05-13T07:43:20Z</time>
      </trkpt>
      <trkpt lat="44.7899" lon="-0.41922">
        <ele>40</ele>
        <time>2021-05-13T07:43:19Z</time>
      </trkpt>
      <trkpt lat="44.78986" lon="-0.41915">
        <ele>40</ele>
        <time>2021-05-13T07:43:18Z</time>
      </trkpt>
      <trkpt lat="44.78972" lon="-0.41888">
        <ele>40.1</ele>
        <time>2021-05-13T07:43:14Z</time>
      </trkpt>
      <trkpt lat="44.78966" lon="-0.41875">
        <ele>40.2</ele>
        <time>2021-05-13T07:43:12Z</time>
      </trkpt>
      <trkpt lat="44.78955" lon="-0.41856">
        <ele>40.1</ele>
        <time>2021-05-13T07:43:09Z</time>
      </trkpt>
      <trkpt lat="44.78946" lon="-0.4184">
        <ele>40</ele>
        <time>2021-05-13T07:43:06Z</time>
      </trkpt>
      <trkpt lat="44.78935" lon="-0.41821">
        <ele>39.9</ele>
        <time>2021-05-13T07:43:02Z</time>
      </trkpt>
      <trkpt lat="44.78917" lon="-0.41784">
        <ele>39.7</ele>
        <time>2021-05-13T07:42:56Z</time>
      </trkpt>
      <trkpt lat="44.78895" lon="-0.41738">
        <ele>39.7</ele>
        <time>2021-05-13T07:42:49Z</time>
      </trkpt>
      <trkpt lat="44.78883" lon="-0.41714">
        <ele>39.6</ele>
        <time>2021-05-13T07:42:45Z</time>
      </trkpt>
      <trkpt lat="44.7886" lon="-0.41669">
        <ele>39.4</ele>
        <time>2021-05-13T07:42:38Z</time>
      </trkpt>
      <trkpt lat="44.78847" lon="-0.41644">
        <ele>39.4</ele>
        <time>2021-05-13T07:42:34Z</time>
      </trkpt>
      <trkpt lat="44.78839" lon="-0.41632">
        <ele>39.4</ele>
        <time>2021-05-13T07:42:32Z</time>
      </trkpt>
      <trkpt lat="44.78836" lon="-0.41626">
        <ele>39.3</ele>
        <time>2021-05-13T07:42:31Z</time>
      </trkpt>
      <trkpt lat="44.78817" lon="-0.41594">
        <ele>39.3</ele>
        <time>2021-05-13T07:42:26Z</time>
      </trkpt>
      <trkpt lat="44.78798" lon="-0.41556">
        <ele>39.6</ele>
        <time>2021-05-13T07:42:20Z</time>
      </trkpt>
      <trkpt lat="44.78792" lon="-0.41545">
        <ele>39.7</ele>
        <time>2021-05-13T07:42:18Z</time>
      </trkpt>
      <trkpt lat="44.78779" lon="-0.41523">
        <ele>39.5</ele>
        <time>2021-05-13T07:42:14Z</time>
      </trkpt>
      <trkpt lat="44.78755" lon="-0.41479">
        <ele>39.3</ele>
        <time>2021-05-13T07:42:07Z</time>
      </trkpt>
      <trkpt lat="44.78732" lon="-0.41437">
        <ele>39.2</ele>
        <time>2021-05-13T07:42:01Z</time>
      </trkpt>
      <trkpt lat="44.78729" lon="-0.4143">
        <ele>39.2</ele>
        <time>2021-05-13T07:42:00Z</time>
      </trkpt>
      <trkpt lat="44.78699" lon="-0.41366">
        <ele>39.4</ele>
        <time>2021-05-13T07:41:52Z</time>
      </trkpt>
      <trkpt lat="44.78691" lon="-0.41309">
        <ele>39.7</ele>
        <time>2021-05-13T07:41:46Z</time>
      </trkpt>
      <trkpt lat="44.7869" lon="-0.413">
        <ele>39.8</ele>
        <time>2021-05-13T07:41:45Z</time>
      </trkpt>
      <trkpt lat="44.7868" lon="-0.41287">
        <ele>39.9</ele>
        <time>2021-05-13T07:41:43Z</time>
      </trkpt>
      <trkpt lat="44.78677" lon="-0.41278">
        <ele>39.9</ele>
        <time>2021-05-13T07:41:42Z</time>
      </trkpt>
      <trkpt lat="44.78676" lon="-0.41269">
        <ele>39.9</ele>
        <time>2021-05-13T07:41:41Z</time>
      </trkpt>
      <trkpt lat="44.78671" lon="-0.41253">
        <ele>40</ele>
        <time>2021-05-13T07:41:39Z</time>
      </trkpt>
      <trkpt lat="44.78668" lon="-0.41246">
        <ele>40</ele>
        <time>2021-05-13T07:41:38Z</time>
      </trkpt>
      <trkpt lat="44.78662" lon="-0.41231">
        <ele>40</ele>
        <time>2021-05-13T07:41:36Z</time>
      </trkpt>
      <trkpt lat="44.78653" lon="-0.41212">
        <ele>40.2</ele>
        <time>2021-05-13T07:41:33Z</time>
      </trkpt>
      <trkpt lat="44.78649" lon="-0.41205">
        <ele>40.2</ele>
        <time>2021-05-13T07:41:32Z</time>
      </trkpt>
      <trkpt lat="44.7864" lon="-0.41194">
        <ele>40.4</ele>
        <time>2021-05-13T07:41:30Z</time>
      </trkpt>
      <trkpt lat="44.78628" lon="-0.41183">
        <ele>40.5</ele>
        <time>2021-05-13T07:41:28Z</time>
      </trkpt>
      <trkpt lat="44.78623" lon="-0.41179">
        <ele>40.5</ele>
        <time>2021-05-13T07:41:27Z</time>
      </trkpt>
      <trkpt lat="44.78617" lon="-0.41173">
        <ele>40.5</ele>
        <time>2021-05-13T07:41:26Z</time>
      </trkpt>
      <trkpt lat="44.78604" lon="-0.41155">
        <ele>40.5</ele>
        <time>2021-05-13T07:41:23Z</time>
      </trkpt>
      <trkpt lat="44.78596" lon="-0.41142">
        <ele>40.5</ele>
        <time>2021-05-13T07:41:21Z</time>
      </trkpt>
      <trkpt lat="44.78585" lon="-0.41122">
        <ele>40.5</ele>
        <time>2021-05-13T07:41:18Z</time>
      </trkpt>
      <trkpt lat="44.78581" lon="-0.41116">
        <ele>40.5</ele>
        <time>2021-05-13T07:41:17Z</time>
      </trkpt>
      <trkpt lat="44.78558" lon="-0.4106">
        <ele>40.8</ele>
        <time>2021-05-13T07:41:10Z</time>
      </trkpt>
      <trkpt lat="44.78549" lon="-0.41034">
        <ele>40.9</ele>
        <time>2021-05-13T07:41:07Z</time>
      </trkpt>
      <trkpt lat="44.78535" lon="-0.40999">
        <ele>41</ele>
        <time>2021-05-13T07:41:03Z</time>
      </trkpt>
      <trkpt lat="44.78507" lon="-0.40943">
        <ele>41.2</ele>
        <time>2021-05-13T07:40:56Z</time>
      </trkpt>
      <trkpt lat="44.78489" lon="-0.40916">
        <ele>41.4</ele>
        <time>2021-05-13T07:40:52Z</time>
      </trkpt>
      <trkpt lat="44.78484" lon="-0.4091">
        <ele>41.4</ele>
        <time>2021-05-13T07:40:51Z</time>
      </trkpt>
      <trkpt lat="44.78473" lon="-0.40897">
        <ele>41.5</ele>
        <time>2021-05-13T07:40:49Z</time>
      </trkpt>
      <trkpt lat="44.78456" lon="-0.40881">
        <ele>41.7</ele>
        <time>2021-05-13T07:40:46Z</time>
      </trkpt>
      <trkpt lat="44.78429" lon="-0.40856">
        <ele>42.1</ele>
        <time>2021-05-13T07:40:41Z</time>
      </trkpt>
      <trkpt lat="44.78399" lon="-0.40828">
        <ele>42.5</ele>
        <time>2021-05-13T07:40:35Z</time>
      </trkpt>
      <trkpt lat="44.78389" lon="-0.4082">
        <ele>42.7</ele>
        <time>2021-05-13T07:40:33Z</time>
      </trkpt>
      <trkpt lat="44.78374" lon="-0.40808">
        <ele>42.9</ele>
        <time>2021-05-13T07:40:30Z</time>
      </trkpt>
      <trkpt lat="44.78345" lon="-0.40785">
        <ele>43.3</ele>
        <time>2021-05-13T07:40:24Z</time>
      </trkpt>
      <trkpt lat="44.78316" lon="-0.40764">
        <ele>43.7</ele>
        <time>2021-05-13T07:40:18Z</time>
      </trkpt>
      <trkpt lat="44.78289" lon="-0.40745">
        <ele>44.1</ele>
        <time>2021-05-13T07:40:12Z</time>
      </trkpt>
      <trkpt lat="44.7828" lon="-0.4074">
        <ele>44.3</ele>
        <time>2021-05-13T07:40:10Z</time>
      </trkpt>
      <trkpt lat="44.78272" lon="-0.40735">
        <ele>44.4</ele>
        <time>2021-05-13T07:40:08Z</time>
      </trkpt>
      <trkpt lat="44.78259" lon="-0.40727">
        <ele>44.7</ele>
        <time>2021-05-13T07:40:04Z</time>
      </trkpt>
      <trkpt lat="44.78244" lon="-0.40715">
        <ele>44.9</ele>
        <time>2021-05-13T07:39:59Z</time>
      </trkpt>
      <trkpt lat="44.78222" lon="-0.407">
        <ele>45.4</ele>
        <time>2021-05-13T07:39:53Z</time>
      </trkpt>
      <trkpt lat="44.78212" lon="-0.40692">
        <ele>45.6</ele>
        <time>2021-05-13T07:39:50Z</time>
      </trkpt>
      <trkpt lat="44.78201" lon="-0.40685">
        <ele>45.9</ele>
        <time>2021-05-13T07:39:47Z</time>
      </trkpt>
      <trkpt lat="44.78189" lon="-0.40673">
        <ele>46.4</ele>
        <time>2021-05-13T07:39:43Z</time>
      </trkpt>
      <trkpt lat="44.78178" lon="-0.40659">
        <ele>47</ele>
        <time>2021-05-13T07:39:38Z</time>
      </trkpt>
      <trkpt lat="44.78167" lon="-0.40644">
        <ele>47</ele>
        <time>2021-05-13T07:39:33Z</time>
      </trkpt>
      <trkpt lat="44.78166" lon="-0.40641">
        <ele>46.9</ele>
        <time>2021-05-13T07:39:32Z</time>
      </trkpt>
      <trkpt lat="44.78153" lon="-0.40626">
        <ele>46.8</ele>
        <time>2021-05-13T07:39:27Z</time>
      </trkpt>
      <trkpt lat="44.7814" lon="-0.40618">
        <ele>46.8</ele>
        <time>2021-05-13T07:39:21Z</time>
      </trkpt>
      <trkpt lat="44.78138" lon="-0.40616">
        <ele>46.8</ele>
        <time>2021-05-13T07:39:19Z</time>
      </trkpt>
      <trkpt lat="44.78134" lon="-0.40608">
        <ele>46.8</ele>
        <time>2021-05-13T07:36:57Z</time>
      </trkpt>
      <trkpt lat="44.7813" lon="-0.40603">
        <ele>46.8</ele>
        <time>2021-05-13T07:36:55Z</time>
      </trkpt>
      <trkpt lat="44.78119" lon="-0.40581">
        <ele>46.8</ele>
        <time>2021-05-13T07:36:48Z</time>
      </trkpt>
      <trkpt lat="44.78108" lon="-0.40557">
        <ele>46.8</ele>
        <time>2021-05-13T07:36:43Z</time>
      </trkpt>
      <trkpt lat="44.78088" lon="-0.40531">
        <ele>46.8</ele>
        <time>2021-05-13T07:36:38Z</time>
      </trkpt>
      <trkpt lat="44.78084" lon="-0.40526">
        <ele>46.8</ele>
        <time>2021-05-13T07:36:37Z</time>
      </trkpt>
      <trkpt lat="44.78076" lon="-0.40515">
        <ele>46.8</ele>
        <time>2021-05-13T07:36:35Z</time>
      </trkpt>
      <trkpt lat="44.78055" lon="-0.40491">
        <ele>46.8</ele>
        <time>2021-05-13T07:36:30Z</time>
      </trkpt>
      <trkpt lat="44.78026" lon="-0.40454">
        <ele>46.8</ele>
        <time>2021-05-13T07:36:23Z</time>
      </trkpt>
      <trkpt lat="44.78012" lon="-0.40432">
        <ele>47.1</ele>
        <time>2021-05-13T07:36:19Z</time>
      </trkpt>
      <trkpt lat="44.78002" lon="-0.40417">
        <ele>47.1</ele>
        <time>2021-05-13T07:36:16Z</time>
      </trkpt>
      <trkpt lat="44.77985" lon="-0.40387">
        <ele>47.2</ele>
        <time>2021-05-13T07:36:10Z</time>
      </trkpt>
      <trkpt lat="44.77968" lon="-0.40358">
        <ele>47.2</ele>
        <time>2021-05-13T07:36:04Z</time>
      </trkpt>
      <trkpt lat="44.77942" lon="-0.4032">
        <ele>47.3</ele>
        <time>2021-05-13T07:35:57Z</time>
      </trkpt>
      <trkpt lat="44.77938" lon="-0.40315">
        <ele>47.3</ele>
        <time>2021-05-13T07:35:56Z</time>
      </trkpt>
      <trkpt lat="44.77911" lon="-0.40272">
        <ele>47.4</ele>
        <time>2021-05-13T07:35:49Z</time>
      </trkpt>
      <trkpt lat="44.77877" lon="-0.40228">
        <ele>47.7</ele>
        <time>2021-05-13T07:35:41Z</time>
      </trkpt>
      <trkpt lat="44.77844" lon="-0.40182">
        <ele>48.1</ele>
        <time>2021-05-13T07:35:33Z</time>
      </trkpt>
      <trkpt lat="44.77822" lon="-0.40151">
        <ele>48.3</ele>
        <time>2021-05-13T07:35:27Z</time>
      </trkpt>
      <trkpt lat="44.77793" lon="-0.40104">
        <ele>48.7</ele>
        <time>2021-05-13T07:35:19Z</time>
      </trkpt>
      <trkpt lat="44.77768" lon="-0.40072">
        <ele>49.1</ele>
        <time>2021-05-13T07:35:13Z</time>
      </trkpt>
      <trkpt lat="44.77741" lon="-0.40031">
        <ele>49.5</ele>
        <time>2021-05-13T07:35:06Z</time>
      </trkpt>
      <trkpt lat="44.77734" lon="-0.40018">
        <ele>49.6</ele>
        <time>2021-05-13T07:35:04Z</time>
      </trkpt>
      <trkpt lat="44.7772" lon="-0.40003">
        <ele>49.9</ele>
        <time>2021-05-13T07:35:01Z</time>
      </trkpt>
      <trkpt lat="44.7771" lon="-0.39994">
        <ele>50</ele>
        <time>2021-05-13T07:34:59Z</time>
      </trkpt>
      <trkpt lat="44.77698" lon="-0.39978">
        <ele>50.3</ele>
        <time>2021-05-13T07:34:56Z</time>
      </trkpt>
      <trkpt lat="44.7769" lon="-0.39968">
        <ele>50.4</ele>
        <time>2021-05-13T07:34:54Z</time>
      </trkpt>
      <trkpt lat="44.77677" lon="-0.39946">
        <ele>50.7</ele>
        <time>2021-05-13T07:34:50Z</time>
      </trkpt>
      <trkpt lat="44.77673" lon="-0.39941">
        <ele>50.8</ele>
        <time>2021-05-13T07:34:49Z</time>
      </trkpt>
      <trkpt lat="44.77664" lon="-0.39931">
        <ele>50.9</ele>
        <time>2021-05-13T07:34:47Z</time>
      </trkpt>
      <trkpt lat="44.77659" lon="-0.39927">
        <ele>51</ele>
        <time>2021-05-13T07:34:46Z</time>
      </trkpt>
      <trkpt lat="44.77655" lon="-0.39921">
        <ele>51</ele>
        <time>2021-05-13T07:34:45Z</time>
      </trkpt>
      <trkpt lat="44.77638" lon="-0.39895">
        <ele>51.4</ele>
        <time>2021-05-13T07:34:40Z</time>
      </trkpt>
      <trkpt lat="44.77631" lon="-0.39884">
        <ele>51.5</ele>
        <time>2021-05-13T07:34:38Z</time>
      </trkpt>
      <trkpt lat="44.7762" lon="-0.39868">
        <ele>51.7</ele>
        <time>2021-05-13T07:34:35Z</time>
      </trkpt>
      <trkpt lat="44.77606" lon="-0.39844">
        <ele>51.9</ele>
        <time>2021-05-13T07:34:31Z</time>
      </trkpt>
      <trkpt lat="44.77602" lon="-0.39838">
        <ele>52</ele>
        <time>2021-05-13T07:34:30Z</time>
      </trkpt>
      <trkpt lat="44.77594" lon="-0.39825">
        <ele>52.1</ele>
        <time>2021-05-13T07:34:28Z</time>
      </trkpt>
      <trkpt lat="44.77586" lon="-0.39806">
        <ele>52.2</ele>
        <time>2021-05-13T07:34:25Z</time>
      </trkpt>
      <trkpt lat="44.77582" lon="-0.39799">
        <ele>52.3</ele>
        <time>2021-05-13T07:34:24Z</time>
      </trkpt>
      <trkpt lat="44.77573" lon="-0.39771">
        <ele>52.5</ele>
        <time>2021-05-13T07:34:20Z</time>
      </trkpt>
      <trkpt lat="44.77568" lon="-0.39756">
        <ele>52.6</ele>
        <time>2021-05-13T07:34:18Z</time>
      </trkpt>
      <trkpt lat="44.77561" lon="-0.39734">
        <ele>52.8</ele>
        <time>2021-05-13T07:34:15Z</time>
      </trkpt>
      <trkpt lat="44.77559" lon="-0.39726">
        <ele>52.9</ele>
        <time>2021-05-13T07:34:14Z</time>
      </trkpt>
      <trkpt lat="44.77555" lon="-0.39711">
        <ele>53</ele>
        <time>2021-05-13T07:34:12Z</time>
      </trkpt>
      <trkpt lat="44.77548" lon="-0.39698">
        <ele>53.2</ele>
        <time>2021-05-13T07:34:10Z</time>
      </trkpt>
      <trkpt lat="44.7754" lon="-0.39677">
        <ele>53.4</ele>
        <time>2021-05-13T07:34:07Z</time>
      </trkpt>
      <trkpt lat="44.77537" lon="-0.39662">
        <ele>53.5</ele>
        <time>2021-05-13T07:34:05Z</time>
      </trkpt>
      <trkpt lat="44.77524" lon="-0.39603">
        <ele>53.5</ele>
        <time>2021-05-13T07:33:57Z</time>
      </trkpt>
      <trkpt lat="44.77519" lon="-0.39589">
        <ele>53.6</ele>
        <time>2021-05-13T07:33:55Z</time>
      </trkpt>
      <trkpt lat="44.77511" lon="-0.3956">
        <ele>53.6</ele>
        <time>2021-05-13T07:33:51Z</time>
      </trkpt>
      <trkpt lat="44.77502" lon="-0.39514">
        <ele>53.7</ele>
        <time>2021-05-13T07:33:45Z</time>
      </trkpt>
      <trkpt lat="44.77501" lon="-0.39498">
        <ele>53.7</ele>
        <time>2021-05-13T07:33:43Z</time>
      </trkpt>
      <trkpt lat="44.77497" lon="-0.39474">
        <ele>53.9</ele>
        <time>2021-05-13T07:33:40Z</time>
      </trkpt>
      <trkpt lat="44.77496" lon="-0.39465">
        <ele>53.9</ele>
        <time>2021-05-13T07:33:39Z</time>
      </trkpt>
      <trkpt lat="44.77489" lon="-0.39424">
        <ele>54.1</ele>
        <time>2021-05-13T07:33:34Z</time>
      </trkpt>
      <trkpt lat="44.77488" lon="-0.39415">
        <ele>54.2</ele>
        <time>2021-05-13T07:33:33Z</time>
      </trkpt>
      <trkpt lat="44.77485" lon="-0.39398">
        <ele>54.3</ele>
        <time>2021-05-13T07:33:31Z</time>
      </trkpt>
      <trkpt lat="44.77481" lon="-0.39383">
        <ele>54.4</ele>
        <time>2021-05-13T07:33:29Z</time>
      </trkpt>
      <trkpt lat="44.77477" lon="-0.39368">
        <ele>54.4</ele>
        <time>2021-05-13T07:33:27Z</time>
      </trkpt>
      <trkpt lat="44.7747" lon="-0.39344">
        <ele>54.6</ele>
        <time>2021-05-13T07:33:24Z</time>
      </trkpt>
      <trkpt lat="44.77469" lon="-0.39337">
        <ele>54.6</ele>
        <time>2021-05-13T07:33:23Z</time>
      </trkpt>
      <trkpt lat="44.77466" lon="-0.39321">
        <ele>54.7</ele>
        <time>2021-05-13T07:33:21Z</time>
      </trkpt>
      <trkpt lat="44.77463" lon="-0.39314">
        <ele>54.8</ele>
        <time>2021-05-13T07:33:20Z</time>
      </trkpt>
      <trkpt lat="44.77461" lon="-0.39306">
        <ele>54.8</ele>
        <time>2021-05-13T07:33:19Z</time>
      </trkpt>
      <trkpt lat="44.77457" lon="-0.39289">
        <ele>55</ele>
        <time>2021-05-13T07:33:17Z</time>
      </trkpt>
      <trkpt lat="44.7745" lon="-0.3925">
        <ele>55.2</ele>
        <time>2021-05-13T07:33:12Z</time>
      </trkpt>
      <trkpt lat="44.77445" lon="-0.3922">
        <ele>55.4</ele>
        <time>2021-05-13T07:33:08Z</time>
      </trkpt>
      <trkpt lat="44.77435" lon="-0.39171">
        <ele>55.8</ele>
        <time>2021-05-13T07:33:02Z</time>
      </trkpt>
      <trkpt lat="44.77422" lon="-0.39104">
        <ele>56.6</ele>
        <time>2021-05-13T07:32:54Z</time>
      </trkpt>
      <trkpt lat="44.77411" lon="-0.39055">
        <ele>57.1</ele>
        <time>2021-05-13T07:32:48Z</time>
      </trkpt>
      <trkpt lat="44.77409" lon="-0.39038">
        <ele>57.3</ele>
        <time>2021-05-13T07:32:46Z</time>
      </trkpt>
      <trkpt lat="44.77402" lon="-0.39006">
        <ele>57.5</ele>
        <time>2021-05-13T07:32:42Z</time>
      </trkpt>
      <trkpt lat="44.77389" lon="-0.38945">
        <ele>57.9</ele>
        <time>2021-05-13T07:32:35Z</time>
      </trkpt>
      <trkpt lat="44.77385" lon="-0.38927">
        <ele>58.1</ele>
        <time>2021-05-13T07:32:33Z</time>
      </trkpt>
      <trkpt lat="44.77383" lon="-0.38919">
        <ele>58.2</ele>
        <time>2021-05-13T07:32:32Z</time>
      </trkpt>
      <trkpt lat="44.77378" lon="-0.38894">
        <ele>58.4</ele>
        <time>2021-05-13T07:32:29Z</time>
      </trkpt>
      <trkpt lat="44.77375" lon="-0.38878">
        <ele>58.5</ele>
        <time>2021-05-13T07:32:27Z</time>
      </trkpt>
      <trkpt lat="44.77367" lon="-0.38839">
        <ele>58.8</ele>
        <time>2021-05-13T07:32:22Z</time>
      </trkpt>
      <trkpt lat="44.77365" lon="-0.38831">
        <ele>58.9</ele>
        <time>2021-05-13T07:32:21Z</time>
      </trkpt>
      <trkpt lat="44.77357" lon="-0.38801">
        <ele>59.2</ele>
        <time>2021-05-13T07:32:17Z</time>
      </trkpt>
      <trkpt lat="44.77352" lon="-0.38778">
        <ele>59.4</ele>
        <time>2021-05-13T07:32:14Z</time>
      </trkpt>
      <trkpt lat="44.77351" lon="-0.38769">
        <ele>59.5</ele>
        <time>2021-05-13T07:32:13Z</time>
      </trkpt>
      <trkpt lat="44.77351" lon="-0.3876">
        <ele>59.6</ele>
        <time>2021-05-13T07:32:12Z</time>
      </trkpt>
      <trkpt lat="44.77348" lon="-0.38743">
        <ele>59.7</ele>
        <time>2021-05-13T07:32:10Z</time>
      </trkpt>
      <trkpt lat="44.77346" lon="-0.38735">
        <ele>59.8</ele>
        <time>2021-05-13T07:32:09Z</time>
      </trkpt>
      <trkpt lat="44.77338" lon="-0.38693">
        <ele>60.2</ele>
        <time>2021-05-13T07:32:04Z</time>
      </trkpt>
      <trkpt lat="44.77331" lon="-0.38635">
        <ele>60.7</ele>
        <time>2021-05-13T07:31:57Z</time>
      </trkpt>
      <trkpt lat="44.7733" lon="-0.38566">
        <ele>61.3</ele>
        <time>2021-05-13T07:31:49Z</time>
      </trkpt>
      <trkpt lat="44.77334" lon="-0.38521">
        <ele>61.7</ele>
        <time>2021-05-13T07:31:44Z</time>
      </trkpt>
      <trkpt lat="44.77335" lon="-0.38512">
        <ele>61.8</ele>
        <time>2021-05-13T07:31:43Z</time>
      </trkpt>
      <trkpt lat="44.77345" lon="-0.3845">
        <ele>62.4</ele>
        <time>2021-05-13T07:31:36Z</time>
      </trkpt>
      <trkpt lat="44.77348" lon="-0.384">
        <ele>62.6</ele>
        <time>2021-05-13T07:31:30Z</time>
      </trkpt>
      <trkpt lat="44.77345" lon="-0.38336">
        <ele>62.9</ele>
        <time>2021-05-13T07:31:22Z</time>
      </trkpt>
      <trkpt lat="44.77345" lon="-0.38263">
        <ele>63.4</ele>
        <time>2021-05-13T07:31:14Z</time>
      </trkpt>
      <trkpt lat="44.77345" lon="-0.38242">
        <ele>63.6</ele>
        <time>2021-05-13T07:31:12Z</time>
      </trkpt>
      <trkpt lat="44.77339" lon="-0.38207">
        <ele>64</ele>
        <time>2021-05-13T07:31:08Z</time>
      </trkpt>
      <trkpt lat="44.77337" lon="-0.38167">
        <ele>64.5</ele>
        <time>2021-05-13T07:31:03Z</time>
      </trkpt>
      <trkpt lat="44.77333" lon="-0.38143">
        <ele>64.8</ele>
        <time>2021-05-13T07:31:00Z</time>
      </trkpt>
      <trkpt lat="44.7733" lon="-0.3813">
        <ele>64.9</ele>
        <time>2021-05-13T07:30:58Z</time>
      </trkpt>
      <trkpt lat="44.77329" lon="-0.38112">
        <ele>65</ele>
        <time>2021-05-13T07:30:55Z</time>
      </trkpt>
      <trkpt lat="44.77327" lon="-0.38105">
        <ele>65.1</ele>
        <time>2021-05-13T07:30:54Z</time>
      </trkpt>
      <trkpt lat="44.77326" lon="-0.3809">
        <ele>65.2</ele>
        <time>2021-05-13T07:30:52Z</time>
      </trkpt>
      <trkpt lat="44.77325" lon="-0.38075">
        <ele>65.3</ele>
        <time>2021-05-13T07:30:50Z</time>
      </trkpt>
      <trkpt lat="44.77324" lon="-0.3806">
        <ele>65.4</ele>
        <time>2021-05-13T07:30:48Z</time>
      </trkpt>
      <trkpt lat="44.77321" lon="-0.38038">
        <ele>65.6</ele>
        <time>2021-05-13T07:30:45Z</time>
      </trkpt>
      <trkpt lat="44.77319" lon="-0.38024">
        <ele>65.8</ele>
        <time>2021-05-13T07:30:43Z</time>
      </trkpt>
      <trkpt lat="44.77318" lon="-0.38008">
        <ele>65.9</ele>
        <time>2021-05-13T07:30:41Z</time>
      </trkpt>
      <trkpt lat="44.77315" lon="-0.37993">
        <ele>66.1</ele>
        <time>2021-05-13T07:30:39Z</time>
      </trkpt>
      <trkpt lat="44.77312" lon="-0.37977">
        <ele>66.2</ele>
        <time>2021-05-13T07:30:37Z</time>
      </trkpt>
      <trkpt lat="44.77309" lon="-0.37961">
        <ele>66.3</ele>
        <time>2021-05-13T07:30:35Z</time>
      </trkpt>
      <trkpt lat="44.77309" lon="-0.37935">
        <ele>66.6</ele>
        <time>2021-05-13T07:30:32Z</time>
      </trkpt>
      <trkpt lat="44.77308" lon="-0.37918">
        <ele>66.8</ele>
        <time>2021-05-13T07:30:30Z</time>
      </trkpt>
      <trkpt lat="44.77304" lon="-0.37901">
        <ele>67</ele>
        <time>2021-05-13T07:30:28Z</time>
      </trkpt>
      <trkpt lat="44.77299" lon="-0.37884">
        <ele>67.3</ele>
        <time>2021-05-13T07:30:26Z</time>
      </trkpt>
      <trkpt lat="44.77297" lon="-0.37855">
        <ele>67.7</ele>
        <time>2021-05-13T07:30:23Z</time>
      </trkpt>
      <trkpt lat="44.77297" lon="-0.37846">
        <ele>67.8</ele>
        <time>2021-05-13T07:30:22Z</time>
      </trkpt>
      <trkpt lat="44.77294" lon="-0.37829">
        <ele>68</ele>
        <time>2021-05-13T07:30:20Z</time>
      </trkpt>
      <trkpt lat="44.77293" lon="-0.37812">
        <ele>68.1</ele>
        <time>2021-05-13T07:30:18Z</time>
      </trkpt>
      <trkpt lat="44.77293" lon="-0.37804">
        <ele>68.2</ele>
        <time>2021-05-13T07:30:17Z</time>
      </trkpt>
      <trkpt lat="44.77291" lon="-0.37796">
        <ele>68.3</ele>
        <time>2021-05-13T07:30:16Z</time>
      </trkpt>
      <trkpt lat="44.77291" lon="-0.37779">
        <ele>68.4</ele>
        <time>2021-05-13T07:30:14Z</time>
      </trkpt>
      <trkpt lat="44.77292" lon="-0.3777">
        <ele>68.5</ele>
        <time>2021-05-13T07:30:13Z</time>
      </trkpt>
      <trkpt lat="44.77294" lon="-0.37754">
        <ele>68.6</ele>
        <time>2021-05-13T07:30:11Z</time>
      </trkpt>
      <trkpt lat="44.77296" lon="-0.37738">
        <ele>68.7</ele>
        <time>2021-05-13T07:30:09Z</time>
      </trkpt>
      <trkpt lat="44.77296" lon="-0.37729">
        <ele>68.7</ele>
        <time>2021-05-13T07:30:08Z</time>
      </trkpt>
      <trkpt lat="44.77302" lon="-0.37685">
        <ele>69.1</ele>
        <time>2021-05-13T07:30:03Z</time>
      </trkpt>
      <trkpt lat="44.77315" lon="-0.37646">
        <ele>69.4</ele>
        <time>2021-05-13T07:29:58Z</time>
      </trkpt>
      <trkpt lat="44.77322" lon="-0.37623">
        <ele>69.5</ele>
        <time>2021-05-13T07:29:55Z</time>
      </trkpt>
      <trkpt lat="44.77329" lon="-0.37601">
        <ele>69.7</ele>
        <time>2021-05-13T07:29:52Z</time>
      </trkpt>
      <trkpt lat="44.77339" lon="-0.3758">
        <ele>70</ele>
        <time>2021-05-13T07:29:49Z</time>
      </trkpt>
      <trkpt lat="44.77342" lon="-0.37573">
        <ele>70.2</ele>
        <time>2021-05-13T07:29:48Z</time>
      </trkpt>
      <trkpt lat="44.77351" lon="-0.37539">
        <ele>70.6</ele>
        <time>2021-05-13T07:29:43Z</time>
      </trkpt>
      <trkpt lat="44.77353" lon="-0.37532">
        <ele>70.6</ele>
        <time>2021-05-13T07:29:42Z</time>
      </trkpt>
      <trkpt lat="44.77361" lon="-0.37513">
        <ele>70.9</ele>
        <time>2021-05-13T07:29:39Z</time>
      </trkpt>
      <trkpt lat="44.77366" lon="-0.375">
        <ele>71</ele>
        <time>2021-05-13T07:29:37Z</time>
      </trkpt>
      <trkpt lat="44.77368" lon="-0.37493">
        <ele>71.1</ele>
        <time>2021-05-13T07:29:36Z</time>
      </trkpt>
      <trkpt lat="44.77385" lon="-0.37458">
        <ele>71.5</ele>
        <time>2021-05-13T07:29:31Z</time>
      </trkpt>
      <trkpt lat="44.774" lon="-0.37423">
        <ele>71.9</ele>
        <time>2021-05-13T07:29:26Z</time>
      </trkpt>
      <trkpt lat="44.77409" lon="-0.37404">
        <ele>72.1</ele>
        <time>2021-05-13T07:29:23Z</time>
      </trkpt>
      <trkpt lat="44.77413" lon="-0.37391">
        <ele>72.3</ele>
        <time>2021-05-13T07:29:21Z</time>
      </trkpt>
      <trkpt lat="44.77417" lon="-0.37377">
        <ele>72.4</ele>
        <time>2021-05-13T07:29:19Z</time>
      </trkpt>
      <trkpt lat="44.77424" lon="-0.37362">
        <ele>72.5</ele>
        <time>2021-05-13T07:29:17Z</time>
      </trkpt>
      <trkpt lat="44.77427" lon="-0.37355">
        <ele>72.6</ele>
        <time>2021-05-13T07:29:16Z</time>
      </trkpt>
      <trkpt lat="44.77439" lon="-0.37326">
        <ele>73</ele>
        <time>2021-05-13T07:29:12Z</time>
      </trkpt>
      <trkpt lat="44.77457" lon="-0.37278">
        <ele>73.6</ele>
        <time>2021-05-13T07:29:06Z</time>
      </trkpt>
      <trkpt lat="44.77476" lon="-0.3723">
        <ele>74.2</ele>
        <time>2021-05-13T07:29:00Z</time>
      </trkpt>
      <trkpt lat="44.77487" lon="-0.37205">
        <ele>74.5</ele>
        <time>2021-05-13T07:28:57Z</time>
      </trkpt>
      <trkpt lat="44.77491" lon="-0.37196">
        <ele>74.7</ele>
        <time>2021-05-13T07:28:56Z</time>
      </trkpt>
      <trkpt lat="44.77506" lon="-0.37156">
        <ele>75.5</ele>
        <time>2021-05-13T07:28:51Z</time>
      </trkpt>
      <trkpt lat="44.77512" lon="-0.37134">
        <ele>75.8</ele>
        <time>2021-05-13T07:28:48Z</time>
      </trkpt>
      <trkpt lat="44.77514" lon="-0.37127">
        <ele>75.9</ele>
        <time>2021-05-13T07:28:47Z</time>
      </trkpt>
      <trkpt lat="44.77523" lon="-0.37105">
        <ele>76.1</ele>
        <time>2021-05-13T07:28:44Z</time>
      </trkpt>
      <trkpt lat="44.77528" lon="-0.37089">
        <ele>76.3</ele>
        <time>2021-05-13T07:28:42Z</time>
      </trkpt>
      <trkpt lat="44.7753" lon="-0.37082">
        <ele>76.4</ele>
        <time>2021-05-13T07:28:41Z</time>
      </trkpt>
      <trkpt lat="44.77544" lon="-0.37047">
        <ele>77</ele>
        <time>2021-05-13T07:28:36Z</time>
      </trkpt>
      <trkpt lat="44.77557" lon="-0.37018">
        <ele>77.3</ele>
        <time>2021-05-13T07:28:32Z</time>
      </trkpt>
      <trkpt lat="44.77565" lon="-0.37004">
        <ele>77.5</ele>
        <time>2021-05-13T07:28:30Z</time>
      </trkpt>
      <trkpt lat="44.77575" lon="-0.36981">
        <ele>77.8</ele>
        <time>2021-05-13T07:28:27Z</time>
      </trkpt>
      <trkpt lat="44.77591" lon="-0.36941">
        <ele>78.3</ele>
        <time>2021-05-13T07:28:22Z</time>
      </trkpt>
      <trkpt lat="44.77608" lon="-0.36893">
        <ele>78.9</ele>
        <time>2021-05-13T07:28:16Z</time>
      </trkpt>
      <trkpt lat="44.77623" lon="-0.36835">
        <ele>79.7</ele>
        <time>2021-05-13T07:28:09Z</time>
      </trkpt>
      <trkpt lat="44.77633" lon="-0.36784">
        <ele>80.2</ele>
        <time>2021-05-13T07:28:03Z</time>
      </trkpt>
      <trkpt lat="44.77642" lon="-0.3672">
        <ele>81.1</ele>
        <time>2021-05-13T07:27:56Z</time>
      </trkpt>
      <trkpt lat="44.77647" lon="-0.36668">
        <ele>81.8</ele>
        <time>2021-05-13T07:27:50Z</time>
      </trkpt>
      <trkpt lat="44.77647" lon="-0.36659">
        <ele>81.9</ele>
        <time>2021-05-13T07:27:49Z</time>
      </trkpt>
      <trkpt lat="44.77651" lon="-0.36633">
        <ele>82.3</ele>
        <time>2021-05-13T07:27:46Z</time>
      </trkpt>
      <trkpt lat="44.7766" lon="-0.3657">
        <ele>82.9</ele>
        <time>2021-05-13T07:27:39Z</time>
      </trkpt>
      <trkpt lat="44.77665" lon="-0.36519">
        <ele>83.5</ele>
        <time>2021-05-13T07:27:33Z</time>
      </trkpt>
      <trkpt lat="44.77668" lon="-0.36488">
        <ele>83.7</ele>
        <time>2021-05-13T07:27:29Z</time>
      </trkpt>
      <trkpt lat="44.77669" lon="-0.3648">
        <ele>83.8</ele>
        <time>2021-05-13T07:27:28Z</time>
      </trkpt>
      <trkpt lat="44.77675" lon="-0.3642">
        <ele>84.4</ele>
        <time>2021-05-13T07:27:21Z</time>
      </trkpt>
      <trkpt lat="44.7768" lon="-0.36368">
        <ele>85</ele>
        <time>2021-05-13T07:27:15Z</time>
      </trkpt>
      <trkpt lat="44.77686" lon="-0.36306">
        <ele>85.6</ele>
        <time>2021-05-13T07:27:08Z</time>
      </trkpt>
      <trkpt lat="44.77693" lon="-0.36253">
        <ele>86.2</ele>
        <time>2021-05-13T07:27:02Z</time>
      </trkpt>
      <trkpt lat="44.77694" lon="-0.36245">
        <ele>86.3</ele>
        <time>2021-05-13T07:27:01Z</time>
      </trkpt>
      <trkpt lat="44.77699" lon="-0.36211">
        <ele>86.8</ele>
        <time>2021-05-13T07:26:57Z</time>
      </trkpt>
      <trkpt lat="44.77706" lon="-0.36139">
        <ele>87.6</ele>
        <time>2021-05-13T07:26:49Z</time>
      </trkpt>
      <trkpt lat="44.77706" lon="-0.36098">
        <ele>88.1</ele>
        <time>2021-05-13T07:26:44Z</time>
      </trkpt>
      <trkpt lat="44.77705" lon="-0.36083">
        <ele>88.3</ele>
        <time>2021-05-13T07:26:42Z</time>
      </trkpt>
      <trkpt lat="44.77703" lon="-0.36058">
        <ele>88.6</ele>
        <time>2021-05-13T07:26:39Z</time>
      </trkpt>
      <trkpt lat="44.77702" lon="-0.3605">
        <ele>88.6</ele>
        <time>2021-05-13T07:26:38Z</time>
      </trkpt>
      <trkpt lat="44.777" lon="-0.36033">
        <ele>88.8</ele>
        <time>2021-05-13T07:26:36Z</time>
      </trkpt>
      <trkpt lat="44.77698" lon="-0.36017">
        <ele>89</ele>
        <time>2021-05-13T07:26:34Z</time>
      </trkpt>
      <trkpt lat="44.7768" lon="-0.35937">
        <ele>90.1</ele>
        <time>2021-05-13T07:26:24Z</time>
      </trkpt>
      <trkpt lat="44.77666" lon="-0.35873">
        <ele>90.9</ele>
        <time>2021-05-13T07:26:16Z</time>
      </trkpt>
      <trkpt lat="44.77649" lon="-0.35798">
        <ele>91.6</ele>
        <time>2021-05-13T07:26:06Z</time>
      </trkpt>
      <trkpt lat="44.77647" lon="-0.35791">
        <ele>91.7</ele>
        <time>2021-05-13T07:26:05Z</time>
      </trkpt>
      <trkpt lat="44.77628" lon="-0.35713">
        <ele>92.6</ele>
        <time>2021-05-13T07:25:55Z</time>
      </trkpt>
      <trkpt lat="44.77617" lon="-0.3565">
        <ele>93.3</ele>
        <time>2021-05-13T07:25:47Z</time>
      </trkpt>
      <trkpt lat="44.77613" lon="-0.35595">
        <ele>93.8</ele>
        <time>2021-05-13T07:25:40Z</time>
      </trkpt>
      <trkpt lat="44.77615" lon="-0.35549">
        <ele>94.2</ele>
        <time>2021-05-13T07:25:34Z</time>
      </trkpt>
      <trkpt lat="44.77616" lon="-0.35542">
        <ele>94.3</ele>
        <time>2021-05-13T07:25:33Z</time>
      </trkpt>
      <trkpt lat="44.77615" lon="-0.35512">
        <ele>94.6</ele>
        <time>2021-05-13T07:25:29Z</time>
      </trkpt>
      <trkpt lat="44.7761" lon="-0.3546">
        <ele>95.2</ele>
        <time>2021-05-13T07:25:22Z</time>
      </trkpt>
      <trkpt lat="44.77609" lon="-0.35414">
        <ele>95.7</ele>
        <time>2021-05-13T07:25:16Z</time>
      </trkpt>
      <trkpt lat="44.77609" lon="-0.35369">
        <ele>96.1</ele>
        <time>2021-05-13T07:25:10Z</time>
      </trkpt>
      <trkpt lat="44.7761" lon="-0.35362">
        <ele>96.2</ele>
        <time>2021-05-13T07:25:09Z</time>
      </trkpt>
      <trkpt lat="44.77609" lon="-0.35334">
        <ele>96.5</ele>
        <time>2021-05-13T07:25:05Z</time>
      </trkpt>
      <trkpt lat="44.77607" lon="-0.35259">
        <ele>97.3</ele>
        <time>2021-05-13T07:24:55Z</time>
      </trkpt>
      <trkpt lat="44.77606" lon="-0.35202">
        <ele>98</ele>
        <time>2021-05-13T07:24:47Z</time>
      </trkpt>
      <trkpt lat="44.77605" lon="-0.35176">
        <ele>98.4</ele>
        <time>2021-05-13T07:24:43Z</time>
      </trkpt>
      <trkpt lat="44.77605" lon="-0.35158">
        <ele>98.7</ele>
        <time>2021-05-13T07:24:40Z</time>
      </trkpt>
      <trkpt lat="44.77607" lon="-0.35138">
        <ele>99.2</ele>
        <time>2021-05-13T07:24:36Z</time>
      </trkpt>
      <trkpt lat="44.77607" lon="-0.35118">
        <ele>99.4</ele>
      </trkpt>
      <trkpt lat="44.77583" lon="-0.35075">
        <ele>99</ele>
      </trkpt>
      <trkpt lat="44.77564" lon="-0.35054">
        <ele>98.3</ele>
      </trkpt>
      <trkpt lat="44.77543" lon="-0.35112">
        <ele>96.4</ele>
      </trkpt>
      <trkpt lat="44.77479" lon="-0.35166">
        <ele>98.8</ele>
      </trkpt>
      <trkpt lat="44.77408" lon="-0.35217">
        <ele>101.3</ele>
      </trkpt>
      <trkpt lat="44.77392" lon="-0.35227">
        <ele>101.9</ele>
      </trkpt>
      <trkpt lat="44.77404" lon="-0.35259">
        <ele>101.8</ele>
      </trkpt>
    </trkseg>
  </trk>
</gpx>